<?xml version="1.0" encoding="UTF-8" standalone="no" ?>
<gpx xmlns="http://www.topografix.com/GPX/1/1" creator="calimoto gpx export (https://calimoto.com)" version="1.1">
  <metadata>
    <name>AliyarDam-Iyerpaddi</name>
    <author>
      <name>anonym</name>
    </author>
    <link href="https://calimoto.com">
      <text>calimoto</text>
      <type>text/html</type>
    </link>
    <time>2026-01-20T02:46:50Z</time>
  </metadata>
  <trk>
    <name>AliyarDam-Iyerpaddi</name>
    <trkseg>
      <trkpt lon="76.952931" lat="10.475061">
        <ele>243.0</ele>
        <time>2026-01-20T02:46:50Z</time>
      </trkpt>
      <trkpt lon="76.952963" lat="10.474964">
        <ele>243.0</ele>
        <time>2026-01-20T02:46:52Z</time>
      </trkpt>
      <trkpt lon="76.952984" lat="10.474802">
        <ele>243.0</ele>
        <time>2026-01-20T02:46:54Z</time>
      </trkpt>
      <trkpt lon="76.952999" lat="10.474622">
        <ele>243.0</ele>
        <time>2026-01-20T02:46:56Z</time>
      </trkpt>
      <trkpt lon="76.953018" lat="10.474443">
        <ele>243.0</ele>
        <time>2026-01-20T02:46:58Z</time>
      </trkpt>
      <trkpt lon="76.953032" lat="10.474336">
        <ele>243.0</ele>
        <time>2026-01-20T02:46:59Z</time>
      </trkpt>
      <trkpt lon="76.953045" lat="10.474231">
        <ele>243.0</ele>
        <time>2026-01-20T02:47:00Z</time>
      </trkpt>
      <trkpt lon="76.95306" lat="10.474125">
        <ele>243.0</ele>
        <time>2026-01-20T02:47:01Z</time>
      </trkpt>
      <trkpt lon="76.953073" lat="10.47401">
        <ele>243.0</ele>
        <time>2026-01-20T02:47:02Z</time>
      </trkpt>
      <trkpt lon="76.953086" lat="10.473901">
        <ele>243.0</ele>
        <time>2026-01-20T02:47:03Z</time>
      </trkpt>
      <trkpt lon="76.953115" lat="10.473792">
        <ele>243.0</ele>
        <time>2026-01-20T02:47:04Z</time>
      </trkpt>
      <trkpt lon="76.953175" lat="10.473695">
        <ele>243.0</ele>
        <time>2026-01-20T02:47:05Z</time>
      </trkpt>
      <trkpt lon="76.953231" lat="10.4736">
        <ele>243.0</ele>
        <time>2026-01-20T02:47:06Z</time>
      </trkpt>
      <trkpt lon="76.953294" lat="10.473508">
        <ele>243.0</ele>
        <time>2026-01-20T02:47:07Z</time>
      </trkpt>
      <trkpt lon="76.953379" lat="10.473422">
        <ele>243.0</ele>
        <time>2026-01-20T02:47:08Z</time>
      </trkpt>
      <trkpt lon="76.953499" lat="10.47333">
        <ele>243.0</ele>
        <time>2026-01-20T02:47:10Z</time>
      </trkpt>
      <trkpt lon="76.953604" lat="10.473255">
        <ele>243.0</ele>
        <time>2026-01-20T02:47:12Z</time>
      </trkpt>
      <trkpt lon="76.953716" lat="10.473205">
        <ele>243.0</ele>
        <time>2026-01-20T02:47:14Z</time>
      </trkpt>
      <trkpt lon="76.953805" lat="10.473152">
        <ele>243.0</ele>
        <time>2026-01-20T02:47:16Z</time>
      </trkpt>
      <trkpt lon="76.953932" lat="10.473079">
        <ele>252.0</ele>
        <time>2026-01-20T02:47:20Z</time>
      </trkpt>
      <trkpt lon="76.954023" lat="10.473053">
        <ele>252.0</ele>
        <time>2026-01-20T02:48:59Z</time>
      </trkpt>
      <trkpt lon="76.954054" lat="10.472955">
        <ele>252.0</ele>
        <time>2026-01-20T02:49:07Z</time>
      </trkpt>
      <trkpt lon="76.954163" lat="10.472921">
        <ele>250.0</ele>
        <time>2026-01-20T02:53:15Z</time>
      </trkpt>
      <trkpt lon="76.95426" lat="10.472873">
        <ele>250.0</ele>
        <time>2026-01-20T02:53:17Z</time>
      </trkpt>
      <trkpt lon="76.954368" lat="10.47281">
        <ele>250.0</ele>
        <time>2026-01-20T02:53:19Z</time>
      </trkpt>
      <trkpt lon="76.95451" lat="10.472716">
        <ele>250.0</ele>
        <time>2026-01-20T02:53:21Z</time>
      </trkpt>
      <trkpt lon="76.954667" lat="10.472625">
        <ele>250.0</ele>
        <time>2026-01-20T02:53:23Z</time>
      </trkpt>
      <trkpt lon="76.95475" lat="10.472573">
        <ele>250.0</ele>
        <time>2026-01-20T02:53:24Z</time>
      </trkpt>
      <trkpt lon="76.954839" lat="10.472515">
        <ele>250.0</ele>
        <time>2026-01-20T02:53:25Z</time>
      </trkpt>
      <trkpt lon="76.954921" lat="10.472455">
        <ele>250.0</ele>
        <time>2026-01-20T02:53:26Z</time>
      </trkpt>
      <trkpt lon="76.955007" lat="10.472383">
        <ele>250.0</ele>
        <time>2026-01-20T02:53:27Z</time>
      </trkpt>
      <trkpt lon="76.95508" lat="10.472318">
        <ele>250.0</ele>
        <time>2026-01-20T02:53:28Z</time>
      </trkpt>
      <trkpt lon="76.955159" lat="10.472247">
        <ele>250.0</ele>
        <time>2026-01-20T02:53:29Z</time>
      </trkpt>
      <trkpt lon="76.955251" lat="10.472179">
        <ele>250.0</ele>
        <time>2026-01-20T02:53:30Z</time>
      </trkpt>
      <trkpt lon="76.955331" lat="10.472108">
        <ele>250.0</ele>
        <time>2026-01-20T02:53:31Z</time>
      </trkpt>
      <trkpt lon="76.955409" lat="10.472033">
        <ele>250.0</ele>
        <time>2026-01-20T02:53:32Z</time>
      </trkpt>
      <trkpt lon="76.955486" lat="10.471953">
        <ele>250.0</ele>
        <time>2026-01-20T02:53:33Z</time>
      </trkpt>
      <trkpt lon="76.955565" lat="10.471872">
        <ele>250.0</ele>
        <time>2026-01-20T02:53:34Z</time>
      </trkpt>
      <trkpt lon="76.955645" lat="10.471786">
        <ele>250.0</ele>
        <time>2026-01-20T02:53:35Z</time>
      </trkpt>
      <trkpt lon="76.955718" lat="10.471698">
        <ele>250.0</ele>
        <time>2026-01-20T02:53:36Z</time>
      </trkpt>
      <trkpt lon="76.955791" lat="10.471606">
        <ele>250.0</ele>
        <time>2026-01-20T02:53:37Z</time>
      </trkpt>
      <trkpt lon="76.955864" lat="10.471519">
        <ele>250.0</ele>
        <time>2026-01-20T02:53:38Z</time>
      </trkpt>
      <trkpt lon="76.955935" lat="10.471428">
        <ele>250.0</ele>
        <time>2026-01-20T02:53:39Z</time>
      </trkpt>
      <trkpt lon="76.956008" lat="10.471338">
        <ele>250.0</ele>
        <time>2026-01-20T02:53:40Z</time>
      </trkpt>
      <trkpt lon="76.95608" lat="10.471248">
        <ele>250.0</ele>
        <time>2026-01-20T02:53:41Z</time>
      </trkpt>
      <trkpt lon="76.956152" lat="10.471161">
        <ele>250.0</ele>
        <time>2026-01-20T02:53:42Z</time>
      </trkpt>
      <trkpt lon="76.956224" lat="10.471077">
        <ele>250.0</ele>
        <time>2026-01-20T02:53:43Z</time>
      </trkpt>
      <trkpt lon="76.956295" lat="10.470989">
        <ele>250.0</ele>
        <time>2026-01-20T02:53:44Z</time>
      </trkpt>
      <trkpt lon="76.95637" lat="10.470906">
        <ele>250.0</ele>
        <time>2026-01-20T02:53:45Z</time>
      </trkpt>
      <trkpt lon="76.956442" lat="10.470821">
        <ele>250.0</ele>
        <time>2026-01-20T02:53:46Z</time>
      </trkpt>
      <trkpt lon="76.956515" lat="10.470736">
        <ele>250.0</ele>
        <time>2026-01-20T02:53:47Z</time>
      </trkpt>
      <trkpt lon="76.956579" lat="10.470644">
        <ele>250.0</ele>
        <time>2026-01-20T02:53:48Z</time>
      </trkpt>
      <trkpt lon="76.956636" lat="10.470544">
        <ele>250.0</ele>
        <time>2026-01-20T02:53:49Z</time>
      </trkpt>
      <trkpt lon="76.956682" lat="10.470433">
        <ele>250.0</ele>
        <time>2026-01-20T02:53:50Z</time>
      </trkpt>
      <trkpt lon="76.956723" lat="10.470319">
        <ele>250.0</ele>
        <time>2026-01-20T02:53:51Z</time>
      </trkpt>
      <trkpt lon="76.956761" lat="10.470213">
        <ele>250.0</ele>
        <time>2026-01-20T02:53:52Z</time>
      </trkpt>
      <trkpt lon="76.956797" lat="10.470115">
        <ele>250.0</ele>
        <time>2026-01-20T02:53:53Z</time>
      </trkpt>
      <trkpt lon="76.956832" lat="10.470023">
        <ele>250.0</ele>
        <time>2026-01-20T02:53:54Z</time>
      </trkpt>
      <trkpt lon="76.956883" lat="10.469905">
        <ele>250.0</ele>
        <time>2026-01-20T02:53:56Z</time>
      </trkpt>
      <trkpt lon="76.956939" lat="10.469764">
        <ele>250.0</ele>
        <time>2026-01-20T02:53:58Z</time>
      </trkpt>
      <trkpt lon="76.957004" lat="10.46959">
        <ele>250.0</ele>
        <time>2026-01-20T02:54:00Z</time>
      </trkpt>
      <trkpt lon="76.957039" lat="10.469498">
        <ele>250.0</ele>
        <time>2026-01-20T02:54:01Z</time>
      </trkpt>
      <trkpt lon="76.957088" lat="10.469412">
        <ele>250.0</ele>
        <time>2026-01-20T02:54:02Z</time>
      </trkpt>
      <trkpt lon="76.957209" lat="10.469302">
        <ele>250.0</ele>
        <time>2026-01-20T02:54:04Z</time>
      </trkpt>
      <trkpt lon="76.957367" lat="10.469238">
        <ele>250.0</ele>
        <time>2026-01-20T02:54:06Z</time>
      </trkpt>
      <trkpt lon="76.957466" lat="10.469199">
        <ele>250.0</ele>
        <time>2026-01-20T02:54:07Z</time>
      </trkpt>
      <trkpt lon="76.957563" lat="10.469162">
        <ele>250.0</ele>
        <time>2026-01-20T02:54:08Z</time>
      </trkpt>
      <trkpt lon="76.957662" lat="10.469113">
        <ele>250.0</ele>
        <time>2026-01-20T02:54:09Z</time>
      </trkpt>
      <trkpt lon="76.95776" lat="10.469053">
        <ele>250.0</ele>
        <time>2026-01-20T02:54:10Z</time>
      </trkpt>
      <trkpt lon="76.95785" lat="10.468995">
        <ele>250.0</ele>
        <time>2026-01-20T02:54:11Z</time>
      </trkpt>
      <trkpt lon="76.957947" lat="10.46894">
        <ele>250.0</ele>
        <time>2026-01-20T02:54:12Z</time>
      </trkpt>
      <trkpt lon="76.958046" lat="10.468895">
        <ele>250.0</ele>
        <time>2026-01-20T02:54:13Z</time>
      </trkpt>
      <trkpt lon="76.958158" lat="10.468864">
        <ele>250.0</ele>
        <time>2026-01-20T02:54:14Z</time>
      </trkpt>
      <trkpt lon="76.958279" lat="10.46884">
        <ele>250.0</ele>
        <time>2026-01-20T02:54:15Z</time>
      </trkpt>
      <trkpt lon="76.958392" lat="10.468837">
        <ele>250.0</ele>
        <time>2026-01-20T02:54:16Z</time>
      </trkpt>
      <trkpt lon="76.95851" lat="10.468844">
        <ele>250.0</ele>
        <time>2026-01-20T02:54:17Z</time>
      </trkpt>
      <trkpt lon="76.958622" lat="10.468853">
        <ele>250.0</ele>
        <time>2026-01-20T02:54:18Z</time>
      </trkpt>
      <trkpt lon="76.958778" lat="10.468858">
        <ele>250.0</ele>
        <time>2026-01-20T02:54:20Z</time>
      </trkpt>
      <trkpt lon="76.958907" lat="10.468858">
        <ele>250.0</ele>
        <time>2026-01-20T02:54:22Z</time>
      </trkpt>
      <trkpt lon="76.959074" lat="10.468852">
        <ele>250.0</ele>
        <time>2026-01-20T02:54:24Z</time>
      </trkpt>
      <trkpt lon="76.959172" lat="10.468847">
        <ele>250.0</ele>
        <time>2026-01-20T02:54:25Z</time>
      </trkpt>
      <trkpt lon="76.959279" lat="10.468836">
        <ele>250.0</ele>
        <time>2026-01-20T02:54:26Z</time>
      </trkpt>
      <trkpt lon="76.959399" lat="10.468833">
        <ele>250.0</ele>
        <time>2026-01-20T02:54:27Z</time>
      </trkpt>
      <trkpt lon="76.95952" lat="10.468817">
        <ele>250.0</ele>
        <time>2026-01-20T02:54:28Z</time>
      </trkpt>
      <trkpt lon="76.959642" lat="10.468796">
        <ele>250.0</ele>
        <time>2026-01-20T02:54:29Z</time>
      </trkpt>
      <trkpt lon="76.959768" lat="10.468774">
        <ele>250.0</ele>
        <time>2026-01-20T02:54:30Z</time>
      </trkpt>
      <trkpt lon="76.959904" lat="10.468753">
        <ele>250.0</ele>
        <time>2026-01-20T02:54:31Z</time>
      </trkpt>
      <trkpt lon="76.960043" lat="10.468736">
        <ele>250.0</ele>
        <time>2026-01-20T02:54:32Z</time>
      </trkpt>
      <trkpt lon="76.960182" lat="10.468721">
        <ele>250.0</ele>
        <time>2026-01-20T02:54:33Z</time>
      </trkpt>
      <trkpt lon="76.960328" lat="10.468701">
        <ele>250.0</ele>
        <time>2026-01-20T02:54:34Z</time>
      </trkpt>
      <trkpt lon="76.960472" lat="10.468681">
        <ele>250.0</ele>
        <time>2026-01-20T02:54:35Z</time>
      </trkpt>
      <trkpt lon="76.96062" lat="10.468661">
        <ele>250.0</ele>
        <time>2026-01-20T02:54:36Z</time>
      </trkpt>
      <trkpt lon="76.960761" lat="10.468636">
        <ele>250.0</ele>
        <time>2026-01-20T02:54:37Z</time>
      </trkpt>
      <trkpt lon="76.960908" lat="10.468606">
        <ele>250.0</ele>
        <time>2026-01-20T02:54:38Z</time>
      </trkpt>
      <trkpt lon="76.96106" lat="10.468573">
        <ele>250.0</ele>
        <time>2026-01-20T02:54:39Z</time>
      </trkpt>
      <trkpt lon="76.961207" lat="10.468548">
        <ele>250.0</ele>
        <time>2026-01-20T02:54:40Z</time>
      </trkpt>
      <trkpt lon="76.961352" lat="10.468522">
        <ele>250.0</ele>
        <time>2026-01-20T02:54:41Z</time>
      </trkpt>
      <trkpt lon="76.961491" lat="10.468503">
        <ele>250.0</ele>
        <time>2026-01-20T02:54:42Z</time>
      </trkpt>
      <trkpt lon="76.961631" lat="10.468491">
        <ele>227.0</ele>
        <time>2026-01-20T02:54:43Z</time>
      </trkpt>
      <trkpt lon="76.96178" lat="10.468493">
        <ele>228.0</ele>
        <time>2026-01-20T02:54:44Z</time>
      </trkpt>
      <trkpt lon="76.961926" lat="10.468518">
        <ele>229.0</ele>
        <time>2026-01-20T02:54:45Z</time>
      </trkpt>
      <trkpt lon="76.962064" lat="10.468552">
        <ele>229.0</ele>
        <time>2026-01-20T02:54:46Z</time>
      </trkpt>
      <trkpt lon="76.962177" lat="10.468593">
        <ele>229.0</ele>
        <time>2026-01-20T02:54:47Z</time>
      </trkpt>
      <trkpt lon="76.962287" lat="10.468618">
        <ele>228.0</ele>
        <time>2026-01-20T02:54:48Z</time>
      </trkpt>
      <trkpt lon="76.962407" lat="10.468625">
        <ele>228.0</ele>
        <time>2026-01-20T02:54:49Z</time>
      </trkpt>
      <trkpt lon="76.962524" lat="10.468617">
        <ele>227.0</ele>
        <time>2026-01-20T02:54:50Z</time>
      </trkpt>
      <trkpt lon="76.96265" lat="10.468581">
        <ele>226.0</ele>
        <time>2026-01-20T02:54:51Z</time>
      </trkpt>
      <trkpt lon="76.962781" lat="10.468529">
        <ele>226.0</ele>
        <time>2026-01-20T02:54:52Z</time>
      </trkpt>
      <trkpt lon="76.962905" lat="10.468457">
        <ele>226.0</ele>
        <time>2026-01-20T02:54:53Z</time>
      </trkpt>
      <trkpt lon="76.963015" lat="10.468355">
        <ele>225.0</ele>
        <time>2026-01-20T02:54:54Z</time>
      </trkpt>
      <trkpt lon="76.963119" lat="10.468247">
        <ele>224.0</ele>
        <time>2026-01-20T02:54:55Z</time>
      </trkpt>
      <trkpt lon="76.963216" lat="10.468136">
        <ele>224.0</ele>
        <time>2026-01-20T02:54:56Z</time>
      </trkpt>
      <trkpt lon="76.963315" lat="10.468032">
        <ele>223.0</ele>
        <time>2026-01-20T02:54:57Z</time>
      </trkpt>
      <trkpt lon="76.963422" lat="10.46794">
        <ele>223.0</ele>
        <time>2026-01-20T02:54:58Z</time>
      </trkpt>
      <trkpt lon="76.963562" lat="10.467873">
        <ele>222.0</ele>
        <time>2026-01-20T02:54:59Z</time>
      </trkpt>
      <trkpt lon="76.963708" lat="10.467807">
        <ele>222.0</ele>
        <time>2026-01-20T02:55:00Z</time>
      </trkpt>
      <trkpt lon="76.963859" lat="10.467744">
        <ele>223.0</ele>
        <time>2026-01-20T02:55:01Z</time>
      </trkpt>
      <trkpt lon="76.96401" lat="10.467678">
        <ele>223.0</ele>
        <time>2026-01-20T02:55:02Z</time>
      </trkpt>
      <trkpt lon="76.96416" lat="10.467611">
        <ele>223.0</ele>
        <time>2026-01-20T02:55:03Z</time>
      </trkpt>
      <trkpt lon="76.964309" lat="10.467553">
        <ele>224.0</ele>
        <time>2026-01-20T02:55:04Z</time>
      </trkpt>
      <trkpt lon="76.964455" lat="10.467484">
        <ele>224.0</ele>
        <time>2026-01-20T02:55:05Z</time>
      </trkpt>
      <trkpt lon="76.964601" lat="10.467421">
        <ele>224.0</ele>
        <time>2026-01-20T02:55:06Z</time>
      </trkpt>
      <trkpt lon="76.96475" lat="10.467354">
        <ele>223.0</ele>
        <time>2026-01-20T02:55:07Z</time>
      </trkpt>
      <trkpt lon="76.964906" lat="10.467292">
        <ele>223.0</ele>
        <time>2026-01-20T02:55:08Z</time>
      </trkpt>
      <trkpt lon="76.965069" lat="10.467222">
        <ele>222.0</ele>
        <time>2026-01-20T02:55:09Z</time>
      </trkpt>
      <trkpt lon="76.965235" lat="10.467161">
        <ele>223.0</ele>
        <time>2026-01-20T02:55:10Z</time>
      </trkpt>
      <trkpt lon="76.96539" lat="10.467094">
        <ele>224.0</ele>
        <time>2026-01-20T02:55:11Z</time>
      </trkpt>
      <trkpt lon="76.965541" lat="10.467034">
        <ele>225.0</ele>
        <time>2026-01-20T02:55:12Z</time>
      </trkpt>
      <trkpt lon="76.965694" lat="10.466967">
        <ele>225.0</ele>
        <time>2026-01-20T02:55:13Z</time>
      </trkpt>
      <trkpt lon="76.965842" lat="10.466913">
        <ele>225.0</ele>
        <time>2026-01-20T02:55:14Z</time>
      </trkpt>
      <trkpt lon="76.965985" lat="10.466847">
        <ele>226.0</ele>
        <time>2026-01-20T02:55:15Z</time>
      </trkpt>
      <trkpt lon="76.966112" lat="10.46676">
        <ele>225.0</ele>
        <time>2026-01-20T02:55:16Z</time>
      </trkpt>
      <trkpt lon="76.966231" lat="10.466674">
        <ele>226.0</ele>
        <time>2026-01-20T02:55:17Z</time>
      </trkpt>
      <trkpt lon="76.966339" lat="10.46658">
        <ele>226.0</ele>
        <time>2026-01-20T02:55:18Z</time>
      </trkpt>
      <trkpt lon="76.966434" lat="10.466492">
        <ele>226.0</ele>
        <time>2026-01-20T02:55:19Z</time>
      </trkpt>
      <trkpt lon="76.966508" lat="10.466385">
        <ele>226.0</ele>
        <time>2026-01-20T02:55:20Z</time>
      </trkpt>
      <trkpt lon="76.966541" lat="10.46627">
        <ele>226.0</ele>
        <time>2026-01-20T02:55:21Z</time>
      </trkpt>
      <trkpt lon="76.966558" lat="10.466134">
        <ele>226.0</ele>
        <time>2026-01-20T02:55:22Z</time>
      </trkpt>
      <trkpt lon="76.966562" lat="10.465989">
        <ele>226.0</ele>
        <time>2026-01-20T02:55:23Z</time>
      </trkpt>
      <trkpt lon="76.96657" lat="10.465841">
        <ele>226.0</ele>
        <time>2026-01-20T02:55:24Z</time>
      </trkpt>
      <trkpt lon="76.966583" lat="10.465689">
        <ele>226.0</ele>
        <time>2026-01-20T02:55:25Z</time>
      </trkpt>
      <trkpt lon="76.966606" lat="10.465531">
        <ele>225.0</ele>
        <time>2026-01-20T02:55:26Z</time>
      </trkpt>
      <trkpt lon="76.966635" lat="10.465368">
        <ele>225.0</ele>
        <time>2026-01-20T02:55:27Z</time>
      </trkpt>
      <trkpt lon="76.96667" lat="10.465211">
        <ele>226.0</ele>
        <time>2026-01-20T02:55:28Z</time>
      </trkpt>
      <trkpt lon="76.966714" lat="10.465067">
        <ele>226.0</ele>
        <time>2026-01-20T02:55:29Z</time>
      </trkpt>
      <trkpt lon="76.966782" lat="10.464929">
        <ele>226.0</ele>
        <time>2026-01-20T02:55:30Z</time>
      </trkpt>
      <trkpt lon="76.966869" lat="10.464801">
        <ele>226.0</ele>
        <time>2026-01-20T02:55:31Z</time>
      </trkpt>
      <trkpt lon="76.96694" lat="10.464692">
        <ele>226.0</ele>
        <time>2026-01-20T02:55:32Z</time>
      </trkpt>
      <trkpt lon="76.966994" lat="10.464619">
        <ele>226.0</ele>
        <time>2026-01-20T02:55:33Z</time>
      </trkpt>
      <trkpt lon="76.96705" lat="10.464544">
        <ele>226.0</ele>
        <time>2026-01-20T02:55:34Z</time>
      </trkpt>
      <trkpt lon="76.967096" lat="10.464457">
        <ele>226.0</ele>
        <time>2026-01-20T02:55:35Z</time>
      </trkpt>
      <trkpt lon="76.967161" lat="10.464371">
        <ele>226.0</ele>
        <time>2026-01-20T02:55:36Z</time>
      </trkpt>
      <trkpt lon="76.967222" lat="10.464275">
        <ele>226.0</ele>
        <time>2026-01-20T02:55:37Z</time>
      </trkpt>
      <trkpt lon="76.967253" lat="10.464167">
        <ele>226.0</ele>
        <time>2026-01-20T02:55:38Z</time>
      </trkpt>
      <trkpt lon="76.967257" lat="10.464068">
        <ele>224.0</ele>
        <time>2026-01-20T02:55:39Z</time>
      </trkpt>
      <trkpt lon="76.967236" lat="10.463978">
        <ele>224.0</ele>
        <time>2026-01-20T02:55:40Z</time>
      </trkpt>
      <trkpt lon="76.967172" lat="10.463902">
        <ele>223.0</ele>
        <time>2026-01-20T02:55:41Z</time>
      </trkpt>
      <trkpt lon="76.96709" lat="10.463845">
        <ele>223.0</ele>
        <time>2026-01-20T02:55:42Z</time>
      </trkpt>
      <trkpt lon="76.967001" lat="10.463797">
        <ele>224.0</ele>
        <time>2026-01-20T02:55:43Z</time>
      </trkpt>
      <trkpt lon="76.966912" lat="10.463758">
        <ele>225.0</ele>
        <time>2026-01-20T02:55:44Z</time>
      </trkpt>
      <trkpt lon="76.966828" lat="10.463722">
        <ele>224.0</ele>
        <time>2026-01-20T02:55:45Z</time>
      </trkpt>
      <trkpt lon="76.966671" lat="10.463636">
        <ele>224.0</ele>
        <time>2026-01-20T02:55:47Z</time>
      </trkpt>
      <trkpt lon="76.966591" lat="10.463565">
        <ele>224.0</ele>
        <time>2026-01-20T02:55:48Z</time>
      </trkpt>
      <trkpt lon="76.966518" lat="10.463483">
        <ele>224.0</ele>
        <time>2026-01-20T02:55:49Z</time>
      </trkpt>
      <trkpt lon="76.966448" lat="10.463387">
        <ele>222.0</ele>
        <time>2026-01-20T02:55:50Z</time>
      </trkpt>
      <trkpt lon="76.966383" lat="10.463277">
        <ele>222.0</ele>
        <time>2026-01-20T02:55:51Z</time>
      </trkpt>
      <trkpt lon="76.966323" lat="10.463161">
        <ele>222.0</ele>
        <time>2026-01-20T02:55:52Z</time>
      </trkpt>
      <trkpt lon="76.966273" lat="10.463043">
        <ele>221.0</ele>
        <time>2026-01-20T02:55:53Z</time>
      </trkpt>
      <trkpt lon="76.966229" lat="10.462924">
        <ele>222.0</ele>
        <time>2026-01-20T02:55:54Z</time>
      </trkpt>
      <trkpt lon="76.966219" lat="10.462809">
        <ele>221.0</ele>
        <time>2026-01-20T02:55:55Z</time>
      </trkpt>
      <trkpt lon="76.966227" lat="10.462696">
        <ele>221.0</ele>
        <time>2026-01-20T02:55:56Z</time>
      </trkpt>
      <trkpt lon="76.966241" lat="10.462571">
        <ele>221.0</ele>
        <time>2026-01-20T02:55:57Z</time>
      </trkpt>
      <trkpt lon="76.966273" lat="10.462442">
        <ele>221.0</ele>
        <time>2026-01-20T02:55:58Z</time>
      </trkpt>
      <trkpt lon="76.966311" lat="10.462314">
        <ele>221.0</ele>
        <time>2026-01-20T02:55:59Z</time>
      </trkpt>
      <trkpt lon="76.966354" lat="10.462186">
        <ele>221.0</ele>
        <time>2026-01-20T02:56:00Z</time>
      </trkpt>
      <trkpt lon="76.96639" lat="10.462059">
        <ele>221.0</ele>
        <time>2026-01-20T02:56:01Z</time>
      </trkpt>
      <trkpt lon="76.966433" lat="10.461929">
        <ele>221.0</ele>
        <time>2026-01-20T02:56:02Z</time>
      </trkpt>
      <trkpt lon="76.966482" lat="10.461801">
        <ele>221.0</ele>
        <time>2026-01-20T02:56:03Z</time>
      </trkpt>
      <trkpt lon="76.966528" lat="10.461672">
        <ele>220.0</ele>
        <time>2026-01-20T02:56:04Z</time>
      </trkpt>
      <trkpt lon="76.966574" lat="10.461538">
        <ele>221.0</ele>
        <time>2026-01-20T02:56:05Z</time>
      </trkpt>
      <trkpt lon="76.966626" lat="10.461408">
        <ele>221.0</ele>
        <time>2026-01-20T02:56:06Z</time>
      </trkpt>
      <trkpt lon="76.966685" lat="10.461289">
        <ele>221.0</ele>
        <time>2026-01-20T02:56:07Z</time>
      </trkpt>
      <trkpt lon="76.966744" lat="10.46118">
        <ele>221.0</ele>
        <time>2026-01-20T02:56:08Z</time>
      </trkpt>
      <trkpt lon="76.966818" lat="10.461086">
        <ele>220.0</ele>
        <time>2026-01-20T02:56:09Z</time>
      </trkpt>
      <trkpt lon="76.966911" lat="10.461">
        <ele>221.0</ele>
        <time>2026-01-20T02:56:10Z</time>
      </trkpt>
      <trkpt lon="76.96702" lat="10.460925">
        <ele>222.0</ele>
        <time>2026-01-20T02:56:11Z</time>
      </trkpt>
      <trkpt lon="76.967147" lat="10.460867">
        <ele>222.0</ele>
        <time>2026-01-20T02:56:12Z</time>
      </trkpt>
      <trkpt lon="76.967279" lat="10.460823">
        <ele>223.0</ele>
        <time>2026-01-20T02:56:13Z</time>
      </trkpt>
      <trkpt lon="76.967412" lat="10.460779">
        <ele>223.0</ele>
        <time>2026-01-20T02:56:14Z</time>
      </trkpt>
      <trkpt lon="76.967543" lat="10.460742">
        <ele>224.0</ele>
        <time>2026-01-20T02:56:15Z</time>
      </trkpt>
      <trkpt lon="76.967674" lat="10.460706">
        <ele>224.0</ele>
        <time>2026-01-20T02:56:16Z</time>
      </trkpt>
      <trkpt lon="76.967812" lat="10.46067">
        <ele>225.0</ele>
        <time>2026-01-20T02:56:17Z</time>
      </trkpt>
      <trkpt lon="76.967962" lat="10.460633">
        <ele>225.0</ele>
        <time>2026-01-20T02:56:18Z</time>
      </trkpt>
      <trkpt lon="76.968115" lat="10.460594">
        <ele>225.0</ele>
        <time>2026-01-20T02:56:19Z</time>
      </trkpt>
      <trkpt lon="76.968259" lat="10.460554">
        <ele>225.0</ele>
        <time>2026-01-20T02:56:20Z</time>
      </trkpt>
      <trkpt lon="76.968393" lat="10.460514">
        <ele>225.0</ele>
        <time>2026-01-20T02:56:21Z</time>
      </trkpt>
      <trkpt lon="76.968527" lat="10.460483">
        <ele>225.0</ele>
        <time>2026-01-20T02:56:22Z</time>
      </trkpt>
      <trkpt lon="76.968663" lat="10.460444">
        <ele>226.0</ele>
        <time>2026-01-20T02:56:23Z</time>
      </trkpt>
      <trkpt lon="76.968797" lat="10.460398">
        <ele>227.0</ele>
        <time>2026-01-20T02:56:24Z</time>
      </trkpt>
      <trkpt lon="76.96892" lat="10.460345">
        <ele>227.0</ele>
        <time>2026-01-20T02:56:25Z</time>
      </trkpt>
      <trkpt lon="76.96905" lat="10.460271">
        <ele>226.0</ele>
        <time>2026-01-20T02:56:26Z</time>
      </trkpt>
      <trkpt lon="76.969176" lat="10.460195">
        <ele>226.0</ele>
        <time>2026-01-20T02:56:27Z</time>
      </trkpt>
      <trkpt lon="76.969286" lat="10.460104">
        <ele>225.0</ele>
        <time>2026-01-20T02:56:28Z</time>
      </trkpt>
      <trkpt lon="76.969371" lat="10.459983">
        <ele>225.0</ele>
        <time>2026-01-20T02:56:29Z</time>
      </trkpt>
      <trkpt lon="76.969427" lat="10.459841">
        <ele>224.0</ele>
        <time>2026-01-20T02:56:30Z</time>
      </trkpt>
      <trkpt lon="76.969481" lat="10.459701">
        <ele>224.0</ele>
        <time>2026-01-20T02:56:31Z</time>
      </trkpt>
      <trkpt lon="76.969538" lat="10.459571">
        <ele>224.0</ele>
        <time>2026-01-20T02:56:32Z</time>
      </trkpt>
      <trkpt lon="76.969578" lat="10.459439">
        <ele>225.0</ele>
        <time>2026-01-20T02:56:33Z</time>
      </trkpt>
      <trkpt lon="76.969601" lat="10.459305">
        <ele>226.0</ele>
        <time>2026-01-20T02:56:34Z</time>
      </trkpt>
      <trkpt lon="76.969617" lat="10.459171">
        <ele>227.0</ele>
        <time>2026-01-20T02:56:35Z</time>
      </trkpt>
      <trkpt lon="76.969621" lat="10.459027">
        <ele>229.0</ele>
        <time>2026-01-20T02:56:36Z</time>
      </trkpt>
      <trkpt lon="76.969628" lat="10.458896">
        <ele>230.0</ele>
        <time>2026-01-20T02:56:37Z</time>
      </trkpt>
      <trkpt lon="76.969624" lat="10.458769">
        <ele>230.0</ele>
        <time>2026-01-20T02:56:38Z</time>
      </trkpt>
      <trkpt lon="76.969619" lat="10.458642">
        <ele>230.0</ele>
        <time>2026-01-20T02:56:39Z</time>
      </trkpt>
      <trkpt lon="76.969622" lat="10.458516">
        <ele>231.0</ele>
        <time>2026-01-20T02:56:40Z</time>
      </trkpt>
      <trkpt lon="76.969636" lat="10.458399">
        <ele>231.0</ele>
        <time>2026-01-20T02:56:41Z</time>
      </trkpt>
      <trkpt lon="76.969671" lat="10.458293">
        <ele>231.0</ele>
        <time>2026-01-20T02:56:42Z</time>
      </trkpt>
      <trkpt lon="76.969722" lat="10.458186">
        <ele>231.0</ele>
        <time>2026-01-20T02:56:43Z</time>
      </trkpt>
      <trkpt lon="76.969781" lat="10.458078">
        <ele>231.0</ele>
        <time>2026-01-20T02:56:44Z</time>
      </trkpt>
      <trkpt lon="76.969843" lat="10.457978">
        <ele>232.0</ele>
        <time>2026-01-20T02:56:45Z</time>
      </trkpt>
      <trkpt lon="76.969898" lat="10.457878">
        <ele>234.0</ele>
        <time>2026-01-20T02:56:46Z</time>
      </trkpt>
      <trkpt lon="76.969952" lat="10.457781">
        <ele>234.0</ele>
        <time>2026-01-20T02:56:47Z</time>
      </trkpt>
      <trkpt lon="76.970012" lat="10.457684">
        <ele>234.0</ele>
        <time>2026-01-20T02:56:48Z</time>
      </trkpt>
      <trkpt lon="76.970082" lat="10.457615">
        <ele>233.0</ele>
        <time>2026-01-20T02:56:49Z</time>
      </trkpt>
      <trkpt lon="76.970186" lat="10.457584">
        <ele>233.0</ele>
        <time>2026-01-20T02:56:50Z</time>
      </trkpt>
      <trkpt lon="76.970293" lat="10.457568">
        <ele>233.0</ele>
        <time>2026-01-20T02:56:51Z</time>
      </trkpt>
      <trkpt lon="76.970408" lat="10.457554">
        <ele>234.0</ele>
        <time>2026-01-20T02:56:52Z</time>
      </trkpt>
      <trkpt lon="76.970513" lat="10.457548">
        <ele>234.0</ele>
        <time>2026-01-20T02:56:53Z</time>
      </trkpt>
      <trkpt lon="76.970621" lat="10.457566">
        <ele>236.0</ele>
        <time>2026-01-20T02:56:54Z</time>
      </trkpt>
      <trkpt lon="76.970722" lat="10.457605">
        <ele>236.0</ele>
        <time>2026-01-20T02:56:55Z</time>
      </trkpt>
      <trkpt lon="76.970825" lat="10.457621">
        <ele>237.0</ele>
        <time>2026-01-20T02:56:56Z</time>
      </trkpt>
      <trkpt lon="76.970916" lat="10.457609">
        <ele>238.0</ele>
        <time>2026-01-20T02:56:57Z</time>
      </trkpt>
      <trkpt lon="76.971022" lat="10.457572">
        <ele>239.0</ele>
        <time>2026-01-20T02:56:58Z</time>
      </trkpt>
      <trkpt lon="76.971107" lat="10.457509">
        <ele>239.0</ele>
        <time>2026-01-20T02:56:59Z</time>
      </trkpt>
      <trkpt lon="76.971188" lat="10.457439">
        <ele>240.0</ele>
        <time>2026-01-20T02:57:00Z</time>
      </trkpt>
      <trkpt lon="76.971318" lat="10.457327">
        <ele>241.0</ele>
        <time>2026-01-20T02:57:02Z</time>
      </trkpt>
      <trkpt lon="76.971372" lat="10.457207">
        <ele>242.0</ele>
        <time>2026-01-20T02:57:04Z</time>
      </trkpt>
      <trkpt lon="76.971294" lat="10.457086">
        <ele>244.0</ele>
        <time>2026-01-20T02:57:06Z</time>
      </trkpt>
      <trkpt lon="76.971224" lat="10.456973">
        <ele>245.0</ele>
        <time>2026-01-20T02:57:08Z</time>
      </trkpt>
      <trkpt lon="76.971279" lat="10.45682">
        <ele>247.0</ele>
        <time>2026-01-20T02:57:10Z</time>
      </trkpt>
      <trkpt lon="76.971322" lat="10.456681">
        <ele>248.0</ele>
        <time>2026-01-20T02:57:12Z</time>
      </trkpt>
      <trkpt lon="76.971223" lat="10.456594">
        <ele>249.0</ele>
        <time>2026-01-20T02:57:14Z</time>
      </trkpt>
      <trkpt lon="76.971089" lat="10.456512">
        <ele>250.0</ele>
        <time>2026-01-20T02:57:16Z</time>
      </trkpt>
      <trkpt lon="76.970995" lat="10.456377">
        <ele>251.0</ele>
        <time>2026-01-20T02:57:18Z</time>
      </trkpt>
      <trkpt lon="76.970868" lat="10.456269">
        <ele>252.0</ele>
        <time>2026-01-20T02:57:20Z</time>
      </trkpt>
      <trkpt lon="76.970686" lat="10.456253">
        <ele>255.0</ele>
        <time>2026-01-20T02:57:22Z</time>
      </trkpt>
      <trkpt lon="76.970595" lat="10.456278">
        <ele>256.0</ele>
        <time>2026-01-20T02:57:23Z</time>
      </trkpt>
      <trkpt lon="76.97051" lat="10.456335">
        <ele>258.0</ele>
        <time>2026-01-20T02:57:24Z</time>
      </trkpt>
      <trkpt lon="76.970431" lat="10.456402">
        <ele>258.0</ele>
        <time>2026-01-20T02:57:25Z</time>
      </trkpt>
      <trkpt lon="76.970301" lat="10.456498">
        <ele>258.0</ele>
        <time>2026-01-20T02:57:27Z</time>
      </trkpt>
      <trkpt lon="76.970146" lat="10.456506">
        <ele>259.0</ele>
        <time>2026-01-20T02:57:29Z</time>
      </trkpt>
      <trkpt lon="76.970006" lat="10.456391">
        <ele>260.0</ele>
        <time>2026-01-20T02:57:31Z</time>
      </trkpt>
      <trkpt lon="76.969961" lat="10.45629">
        <ele>261.0</ele>
        <time>2026-01-20T02:57:32Z</time>
      </trkpt>
      <trkpt lon="76.96993" lat="10.456187">
        <ele>261.0</ele>
        <time>2026-01-20T02:57:33Z</time>
      </trkpt>
      <trkpt lon="76.969932" lat="10.456022">
        <ele>263.0</ele>
        <time>2026-01-20T02:57:35Z</time>
      </trkpt>
      <trkpt lon="76.969928" lat="10.455865">
        <ele>264.0</ele>
        <time>2026-01-20T02:57:37Z</time>
      </trkpt>
      <trkpt lon="76.969823" lat="10.45572">
        <ele>263.0</ele>
        <time>2026-01-20T02:57:39Z</time>
      </trkpt>
      <trkpt lon="76.969763" lat="10.455647">
        <ele>264.0</ele>
        <time>2026-01-20T02:57:40Z</time>
      </trkpt>
      <trkpt lon="76.969711" lat="10.45555">
        <ele>264.0</ele>
        <time>2026-01-20T02:57:41Z</time>
      </trkpt>
      <trkpt lon="76.969657" lat="10.45545">
        <ele>264.0</ele>
        <time>2026-01-20T02:57:42Z</time>
      </trkpt>
      <trkpt lon="76.969599" lat="10.45535">
        <ele>265.0</ele>
        <time>2026-01-20T02:57:43Z</time>
      </trkpt>
      <trkpt lon="76.969535" lat="10.455245">
        <ele>265.0</ele>
        <time>2026-01-20T02:57:44Z</time>
      </trkpt>
      <trkpt lon="76.969472" lat="10.455135">
        <ele>266.0</ele>
        <time>2026-01-20T02:57:45Z</time>
      </trkpt>
      <trkpt lon="76.96942" lat="10.455027">
        <ele>267.0</ele>
        <time>2026-01-20T02:57:46Z</time>
      </trkpt>
      <trkpt lon="76.969358" lat="10.454923">
        <ele>268.0</ele>
        <time>2026-01-20T02:57:47Z</time>
      </trkpt>
      <trkpt lon="76.969303" lat="10.454812">
        <ele>269.0</ele>
        <time>2026-01-20T02:57:48Z</time>
      </trkpt>
      <trkpt lon="76.969256" lat="10.454701">
        <ele>271.0</ele>
        <time>2026-01-20T02:57:49Z</time>
      </trkpt>
      <trkpt lon="76.969216" lat="10.454597">
        <ele>271.0</ele>
        <time>2026-01-20T02:57:50Z</time>
      </trkpt>
      <trkpt lon="76.969183" lat="10.45451">
        <ele>271.0</ele>
        <time>2026-01-20T02:57:51Z</time>
      </trkpt>
      <trkpt lon="76.969137" lat="10.45437">
        <ele>272.0</ele>
        <time>2026-01-20T02:57:53Z</time>
      </trkpt>
      <trkpt lon="76.969144" lat="10.454268">
        <ele>274.0</ele>
        <time>2026-01-20T02:57:55Z</time>
      </trkpt>
      <trkpt lon="76.96925" lat="10.454213">
        <ele>276.0</ele>
        <time>2026-01-20T02:57:57Z</time>
      </trkpt>
      <trkpt lon="76.969418" lat="10.4542">
        <ele>278.0</ele>
        <time>2026-01-20T02:57:59Z</time>
      </trkpt>
      <trkpt lon="76.969521" lat="10.454179">
        <ele>279.0</ele>
        <time>2026-01-20T02:58:00Z</time>
      </trkpt>
      <trkpt lon="76.969625" lat="10.454158">
        <ele>280.0</ele>
        <time>2026-01-20T02:58:01Z</time>
      </trkpt>
      <trkpt lon="76.969715" lat="10.454129">
        <ele>282.0</ele>
        <time>2026-01-20T02:58:02Z</time>
      </trkpt>
      <trkpt lon="76.969883" lat="10.454113">
        <ele>282.0</ele>
        <time>2026-01-20T02:58:04Z</time>
      </trkpt>
      <trkpt lon="76.970054" lat="10.454174">
        <ele>283.0</ele>
        <time>2026-01-20T02:58:06Z</time>
      </trkpt>
      <trkpt lon="76.97015" lat="10.45418">
        <ele>283.0</ele>
        <time>2026-01-20T02:58:07Z</time>
      </trkpt>
      <trkpt lon="76.970245" lat="10.454189">
        <ele>284.0</ele>
        <time>2026-01-20T02:58:08Z</time>
      </trkpt>
      <trkpt lon="76.970398" lat="10.454201">
        <ele>284.0</ele>
        <time>2026-01-20T02:58:10Z</time>
      </trkpt>
      <trkpt lon="76.970544" lat="10.454195">
        <ele>285.0</ele>
        <time>2026-01-20T02:58:12Z</time>
      </trkpt>
      <trkpt lon="76.970642" lat="10.454172">
        <ele>286.0</ele>
        <time>2026-01-20T02:58:14Z</time>
      </trkpt>
      <trkpt lon="76.970743" lat="10.454187">
        <ele>286.0</ele>
        <time>2026-01-20T02:58:16Z</time>
      </trkpt>
      <trkpt lon="76.970881" lat="10.454248">
        <ele>286.0</ele>
        <time>2026-01-20T02:58:18Z</time>
      </trkpt>
      <trkpt lon="76.970976" lat="10.454322">
        <ele>287.0</ele>
        <time>2026-01-20T02:58:19Z</time>
      </trkpt>
      <trkpt lon="76.971045" lat="10.454397">
        <ele>288.0</ele>
        <time>2026-01-20T02:58:20Z</time>
      </trkpt>
      <trkpt lon="76.971108" lat="10.454483">
        <ele>288.0</ele>
        <time>2026-01-20T02:58:21Z</time>
      </trkpt>
      <trkpt lon="76.97116" lat="10.454567">
        <ele>289.0</ele>
        <time>2026-01-20T02:58:22Z</time>
      </trkpt>
      <trkpt lon="76.971234" lat="10.454648">
        <ele>289.0</ele>
        <time>2026-01-20T02:58:23Z</time>
      </trkpt>
      <trkpt lon="76.971316" lat="10.454694">
        <ele>289.0</ele>
        <time>2026-01-20T02:58:24Z</time>
      </trkpt>
      <trkpt lon="76.971457" lat="10.454733">
        <ele>289.0</ele>
        <time>2026-01-20T02:58:26Z</time>
      </trkpt>
      <trkpt lon="76.971548" lat="10.454672">
        <ele>288.0</ele>
        <time>2026-01-20T02:58:28Z</time>
      </trkpt>
      <trkpt lon="76.971617" lat="10.454535">
        <ele>288.0</ele>
        <time>2026-01-20T02:58:30Z</time>
      </trkpt>
      <trkpt lon="76.9716" lat="10.454378">
        <ele>290.0</ele>
        <time>2026-01-20T02:58:32Z</time>
      </trkpt>
      <trkpt lon="76.971545" lat="10.454233">
        <ele>292.0</ele>
        <time>2026-01-20T02:58:34Z</time>
      </trkpt>
      <trkpt lon="76.971541" lat="10.454107">
        <ele>293.0</ele>
        <time>2026-01-20T02:58:36Z</time>
      </trkpt>
      <trkpt lon="76.971591" lat="10.454008">
        <ele>294.0</ele>
        <time>2026-01-20T02:58:38Z</time>
      </trkpt>
      <trkpt lon="76.97168" lat="10.45392">
        <ele>295.0</ele>
        <time>2026-01-20T02:58:40Z</time>
      </trkpt>
      <trkpt lon="76.971781" lat="10.453846">
        <ele>298.0</ele>
        <time>2026-01-20T02:58:42Z</time>
      </trkpt>
      <trkpt lon="76.971922" lat="10.453812">
        <ele>299.0</ele>
        <time>2026-01-20T02:58:44Z</time>
      </trkpt>
      <trkpt lon="76.972071" lat="10.45377">
        <ele>301.0</ele>
        <time>2026-01-20T02:58:46Z</time>
      </trkpt>
      <trkpt lon="76.972181" lat="10.453636">
        <ele>301.0</ele>
        <time>2026-01-20T02:58:48Z</time>
      </trkpt>
      <trkpt lon="76.972223" lat="10.453545">
        <ele>302.0</ele>
        <time>2026-01-20T02:58:49Z</time>
      </trkpt>
      <trkpt lon="76.972258" lat="10.453438">
        <ele>302.0</ele>
        <time>2026-01-20T02:58:50Z</time>
      </trkpt>
      <trkpt lon="76.9723" lat="10.45334">
        <ele>302.0</ele>
        <time>2026-01-20T02:58:51Z</time>
      </trkpt>
      <trkpt lon="76.972356" lat="10.453239">
        <ele>303.0</ele>
        <time>2026-01-20T02:58:52Z</time>
      </trkpt>
      <trkpt lon="76.972434" lat="10.453146">
        <ele>304.0</ele>
        <time>2026-01-20T02:58:53Z</time>
      </trkpt>
      <trkpt lon="76.972518" lat="10.453067">
        <ele>304.0</ele>
        <time>2026-01-20T02:58:54Z</time>
      </trkpt>
      <trkpt lon="76.972606" lat="10.452992">
        <ele>305.0</ele>
        <time>2026-01-20T02:58:55Z</time>
      </trkpt>
      <trkpt lon="76.972707" lat="10.452932">
        <ele>306.0</ele>
        <time>2026-01-20T02:58:56Z</time>
      </trkpt>
      <trkpt lon="76.972814" lat="10.452889">
        <ele>307.0</ele>
        <time>2026-01-20T02:58:57Z</time>
      </trkpt>
      <trkpt lon="76.97292" lat="10.452846">
        <ele>308.0</ele>
        <time>2026-01-20T02:58:58Z</time>
      </trkpt>
      <trkpt lon="76.973035" lat="10.452803">
        <ele>309.0</ele>
        <time>2026-01-20T02:58:59Z</time>
      </trkpt>
      <trkpt lon="76.973141" lat="10.452758">
        <ele>310.0</ele>
        <time>2026-01-20T02:59:00Z</time>
      </trkpt>
      <trkpt lon="76.973247" lat="10.452703">
        <ele>311.0</ele>
        <time>2026-01-20T02:59:01Z</time>
      </trkpt>
      <trkpt lon="76.973359" lat="10.452642">
        <ele>312.0</ele>
        <time>2026-01-20T02:59:02Z</time>
      </trkpt>
      <trkpt lon="76.973475" lat="10.452595">
        <ele>312.0</ele>
        <time>2026-01-20T02:59:03Z</time>
      </trkpt>
      <trkpt lon="76.973596" lat="10.452559">
        <ele>313.0</ele>
        <time>2026-01-20T02:59:04Z</time>
      </trkpt>
      <trkpt lon="76.973721" lat="10.452521">
        <ele>314.0</ele>
        <time>2026-01-20T02:59:05Z</time>
      </trkpt>
      <trkpt lon="76.973852" lat="10.452481">
        <ele>315.0</ele>
        <time>2026-01-20T02:59:06Z</time>
      </trkpt>
      <trkpt lon="76.973969" lat="10.452445">
        <ele>317.0</ele>
        <time>2026-01-20T02:59:07Z</time>
      </trkpt>
      <trkpt lon="76.97409" lat="10.452412">
        <ele>318.0</ele>
        <time>2026-01-20T02:59:08Z</time>
      </trkpt>
      <trkpt lon="76.974209" lat="10.452396">
        <ele>319.0</ele>
        <time>2026-01-20T02:59:09Z</time>
      </trkpt>
      <trkpt lon="76.974334" lat="10.452393">
        <ele>320.0</ele>
        <time>2026-01-20T02:59:10Z</time>
      </trkpt>
      <trkpt lon="76.974466" lat="10.452397">
        <ele>322.0</ele>
        <time>2026-01-20T02:59:11Z</time>
      </trkpt>
      <trkpt lon="76.974594" lat="10.452422">
        <ele>323.0</ele>
        <time>2026-01-20T02:59:12Z</time>
      </trkpt>
      <trkpt lon="76.974719" lat="10.452459">
        <ele>324.0</ele>
        <time>2026-01-20T02:59:13Z</time>
      </trkpt>
      <trkpt lon="76.974847" lat="10.452504">
        <ele>325.0</ele>
        <time>2026-01-20T02:59:14Z</time>
      </trkpt>
      <trkpt lon="76.974972" lat="10.452542">
        <ele>327.0</ele>
        <time>2026-01-20T02:59:15Z</time>
      </trkpt>
      <trkpt lon="76.975102" lat="10.452574">
        <ele>328.0</ele>
        <time>2026-01-20T02:59:16Z</time>
      </trkpt>
      <trkpt lon="76.975233" lat="10.452607">
        <ele>329.0</ele>
        <time>2026-01-20T02:59:17Z</time>
      </trkpt>
      <trkpt lon="76.975361" lat="10.452638">
        <ele>330.0</ele>
        <time>2026-01-20T02:59:18Z</time>
      </trkpt>
      <trkpt lon="76.975485" lat="10.452666">
        <ele>330.0</ele>
        <time>2026-01-20T02:59:19Z</time>
      </trkpt>
      <trkpt lon="76.975598" lat="10.452686">
        <ele>331.0</ele>
        <time>2026-01-20T02:59:20Z</time>
      </trkpt>
      <trkpt lon="76.975697" lat="10.452704">
        <ele>332.0</ele>
        <time>2026-01-20T02:59:21Z</time>
      </trkpt>
      <trkpt lon="76.975866" lat="10.452752">
        <ele>334.0</ele>
        <time>2026-01-20T02:59:23Z</time>
      </trkpt>
      <trkpt lon="76.976026" lat="10.452759">
        <ele>334.0</ele>
        <time>2026-01-20T02:59:25Z</time>
      </trkpt>
      <trkpt lon="76.976163" lat="10.452676">
        <ele>334.0</ele>
        <time>2026-01-20T02:59:27Z</time>
      </trkpt>
      <trkpt lon="76.976292" lat="10.452593">
        <ele>337.0</ele>
        <time>2026-01-20T02:59:29Z</time>
      </trkpt>
      <trkpt lon="76.976388" lat="10.452668">
        <ele>340.0</ele>
        <time>2026-01-20T02:59:32Z</time>
      </trkpt>
      <trkpt lon="76.976383" lat="10.452781">
        <ele>340.0</ele>
        <time>2026-01-20T02:59:34Z</time>
      </trkpt>
      <trkpt lon="76.976379" lat="10.452927">
        <ele>341.0</ele>
        <time>2026-01-20T02:59:36Z</time>
      </trkpt>
      <trkpt lon="76.976454" lat="10.453064">
        <ele>341.0</ele>
        <time>2026-01-20T02:59:38Z</time>
      </trkpt>
      <trkpt lon="76.976619" lat="10.453079">
        <ele>341.0</ele>
        <time>2026-01-20T02:59:40Z</time>
      </trkpt>
      <trkpt lon="76.976759" lat="10.453015">
        <ele>341.0</ele>
        <time>2026-01-20T02:59:42Z</time>
      </trkpt>
      <trkpt lon="76.976882" lat="10.452988">
        <ele>343.0</ele>
        <time>2026-01-20T02:59:44Z</time>
      </trkpt>
      <trkpt lon="76.977007" lat="10.453079">
        <ele>344.0</ele>
        <time>2026-01-20T02:59:46Z</time>
      </trkpt>
      <trkpt lon="76.977162" lat="10.453182">
        <ele>346.0</ele>
        <time>2026-01-20T02:59:48Z</time>
      </trkpt>
      <trkpt lon="76.977238" lat="10.453232">
        <ele>347.0</ele>
        <time>2026-01-20T02:59:49Z</time>
      </trkpt>
      <trkpt lon="76.977299" lat="10.453388">
        <ele>350.0</ele>
        <time>2026-01-20T02:59:51Z</time>
      </trkpt>
      <trkpt lon="76.977336" lat="10.453534">
        <ele>350.0</ele>
        <time>2026-01-20T02:59:53Z</time>
      </trkpt>
      <trkpt lon="76.977503" lat="10.453606">
        <ele>351.0</ele>
        <time>2026-01-20T02:59:55Z</time>
      </trkpt>
      <trkpt lon="76.977592" lat="10.453647">
        <ele>353.0</ele>
        <time>2026-01-20T02:59:56Z</time>
      </trkpt>
      <trkpt lon="76.977672" lat="10.453716">
        <ele>354.0</ele>
        <time>2026-01-20T02:59:57Z</time>
      </trkpt>
      <trkpt lon="76.977734" lat="10.453798">
        <ele>356.0</ele>
        <time>2026-01-20T02:59:58Z</time>
      </trkpt>
      <trkpt lon="76.977785" lat="10.453886">
        <ele>357.0</ele>
        <time>2026-01-20T02:59:59Z</time>
      </trkpt>
      <trkpt lon="76.977872" lat="10.454026">
        <ele>357.0</ele>
        <time>2026-01-20T03:00:01Z</time>
      </trkpt>
      <trkpt lon="76.978034" lat="10.454104">
        <ele>358.0</ele>
        <time>2026-01-20T03:00:03Z</time>
      </trkpt>
      <trkpt lon="76.978126" lat="10.454113">
        <ele>359.0</ele>
        <time>2026-01-20T03:00:04Z</time>
      </trkpt>
      <trkpt lon="76.978219" lat="10.454114">
        <ele>360.0</ele>
        <time>2026-01-20T03:00:05Z</time>
      </trkpt>
      <trkpt lon="76.978312" lat="10.454117">
        <ele>361.0</ele>
        <time>2026-01-20T03:00:06Z</time>
      </trkpt>
      <trkpt lon="76.978466" lat="10.454175">
        <ele>362.0</ele>
        <time>2026-01-20T03:00:08Z</time>
      </trkpt>
      <trkpt lon="76.978547" lat="10.454327">
        <ele>363.0</ele>
        <time>2026-01-20T03:00:10Z</time>
      </trkpt>
      <trkpt lon="76.978566" lat="10.454422">
        <ele>364.0</ele>
        <time>2026-01-20T03:00:11Z</time>
      </trkpt>
      <trkpt lon="76.978585" lat="10.45452">
        <ele>364.0</ele>
        <time>2026-01-20T03:00:12Z</time>
      </trkpt>
      <trkpt lon="76.978614" lat="10.454618">
        <ele>366.0</ele>
        <time>2026-01-20T03:00:13Z</time>
      </trkpt>
      <trkpt lon="76.978644" lat="10.454778">
        <ele>366.0</ele>
        <time>2026-01-20T03:00:15Z</time>
      </trkpt>
      <trkpt lon="76.978624" lat="10.45493">
        <ele>367.0</ele>
        <time>2026-01-20T03:00:17Z</time>
      </trkpt>
      <trkpt lon="76.978613" lat="10.45505">
        <ele>369.0</ele>
        <time>2026-01-20T03:00:19Z</time>
      </trkpt>
      <trkpt lon="76.978684" lat="10.45513">
        <ele>370.0</ele>
        <time>2026-01-20T03:00:21Z</time>
      </trkpt>
      <trkpt lon="76.978816" lat="10.455093">
        <ele>371.0</ele>
        <time>2026-01-20T03:00:23Z</time>
      </trkpt>
      <trkpt lon="76.978969" lat="10.455003">
        <ele>373.0</ele>
        <time>2026-01-20T03:00:25Z</time>
      </trkpt>
      <trkpt lon="76.979052" lat="10.454951">
        <ele>373.0</ele>
        <time>2026-01-20T03:00:26Z</time>
      </trkpt>
      <trkpt lon="76.979141" lat="10.454891">
        <ele>374.0</ele>
        <time>2026-01-20T03:00:27Z</time>
      </trkpt>
      <trkpt lon="76.979239" lat="10.454834">
        <ele>375.0</ele>
        <time>2026-01-20T03:00:28Z</time>
      </trkpt>
      <trkpt lon="76.979343" lat="10.454781">
        <ele>377.0</ele>
        <time>2026-01-20T03:00:29Z</time>
      </trkpt>
      <trkpt lon="76.979451" lat="10.454736">
        <ele>378.0</ele>
        <time>2026-01-20T03:00:30Z</time>
      </trkpt>
      <trkpt lon="76.979557" lat="10.45469">
        <ele>379.0</ele>
        <time>2026-01-20T03:00:31Z</time>
      </trkpt>
      <trkpt lon="76.979663" lat="10.454646">
        <ele>380.0</ele>
        <time>2026-01-20T03:00:32Z</time>
      </trkpt>
      <trkpt lon="76.979774" lat="10.454613">
        <ele>380.0</ele>
        <time>2026-01-20T03:00:33Z</time>
      </trkpt>
      <trkpt lon="76.979888" lat="10.454595">
        <ele>382.0</ele>
        <time>2026-01-20T03:00:34Z</time>
      </trkpt>
      <trkpt lon="76.980001" lat="10.454577">
        <ele>383.0</ele>
        <time>2026-01-20T03:00:35Z</time>
      </trkpt>
      <trkpt lon="76.980103" lat="10.454555">
        <ele>384.0</ele>
        <time>2026-01-20T03:00:36Z</time>
      </trkpt>
      <trkpt lon="76.980257" lat="10.45452">
        <ele>385.0</ele>
        <time>2026-01-20T03:00:38Z</time>
      </trkpt>
      <trkpt lon="76.980366" lat="10.454498">
        <ele>385.0</ele>
        <time>2026-01-20T03:00:40Z</time>
      </trkpt>
      <trkpt lon="76.980413" lat="10.454386">
        <ele>386.0</ele>
        <time>2026-01-20T03:00:43Z</time>
      </trkpt>
      <trkpt lon="76.980299" lat="10.454334">
        <ele>387.0</ele>
        <time>2026-01-20T03:00:45Z</time>
      </trkpt>
      <trkpt lon="76.980138" lat="10.454361">
        <ele>387.0</ele>
        <time>2026-01-20T03:00:47Z</time>
      </trkpt>
      <trkpt lon="76.980047" lat="10.454388">
        <ele>388.0</ele>
        <time>2026-01-20T03:00:48Z</time>
      </trkpt>
      <trkpt lon="76.979949" lat="10.454413">
        <ele>387.0</ele>
        <time>2026-01-20T03:00:49Z</time>
      </trkpt>
      <trkpt lon="76.979838" lat="10.454425">
        <ele>388.0</ele>
        <time>2026-01-20T03:00:50Z</time>
      </trkpt>
      <trkpt lon="76.97973" lat="10.45443">
        <ele>389.0</ele>
        <time>2026-01-20T03:00:51Z</time>
      </trkpt>
      <trkpt lon="76.979619" lat="10.454439">
        <ele>389.0</ele>
        <time>2026-01-20T03:00:52Z</time>
      </trkpt>
      <trkpt lon="76.979511" lat="10.454433">
        <ele>390.0</ele>
        <time>2026-01-20T03:00:53Z</time>
      </trkpt>
      <trkpt lon="76.97942" lat="10.454422">
        <ele>391.0</ele>
        <time>2026-01-20T03:00:54Z</time>
      </trkpt>
      <trkpt lon="76.979336" lat="10.45438">
        <ele>392.0</ele>
        <time>2026-01-20T03:00:55Z</time>
      </trkpt>
      <trkpt lon="76.979215" lat="10.454259">
        <ele>393.0</ele>
        <time>2026-01-20T03:00:57Z</time>
      </trkpt>
      <trkpt lon="76.979187" lat="10.454084">
        <ele>394.0</ele>
        <time>2026-01-20T03:00:59Z</time>
      </trkpt>
      <trkpt lon="76.979199" lat="10.453983">
        <ele>395.0</ele>
        <time>2026-01-20T03:01:00Z</time>
      </trkpt>
      <trkpt lon="76.979212" lat="10.453878">
        <ele>395.0</ele>
        <time>2026-01-20T03:01:01Z</time>
      </trkpt>
      <trkpt lon="76.979228" lat="10.453774">
        <ele>395.0</ele>
        <time>2026-01-20T03:01:02Z</time>
      </trkpt>
      <trkpt lon="76.979239" lat="10.453675">
        <ele>396.0</ele>
        <time>2026-01-20T03:01:03Z</time>
      </trkpt>
      <trkpt lon="76.979254" lat="10.453575">
        <ele>396.0</ele>
        <time>2026-01-20T03:01:04Z</time>
      </trkpt>
      <trkpt lon="76.979263" lat="10.45348">
        <ele>396.0</ele>
        <time>2026-01-20T03:01:05Z</time>
      </trkpt>
      <trkpt lon="76.979254" lat="10.453379">
        <ele>396.0</ele>
        <time>2026-01-20T03:01:06Z</time>
      </trkpt>
      <trkpt lon="76.979223" lat="10.453283">
        <ele>396.0</ele>
        <time>2026-01-20T03:01:07Z</time>
      </trkpt>
      <trkpt lon="76.979163" lat="10.453212">
        <ele>396.0</ele>
        <time>2026-01-20T03:01:08Z</time>
      </trkpt>
      <trkpt lon="76.979088" lat="10.453137">
        <ele>396.0</ele>
        <time>2026-01-20T03:01:09Z</time>
      </trkpt>
      <trkpt lon="76.979011" lat="10.453068">
        <ele>396.0</ele>
        <time>2026-01-20T03:01:10Z</time>
      </trkpt>
      <trkpt lon="76.978928" lat="10.453004">
        <ele>396.0</ele>
        <time>2026-01-20T03:01:11Z</time>
      </trkpt>
      <trkpt lon="76.978836" lat="10.452964">
        <ele>397.0</ele>
        <time>2026-01-20T03:01:12Z</time>
      </trkpt>
      <trkpt lon="76.97874" lat="10.452925">
        <ele>397.0</ele>
        <time>2026-01-20T03:01:13Z</time>
      </trkpt>
      <trkpt lon="76.978652" lat="10.452884">
        <ele>398.0</ele>
        <time>2026-01-20T03:01:14Z</time>
      </trkpt>
      <trkpt lon="76.97855" lat="10.45275">
        <ele>399.0</ele>
        <time>2026-01-20T03:01:16Z</time>
      </trkpt>
      <trkpt lon="76.97852" lat="10.45266">
        <ele>398.0</ele>
        <time>2026-01-20T03:01:17Z</time>
      </trkpt>
      <trkpt lon="76.978498" lat="10.452567">
        <ele>399.0</ele>
        <time>2026-01-20T03:01:18Z</time>
      </trkpt>
      <trkpt lon="76.978484" lat="10.452475">
        <ele>400.0</ele>
        <time>2026-01-20T03:01:19Z</time>
      </trkpt>
      <trkpt lon="76.978491" lat="10.452384">
        <ele>400.0</ele>
        <time>2026-01-20T03:01:20Z</time>
      </trkpt>
      <trkpt lon="76.978516" lat="10.452293">
        <ele>401.0</ele>
        <time>2026-01-20T03:01:21Z</time>
      </trkpt>
      <trkpt lon="76.978555" lat="10.452209">
        <ele>403.0</ele>
        <time>2026-01-20T03:01:22Z</time>
      </trkpt>
      <trkpt lon="76.978638" lat="10.452077">
        <ele>404.0</ele>
        <time>2026-01-20T03:01:24Z</time>
      </trkpt>
      <trkpt lon="76.978635" lat="10.451959">
        <ele>405.0</ele>
        <time>2026-01-20T03:01:26Z</time>
      </trkpt>
      <trkpt lon="76.978558" lat="10.451845">
        <ele>405.0</ele>
        <time>2026-01-20T03:01:28Z</time>
      </trkpt>
      <trkpt lon="76.978408" lat="10.451756">
        <ele>405.0</ele>
        <time>2026-01-20T03:01:30Z</time>
      </trkpt>
      <trkpt lon="76.978344" lat="10.451688">
        <ele>405.0</ele>
        <time>2026-01-20T03:01:31Z</time>
      </trkpt>
      <trkpt lon="76.978269" lat="10.451619">
        <ele>406.0</ele>
        <time>2026-01-20T03:01:32Z</time>
      </trkpt>
      <trkpt lon="76.978114" lat="10.451535">
        <ele>407.0</ele>
        <time>2026-01-20T03:01:34Z</time>
      </trkpt>
      <trkpt lon="76.977925" lat="10.451558">
        <ele>412.0</ele>
        <time>2026-01-20T03:01:36Z</time>
      </trkpt>
      <trkpt lon="76.977847" lat="10.451606">
        <ele>413.0</ele>
        <time>2026-01-20T03:01:37Z</time>
      </trkpt>
      <trkpt lon="76.977709" lat="10.451691">
        <ele>416.0</ele>
        <time>2026-01-20T03:01:39Z</time>
      </trkpt>
      <trkpt lon="76.977603" lat="10.451671">
        <ele>417.0</ele>
        <time>2026-01-20T03:01:41Z</time>
      </trkpt>
      <trkpt lon="76.977524" lat="10.451569">
        <ele>418.0</ele>
        <time>2026-01-20T03:01:43Z</time>
      </trkpt>
      <trkpt lon="76.977468" lat="10.451419">
        <ele>417.0</ele>
        <time>2026-01-20T03:01:45Z</time>
      </trkpt>
      <trkpt lon="76.977343" lat="10.451284">
        <ele>418.0</ele>
        <time>2026-01-20T03:01:47Z</time>
      </trkpt>
      <trkpt lon="76.977258" lat="10.45122">
        <ele>418.0</ele>
        <time>2026-01-20T03:01:48Z</time>
      </trkpt>
      <trkpt lon="76.977181" lat="10.451143">
        <ele>419.0</ele>
        <time>2026-01-20T03:01:49Z</time>
      </trkpt>
      <trkpt lon="76.977112" lat="10.451062">
        <ele>421.0</ele>
        <time>2026-01-20T03:01:50Z</time>
      </trkpt>
      <trkpt lon="76.977038" lat="10.45098">
        <ele>421.0</ele>
        <time>2026-01-20T03:01:51Z</time>
      </trkpt>
      <trkpt lon="76.976963" lat="10.450905">
        <ele>421.0</ele>
        <time>2026-01-20T03:01:52Z</time>
      </trkpt>
      <trkpt lon="76.976873" lat="10.450839">
        <ele>422.0</ele>
        <time>2026-01-20T03:01:53Z</time>
      </trkpt>
      <trkpt lon="76.976773" lat="10.450784">
        <ele>423.0</ele>
        <time>2026-01-20T03:01:54Z</time>
      </trkpt>
      <trkpt lon="76.976671" lat="10.450735">
        <ele>425.0</ele>
        <time>2026-01-20T03:01:55Z</time>
      </trkpt>
      <trkpt lon="76.976572" lat="10.45068">
        <ele>426.0</ele>
        <time>2026-01-20T03:01:56Z</time>
      </trkpt>
      <trkpt lon="76.976481" lat="10.450623">
        <ele>427.0</ele>
        <time>2026-01-20T03:01:57Z</time>
      </trkpt>
      <trkpt lon="76.976396" lat="10.450569">
        <ele>428.0</ele>
        <time>2026-01-20T03:01:58Z</time>
      </trkpt>
      <trkpt lon="76.976317" lat="10.450511">
        <ele>429.0</ele>
        <time>2026-01-20T03:01:59Z</time>
      </trkpt>
      <trkpt lon="76.976233" lat="10.450466">
        <ele>430.0</ele>
        <time>2026-01-20T03:02:00Z</time>
      </trkpt>
      <trkpt lon="76.976076" lat="10.450444">
        <ele>433.0</ele>
        <time>2026-01-20T03:02:02Z</time>
      </trkpt>
      <trkpt lon="76.975937" lat="10.450438">
        <ele>434.0</ele>
        <time>2026-01-20T03:02:04Z</time>
      </trkpt>
      <trkpt lon="76.975776" lat="10.450361">
        <ele>437.0</ele>
        <time>2026-01-20T03:02:06Z</time>
      </trkpt>
      <trkpt lon="76.975701" lat="10.450304">
        <ele>438.0</ele>
        <time>2026-01-20T03:02:07Z</time>
      </trkpt>
      <trkpt lon="76.975644" lat="10.450231">
        <ele>439.0</ele>
        <time>2026-01-20T03:02:08Z</time>
      </trkpt>
      <trkpt lon="76.975613" lat="10.450144">
        <ele>440.0</ele>
        <time>2026-01-20T03:02:09Z</time>
      </trkpt>
      <trkpt lon="76.975562" lat="10.450013">
        <ele>440.0</ele>
        <time>2026-01-20T03:02:11Z</time>
      </trkpt>
      <trkpt lon="76.975461" lat="10.449928">
        <ele>443.0</ele>
        <time>2026-01-20T03:02:13Z</time>
      </trkpt>
      <trkpt lon="76.975291" lat="10.449915">
        <ele>445.0</ele>
        <time>2026-01-20T03:02:15Z</time>
      </trkpt>
      <trkpt lon="76.975191" lat="10.449921">
        <ele>446.0</ele>
        <time>2026-01-20T03:02:16Z</time>
      </trkpt>
      <trkpt lon="76.975085" lat="10.449932">
        <ele>446.0</ele>
        <time>2026-01-20T03:02:17Z</time>
      </trkpt>
      <trkpt lon="76.974979" lat="10.449941">
        <ele>446.0</ele>
        <time>2026-01-20T03:02:18Z</time>
      </trkpt>
      <trkpt lon="76.974871" lat="10.44993">
        <ele>447.0</ele>
        <time>2026-01-20T03:02:19Z</time>
      </trkpt>
      <trkpt lon="76.974763" lat="10.449921">
        <ele>448.0</ele>
        <time>2026-01-20T03:02:20Z</time>
      </trkpt>
      <trkpt lon="76.974652" lat="10.449907">
        <ele>450.0</ele>
        <time>2026-01-20T03:02:21Z</time>
      </trkpt>
      <trkpt lon="76.974553" lat="10.449891">
        <ele>451.0</ele>
        <time>2026-01-20T03:02:22Z</time>
      </trkpt>
      <trkpt lon="76.97446" lat="10.449862">
        <ele>453.0</ele>
        <time>2026-01-20T03:02:23Z</time>
      </trkpt>
      <trkpt lon="76.974366" lat="10.449812">
        <ele>453.0</ele>
        <time>2026-01-20T03:02:24Z</time>
      </trkpt>
      <trkpt lon="76.974267" lat="10.449759">
        <ele>454.0</ele>
        <time>2026-01-20T03:02:25Z</time>
      </trkpt>
      <trkpt lon="76.974173" lat="10.449706">
        <ele>455.0</ele>
        <time>2026-01-20T03:02:26Z</time>
      </trkpt>
      <trkpt lon="76.974078" lat="10.449653">
        <ele>456.0</ele>
        <time>2026-01-20T03:02:27Z</time>
      </trkpt>
      <trkpt lon="76.973982" lat="10.449601">
        <ele>456.0</ele>
        <time>2026-01-20T03:02:28Z</time>
      </trkpt>
      <trkpt lon="76.973895" lat="10.449533">
        <ele>458.0</ele>
        <time>2026-01-20T03:02:29Z</time>
      </trkpt>
      <trkpt lon="76.973826" lat="10.449464">
        <ele>458.0</ele>
        <time>2026-01-20T03:02:30Z</time>
      </trkpt>
      <trkpt lon="76.973752" lat="10.4494">
        <ele>459.0</ele>
        <time>2026-01-20T03:02:31Z</time>
      </trkpt>
      <trkpt lon="76.973601" lat="10.449302">
        <ele>460.0</ele>
        <time>2026-01-20T03:02:33Z</time>
      </trkpt>
      <trkpt lon="76.973467" lat="10.44926">
        <ele>463.0</ele>
        <time>2026-01-20T03:02:35Z</time>
      </trkpt>
      <trkpt lon="76.973352" lat="10.449202">
        <ele>464.0</ele>
        <time>2026-01-20T03:02:37Z</time>
      </trkpt>
      <trkpt lon="76.973258" lat="10.449148">
        <ele>465.0</ele>
        <time>2026-01-20T03:02:39Z</time>
      </trkpt>
      <trkpt lon="76.973252" lat="10.449051">
        <ele>466.0</ele>
        <time>2026-01-20T03:02:42Z</time>
      </trkpt>
      <trkpt lon="76.973409" lat="10.449143">
        <ele>467.0</ele>
        <time>2026-01-20T03:02:45Z</time>
      </trkpt>
      <trkpt lon="76.973494" lat="10.449199">
        <ele>467.0</ele>
        <time>2026-01-20T03:02:46Z</time>
      </trkpt>
      <trkpt lon="76.973584" lat="10.449244">
        <ele>468.0</ele>
        <time>2026-01-20T03:02:47Z</time>
      </trkpt>
      <trkpt lon="76.973685" lat="10.449278">
        <ele>468.0</ele>
        <time>2026-01-20T03:02:48Z</time>
      </trkpt>
      <trkpt lon="76.973783" lat="10.44932">
        <ele>469.0</ele>
        <time>2026-01-20T03:02:49Z</time>
      </trkpt>
      <trkpt lon="76.973873" lat="10.449366">
        <ele>469.0</ele>
        <time>2026-01-20T03:02:50Z</time>
      </trkpt>
      <trkpt lon="76.973965" lat="10.449421">
        <ele>470.0</ele>
        <time>2026-01-20T03:02:51Z</time>
      </trkpt>
      <trkpt lon="76.974059" lat="10.449477">
        <ele>471.0</ele>
        <time>2026-01-20T03:02:52Z</time>
      </trkpt>
      <trkpt lon="76.974159" lat="10.449521">
        <ele>471.0</ele>
        <time>2026-01-20T03:02:53Z</time>
      </trkpt>
      <trkpt lon="76.974261" lat="10.44956">
        <ele>472.0</ele>
        <time>2026-01-20T03:02:54Z</time>
      </trkpt>
      <trkpt lon="76.974366" lat="10.449599">
        <ele>473.0</ele>
        <time>2026-01-20T03:02:55Z</time>
      </trkpt>
      <trkpt lon="76.974476" lat="10.449632">
        <ele>474.0</ele>
        <time>2026-01-20T03:02:56Z</time>
      </trkpt>
      <trkpt lon="76.974583" lat="10.449661">
        <ele>474.0</ele>
        <time>2026-01-20T03:02:57Z</time>
      </trkpt>
      <trkpt lon="76.974698" lat="10.449671">
        <ele>474.0</ele>
        <time>2026-01-20T03:02:58Z</time>
      </trkpt>
      <trkpt lon="76.974819" lat="10.44967">
        <ele>474.0</ele>
        <time>2026-01-20T03:02:59Z</time>
      </trkpt>
      <trkpt lon="76.974937" lat="10.449664">
        <ele>476.0</ele>
        <time>2026-01-20T03:03:00Z</time>
      </trkpt>
      <trkpt lon="76.975054" lat="10.449654">
        <ele>477.0</ele>
        <time>2026-01-20T03:03:01Z</time>
      </trkpt>
      <trkpt lon="76.975163" lat="10.449635">
        <ele>478.0</ele>
        <time>2026-01-20T03:03:02Z</time>
      </trkpt>
      <trkpt lon="76.975274" lat="10.449614">
        <ele>479.0</ele>
        <time>2026-01-20T03:03:03Z</time>
      </trkpt>
      <trkpt lon="76.97538" lat="10.449596">
        <ele>480.0</ele>
        <time>2026-01-20T03:03:04Z</time>
      </trkpt>
      <trkpt lon="76.975485" lat="10.449587">
        <ele>481.0</ele>
        <time>2026-01-20T03:03:05Z</time>
      </trkpt>
      <trkpt lon="76.975591" lat="10.44959">
        <ele>481.0</ele>
        <time>2026-01-20T03:03:06Z</time>
      </trkpt>
      <trkpt lon="76.975692" lat="10.449604">
        <ele>481.0</ele>
        <time>2026-01-20T03:03:07Z</time>
      </trkpt>
      <trkpt lon="76.975792" lat="10.449626">
        <ele>481.0</ele>
        <time>2026-01-20T03:03:08Z</time>
      </trkpt>
      <trkpt lon="76.975892" lat="10.449679">
        <ele>481.0</ele>
        <time>2026-01-20T03:03:09Z</time>
      </trkpt>
      <trkpt lon="76.975996" lat="10.449739">
        <ele>482.0</ele>
        <time>2026-01-20T03:03:10Z</time>
      </trkpt>
      <trkpt lon="76.976097" lat="10.449796">
        <ele>483.0</ele>
        <time>2026-01-20T03:03:11Z</time>
      </trkpt>
      <trkpt lon="76.976202" lat="10.449839">
        <ele>483.0</ele>
        <time>2026-01-20T03:03:12Z</time>
      </trkpt>
      <trkpt lon="76.976308" lat="10.449875">
        <ele>484.0</ele>
        <time>2026-01-20T03:03:13Z</time>
      </trkpt>
      <trkpt lon="76.976411" lat="10.449912">
        <ele>485.0</ele>
        <time>2026-01-20T03:03:14Z</time>
      </trkpt>
      <trkpt lon="76.9765" lat="10.44995">
        <ele>486.0</ele>
        <time>2026-01-20T03:03:15Z</time>
      </trkpt>
      <trkpt lon="76.976603" lat="10.45007">
        <ele>487.0</ele>
        <time>2026-01-20T03:03:17Z</time>
      </trkpt>
      <trkpt lon="76.976735" lat="10.45019">
        <ele>489.0</ele>
        <time>2026-01-20T03:03:19Z</time>
      </trkpt>
      <trkpt lon="76.976828" lat="10.450223">
        <ele>490.0</ele>
        <time>2026-01-20T03:03:20Z</time>
      </trkpt>
      <trkpt lon="76.976923" lat="10.450252">
        <ele>491.0</ele>
        <time>2026-01-20T03:03:21Z</time>
      </trkpt>
      <trkpt lon="76.977026" lat="10.450276">
        <ele>491.0</ele>
        <time>2026-01-20T03:03:22Z</time>
      </trkpt>
      <trkpt lon="76.977138" lat="10.450291">
        <ele>492.0</ele>
        <time>2026-01-20T03:03:23Z</time>
      </trkpt>
      <trkpt lon="76.977252" lat="10.450306">
        <ele>493.0</ele>
        <time>2026-01-20T03:03:24Z</time>
      </trkpt>
      <trkpt lon="76.977364" lat="10.450327">
        <ele>495.0</ele>
        <time>2026-01-20T03:03:25Z</time>
      </trkpt>
      <trkpt lon="76.977464" lat="10.450357">
        <ele>496.0</ele>
        <time>2026-01-20T03:03:26Z</time>
      </trkpt>
      <trkpt lon="76.977562" lat="10.4504">
        <ele>496.0</ele>
        <time>2026-01-20T03:03:27Z</time>
      </trkpt>
      <trkpt lon="76.977672" lat="10.450419">
        <ele>496.0</ele>
        <time>2026-01-20T03:03:28Z</time>
      </trkpt>
      <trkpt lon="76.977787" lat="10.450429">
        <ele>496.0</ele>
        <time>2026-01-20T03:03:29Z</time>
      </trkpt>
      <trkpt lon="76.9779" lat="10.450444">
        <ele>497.0</ele>
        <time>2026-01-20T03:03:30Z</time>
      </trkpt>
      <trkpt lon="76.978015" lat="10.450478">
        <ele>498.0</ele>
        <time>2026-01-20T03:03:31Z</time>
      </trkpt>
      <trkpt lon="76.978117" lat="10.450512">
        <ele>499.0</ele>
        <time>2026-01-20T03:03:32Z</time>
      </trkpt>
      <trkpt lon="76.978213" lat="10.450541">
        <ele>499.0</ele>
        <time>2026-01-20T03:03:33Z</time>
      </trkpt>
      <trkpt lon="76.978378" lat="10.45058">
        <ele>501.0</ele>
        <time>2026-01-20T03:03:35Z</time>
      </trkpt>
      <trkpt lon="76.978544" lat="10.450568">
        <ele>502.0</ele>
        <time>2026-01-20T03:03:37Z</time>
      </trkpt>
      <trkpt lon="76.978695" lat="10.450484">
        <ele>503.0</ele>
        <time>2026-01-20T03:03:39Z</time>
      </trkpt>
      <trkpt lon="76.978791" lat="10.450444">
        <ele>503.0</ele>
        <time>2026-01-20T03:03:40Z</time>
      </trkpt>
      <trkpt lon="76.978888" lat="10.450429">
        <ele>504.0</ele>
        <time>2026-01-20T03:03:41Z</time>
      </trkpt>
      <trkpt lon="76.979066" lat="10.450462">
        <ele>505.0</ele>
        <time>2026-01-20T03:03:43Z</time>
      </trkpt>
      <trkpt lon="76.979238" lat="10.450457">
        <ele>506.0</ele>
        <time>2026-01-20T03:03:45Z</time>
      </trkpt>
      <trkpt lon="76.97933" lat="10.450427">
        <ele>508.0</ele>
        <time>2026-01-20T03:03:46Z</time>
      </trkpt>
      <trkpt lon="76.97943" lat="10.450395">
        <ele>509.0</ele>
        <time>2026-01-20T03:03:47Z</time>
      </trkpt>
      <trkpt lon="76.979531" lat="10.450383">
        <ele>509.0</ele>
        <time>2026-01-20T03:03:48Z</time>
      </trkpt>
      <trkpt lon="76.979638" lat="10.450378">
        <ele>510.0</ele>
        <time>2026-01-20T03:03:49Z</time>
      </trkpt>
      <trkpt lon="76.979737" lat="10.450368">
        <ele>510.0</ele>
        <time>2026-01-20T03:03:50Z</time>
      </trkpt>
      <trkpt lon="76.979832" lat="10.450363">
        <ele>511.0</ele>
        <time>2026-01-20T03:03:51Z</time>
      </trkpt>
      <trkpt lon="76.97993" lat="10.450362">
        <ele>512.0</ele>
        <time>2026-01-20T03:03:52Z</time>
      </trkpt>
      <trkpt lon="76.980087" lat="10.450413">
        <ele>513.0</ele>
        <time>2026-01-20T03:03:54Z</time>
      </trkpt>
      <trkpt lon="76.980207" lat="10.450524">
        <ele>513.0</ele>
        <time>2026-01-20T03:03:56Z</time>
      </trkpt>
      <trkpt lon="76.980271" lat="10.450594">
        <ele>514.0</ele>
        <time>2026-01-20T03:03:57Z</time>
      </trkpt>
      <trkpt lon="76.980332" lat="10.450673">
        <ele>514.0</ele>
        <time>2026-01-20T03:03:58Z</time>
      </trkpt>
      <trkpt lon="76.98039" lat="10.450747">
        <ele>514.0</ele>
        <time>2026-01-20T03:03:59Z</time>
      </trkpt>
      <trkpt lon="76.980445" lat="10.450829">
        <ele>515.0</ele>
        <time>2026-01-20T03:04:00Z</time>
      </trkpt>
      <trkpt lon="76.980506" lat="10.450913">
        <ele>516.0</ele>
        <time>2026-01-20T03:04:01Z</time>
      </trkpt>
      <trkpt lon="76.980568" lat="10.450981">
        <ele>516.0</ele>
        <time>2026-01-20T03:04:02Z</time>
      </trkpt>
      <trkpt lon="76.98065" lat="10.451025">
        <ele>517.0</ele>
        <time>2026-01-20T03:04:03Z</time>
      </trkpt>
      <trkpt lon="76.980825" lat="10.451046">
        <ele>518.0</ele>
        <time>2026-01-20T03:04:05Z</time>
      </trkpt>
      <trkpt lon="76.980983" lat="10.45106">
        <ele>519.0</ele>
        <time>2026-01-20T03:04:07Z</time>
      </trkpt>
      <trkpt lon="76.981068" lat="10.451163">
        <ele>521.0</ele>
        <time>2026-01-20T03:04:09Z</time>
      </trkpt>
      <trkpt lon="76.981061" lat="10.451254">
        <ele>520.0</ele>
        <time>2026-01-20T03:04:10Z</time>
      </trkpt>
      <trkpt lon="76.981065" lat="10.451345">
        <ele>521.0</ele>
        <time>2026-01-20T03:04:11Z</time>
      </trkpt>
      <trkpt lon="76.98107" lat="10.451436">
        <ele>522.0</ele>
        <time>2026-01-20T03:04:12Z</time>
      </trkpt>
      <trkpt lon="76.981096" lat="10.451526">
        <ele>522.0</ele>
        <time>2026-01-20T03:04:13Z</time>
      </trkpt>
      <trkpt lon="76.981146" lat="10.45161">
        <ele>524.0</ele>
        <time>2026-01-20T03:04:14Z</time>
      </trkpt>
      <trkpt lon="76.981216" lat="10.45168">
        <ele>525.0</ele>
        <time>2026-01-20T03:04:15Z</time>
      </trkpt>
      <trkpt lon="76.981316" lat="10.451736">
        <ele>526.0</ele>
        <time>2026-01-20T03:04:16Z</time>
      </trkpt>
      <trkpt lon="76.981423" lat="10.45177">
        <ele>528.0</ele>
        <time>2026-01-20T03:04:17Z</time>
      </trkpt>
      <trkpt lon="76.981532" lat="10.451788">
        <ele>529.0</ele>
        <time>2026-01-20T03:04:18Z</time>
      </trkpt>
      <trkpt lon="76.981639" lat="10.451812">
        <ele>530.0</ele>
        <time>2026-01-20T03:04:19Z</time>
      </trkpt>
      <trkpt lon="76.981753" lat="10.451835">
        <ele>532.0</ele>
        <time>2026-01-20T03:04:20Z</time>
      </trkpt>
      <trkpt lon="76.981874" lat="10.451863">
        <ele>533.0</ele>
        <time>2026-01-20T03:04:21Z</time>
      </trkpt>
      <trkpt lon="76.981991" lat="10.451893">
        <ele>533.0</ele>
        <time>2026-01-20T03:04:22Z</time>
      </trkpt>
      <trkpt lon="76.982102" lat="10.451901">
        <ele>533.0</ele>
        <time>2026-01-20T03:04:23Z</time>
      </trkpt>
      <trkpt lon="76.982199" lat="10.451885">
        <ele>535.0</ele>
        <time>2026-01-20T03:04:24Z</time>
      </trkpt>
      <trkpt lon="76.982289" lat="10.45183">
        <ele>535.0</ele>
        <time>2026-01-20T03:04:25Z</time>
      </trkpt>
      <trkpt lon="76.982366" lat="10.451767">
        <ele>534.0</ele>
        <time>2026-01-20T03:04:26Z</time>
      </trkpt>
      <trkpt lon="76.982437" lat="10.451701">
        <ele>534.0</ele>
        <time>2026-01-20T03:04:27Z</time>
      </trkpt>
      <trkpt lon="76.982497" lat="10.451614">
        <ele>535.0</ele>
        <time>2026-01-20T03:04:28Z</time>
      </trkpt>
      <trkpt lon="76.982565" lat="10.45153">
        <ele>536.0</ele>
        <time>2026-01-20T03:04:29Z</time>
      </trkpt>
      <trkpt lon="76.982646" lat="10.451459">
        <ele>538.0</ele>
        <time>2026-01-20T03:04:30Z</time>
      </trkpt>
      <trkpt lon="76.982731" lat="10.451403">
        <ele>538.0</ele>
        <time>2026-01-20T03:04:31Z</time>
      </trkpt>
      <trkpt lon="76.982817" lat="10.451346">
        <ele>538.0</ele>
        <time>2026-01-20T03:04:32Z</time>
      </trkpt>
      <trkpt lon="76.982945" lat="10.451279">
        <ele>540.0</ele>
        <time>2026-01-20T03:04:34Z</time>
      </trkpt>
      <trkpt lon="76.983077" lat="10.451311">
        <ele>541.0</ele>
        <time>2026-01-20T03:04:36Z</time>
      </trkpt>
      <trkpt lon="76.983172" lat="10.451409">
        <ele>543.0</ele>
        <time>2026-01-20T03:04:38Z</time>
      </trkpt>
      <trkpt lon="76.983239" lat="10.451491">
        <ele>544.0</ele>
        <time>2026-01-20T03:04:40Z</time>
      </trkpt>
      <trkpt lon="76.983331" lat="10.451399">
        <ele>543.0</ele>
        <time>2026-01-20T03:04:43Z</time>
      </trkpt>
      <trkpt lon="76.983261" lat="10.451278">
        <ele>543.0</ele>
        <time>2026-01-20T03:04:45Z</time>
      </trkpt>
      <trkpt lon="76.983154" lat="10.451168">
        <ele>544.0</ele>
        <time>2026-01-20T03:04:47Z</time>
      </trkpt>
      <trkpt lon="76.983033" lat="10.45106">
        <ele>545.0</ele>
        <time>2026-01-20T03:04:49Z</time>
      </trkpt>
      <trkpt lon="76.982872" lat="10.451063">
        <ele>546.0</ele>
        <time>2026-01-20T03:04:51Z</time>
      </trkpt>
      <trkpt lon="76.982696" lat="10.45112">
        <ele>547.0</ele>
        <time>2026-01-20T03:04:53Z</time>
      </trkpt>
      <trkpt lon="76.982592" lat="10.451138">
        <ele>549.0</ele>
        <time>2026-01-20T03:04:54Z</time>
      </trkpt>
      <trkpt lon="76.98248" lat="10.451151">
        <ele>550.0</ele>
        <time>2026-01-20T03:04:55Z</time>
      </trkpt>
      <trkpt lon="76.982361" lat="10.451163">
        <ele>552.0</ele>
        <time>2026-01-20T03:04:56Z</time>
      </trkpt>
      <trkpt lon="76.982258" lat="10.451169">
        <ele>551.0</ele>
        <time>2026-01-20T03:04:57Z</time>
      </trkpt>
      <trkpt lon="76.982153" lat="10.451173">
        <ele>552.0</ele>
        <time>2026-01-20T03:04:58Z</time>
      </trkpt>
      <trkpt lon="76.982046" lat="10.451165">
        <ele>552.0</ele>
        <time>2026-01-20T03:04:59Z</time>
      </trkpt>
      <trkpt lon="76.981931" lat="10.45114">
        <ele>553.0</ele>
        <time>2026-01-20T03:05:00Z</time>
      </trkpt>
      <trkpt lon="76.981827" lat="10.451102">
        <ele>555.0</ele>
        <time>2026-01-20T03:05:01Z</time>
      </trkpt>
      <trkpt lon="76.981725" lat="10.451057">
        <ele>556.0</ele>
        <time>2026-01-20T03:05:02Z</time>
      </trkpt>
      <trkpt lon="76.981641" lat="10.450992">
        <ele>557.0</ele>
        <time>2026-01-20T03:05:03Z</time>
      </trkpt>
      <trkpt lon="76.981573" lat="10.45091">
        <ele>559.0</ele>
        <time>2026-01-20T03:05:04Z</time>
      </trkpt>
      <trkpt lon="76.98152" lat="10.450811">
        <ele>559.0</ele>
        <time>2026-01-20T03:05:05Z</time>
      </trkpt>
      <trkpt lon="76.981473" lat="10.45072">
        <ele>560.0</ele>
        <time>2026-01-20T03:05:06Z</time>
      </trkpt>
      <trkpt lon="76.981371" lat="10.450587">
        <ele>561.0</ele>
        <time>2026-01-20T03:05:08Z</time>
      </trkpt>
      <trkpt lon="76.981272" lat="10.450492">
        <ele>562.0</ele>
        <time>2026-01-20T03:05:10Z</time>
      </trkpt>
      <trkpt lon="76.981257" lat="10.450392">
        <ele>565.0</ele>
        <time>2026-01-20T03:05:13Z</time>
      </trkpt>
      <trkpt lon="76.981369" lat="10.450417">
        <ele>568.0</ele>
        <time>2026-01-20T03:05:16Z</time>
      </trkpt>
      <trkpt lon="76.98145" lat="10.450555">
        <ele>568.0</ele>
        <time>2026-01-20T03:05:18Z</time>
      </trkpt>
      <trkpt lon="76.981506" lat="10.450635">
        <ele>569.0</ele>
        <time>2026-01-20T03:05:19Z</time>
      </trkpt>
      <trkpt lon="76.981585" lat="10.450698">
        <ele>570.0</ele>
        <time>2026-01-20T03:05:20Z</time>
      </trkpt>
      <trkpt lon="76.981671" lat="10.450755">
        <ele>570.0</ele>
        <time>2026-01-20T03:05:21Z</time>
      </trkpt>
      <trkpt lon="76.98178" lat="10.450773">
        <ele>571.0</ele>
        <time>2026-01-20T03:05:22Z</time>
      </trkpt>
      <trkpt lon="76.981883" lat="10.450772">
        <ele>570.0</ele>
        <time>2026-01-20T03:05:23Z</time>
      </trkpt>
      <trkpt lon="76.981988" lat="10.450767">
        <ele>572.0</ele>
        <time>2026-01-20T03:05:24Z</time>
      </trkpt>
      <trkpt lon="76.982101" lat="10.450779">
        <ele>573.0</ele>
        <time>2026-01-20T03:05:25Z</time>
      </trkpt>
      <trkpt lon="76.982206" lat="10.450811">
        <ele>574.0</ele>
        <time>2026-01-20T03:05:26Z</time>
      </trkpt>
      <trkpt lon="76.982312" lat="10.450847">
        <ele>574.0</ele>
        <time>2026-01-20T03:05:27Z</time>
      </trkpt>
      <trkpt lon="76.982419" lat="10.450867">
        <ele>574.0</ele>
        <time>2026-01-20T03:05:28Z</time>
      </trkpt>
      <trkpt lon="76.982512" lat="10.450872">
        <ele>575.0</ele>
        <time>2026-01-20T03:05:29Z</time>
      </trkpt>
      <trkpt lon="76.982684" lat="10.450863">
        <ele>576.0</ele>
        <time>2026-01-20T03:05:31Z</time>
      </trkpt>
      <trkpt lon="76.982808" lat="10.45083">
        <ele>578.0</ele>
        <time>2026-01-20T03:05:33Z</time>
      </trkpt>
      <trkpt lon="76.982792" lat="10.450698">
        <ele>578.0</ele>
        <time>2026-01-20T03:05:36Z</time>
      </trkpt>
      <trkpt lon="76.982662" lat="10.450703">
        <ele>579.0</ele>
        <time>2026-01-20T03:05:38Z</time>
      </trkpt>
      <trkpt lon="76.982532" lat="10.45077">
        <ele>580.0</ele>
        <time>2026-01-20T03:05:40Z</time>
      </trkpt>
      <trkpt lon="76.982389" lat="10.45072">
        <ele>581.0</ele>
        <time>2026-01-20T03:05:42Z</time>
      </trkpt>
      <trkpt lon="76.982307" lat="10.450657">
        <ele>582.0</ele>
        <time>2026-01-20T03:05:43Z</time>
      </trkpt>
      <trkpt lon="76.982235" lat="10.450583">
        <ele>583.0</ele>
        <time>2026-01-20T03:05:44Z</time>
      </trkpt>
      <trkpt lon="76.982158" lat="10.450507">
        <ele>583.0</ele>
        <time>2026-01-20T03:05:45Z</time>
      </trkpt>
      <trkpt lon="76.982079" lat="10.45044">
        <ele>583.0</ele>
        <time>2026-01-20T03:05:46Z</time>
      </trkpt>
      <trkpt lon="76.981996" lat="10.450387">
        <ele>584.0</ele>
        <time>2026-01-20T03:05:47Z</time>
      </trkpt>
      <trkpt lon="76.981895" lat="10.450344">
        <ele>584.0</ele>
        <time>2026-01-20T03:05:48Z</time>
      </trkpt>
      <trkpt lon="76.981799" lat="10.450304">
        <ele>585.0</ele>
        <time>2026-01-20T03:05:49Z</time>
      </trkpt>
      <trkpt lon="76.981709" lat="10.450255">
        <ele>584.0</ele>
        <time>2026-01-20T03:05:50Z</time>
      </trkpt>
      <trkpt lon="76.981627" lat="10.450178">
        <ele>585.0</ele>
        <time>2026-01-20T03:05:51Z</time>
      </trkpt>
      <trkpt lon="76.98157" lat="10.450098">
        <ele>585.0</ele>
        <time>2026-01-20T03:05:52Z</time>
      </trkpt>
      <trkpt lon="76.981472" lat="10.449966">
        <ele>585.0</ele>
        <time>2026-01-20T03:05:54Z</time>
      </trkpt>
      <trkpt lon="76.981336" lat="10.449902">
        <ele>587.0</ele>
        <time>2026-01-20T03:05:56Z</time>
      </trkpt>
      <trkpt lon="76.981166" lat="10.449908">
        <ele>588.0</ele>
        <time>2026-01-20T03:05:58Z</time>
      </trkpt>
      <trkpt lon="76.981077" lat="10.449888">
        <ele>588.0</ele>
        <time>2026-01-20T03:05:59Z</time>
      </trkpt>
      <trkpt lon="76.980996" lat="10.449837">
        <ele>589.0</ele>
        <time>2026-01-20T03:06:00Z</time>
      </trkpt>
      <trkpt lon="76.98091" lat="10.449774">
        <ele>589.0</ele>
        <time>2026-01-20T03:06:01Z</time>
      </trkpt>
      <trkpt lon="76.980747" lat="10.449705">
        <ele>590.0</ele>
        <time>2026-01-20T03:06:03Z</time>
      </trkpt>
      <trkpt lon="76.980577" lat="10.449722">
        <ele>592.0</ele>
        <time>2026-01-20T03:06:05Z</time>
      </trkpt>
      <trkpt lon="76.98044" lat="10.449755">
        <ele>595.0</ele>
        <time>2026-01-20T03:06:07Z</time>
      </trkpt>
      <trkpt lon="76.980382" lat="10.449674">
        <ele>597.0</ele>
        <time>2026-01-20T03:06:11Z</time>
      </trkpt>
      <trkpt lon="76.980489" lat="10.449628">
        <ele>597.0</ele>
        <time>2026-01-20T03:06:14Z</time>
      </trkpt>
      <trkpt lon="76.980658" lat="10.449633">
        <ele>598.0</ele>
        <time>2026-01-20T03:06:16Z</time>
      </trkpt>
      <trkpt lon="76.980753" lat="10.449638">
        <ele>600.0</ele>
        <time>2026-01-20T03:06:17Z</time>
      </trkpt>
      <trkpt lon="76.980854" lat="10.449652">
        <ele>601.0</ele>
        <time>2026-01-20T03:06:18Z</time>
      </trkpt>
      <trkpt lon="76.980957" lat="10.44968">
        <ele>602.0</ele>
        <time>2026-01-20T03:06:19Z</time>
      </trkpt>
      <trkpt lon="76.981057" lat="10.449715">
        <ele>602.0</ele>
        <time>2026-01-20T03:06:20Z</time>
      </trkpt>
      <trkpt lon="76.98115" lat="10.449742">
        <ele>602.0</ele>
        <time>2026-01-20T03:06:21Z</time>
      </trkpt>
      <trkpt lon="76.981248" lat="10.449743">
        <ele>602.0</ele>
        <time>2026-01-20T03:06:22Z</time>
      </trkpt>
      <trkpt lon="76.981343" lat="10.449725">
        <ele>603.0</ele>
        <time>2026-01-20T03:06:23Z</time>
      </trkpt>
      <trkpt lon="76.981439" lat="10.449693">
        <ele>603.0</ele>
        <time>2026-01-20T03:06:24Z</time>
      </trkpt>
      <trkpt lon="76.981543" lat="10.449681">
        <ele>604.0</ele>
        <time>2026-01-20T03:06:25Z</time>
      </trkpt>
      <trkpt lon="76.981647" lat="10.449706">
        <ele>605.0</ele>
        <time>2026-01-20T03:06:26Z</time>
      </trkpt>
      <trkpt lon="76.981756" lat="10.449756">
        <ele>606.0</ele>
        <time>2026-01-20T03:06:27Z</time>
      </trkpt>
      <trkpt lon="76.981867" lat="10.449805">
        <ele>606.0</ele>
        <time>2026-01-20T03:06:28Z</time>
      </trkpt>
      <trkpt lon="76.981977" lat="10.449842">
        <ele>607.0</ele>
        <time>2026-01-20T03:06:29Z</time>
      </trkpt>
      <trkpt lon="76.982094" lat="10.44988">
        <ele>608.0</ele>
        <time>2026-01-20T03:06:30Z</time>
      </trkpt>
      <trkpt lon="76.982209" lat="10.44991">
        <ele>610.0</ele>
        <time>2026-01-20T03:06:31Z</time>
      </trkpt>
      <trkpt lon="76.982309" lat="10.449951">
        <ele>611.0</ele>
        <time>2026-01-20T03:06:32Z</time>
      </trkpt>
      <trkpt lon="76.982387" lat="10.450004">
        <ele>611.0</ele>
        <time>2026-01-20T03:06:33Z</time>
      </trkpt>
      <trkpt lon="76.982507" lat="10.450126">
        <ele>612.0</ele>
        <time>2026-01-20T03:06:35Z</time>
      </trkpt>
      <trkpt lon="76.982645" lat="10.450185">
        <ele>614.0</ele>
        <time>2026-01-20T03:06:37Z</time>
      </trkpt>
      <trkpt lon="76.982742" lat="10.45017">
        <ele>616.0</ele>
        <time>2026-01-20T03:06:39Z</time>
      </trkpt>
      <trkpt lon="76.982858" lat="10.450144">
        <ele>616.0</ele>
        <time>2026-01-20T03:06:42Z</time>
      </trkpt>
      <trkpt lon="76.982998" lat="10.450098">
        <ele>617.0</ele>
        <time>2026-01-20T03:06:44Z</time>
      </trkpt>
      <trkpt lon="76.983173" lat="10.450061">
        <ele>619.0</ele>
        <time>2026-01-20T03:06:46Z</time>
      </trkpt>
      <trkpt lon="76.983307" lat="10.450033">
        <ele>619.0</ele>
        <time>2026-01-20T03:06:48Z</time>
      </trkpt>
      <trkpt lon="76.983347" lat="10.449924">
        <ele>620.0</ele>
        <time>2026-01-20T03:06:51Z</time>
      </trkpt>
      <trkpt lon="76.983243" lat="10.449894">
        <ele>621.0</ele>
        <time>2026-01-20T03:06:53Z</time>
      </trkpt>
      <trkpt lon="76.983082" lat="10.449961">
        <ele>622.0</ele>
        <time>2026-01-20T03:06:55Z</time>
      </trkpt>
      <trkpt lon="76.982979" lat="10.449984">
        <ele>622.0</ele>
        <time>2026-01-20T03:06:56Z</time>
      </trkpt>
      <trkpt lon="76.982878" lat="10.449982">
        <ele>623.0</ele>
        <time>2026-01-20T03:06:57Z</time>
      </trkpt>
      <trkpt lon="76.98278" lat="10.449968">
        <ele>623.0</ele>
        <time>2026-01-20T03:06:58Z</time>
      </trkpt>
      <trkpt lon="76.982688" lat="10.449939">
        <ele>624.0</ele>
        <time>2026-01-20T03:06:59Z</time>
      </trkpt>
      <trkpt lon="76.98261" lat="10.449888">
        <ele>625.0</ele>
        <time>2026-01-20T03:07:00Z</time>
      </trkpt>
      <trkpt lon="76.982537" lat="10.449775">
        <ele>625.0</ele>
        <time>2026-01-20T03:07:02Z</time>
      </trkpt>
      <trkpt lon="76.982538" lat="10.449644">
        <ele>626.0</ele>
        <time>2026-01-20T03:07:04Z</time>
      </trkpt>
      <trkpt lon="76.982488" lat="10.449527">
        <ele>626.0</ele>
        <time>2026-01-20T03:07:06Z</time>
      </trkpt>
      <trkpt lon="76.982359" lat="10.449477">
        <ele>628.0</ele>
        <time>2026-01-20T03:07:08Z</time>
      </trkpt>
      <trkpt lon="76.982215" lat="10.449443">
        <ele>629.0</ele>
        <time>2026-01-20T03:07:10Z</time>
      </trkpt>
      <trkpt lon="76.9821" lat="10.449387">
        <ele>630.0</ele>
        <time>2026-01-20T03:07:12Z</time>
      </trkpt>
      <trkpt lon="76.982006" lat="10.449397">
        <ele>633.0</ele>
        <time>2026-01-20T03:07:18Z</time>
      </trkpt>
      <trkpt lon="76.981885" lat="10.449347">
        <ele>634.0</ele>
        <time>2026-01-20T03:07:23Z</time>
      </trkpt>
      <trkpt lon="76.981752" lat="10.449309">
        <ele>635.0</ele>
        <time>2026-01-20T03:07:25Z</time>
      </trkpt>
      <trkpt lon="76.981597" lat="10.449267">
        <ele>635.0</ele>
        <time>2026-01-20T03:07:27Z</time>
      </trkpt>
      <trkpt lon="76.98147" lat="10.449241">
        <ele>637.0</ele>
        <time>2026-01-20T03:07:29Z</time>
      </trkpt>
      <trkpt lon="76.981349" lat="10.449258">
        <ele>639.0</ele>
        <time>2026-01-20T03:07:32Z</time>
      </trkpt>
      <trkpt lon="76.981399" lat="10.449131">
        <ele>639.0</ele>
        <time>2026-01-20T03:07:36Z</time>
      </trkpt>
      <trkpt lon="76.98155" lat="10.449121">
        <ele>641.0</ele>
        <time>2026-01-20T03:07:38Z</time>
      </trkpt>
      <trkpt lon="76.981695" lat="10.449171">
        <ele>643.0</ele>
        <time>2026-01-20T03:07:40Z</time>
      </trkpt>
      <trkpt lon="76.981865" lat="10.449214">
        <ele>645.0</ele>
        <time>2026-01-20T03:07:42Z</time>
      </trkpt>
      <trkpt lon="76.981955" lat="10.44923">
        <ele>645.0</ele>
        <time>2026-01-20T03:07:43Z</time>
      </trkpt>
      <trkpt lon="76.982049" lat="10.449249">
        <ele>646.0</ele>
        <time>2026-01-20T03:07:44Z</time>
      </trkpt>
      <trkpt lon="76.982144" lat="10.449278">
        <ele>647.0</ele>
        <time>2026-01-20T03:07:45Z</time>
      </trkpt>
      <trkpt lon="76.982243" lat="10.449305">
        <ele>648.0</ele>
        <time>2026-01-20T03:07:46Z</time>
      </trkpt>
      <trkpt lon="76.982338" lat="10.449317">
        <ele>648.0</ele>
        <time>2026-01-20T03:07:47Z</time>
      </trkpt>
      <trkpt lon="76.982433" lat="10.449313">
        <ele>649.0</ele>
        <time>2026-01-20T03:07:48Z</time>
      </trkpt>
      <trkpt lon="76.98253" lat="10.44931">
        <ele>649.0</ele>
        <time>2026-01-20T03:07:49Z</time>
      </trkpt>
      <trkpt lon="76.982686" lat="10.449402">
        <ele>650.0</ele>
        <time>2026-01-20T03:07:51Z</time>
      </trkpt>
      <trkpt lon="76.982849" lat="10.449475">
        <ele>652.0</ele>
        <time>2026-01-20T03:07:53Z</time>
      </trkpt>
      <trkpt lon="76.982942" lat="10.449486">
        <ele>652.0</ele>
        <time>2026-01-20T03:07:54Z</time>
      </trkpt>
      <trkpt lon="76.983035" lat="10.449474">
        <ele>653.0</ele>
        <time>2026-01-20T03:07:55Z</time>
      </trkpt>
      <trkpt lon="76.983128" lat="10.449454">
        <ele>652.0</ele>
        <time>2026-01-20T03:07:56Z</time>
      </trkpt>
      <trkpt lon="76.983219" lat="10.449429">
        <ele>652.0</ele>
        <time>2026-01-20T03:07:57Z</time>
      </trkpt>
      <trkpt lon="76.983386" lat="10.449381">
        <ele>654.0</ele>
        <time>2026-01-20T03:07:59Z</time>
      </trkpt>
      <trkpt lon="76.983525" lat="10.44932">
        <ele>655.0</ele>
        <time>2026-01-20T03:08:01Z</time>
      </trkpt>
      <trkpt lon="76.983654" lat="10.449361">
        <ele>657.0</ele>
        <time>2026-01-20T03:08:03Z</time>
      </trkpt>
      <trkpt lon="76.983722" lat="10.449438">
        <ele>658.0</ele>
        <time>2026-01-20T03:08:04Z</time>
      </trkpt>
      <trkpt lon="76.983789" lat="10.449524">
        <ele>659.0</ele>
        <time>2026-01-20T03:08:05Z</time>
      </trkpt>
      <trkpt lon="76.98385" lat="10.449617">
        <ele>660.0</ele>
        <time>2026-01-20T03:08:06Z</time>
      </trkpt>
      <trkpt lon="76.9839" lat="10.449713">
        <ele>662.0</ele>
        <time>2026-01-20T03:08:07Z</time>
      </trkpt>
      <trkpt lon="76.983938" lat="10.449817">
        <ele>662.0</ele>
        <time>2026-01-20T03:08:08Z</time>
      </trkpt>
      <trkpt lon="76.983982" lat="10.449914">
        <ele>662.0</ele>
        <time>2026-01-20T03:08:09Z</time>
      </trkpt>
      <trkpt lon="76.984019" lat="10.450015">
        <ele>662.0</ele>
        <time>2026-01-20T03:08:10Z</time>
      </trkpt>
      <trkpt lon="76.984049" lat="10.450127">
        <ele>662.0</ele>
        <time>2026-01-20T03:08:11Z</time>
      </trkpt>
      <trkpt lon="76.984065" lat="10.450241">
        <ele>662.0</ele>
        <time>2026-01-20T03:08:12Z</time>
      </trkpt>
      <trkpt lon="76.984076" lat="10.450351">
        <ele>662.0</ele>
        <time>2026-01-20T03:08:13Z</time>
      </trkpt>
      <trkpt lon="76.984071" lat="10.450454">
        <ele>662.0</ele>
        <time>2026-01-20T03:08:14Z</time>
      </trkpt>
      <trkpt lon="76.984055" lat="10.450548">
        <ele>663.0</ele>
        <time>2026-01-20T03:08:15Z</time>
      </trkpt>
      <trkpt lon="76.984023" lat="10.450688">
        <ele>663.0</ele>
        <time>2026-01-20T03:08:17Z</time>
      </trkpt>
      <trkpt lon="76.984024" lat="10.450795">
        <ele>666.0</ele>
        <time>2026-01-20T03:08:19Z</time>
      </trkpt>
      <trkpt lon="76.98412" lat="10.45083">
        <ele>665.0</ele>
        <time>2026-01-20T03:08:21Z</time>
      </trkpt>
      <trkpt lon="76.984187" lat="10.450747">
        <ele>666.0</ele>
        <time>2026-01-20T03:08:23Z</time>
      </trkpt>
      <trkpt lon="76.984156" lat="10.450615">
        <ele>665.0</ele>
        <time>2026-01-20T03:08:25Z</time>
      </trkpt>
      <trkpt lon="76.984142" lat="10.450443">
        <ele>666.0</ele>
        <time>2026-01-20T03:08:27Z</time>
      </trkpt>
      <trkpt lon="76.98415" lat="10.450344">
        <ele>668.0</ele>
        <time>2026-01-20T03:08:28Z</time>
      </trkpt>
      <trkpt lon="76.984165" lat="10.450253">
        <ele>669.0</ele>
        <time>2026-01-20T03:08:29Z</time>
      </trkpt>
      <trkpt lon="76.984193" lat="10.450154">
        <ele>667.0</ele>
        <time>2026-01-20T03:08:39Z</time>
      </trkpt>
      <trkpt lon="76.984201" lat="10.450017">
        <ele>668.0</ele>
        <time>2026-01-20T03:08:42Z</time>
      </trkpt>
      <trkpt lon="76.984171" lat="10.449893">
        <ele>668.0</ele>
        <time>2026-01-20T03:08:44Z</time>
      </trkpt>
      <trkpt lon="76.984098" lat="10.449743">
        <ele>668.0</ele>
        <time>2026-01-20T03:08:46Z</time>
      </trkpt>
      <trkpt lon="76.98407" lat="10.449643">
        <ele>668.0</ele>
        <time>2026-01-20T03:08:47Z</time>
      </trkpt>
      <trkpt lon="76.984043" lat="10.44953">
        <ele>669.0</ele>
        <time>2026-01-20T03:08:48Z</time>
      </trkpt>
      <trkpt lon="76.984026" lat="10.449421">
        <ele>669.0</ele>
        <time>2026-01-20T03:08:49Z</time>
      </trkpt>
      <trkpt lon="76.984008" lat="10.449317">
        <ele>670.0</ele>
        <time>2026-01-20T03:08:50Z</time>
      </trkpt>
      <trkpt lon="76.983985" lat="10.44922">
        <ele>670.0</ele>
        <time>2026-01-20T03:08:51Z</time>
      </trkpt>
      <trkpt lon="76.98396" lat="10.449125">
        <ele>670.0</ele>
        <time>2026-01-20T03:08:52Z</time>
      </trkpt>
      <trkpt lon="76.983883" lat="10.448966">
        <ele>670.0</ele>
        <time>2026-01-20T03:08:54Z</time>
      </trkpt>
      <trkpt lon="76.983781" lat="10.448871">
        <ele>671.0</ele>
        <time>2026-01-20T03:08:56Z</time>
      </trkpt>
      <trkpt lon="76.983619" lat="10.448857">
        <ele>673.0</ele>
        <time>2026-01-20T03:08:58Z</time>
      </trkpt>
      <trkpt lon="76.983433" lat="10.448859">
        <ele>674.0</ele>
        <time>2026-01-20T03:09:00Z</time>
      </trkpt>
      <trkpt lon="76.983336" lat="10.448872">
        <ele>675.0</ele>
        <time>2026-01-20T03:09:01Z</time>
      </trkpt>
      <trkpt lon="76.983237" lat="10.448889">
        <ele>677.0</ele>
        <time>2026-01-20T03:09:02Z</time>
      </trkpt>
      <trkpt lon="76.983134" lat="10.448916">
        <ele>680.0</ele>
        <time>2026-01-20T03:09:03Z</time>
      </trkpt>
      <trkpt lon="76.983042" lat="10.448943">
        <ele>681.0</ele>
        <time>2026-01-20T03:09:04Z</time>
      </trkpt>
      <trkpt lon="76.982888" lat="10.448968">
        <ele>683.0</ele>
        <time>2026-01-20T03:09:06Z</time>
      </trkpt>
      <trkpt lon="76.982753" lat="10.448948">
        <ele>687.0</ele>
        <time>2026-01-20T03:09:08Z</time>
      </trkpt>
      <trkpt lon="76.982694" lat="10.448879">
        <ele>689.0</ele>
        <time>2026-01-20T03:09:10Z</time>
      </trkpt>
      <trkpt lon="76.982766" lat="10.448816">
        <ele>691.0</ele>
        <time>2026-01-20T03:09:13Z</time>
      </trkpt>
      <trkpt lon="76.982887" lat="10.448877">
        <ele>691.0</ele>
        <time>2026-01-20T03:09:15Z</time>
      </trkpt>
      <trkpt lon="76.983044" lat="10.448879">
        <ele>692.0</ele>
        <time>2026-01-20T03:09:17Z</time>
      </trkpt>
      <trkpt lon="76.98321" lat="10.448813">
        <ele>693.0</ele>
        <time>2026-01-20T03:09:19Z</time>
      </trkpt>
      <trkpt lon="76.983303" lat="10.448776">
        <ele>693.0</ele>
        <time>2026-01-20T03:09:20Z</time>
      </trkpt>
      <trkpt lon="76.983403" lat="10.448739">
        <ele>694.0</ele>
        <time>2026-01-20T03:09:21Z</time>
      </trkpt>
      <trkpt lon="76.983503" lat="10.448704">
        <ele>695.0</ele>
        <time>2026-01-20T03:09:22Z</time>
      </trkpt>
      <trkpt lon="76.983602" lat="10.448669">
        <ele>696.0</ele>
        <time>2026-01-20T03:09:23Z</time>
      </trkpt>
      <trkpt lon="76.983761" lat="10.448626">
        <ele>696.0</ele>
        <time>2026-01-20T03:09:25Z</time>
      </trkpt>
      <trkpt lon="76.98389" lat="10.448673">
        <ele>699.0</ele>
        <time>2026-01-20T03:09:27Z</time>
      </trkpt>
      <trkpt lon="76.983978" lat="10.448756">
        <ele>702.0</ele>
        <time>2026-01-20T03:09:29Z</time>
      </trkpt>
      <trkpt lon="76.984072" lat="10.448683">
        <ele>702.0</ele>
        <time>2026-01-20T03:09:32Z</time>
      </trkpt>
      <trkpt lon="76.984007" lat="10.44856">
        <ele>702.0</ele>
        <time>2026-01-20T03:09:34Z</time>
      </trkpt>
      <trkpt lon="76.98383" lat="10.448539">
        <ele>702.0</ele>
        <time>2026-01-20T03:09:36Z</time>
      </trkpt>
      <trkpt lon="76.983727" lat="10.448557">
        <ele>703.0</ele>
        <time>2026-01-20T03:09:37Z</time>
      </trkpt>
      <trkpt lon="76.983628" lat="10.44859">
        <ele>704.0</ele>
        <time>2026-01-20T03:09:38Z</time>
      </trkpt>
      <trkpt lon="76.983527" lat="10.448601">
        <ele>705.0</ele>
        <time>2026-01-20T03:09:39Z</time>
      </trkpt>
      <trkpt lon="76.983422" lat="10.448615">
        <ele>705.0</ele>
        <time>2026-01-20T03:09:40Z</time>
      </trkpt>
      <trkpt lon="76.983323" lat="10.448627">
        <ele>706.0</ele>
        <time>2026-01-20T03:09:41Z</time>
      </trkpt>
      <trkpt lon="76.983164" lat="10.448662">
        <ele>708.0</ele>
        <time>2026-01-20T03:09:43Z</time>
      </trkpt>
      <trkpt lon="76.983051" lat="10.448688">
        <ele>710.0</ele>
        <time>2026-01-20T03:09:45Z</time>
      </trkpt>
      <trkpt lon="76.982966" lat="10.448632">
        <ele>711.0</ele>
        <time>2026-01-20T03:09:48Z</time>
      </trkpt>
      <trkpt lon="76.983088" lat="10.448581">
        <ele>711.0</ele>
        <time>2026-01-20T03:09:52Z</time>
      </trkpt>
      <trkpt lon="76.983234" lat="10.448584">
        <ele>711.0</ele>
        <time>2026-01-20T03:09:54Z</time>
      </trkpt>
      <trkpt lon="76.983413" lat="10.448555">
        <ele>713.0</ele>
        <time>2026-01-20T03:09:56Z</time>
      </trkpt>
      <trkpt lon="76.9835" lat="10.448526">
        <ele>713.0</ele>
        <time>2026-01-20T03:09:57Z</time>
      </trkpt>
      <trkpt lon="76.983587" lat="10.448488">
        <ele>713.0</ele>
        <time>2026-01-20T03:09:58Z</time>
      </trkpt>
      <trkpt lon="76.983675" lat="10.448451">
        <ele>714.0</ele>
        <time>2026-01-20T03:09:59Z</time>
      </trkpt>
      <trkpt lon="76.983762" lat="10.44842">
        <ele>714.0</ele>
        <time>2026-01-20T03:10:00Z</time>
      </trkpt>
      <trkpt lon="76.983855" lat="10.44841">
        <ele>714.0</ele>
        <time>2026-01-20T03:10:01Z</time>
      </trkpt>
      <trkpt lon="76.983954" lat="10.448416">
        <ele>715.0</ele>
        <time>2026-01-20T03:10:02Z</time>
      </trkpt>
      <trkpt lon="76.984054" lat="10.448438">
        <ele>715.0</ele>
        <time>2026-01-20T03:10:03Z</time>
      </trkpt>
      <trkpt lon="76.984148" lat="10.448478">
        <ele>716.0</ele>
        <time>2026-01-20T03:10:04Z</time>
      </trkpt>
      <trkpt lon="76.984246" lat="10.448588">
        <ele>717.0</ele>
        <time>2026-01-20T03:10:06Z</time>
      </trkpt>
      <trkpt lon="76.984285" lat="10.448723">
        <ele>720.0</ele>
        <time>2026-01-20T03:10:08Z</time>
      </trkpt>
      <trkpt lon="76.984354" lat="10.448875">
        <ele>722.0</ele>
        <time>2026-01-20T03:10:10Z</time>
      </trkpt>
      <trkpt lon="76.984364" lat="10.449016">
        <ele>724.0</ele>
        <time>2026-01-20T03:10:12Z</time>
      </trkpt>
      <trkpt lon="76.984356" lat="10.449127">
        <ele>725.0</ele>
        <time>2026-01-20T03:10:14Z</time>
      </trkpt>
      <trkpt lon="76.984394" lat="10.449231">
        <ele>727.0</ele>
        <time>2026-01-20T03:10:16Z</time>
      </trkpt>
      <trkpt lon="76.984482" lat="10.449262">
        <ele>728.0</ele>
        <time>2026-01-20T03:10:18Z</time>
      </trkpt>
      <trkpt lon="76.984601" lat="10.449208">
        <ele>728.0</ele>
        <time>2026-01-20T03:10:20Z</time>
      </trkpt>
      <trkpt lon="76.984729" lat="10.449121">
        <ele>728.0</ele>
        <time>2026-01-20T03:10:22Z</time>
      </trkpt>
      <trkpt lon="76.984853" lat="10.448998">
        <ele>729.0</ele>
        <time>2026-01-20T03:10:24Z</time>
      </trkpt>
      <trkpt lon="76.984953" lat="10.448856">
        <ele>729.0</ele>
        <time>2026-01-20T03:10:26Z</time>
      </trkpt>
      <trkpt lon="76.984957" lat="10.448715">
        <ele>729.0</ele>
        <time>2026-01-20T03:10:28Z</time>
      </trkpt>
      <trkpt lon="76.984848" lat="10.448606">
        <ele>729.0</ele>
        <time>2026-01-20T03:10:30Z</time>
      </trkpt>
      <trkpt lon="76.984678" lat="10.448544">
        <ele>730.0</ele>
        <time>2026-01-20T03:10:32Z</time>
      </trkpt>
      <trkpt lon="76.984593" lat="10.448509">
        <ele>730.0</ele>
        <time>2026-01-20T03:10:33Z</time>
      </trkpt>
      <trkpt lon="76.984499" lat="10.448439">
        <ele>732.0</ele>
        <time>2026-01-20T03:10:34Z</time>
      </trkpt>
      <trkpt lon="76.984389" lat="10.448362">
        <ele>733.0</ele>
        <time>2026-01-20T03:10:35Z</time>
      </trkpt>
      <trkpt lon="76.984292" lat="10.448296">
        <ele>734.0</ele>
        <time>2026-01-20T03:10:36Z</time>
      </trkpt>
      <trkpt lon="76.984207" lat="10.448231">
        <ele>734.0</ele>
        <time>2026-01-20T03:10:37Z</time>
      </trkpt>
      <trkpt lon="76.984125" lat="10.448165">
        <ele>735.0</ele>
        <time>2026-01-20T03:10:38Z</time>
      </trkpt>
      <trkpt lon="76.984035" lat="10.448115">
        <ele>736.0</ele>
        <time>2026-01-20T03:10:39Z</time>
      </trkpt>
      <trkpt lon="76.983922" lat="10.448102">
        <ele>737.0</ele>
        <time>2026-01-20T03:10:40Z</time>
      </trkpt>
      <trkpt lon="76.983802" lat="10.448109">
        <ele>738.0</ele>
        <time>2026-01-20T03:10:41Z</time>
      </trkpt>
      <trkpt lon="76.98369" lat="10.448114">
        <ele>738.0</ele>
        <time>2026-01-20T03:10:42Z</time>
      </trkpt>
      <trkpt lon="76.983582" lat="10.448127">
        <ele>738.0</ele>
        <time>2026-01-20T03:10:43Z</time>
      </trkpt>
      <trkpt lon="76.983469" lat="10.44816">
        <ele>740.0</ele>
        <time>2026-01-20T03:10:44Z</time>
      </trkpt>
      <trkpt lon="76.983369" lat="10.448195">
        <ele>741.0</ele>
        <time>2026-01-20T03:10:45Z</time>
      </trkpt>
      <trkpt lon="76.983274" lat="10.448223">
        <ele>741.0</ele>
        <time>2026-01-20T03:10:46Z</time>
      </trkpt>
      <trkpt lon="76.983184" lat="10.448248">
        <ele>742.0</ele>
        <time>2026-01-20T03:10:47Z</time>
      </trkpt>
      <trkpt lon="76.983047" lat="10.448291">
        <ele>743.0</ele>
        <time>2026-01-20T03:10:49Z</time>
      </trkpt>
      <trkpt lon="76.982946" lat="10.448279">
        <ele>746.0</ele>
        <time>2026-01-20T03:10:52Z</time>
      </trkpt>
      <trkpt lon="76.983044" lat="10.448202">
        <ele>747.0</ele>
        <time>2026-01-20T03:10:56Z</time>
      </trkpt>
      <trkpt lon="76.983202" lat="10.448201">
        <ele>748.0</ele>
        <time>2026-01-20T03:10:58Z</time>
      </trkpt>
      <trkpt lon="76.983291" lat="10.448168">
        <ele>749.0</ele>
        <time>2026-01-20T03:10:59Z</time>
      </trkpt>
      <trkpt lon="76.983386" lat="10.44813">
        <ele>750.0</ele>
        <time>2026-01-20T03:11:00Z</time>
      </trkpt>
      <trkpt lon="76.983478" lat="10.448085">
        <ele>751.0</ele>
        <time>2026-01-20T03:11:01Z</time>
      </trkpt>
      <trkpt lon="76.983576" lat="10.448048">
        <ele>752.0</ele>
        <time>2026-01-20T03:11:02Z</time>
      </trkpt>
      <trkpt lon="76.983678" lat="10.448019">
        <ele>753.0</ele>
        <time>2026-01-20T03:11:03Z</time>
      </trkpt>
      <trkpt lon="76.983788" lat="10.447995">
        <ele>754.0</ele>
        <time>2026-01-20T03:11:04Z</time>
      </trkpt>
      <trkpt lon="76.983895" lat="10.447971">
        <ele>755.0</ele>
        <time>2026-01-20T03:11:05Z</time>
      </trkpt>
      <trkpt lon="76.984003" lat="10.447953">
        <ele>755.0</ele>
        <time>2026-01-20T03:11:06Z</time>
      </trkpt>
      <trkpt lon="76.984115" lat="10.447956">
        <ele>756.0</ele>
        <time>2026-01-20T03:11:07Z</time>
      </trkpt>
      <trkpt lon="76.984229" lat="10.44799">
        <ele>756.0</ele>
        <time>2026-01-20T03:11:08Z</time>
      </trkpt>
      <trkpt lon="76.984343" lat="10.448018">
        <ele>756.0</ele>
        <time>2026-01-20T03:11:09Z</time>
      </trkpt>
      <trkpt lon="76.98446" lat="10.448045">
        <ele>756.0</ele>
        <time>2026-01-20T03:11:10Z</time>
      </trkpt>
      <trkpt lon="76.98457" lat="10.448062">
        <ele>758.0</ele>
        <time>2026-01-20T03:11:11Z</time>
      </trkpt>
      <trkpt lon="76.98476" lat="10.448047">
        <ele>759.0</ele>
        <time>2026-01-20T03:11:13Z</time>
      </trkpt>
      <trkpt lon="76.984866" lat="10.448006">
        <ele>759.0</ele>
        <time>2026-01-20T03:11:14Z</time>
      </trkpt>
      <trkpt lon="76.98497" lat="10.447949">
        <ele>760.0</ele>
        <time>2026-01-20T03:11:15Z</time>
      </trkpt>
      <trkpt lon="76.98507" lat="10.447911">
        <ele>760.0</ele>
        <time>2026-01-20T03:11:16Z</time>
      </trkpt>
      <trkpt lon="76.985167" lat="10.447881">
        <ele>761.0</ele>
        <time>2026-01-20T03:11:17Z</time>
      </trkpt>
      <trkpt lon="76.985261" lat="10.447853">
        <ele>761.0</ele>
        <time>2026-01-20T03:11:18Z</time>
      </trkpt>
      <trkpt lon="76.98536" lat="10.447838">
        <ele>761.0</ele>
        <time>2026-01-20T03:11:19Z</time>
      </trkpt>
      <trkpt lon="76.985465" lat="10.447805">
        <ele>762.0</ele>
        <time>2026-01-20T03:11:20Z</time>
      </trkpt>
      <trkpt lon="76.985602" lat="10.447689">
        <ele>761.0</ele>
        <time>2026-01-20T03:11:22Z</time>
      </trkpt>
      <trkpt lon="76.985644" lat="10.4476">
        <ele>761.0</ele>
        <time>2026-01-20T03:11:23Z</time>
      </trkpt>
      <trkpt lon="76.985676" lat="10.447496">
        <ele>760.0</ele>
        <time>2026-01-20T03:11:24Z</time>
      </trkpt>
      <trkpt lon="76.985696" lat="10.44738">
        <ele>759.0</ele>
        <time>2026-01-20T03:11:25Z</time>
      </trkpt>
      <trkpt lon="76.985709" lat="10.447272">
        <ele>759.0</ele>
        <time>2026-01-20T03:11:26Z</time>
      </trkpt>
      <trkpt lon="76.98571" lat="10.447151">
        <ele>759.0</ele>
        <time>2026-01-20T03:11:27Z</time>
      </trkpt>
      <trkpt lon="76.985711" lat="10.447027">
        <ele>759.0</ele>
        <time>2026-01-20T03:11:28Z</time>
      </trkpt>
      <trkpt lon="76.985721" lat="10.446899">
        <ele>757.0</ele>
        <time>2026-01-20T03:11:29Z</time>
      </trkpt>
      <trkpt lon="76.985741" lat="10.446763">
        <ele>757.0</ele>
        <time>2026-01-20T03:11:30Z</time>
      </trkpt>
      <trkpt lon="76.985755" lat="10.446633">
        <ele>756.0</ele>
        <time>2026-01-20T03:11:31Z</time>
      </trkpt>
      <trkpt lon="76.985754" lat="10.446525">
        <ele>757.0</ele>
        <time>2026-01-20T03:11:32Z</time>
      </trkpt>
      <trkpt lon="76.985788" lat="10.446383">
        <ele>759.0</ele>
        <time>2026-01-20T03:11:34Z</time>
      </trkpt>
      <trkpt lon="76.985898" lat="10.446316">
        <ele>761.0</ele>
        <time>2026-01-20T03:11:36Z</time>
      </trkpt>
      <trkpt lon="76.986063" lat="10.446322">
        <ele>762.0</ele>
        <time>2026-01-20T03:11:38Z</time>
      </trkpt>
      <trkpt lon="76.986222" lat="10.446354">
        <ele>764.0</ele>
        <time>2026-01-20T03:11:40Z</time>
      </trkpt>
      <trkpt lon="76.986369" lat="10.446365">
        <ele>765.0</ele>
        <time>2026-01-20T03:11:42Z</time>
      </trkpt>
      <trkpt lon="76.986455" lat="10.446307">
        <ele>765.0</ele>
        <time>2026-01-20T03:11:44Z</time>
      </trkpt>
      <trkpt lon="76.986461" lat="10.446202">
        <ele>768.0</ele>
        <time>2026-01-20T03:11:46Z</time>
      </trkpt>
      <trkpt lon="76.986349" lat="10.44614">
        <ele>770.0</ele>
        <time>2026-01-20T03:11:48Z</time>
      </trkpt>
      <trkpt lon="76.986169" lat="10.446123">
        <ele>772.0</ele>
        <time>2026-01-20T03:11:50Z</time>
      </trkpt>
      <trkpt lon="76.986072" lat="10.446122">
        <ele>772.0</ele>
        <time>2026-01-20T03:11:51Z</time>
      </trkpt>
      <trkpt lon="76.985978" lat="10.446117">
        <ele>773.0</ele>
        <time>2026-01-20T03:11:52Z</time>
      </trkpt>
      <trkpt lon="76.985807" lat="10.446098">
        <ele>776.0</ele>
        <time>2026-01-20T03:11:54Z</time>
      </trkpt>
      <trkpt lon="76.985632" lat="10.446144">
        <ele>778.0</ele>
        <time>2026-01-20T03:11:56Z</time>
      </trkpt>
      <trkpt lon="76.985564" lat="10.446208">
        <ele>779.0</ele>
        <time>2026-01-20T03:11:57Z</time>
      </trkpt>
      <trkpt lon="76.985511" lat="10.446288">
        <ele>779.0</ele>
        <time>2026-01-20T03:11:58Z</time>
      </trkpt>
      <trkpt lon="76.985454" lat="10.446374">
        <ele>779.0</ele>
        <time>2026-01-20T03:11:59Z</time>
      </trkpt>
      <trkpt lon="76.985391" lat="10.44647">
        <ele>780.0</ele>
        <time>2026-01-20T03:12:00Z</time>
      </trkpt>
      <trkpt lon="76.985333" lat="10.446561">
        <ele>782.0</ele>
        <time>2026-01-20T03:12:01Z</time>
      </trkpt>
      <trkpt lon="76.98528" lat="10.446655">
        <ele>783.0</ele>
        <time>2026-01-20T03:12:02Z</time>
      </trkpt>
      <trkpt lon="76.985235" lat="10.44675">
        <ele>784.0</ele>
        <time>2026-01-20T03:12:03Z</time>
      </trkpt>
      <trkpt lon="76.985189" lat="10.446846">
        <ele>785.0</ele>
        <time>2026-01-20T03:12:04Z</time>
      </trkpt>
      <trkpt lon="76.985129" lat="10.446938">
        <ele>785.0</ele>
        <time>2026-01-20T03:12:05Z</time>
      </trkpt>
      <trkpt lon="76.985057" lat="10.447021">
        <ele>786.0</ele>
        <time>2026-01-20T03:12:06Z</time>
      </trkpt>
      <trkpt lon="76.984976" lat="10.447091">
        <ele>786.0</ele>
        <time>2026-01-20T03:12:07Z</time>
      </trkpt>
      <trkpt lon="76.984868" lat="10.447157">
        <ele>787.0</ele>
        <time>2026-01-20T03:12:08Z</time>
      </trkpt>
      <trkpt lon="76.984775" lat="10.447217">
        <ele>788.0</ele>
        <time>2026-01-20T03:12:09Z</time>
      </trkpt>
      <trkpt lon="76.984681" lat="10.447274">
        <ele>789.0</ele>
        <time>2026-01-20T03:12:10Z</time>
      </trkpt>
      <trkpt lon="76.984594" lat="10.447326">
        <ele>791.0</ele>
        <time>2026-01-20T03:12:11Z</time>
      </trkpt>
      <trkpt lon="76.984454" lat="10.447373">
        <ele>793.0</ele>
        <time>2026-01-20T03:12:13Z</time>
      </trkpt>
      <trkpt lon="76.984357" lat="10.447381">
        <ele>795.0</ele>
        <time>2026-01-20T03:12:15Z</time>
      </trkpt>
      <trkpt lon="76.984399" lat="10.447288">
        <ele>796.0</ele>
        <time>2026-01-20T03:12:18Z</time>
      </trkpt>
      <trkpt lon="76.984557" lat="10.44726">
        <ele>798.0</ele>
        <time>2026-01-20T03:12:20Z</time>
      </trkpt>
      <trkpt lon="76.984697" lat="10.447194">
        <ele>799.0</ele>
        <time>2026-01-20T03:12:22Z</time>
      </trkpt>
      <trkpt lon="76.984768" lat="10.447128">
        <ele>800.0</ele>
        <time>2026-01-20T03:12:23Z</time>
      </trkpt>
      <trkpt lon="76.984825" lat="10.447048">
        <ele>800.0</ele>
        <time>2026-01-20T03:12:24Z</time>
      </trkpt>
      <trkpt lon="76.98488" lat="10.446964">
        <ele>801.0</ele>
        <time>2026-01-20T03:12:25Z</time>
      </trkpt>
      <trkpt lon="76.984934" lat="10.446871">
        <ele>802.0</ele>
        <time>2026-01-20T03:12:26Z</time>
      </trkpt>
      <trkpt lon="76.984976" lat="10.446776">
        <ele>802.0</ele>
        <time>2026-01-20T03:12:27Z</time>
      </trkpt>
      <trkpt lon="76.985001" lat="10.446677">
        <ele>803.0</ele>
        <time>2026-01-20T03:12:28Z</time>
      </trkpt>
      <trkpt lon="76.98503" lat="10.446577">
        <ele>803.0</ele>
        <time>2026-01-20T03:12:29Z</time>
      </trkpt>
      <trkpt lon="76.985058" lat="10.446478">
        <ele>805.0</ele>
        <time>2026-01-20T03:12:30Z</time>
      </trkpt>
      <trkpt lon="76.985077" lat="10.446374">
        <ele>806.0</ele>
        <time>2026-01-20T03:12:31Z</time>
      </trkpt>
      <trkpt lon="76.985092" lat="10.446259">
        <ele>807.0</ele>
        <time>2026-01-20T03:12:32Z</time>
      </trkpt>
      <trkpt lon="76.9851" lat="10.446149">
        <ele>808.0</ele>
        <time>2026-01-20T03:12:33Z</time>
      </trkpt>
      <trkpt lon="76.985122" lat="10.446039">
        <ele>809.0</ele>
        <time>2026-01-20T03:12:34Z</time>
      </trkpt>
      <trkpt lon="76.985163" lat="10.445932">
        <ele>810.0</ele>
        <time>2026-01-20T03:12:35Z</time>
      </trkpt>
      <trkpt lon="76.985224" lat="10.445829">
        <ele>810.0</ele>
        <time>2026-01-20T03:12:36Z</time>
      </trkpt>
      <trkpt lon="76.985283" lat="10.445727">
        <ele>811.0</ele>
        <time>2026-01-20T03:12:37Z</time>
      </trkpt>
      <trkpt lon="76.985356" lat="10.445631">
        <ele>811.0</ele>
        <time>2026-01-20T03:12:38Z</time>
      </trkpt>
      <trkpt lon="76.985429" lat="10.445543">
        <ele>812.0</ele>
        <time>2026-01-20T03:12:39Z</time>
      </trkpt>
      <trkpt lon="76.985496" lat="10.445448">
        <ele>813.0</ele>
        <time>2026-01-20T03:12:40Z</time>
      </trkpt>
      <trkpt lon="76.985554" lat="10.445354">
        <ele>814.0</ele>
        <time>2026-01-20T03:12:41Z</time>
      </trkpt>
      <trkpt lon="76.985617" lat="10.44526">
        <ele>814.0</ele>
        <time>2026-01-20T03:12:42Z</time>
      </trkpt>
      <trkpt lon="76.985676" lat="10.445159">
        <ele>816.0</ele>
        <time>2026-01-20T03:12:43Z</time>
      </trkpt>
      <trkpt lon="76.985725" lat="10.445054">
        <ele>817.0</ele>
        <time>2026-01-20T03:12:44Z</time>
      </trkpt>
      <trkpt lon="76.985768" lat="10.444955">
        <ele>817.0</ele>
        <time>2026-01-20T03:12:45Z</time>
      </trkpt>
      <trkpt lon="76.985791" lat="10.44485">
        <ele>818.0</ele>
        <time>2026-01-20T03:12:46Z</time>
      </trkpt>
      <trkpt lon="76.985808" lat="10.444745">
        <ele>819.0</ele>
        <time>2026-01-20T03:12:47Z</time>
      </trkpt>
      <trkpt lon="76.985787" lat="10.444648">
        <ele>820.0</ele>
        <time>2026-01-20T03:12:48Z</time>
      </trkpt>
      <trkpt lon="76.985747" lat="10.444546">
        <ele>820.0</ele>
        <time>2026-01-20T03:12:49Z</time>
      </trkpt>
      <trkpt lon="76.985708" lat="10.444447">
        <ele>820.0</ele>
        <time>2026-01-20T03:12:50Z</time>
      </trkpt>
      <trkpt lon="76.985676" lat="10.444344">
        <ele>820.0</ele>
        <time>2026-01-20T03:12:51Z</time>
      </trkpt>
      <trkpt lon="76.985671" lat="10.444235">
        <ele>820.0</ele>
        <time>2026-01-20T03:12:52Z</time>
      </trkpt>
      <trkpt lon="76.985686" lat="10.444114">
        <ele>820.0</ele>
        <time>2026-01-20T03:12:53Z</time>
      </trkpt>
      <trkpt lon="76.985694" lat="10.443989">
        <ele>821.0</ele>
        <time>2026-01-20T03:12:54Z</time>
      </trkpt>
      <trkpt lon="76.985689" lat="10.443863">
        <ele>821.0</ele>
        <time>2026-01-20T03:12:55Z</time>
      </trkpt>
      <trkpt lon="76.985686" lat="10.443742">
        <ele>821.0</ele>
        <time>2026-01-20T03:12:56Z</time>
      </trkpt>
      <trkpt lon="76.985675" lat="10.443626">
        <ele>821.0</ele>
        <time>2026-01-20T03:12:57Z</time>
      </trkpt>
      <trkpt lon="76.985668" lat="10.44351">
        <ele>820.0</ele>
        <time>2026-01-20T03:12:58Z</time>
      </trkpt>
      <trkpt lon="76.985654" lat="10.443396">
        <ele>821.0</ele>
        <time>2026-01-20T03:12:59Z</time>
      </trkpt>
      <trkpt lon="76.985653" lat="10.443285">
        <ele>821.0</ele>
        <time>2026-01-20T03:13:00Z</time>
      </trkpt>
      <trkpt lon="76.985652" lat="10.443176">
        <ele>821.0</ele>
        <time>2026-01-20T03:13:01Z</time>
      </trkpt>
      <trkpt lon="76.985643" lat="10.443062">
        <ele>821.0</ele>
        <time>2026-01-20T03:13:02Z</time>
      </trkpt>
      <trkpt lon="76.985642" lat="10.442945">
        <ele>821.0</ele>
        <time>2026-01-20T03:13:03Z</time>
      </trkpt>
      <trkpt lon="76.985654" lat="10.442828">
        <ele>820.0</ele>
        <time>2026-01-20T03:13:04Z</time>
      </trkpt>
      <trkpt lon="76.985696" lat="10.442713">
        <ele>819.0</ele>
        <time>2026-01-20T03:13:05Z</time>
      </trkpt>
      <trkpt lon="76.98573" lat="10.442614">
        <ele>818.0</ele>
        <time>2026-01-20T03:13:06Z</time>
      </trkpt>
      <trkpt lon="76.985767" lat="10.442525">
        <ele>819.0</ele>
        <time>2026-01-20T03:13:07Z</time>
      </trkpt>
      <trkpt lon="76.985792" lat="10.442391">
        <ele>820.0</ele>
        <time>2026-01-20T03:13:09Z</time>
      </trkpt>
      <trkpt lon="76.985796" lat="10.442259">
        <ele>820.0</ele>
        <time>2026-01-20T03:13:11Z</time>
      </trkpt>
      <trkpt lon="76.985733" lat="10.44208">
        <ele>820.0</ele>
        <time>2026-01-20T03:13:13Z</time>
      </trkpt>
      <trkpt lon="76.985692" lat="10.441991">
        <ele>819.0</ele>
        <time>2026-01-20T03:13:14Z</time>
      </trkpt>
      <trkpt lon="76.985644" lat="10.441909">
        <ele>819.0</ele>
        <time>2026-01-20T03:13:15Z</time>
      </trkpt>
      <trkpt lon="76.985557" lat="10.441787">
        <ele>819.0</ele>
        <time>2026-01-20T03:13:17Z</time>
      </trkpt>
      <trkpt lon="76.985486" lat="10.441668">
        <ele>819.0</ele>
        <time>2026-01-20T03:13:19Z</time>
      </trkpt>
      <trkpt lon="76.985439" lat="10.44159">
        <ele>818.0</ele>
        <time>2026-01-20T03:13:20Z</time>
      </trkpt>
      <trkpt lon="76.985421" lat="10.441495">
        <ele>817.0</ele>
        <time>2026-01-20T03:13:21Z</time>
      </trkpt>
      <trkpt lon="76.985422" lat="10.441391">
        <ele>817.0</ele>
        <time>2026-01-20T03:13:22Z</time>
      </trkpt>
      <trkpt lon="76.985433" lat="10.441294">
        <ele>816.0</ele>
        <time>2026-01-20T03:13:23Z</time>
      </trkpt>
      <trkpt lon="76.985444" lat="10.441185">
        <ele>816.0</ele>
        <time>2026-01-20T03:13:24Z</time>
      </trkpt>
      <trkpt lon="76.985452" lat="10.441071">
        <ele>816.0</ele>
        <time>2026-01-20T03:13:25Z</time>
      </trkpt>
      <trkpt lon="76.98545" lat="10.440955">
        <ele>816.0</ele>
        <time>2026-01-20T03:13:26Z</time>
      </trkpt>
      <trkpt lon="76.985443" lat="10.440839">
        <ele>816.0</ele>
        <time>2026-01-20T03:13:27Z</time>
      </trkpt>
      <trkpt lon="76.985443" lat="10.440731">
        <ele>816.0</ele>
        <time>2026-01-20T03:13:28Z</time>
      </trkpt>
      <trkpt lon="76.985461" lat="10.440625">
        <ele>816.0</ele>
        <time>2026-01-20T03:13:29Z</time>
      </trkpt>
      <trkpt lon="76.985502" lat="10.440534">
        <ele>817.0</ele>
        <time>2026-01-20T03:13:30Z</time>
      </trkpt>
      <trkpt lon="76.985548" lat="10.440435">
        <ele>817.0</ele>
        <time>2026-01-20T03:13:31Z</time>
      </trkpt>
      <trkpt lon="76.985574" lat="10.440335">
        <ele>817.0</ele>
        <time>2026-01-20T03:13:32Z</time>
      </trkpt>
      <trkpt lon="76.985583" lat="10.440232">
        <ele>816.0</ele>
        <time>2026-01-20T03:13:33Z</time>
      </trkpt>
      <trkpt lon="76.98556" lat="10.44011">
        <ele>817.0</ele>
        <time>2026-01-20T03:13:34Z</time>
      </trkpt>
      <trkpt lon="76.985526" lat="10.439989">
        <ele>817.0</ele>
        <time>2026-01-20T03:13:35Z</time>
      </trkpt>
      <trkpt lon="76.985483" lat="10.439866">
        <ele>818.0</ele>
        <time>2026-01-20T03:13:36Z</time>
      </trkpt>
      <trkpt lon="76.985446" lat="10.439748">
        <ele>818.0</ele>
        <time>2026-01-20T03:13:37Z</time>
      </trkpt>
      <trkpt lon="76.985409" lat="10.439628">
        <ele>818.0</ele>
        <time>2026-01-20T03:13:38Z</time>
      </trkpt>
      <trkpt lon="76.985375" lat="10.439509">
        <ele>818.0</ele>
        <time>2026-01-20T03:13:39Z</time>
      </trkpt>
      <trkpt lon="76.985357" lat="10.439391">
        <ele>817.0</ele>
        <time>2026-01-20T03:13:40Z</time>
      </trkpt>
      <trkpt lon="76.985359" lat="10.439283">
        <ele>818.0</ele>
        <time>2026-01-20T03:13:41Z</time>
      </trkpt>
      <trkpt lon="76.985364" lat="10.439183">
        <ele>817.0</ele>
        <time>2026-01-20T03:13:42Z</time>
      </trkpt>
      <trkpt lon="76.985358" lat="10.439087">
        <ele>817.0</ele>
        <time>2026-01-20T03:13:43Z</time>
      </trkpt>
      <trkpt lon="76.985341" lat="10.438994">
        <ele>817.0</ele>
        <time>2026-01-20T03:13:44Z</time>
      </trkpt>
      <trkpt lon="76.985301" lat="10.438905">
        <ele>815.0</ele>
        <time>2026-01-20T03:13:45Z</time>
      </trkpt>
      <trkpt lon="76.985205" lat="10.438776">
        <ele>814.0</ele>
        <time>2026-01-20T03:13:47Z</time>
      </trkpt>
      <trkpt lon="76.985125" lat="10.438687">
        <ele>814.0</ele>
        <time>2026-01-20T03:13:49Z</time>
      </trkpt>
      <trkpt lon="76.985246" lat="10.438591">
        <ele>814.0</ele>
        <time>2026-01-20T03:13:52Z</time>
      </trkpt>
      <trkpt lon="76.985416" lat="10.43856">
        <ele>815.0</ele>
        <time>2026-01-20T03:13:54Z</time>
      </trkpt>
      <trkpt lon="76.985533" lat="10.438557">
        <ele>816.0</ele>
        <time>2026-01-20T03:13:55Z</time>
      </trkpt>
      <trkpt lon="76.985634" lat="10.438555">
        <ele>817.0</ele>
        <time>2026-01-20T03:13:56Z</time>
      </trkpt>
      <trkpt lon="76.985735" lat="10.438546">
        <ele>818.0</ele>
        <time>2026-01-20T03:13:57Z</time>
      </trkpt>
      <trkpt lon="76.985837" lat="10.438505">
        <ele>819.0</ele>
        <time>2026-01-20T03:13:58Z</time>
      </trkpt>
      <trkpt lon="76.985939" lat="10.438441">
        <ele>820.0</ele>
        <time>2026-01-20T03:13:59Z</time>
      </trkpt>
      <trkpt lon="76.986031" lat="10.438372">
        <ele>820.0</ele>
        <time>2026-01-20T03:14:00Z</time>
      </trkpt>
      <trkpt lon="76.986126" lat="10.438319">
        <ele>822.0</ele>
        <time>2026-01-20T03:14:01Z</time>
      </trkpt>
      <trkpt lon="76.986224" lat="10.43827">
        <ele>822.0</ele>
        <time>2026-01-20T03:14:02Z</time>
      </trkpt>
      <trkpt lon="76.986317" lat="10.438209">
        <ele>824.0</ele>
        <time>2026-01-20T03:14:03Z</time>
      </trkpt>
      <trkpt lon="76.986407" lat="10.438151">
        <ele>824.0</ele>
        <time>2026-01-20T03:14:04Z</time>
      </trkpt>
      <trkpt lon="76.986485" lat="10.438083">
        <ele>825.0</ele>
        <time>2026-01-20T03:14:05Z</time>
      </trkpt>
      <trkpt lon="76.986568" lat="10.438017">
        <ele>826.0</ele>
        <time>2026-01-20T03:14:06Z</time>
      </trkpt>
      <trkpt lon="76.986706" lat="10.437932">
        <ele>828.0</ele>
        <time>2026-01-20T03:14:08Z</time>
      </trkpt>
      <trkpt lon="76.986776" lat="10.43786">
        <ele>828.0</ele>
        <time>2026-01-20T03:14:10Z</time>
      </trkpt>
      <trkpt lon="76.986727" lat="10.437778">
        <ele>830.0</ele>
        <time>2026-01-20T03:14:12Z</time>
      </trkpt>
      <trkpt lon="76.986594" lat="10.437798">
        <ele>832.0</ele>
        <time>2026-01-20T03:14:14Z</time>
      </trkpt>
      <trkpt lon="76.986478" lat="10.437898">
        <ele>831.0</ele>
        <time>2026-01-20T03:14:16Z</time>
      </trkpt>
      <trkpt lon="76.986407" lat="10.437972">
        <ele>831.0</ele>
        <time>2026-01-20T03:14:17Z</time>
      </trkpt>
      <trkpt lon="76.986276" lat="10.438089">
        <ele>832.0</ele>
        <time>2026-01-20T03:14:19Z</time>
      </trkpt>
      <trkpt lon="76.98613" lat="10.438151">
        <ele>833.0</ele>
        <time>2026-01-20T03:14:21Z</time>
      </trkpt>
      <trkpt lon="76.985973" lat="10.438163">
        <ele>833.0</ele>
        <time>2026-01-20T03:14:23Z</time>
      </trkpt>
      <trkpt lon="76.98587" lat="10.438155">
        <ele>835.0</ele>
        <time>2026-01-20T03:14:25Z</time>
      </trkpt>
      <trkpt lon="76.985875" lat="10.438053">
        <ele>837.0</ele>
        <time>2026-01-20T03:14:29Z</time>
      </trkpt>
      <trkpt lon="76.98601" lat="10.438042">
        <ele>835.0</ele>
        <time>2026-01-20T03:14:31Z</time>
      </trkpt>
      <trkpt lon="76.986174" lat="10.438021">
        <ele>836.0</ele>
        <time>2026-01-20T03:14:33Z</time>
      </trkpt>
      <trkpt lon="76.9863" lat="10.437941">
        <ele>836.0</ele>
        <time>2026-01-20T03:14:35Z</time>
      </trkpt>
      <trkpt lon="76.98642" lat="10.437818">
        <ele>836.0</ele>
        <time>2026-01-20T03:14:37Z</time>
      </trkpt>
      <trkpt lon="76.986489" lat="10.437755">
        <ele>836.0</ele>
        <time>2026-01-20T03:14:38Z</time>
      </trkpt>
      <trkpt lon="76.986565" lat="10.437702">
        <ele>836.0</ele>
        <time>2026-01-20T03:14:39Z</time>
      </trkpt>
      <trkpt lon="76.986641" lat="10.437651">
        <ele>836.0</ele>
        <time>2026-01-20T03:14:40Z</time>
      </trkpt>
      <trkpt lon="76.986722" lat="10.437604">
        <ele>836.0</ele>
        <time>2026-01-20T03:14:41Z</time>
      </trkpt>
      <trkpt lon="76.986873" lat="10.437537">
        <ele>837.0</ele>
        <time>2026-01-20T03:14:43Z</time>
      </trkpt>
      <trkpt lon="76.987005" lat="10.437522">
        <ele>838.0</ele>
        <time>2026-01-20T03:14:45Z</time>
      </trkpt>
      <trkpt lon="76.987101" lat="10.437487">
        <ele>839.0</ele>
        <time>2026-01-20T03:14:47Z</time>
      </trkpt>
      <trkpt lon="76.98711" lat="10.437393">
        <ele>840.0</ele>
        <time>2026-01-20T03:14:49Z</time>
      </trkpt>
      <trkpt lon="76.987" lat="10.437321">
        <ele>840.0</ele>
        <time>2026-01-20T03:14:51Z</time>
      </trkpt>
      <trkpt lon="76.986874" lat="10.437369">
        <ele>840.0</ele>
        <time>2026-01-20T03:14:53Z</time>
      </trkpt>
      <trkpt lon="76.986739" lat="10.437433">
        <ele>839.0</ele>
        <time>2026-01-20T03:14:55Z</time>
      </trkpt>
      <trkpt lon="76.986652" lat="10.437469">
        <ele>839.0</ele>
        <time>2026-01-20T03:14:56Z</time>
      </trkpt>
      <trkpt lon="76.986551" lat="10.437508">
        <ele>839.0</ele>
        <time>2026-01-20T03:14:57Z</time>
      </trkpt>
      <trkpt lon="76.986458" lat="10.437528">
        <ele>837.0</ele>
        <time>2026-01-20T03:14:58Z</time>
      </trkpt>
      <trkpt lon="76.986362" lat="10.437568">
        <ele>838.0</ele>
        <time>2026-01-20T03:14:59Z</time>
      </trkpt>
      <trkpt lon="76.986197" lat="10.437664">
        <ele>839.0</ele>
        <time>2026-01-20T03:15:01Z</time>
      </trkpt>
      <trkpt lon="76.986015" lat="10.437708">
        <ele>841.0</ele>
        <time>2026-01-20T03:15:03Z</time>
      </trkpt>
      <trkpt lon="76.98592" lat="10.437696">
        <ele>842.0</ele>
        <time>2026-01-20T03:15:04Z</time>
      </trkpt>
      <trkpt lon="76.985831" lat="10.437658">
        <ele>842.0</ele>
        <time>2026-01-20T03:15:05Z</time>
      </trkpt>
      <trkpt lon="76.985748" lat="10.437614">
        <ele>843.0</ele>
        <time>2026-01-20T03:15:06Z</time>
      </trkpt>
      <trkpt lon="76.985613" lat="10.43752">
        <ele>846.0</ele>
        <time>2026-01-20T03:15:08Z</time>
      </trkpt>
      <trkpt lon="76.985503" lat="10.437409">
        <ele>846.0</ele>
        <time>2026-01-20T03:15:10Z</time>
      </trkpt>
      <trkpt lon="76.985376" lat="10.437349">
        <ele>846.0</ele>
        <time>2026-01-20T03:15:12Z</time>
      </trkpt>
      <trkpt lon="76.985258" lat="10.437378">
        <ele>848.0</ele>
        <time>2026-01-20T03:15:14Z</time>
      </trkpt>
      <trkpt lon="76.985164" lat="10.437482">
        <ele>849.0</ele>
        <time>2026-01-20T03:15:16Z</time>
      </trkpt>
      <trkpt lon="76.985041" lat="10.437547">
        <ele>851.0</ele>
        <time>2026-01-20T03:15:18Z</time>
      </trkpt>
      <trkpt lon="76.984895" lat="10.437552">
        <ele>853.0</ele>
        <time>2026-01-20T03:15:20Z</time>
      </trkpt>
      <trkpt lon="76.984805" lat="10.437531">
        <ele>855.0</ele>
        <time>2026-01-20T03:15:22Z</time>
      </trkpt>
      <trkpt lon="76.984817" lat="10.437437">
        <ele>857.0</ele>
        <time>2026-01-20T03:15:26Z</time>
      </trkpt>
      <trkpt lon="76.98491" lat="10.43746">
        <ele>857.0</ele>
        <time>2026-01-20T03:15:28Z</time>
      </trkpt>
      <trkpt lon="76.985023" lat="10.437409">
        <ele>858.0</ele>
        <time>2026-01-20T03:15:30Z</time>
      </trkpt>
      <trkpt lon="76.985089" lat="10.437304">
        <ele>858.0</ele>
        <time>2026-01-20T03:15:32Z</time>
      </trkpt>
      <trkpt lon="76.985141" lat="10.437212">
        <ele>858.0</ele>
        <time>2026-01-20T03:15:34Z</time>
      </trkpt>
      <trkpt lon="76.985241" lat="10.437159">
        <ele>858.0</ele>
        <time>2026-01-20T03:15:36Z</time>
      </trkpt>
      <trkpt lon="76.985371" lat="10.43717">
        <ele>859.0</ele>
        <time>2026-01-20T03:15:38Z</time>
      </trkpt>
      <trkpt lon="76.985492" lat="10.437241">
        <ele>860.0</ele>
        <time>2026-01-20T03:15:40Z</time>
      </trkpt>
      <trkpt lon="76.985571" lat="10.437293">
        <ele>862.0</ele>
        <time>2026-01-20T03:15:41Z</time>
      </trkpt>
      <trkpt lon="76.985704" lat="10.437365">
        <ele>864.0</ele>
        <time>2026-01-20T03:15:43Z</time>
      </trkpt>
      <trkpt lon="76.985832" lat="10.437398">
        <ele>864.0</ele>
        <time>2026-01-20T03:15:45Z</time>
      </trkpt>
      <trkpt lon="76.985994" lat="10.437377">
        <ele>865.0</ele>
        <time>2026-01-20T03:15:47Z</time>
      </trkpt>
      <trkpt lon="76.986082" lat="10.437332">
        <ele>865.0</ele>
        <time>2026-01-20T03:15:48Z</time>
      </trkpt>
      <trkpt lon="76.986168" lat="10.437284">
        <ele>866.0</ele>
        <time>2026-01-20T03:15:49Z</time>
      </trkpt>
      <trkpt lon="76.986305" lat="10.437216">
        <ele>866.0</ele>
        <time>2026-01-20T03:15:51Z</time>
      </trkpt>
      <trkpt lon="76.986413" lat="10.437167">
        <ele>869.0</ele>
        <time>2026-01-20T03:15:53Z</time>
      </trkpt>
      <trkpt lon="76.986535" lat="10.437107">
        <ele>869.0</ele>
        <time>2026-01-20T03:15:55Z</time>
      </trkpt>
      <trkpt lon="76.98664" lat="10.437021">
        <ele>868.0</ele>
        <time>2026-01-20T03:15:57Z</time>
      </trkpt>
      <trkpt lon="76.986754" lat="10.43691">
        <ele>870.0</ele>
        <time>2026-01-20T03:15:59Z</time>
      </trkpt>
      <trkpt lon="76.986833" lat="10.436787">
        <ele>870.0</ele>
        <time>2026-01-20T03:16:01Z</time>
      </trkpt>
      <trkpt lon="76.9869" lat="10.436653">
        <ele>870.0</ele>
        <time>2026-01-20T03:16:03Z</time>
      </trkpt>
      <trkpt lon="76.986992" lat="10.436535">
        <ele>871.0</ele>
        <time>2026-01-20T03:16:05Z</time>
      </trkpt>
      <trkpt lon="76.987099" lat="10.436448">
        <ele>873.0</ele>
        <time>2026-01-20T03:16:07Z</time>
      </trkpt>
      <trkpt lon="76.987208" lat="10.436376">
        <ele>873.0</ele>
        <time>2026-01-20T03:16:09Z</time>
      </trkpt>
      <trkpt lon="76.987295" lat="10.436279">
        <ele>874.0</ele>
        <time>2026-01-20T03:16:11Z</time>
      </trkpt>
      <trkpt lon="76.987367" lat="10.436167">
        <ele>874.0</ele>
        <time>2026-01-20T03:16:13Z</time>
      </trkpt>
      <trkpt lon="76.987413" lat="10.436044">
        <ele>874.0</ele>
        <time>2026-01-20T03:16:15Z</time>
      </trkpt>
      <trkpt lon="76.987434" lat="10.435897">
        <ele>876.0</ele>
        <time>2026-01-20T03:16:17Z</time>
      </trkpt>
      <trkpt lon="76.987466" lat="10.435757">
        <ele>877.0</ele>
        <time>2026-01-20T03:16:19Z</time>
      </trkpt>
      <trkpt lon="76.987534" lat="10.435635">
        <ele>878.0</ele>
        <time>2026-01-20T03:16:21Z</time>
      </trkpt>
      <trkpt lon="76.987667" lat="10.435545">
        <ele>880.0</ele>
        <time>2026-01-20T03:16:23Z</time>
      </trkpt>
      <trkpt lon="76.987803" lat="10.435473">
        <ele>881.0</ele>
        <time>2026-01-20T03:16:25Z</time>
      </trkpt>
      <trkpt lon="76.98794" lat="10.435386">
        <ele>882.0</ele>
        <time>2026-01-20T03:16:27Z</time>
      </trkpt>
      <trkpt lon="76.988028" lat="10.43527">
        <ele>883.0</ele>
        <time>2026-01-20T03:16:29Z</time>
      </trkpt>
      <trkpt lon="76.988111" lat="10.435155">
        <ele>884.0</ele>
        <time>2026-01-20T03:16:31Z</time>
      </trkpt>
      <trkpt lon="76.988253" lat="10.435092">
        <ele>884.0</ele>
        <time>2026-01-20T03:16:33Z</time>
      </trkpt>
      <trkpt lon="76.988391" lat="10.435133">
        <ele>884.0</ele>
        <time>2026-01-20T03:16:35Z</time>
      </trkpt>
      <trkpt lon="76.988518" lat="10.435214">
        <ele>885.0</ele>
        <time>2026-01-20T03:16:37Z</time>
      </trkpt>
      <trkpt lon="76.988653" lat="10.435237">
        <ele>888.0</ele>
        <time>2026-01-20T03:16:39Z</time>
      </trkpt>
      <trkpt lon="76.988794" lat="10.43519">
        <ele>889.0</ele>
        <time>2026-01-20T03:16:41Z</time>
      </trkpt>
      <trkpt lon="76.988919" lat="10.435141">
        <ele>891.0</ele>
        <time>2026-01-20T03:16:43Z</time>
      </trkpt>
      <trkpt lon="76.989069" lat="10.435115">
        <ele>892.0</ele>
        <time>2026-01-20T03:16:45Z</time>
      </trkpt>
      <trkpt lon="76.989164" lat="10.435128">
        <ele>892.0</ele>
        <time>2026-01-20T03:16:46Z</time>
      </trkpt>
      <trkpt lon="76.989269" lat="10.435152">
        <ele>892.0</ele>
        <time>2026-01-20T03:16:47Z</time>
      </trkpt>
      <trkpt lon="76.98938" lat="10.43518">
        <ele>892.0</ele>
        <time>2026-01-20T03:16:48Z</time>
      </trkpt>
      <trkpt lon="76.98951" lat="10.435204">
        <ele>892.0</ele>
        <time>2026-01-20T03:16:49Z</time>
      </trkpt>
      <trkpt lon="76.989629" lat="10.435215">
        <ele>892.0</ele>
        <time>2026-01-20T03:16:50Z</time>
      </trkpt>
      <trkpt lon="76.989752" lat="10.43521">
        <ele>893.0</ele>
        <time>2026-01-20T03:16:51Z</time>
      </trkpt>
      <trkpt lon="76.989877" lat="10.435205">
        <ele>893.0</ele>
        <time>2026-01-20T03:16:52Z</time>
      </trkpt>
      <trkpt lon="76.99" lat="10.435196">
        <ele>892.0</ele>
        <time>2026-01-20T03:16:53Z</time>
      </trkpt>
      <trkpt lon="76.990109" lat="10.435181">
        <ele>892.0</ele>
        <time>2026-01-20T03:16:54Z</time>
      </trkpt>
      <trkpt lon="76.990213" lat="10.43517">
        <ele>893.0</ele>
        <time>2026-01-20T03:16:55Z</time>
      </trkpt>
      <trkpt lon="76.990317" lat="10.435161">
        <ele>894.0</ele>
        <time>2026-01-20T03:16:56Z</time>
      </trkpt>
      <trkpt lon="76.990473" lat="10.435122">
        <ele>895.0</ele>
        <time>2026-01-20T03:16:58Z</time>
      </trkpt>
      <trkpt lon="76.99059" lat="10.435074">
        <ele>897.0</ele>
        <time>2026-01-20T03:17:00Z</time>
      </trkpt>
      <trkpt lon="76.990644" lat="10.434944">
        <ele>898.0</ele>
        <time>2026-01-20T03:17:02Z</time>
      </trkpt>
      <trkpt lon="76.990628" lat="10.434852">
        <ele>897.0</ele>
        <time>2026-01-20T03:17:03Z</time>
      </trkpt>
      <trkpt lon="76.990608" lat="10.434758">
        <ele>897.0</ele>
        <time>2026-01-20T03:17:04Z</time>
      </trkpt>
      <trkpt lon="76.990574" lat="10.434647">
        <ele>897.0</ele>
        <time>2026-01-20T03:17:05Z</time>
      </trkpt>
      <trkpt lon="76.990553" lat="10.434534">
        <ele>898.0</ele>
        <time>2026-01-20T03:17:06Z</time>
      </trkpt>
      <trkpt lon="76.990528" lat="10.434425">
        <ele>899.0</ele>
        <time>2026-01-20T03:17:07Z</time>
      </trkpt>
      <trkpt lon="76.99053" lat="10.434313">
        <ele>900.0</ele>
        <time>2026-01-20T03:17:08Z</time>
      </trkpt>
      <trkpt lon="76.990525" lat="10.434193">
        <ele>901.0</ele>
        <time>2026-01-20T03:17:09Z</time>
      </trkpt>
      <trkpt lon="76.990513" lat="10.434065">
        <ele>901.0</ele>
        <time>2026-01-20T03:17:10Z</time>
      </trkpt>
      <trkpt lon="76.990491" lat="10.433951">
        <ele>901.0</ele>
        <time>2026-01-20T03:17:11Z</time>
      </trkpt>
      <trkpt lon="76.990462" lat="10.433836">
        <ele>900.0</ele>
        <time>2026-01-20T03:17:12Z</time>
      </trkpt>
      <trkpt lon="76.990435" lat="10.433731">
        <ele>899.0</ele>
        <time>2026-01-20T03:17:13Z</time>
      </trkpt>
      <trkpt lon="76.990405" lat="10.433643">
        <ele>899.0</ele>
        <time>2026-01-20T03:17:14Z</time>
      </trkpt>
      <trkpt lon="76.990364" lat="10.433505">
        <ele>902.0</ele>
        <time>2026-01-20T03:17:16Z</time>
      </trkpt>
      <trkpt lon="76.990306" lat="10.433405">
        <ele>905.0</ele>
        <time>2026-01-20T03:17:19Z</time>
      </trkpt>
      <trkpt lon="76.990201" lat="10.433458">
        <ele>906.0</ele>
        <time>2026-01-20T03:17:22Z</time>
      </trkpt>
      <trkpt lon="76.990187" lat="10.433549">
        <ele>907.0</ele>
        <time>2026-01-20T03:17:23Z</time>
      </trkpt>
      <trkpt lon="76.990175" lat="10.433651">
        <ele>908.0</ele>
        <time>2026-01-20T03:17:24Z</time>
      </trkpt>
      <trkpt lon="76.990148" lat="10.433756">
        <ele>910.0</ele>
        <time>2026-01-20T03:17:25Z</time>
      </trkpt>
      <trkpt lon="76.990126" lat="10.433855">
        <ele>911.0</ele>
        <time>2026-01-20T03:17:26Z</time>
      </trkpt>
      <trkpt lon="76.990094" lat="10.433949">
        <ele>912.0</ele>
        <time>2026-01-20T03:17:27Z</time>
      </trkpt>
      <trkpt lon="76.990051" lat="10.434033">
        <ele>912.0</ele>
        <time>2026-01-20T03:17:28Z</time>
      </trkpt>
      <trkpt lon="76.990001" lat="10.434121">
        <ele>913.0</ele>
        <time>2026-01-20T03:17:29Z</time>
      </trkpt>
      <trkpt lon="76.989956" lat="10.43421">
        <ele>913.0</ele>
        <time>2026-01-20T03:17:30Z</time>
      </trkpt>
      <trkpt lon="76.989892" lat="10.434367">
        <ele>913.0</ele>
        <time>2026-01-20T03:17:32Z</time>
      </trkpt>
      <trkpt lon="76.989802" lat="10.43448">
        <ele>914.0</ele>
        <time>2026-01-20T03:17:34Z</time>
      </trkpt>
      <trkpt lon="76.989704" lat="10.434479">
        <ele>914.0</ele>
        <time>2026-01-20T03:17:36Z</time>
      </trkpt>
      <trkpt lon="76.989626" lat="10.434378">
        <ele>916.0</ele>
        <time>2026-01-20T03:17:38Z</time>
      </trkpt>
      <trkpt lon="76.989555" lat="10.434244">
        <ele>917.0</ele>
        <time>2026-01-20T03:17:40Z</time>
      </trkpt>
      <trkpt lon="76.989503" lat="10.434075">
        <ele>918.0</ele>
        <time>2026-01-20T03:17:42Z</time>
      </trkpt>
      <trkpt lon="76.989489" lat="10.433982">
        <ele>919.0</ele>
        <time>2026-01-20T03:17:43Z</time>
      </trkpt>
      <trkpt lon="76.989487" lat="10.433879">
        <ele>919.0</ele>
        <time>2026-01-20T03:17:44Z</time>
      </trkpt>
      <trkpt lon="76.989473" lat="10.433773">
        <ele>919.0</ele>
        <time>2026-01-20T03:17:45Z</time>
      </trkpt>
      <trkpt lon="76.989451" lat="10.433673">
        <ele>920.0</ele>
        <time>2026-01-20T03:17:46Z</time>
      </trkpt>
      <trkpt lon="76.989436" lat="10.433566">
        <ele>920.0</ele>
        <time>2026-01-20T03:17:47Z</time>
      </trkpt>
      <trkpt lon="76.989415" lat="10.433469">
        <ele>921.0</ele>
        <time>2026-01-20T03:17:48Z</time>
      </trkpt>
      <trkpt lon="76.989403" lat="10.433368">
        <ele>922.0</ele>
        <time>2026-01-20T03:17:49Z</time>
      </trkpt>
      <trkpt lon="76.989389" lat="10.43326">
        <ele>923.0</ele>
        <time>2026-01-20T03:17:50Z</time>
      </trkpt>
      <trkpt lon="76.989373" lat="10.433154">
        <ele>924.0</ele>
        <time>2026-01-20T03:17:51Z</time>
      </trkpt>
      <trkpt lon="76.989362" lat="10.433047">
        <ele>925.0</ele>
        <time>2026-01-20T03:17:52Z</time>
      </trkpt>
      <trkpt lon="76.98935" lat="10.432949">
        <ele>925.0</ele>
        <time>2026-01-20T03:17:53Z</time>
      </trkpt>
      <trkpt lon="76.989322" lat="10.432855">
        <ele>924.0</ele>
        <time>2026-01-20T03:17:54Z</time>
      </trkpt>
      <trkpt lon="76.989293" lat="10.432768">
        <ele>923.0</ele>
        <time>2026-01-20T03:17:55Z</time>
      </trkpt>
      <trkpt lon="76.989228" lat="10.4327">
        <ele>923.0</ele>
        <time>2026-01-20T03:17:56Z</time>
      </trkpt>
      <trkpt lon="76.989115" lat="10.432635">
        <ele>925.0</ele>
        <time>2026-01-20T03:17:57Z</time>
      </trkpt>
      <trkpt lon="76.989009" lat="10.432572">
        <ele>926.0</ele>
        <time>2026-01-20T03:17:58Z</time>
      </trkpt>
      <trkpt lon="76.988921" lat="10.432485">
        <ele>927.0</ele>
        <time>2026-01-20T03:17:59Z</time>
      </trkpt>
      <trkpt lon="76.988861" lat="10.432391">
        <ele>927.0</ele>
        <time>2026-01-20T03:18:00Z</time>
      </trkpt>
      <trkpt lon="76.988836" lat="10.432292">
        <ele>927.0</ele>
        <time>2026-01-20T03:18:01Z</time>
      </trkpt>
      <trkpt lon="76.988836" lat="10.432191">
        <ele>927.0</ele>
        <time>2026-01-20T03:18:02Z</time>
      </trkpt>
      <trkpt lon="76.988853" lat="10.4321">
        <ele>929.0</ele>
        <time>2026-01-20T03:18:03Z</time>
      </trkpt>
      <trkpt lon="76.988879" lat="10.432002">
        <ele>930.0</ele>
        <time>2026-01-20T03:18:04Z</time>
      </trkpt>
      <trkpt lon="76.988907" lat="10.431913">
        <ele>933.0</ele>
        <time>2026-01-20T03:18:05Z</time>
      </trkpt>
      <trkpt lon="76.988948" lat="10.431793">
        <ele>936.0</ele>
        <time>2026-01-20T03:18:07Z</time>
      </trkpt>
      <trkpt lon="76.988875" lat="10.431719">
        <ele>939.0</ele>
        <time>2026-01-20T03:18:10Z</time>
      </trkpt>
      <trkpt lon="76.988756" lat="10.431808">
        <ele>942.0</ele>
        <time>2026-01-20T03:18:12Z</time>
      </trkpt>
      <trkpt lon="76.988695" lat="10.431966">
        <ele>943.0</ele>
        <time>2026-01-20T03:18:14Z</time>
      </trkpt>
      <trkpt lon="76.988647" lat="10.432044">
        <ele>943.0</ele>
        <time>2026-01-20T03:18:15Z</time>
      </trkpt>
      <trkpt lon="76.988584" lat="10.432124">
        <ele>944.0</ele>
        <time>2026-01-20T03:18:16Z</time>
      </trkpt>
      <trkpt lon="76.988523" lat="10.432194">
        <ele>945.0</ele>
        <time>2026-01-20T03:18:17Z</time>
      </trkpt>
      <trkpt lon="76.98846" lat="10.432269">
        <ele>946.0</ele>
        <time>2026-01-20T03:18:18Z</time>
      </trkpt>
      <trkpt lon="76.988399" lat="10.432345">
        <ele>946.0</ele>
        <time>2026-01-20T03:18:19Z</time>
      </trkpt>
      <trkpt lon="76.988348" lat="10.432427">
        <ele>947.0</ele>
        <time>2026-01-20T03:18:20Z</time>
      </trkpt>
      <trkpt lon="76.988306" lat="10.432519">
        <ele>949.0</ele>
        <time>2026-01-20T03:18:21Z</time>
      </trkpt>
      <trkpt lon="76.988263" lat="10.432614">
        <ele>950.0</ele>
        <time>2026-01-20T03:18:22Z</time>
      </trkpt>
      <trkpt lon="76.988225" lat="10.432708">
        <ele>950.0</ele>
        <time>2026-01-20T03:18:23Z</time>
      </trkpt>
      <trkpt lon="76.98818" lat="10.432803">
        <ele>951.0</ele>
        <time>2026-01-20T03:18:24Z</time>
      </trkpt>
      <trkpt lon="76.988128" lat="10.432901">
        <ele>951.0</ele>
        <time>2026-01-20T03:18:25Z</time>
      </trkpt>
      <trkpt lon="76.98807" lat="10.432992">
        <ele>950.0</ele>
        <time>2026-01-20T03:18:26Z</time>
      </trkpt>
      <trkpt lon="76.98802" lat="10.43308">
        <ele>949.0</ele>
        <time>2026-01-20T03:18:27Z</time>
      </trkpt>
      <trkpt lon="76.98796" lat="10.433165">
        <ele>949.0</ele>
        <time>2026-01-20T03:18:28Z</time>
      </trkpt>
      <trkpt lon="76.987906" lat="10.433245">
        <ele>950.0</ele>
        <time>2026-01-20T03:18:29Z</time>
      </trkpt>
      <trkpt lon="76.987844" lat="10.433312">
        <ele>951.0</ele>
        <time>2026-01-20T03:18:30Z</time>
      </trkpt>
      <trkpt lon="76.987739" lat="10.433422">
        <ele>953.0</ele>
        <time>2026-01-20T03:18:32Z</time>
      </trkpt>
      <trkpt lon="76.987578" lat="10.433452">
        <ele>953.0</ele>
        <time>2026-01-20T03:18:34Z</time>
      </trkpt>
      <trkpt lon="76.987481" lat="10.433439">
        <ele>954.0</ele>
        <time>2026-01-20T03:18:35Z</time>
      </trkpt>
      <trkpt lon="76.987386" lat="10.433439">
        <ele>955.0</ele>
        <time>2026-01-20T03:18:36Z</time>
      </trkpt>
      <trkpt lon="76.987229" lat="10.433481">
        <ele>956.0</ele>
        <time>2026-01-20T03:18:38Z</time>
      </trkpt>
      <trkpt lon="76.987096" lat="10.433556">
        <ele>957.0</ele>
        <time>2026-01-20T03:18:40Z</time>
      </trkpt>
      <trkpt lon="76.986967" lat="10.433657">
        <ele>958.0</ele>
        <time>2026-01-20T03:18:42Z</time>
      </trkpt>
      <trkpt lon="76.98686" lat="10.43378">
        <ele>959.0</ele>
        <time>2026-01-20T03:18:44Z</time>
      </trkpt>
      <trkpt lon="76.986731" lat="10.433884">
        <ele>960.0</ele>
        <time>2026-01-20T03:18:46Z</time>
      </trkpt>
      <trkpt lon="76.986648" lat="10.433929">
        <ele>961.0</ele>
        <time>2026-01-20T03:18:47Z</time>
      </trkpt>
      <trkpt lon="76.986491" lat="10.434007">
        <ele>963.0</ele>
        <time>2026-01-20T03:18:49Z</time>
      </trkpt>
      <trkpt lon="76.986319" lat="10.434071">
        <ele>964.0</ele>
        <time>2026-01-20T03:18:51Z</time>
      </trkpt>
      <trkpt lon="76.9862" lat="10.43414">
        <ele>968.0</ele>
        <time>2026-01-20T03:18:53Z</time>
      </trkpt>
      <trkpt lon="76.986106" lat="10.434175">
        <ele>972.0</ele>
        <time>2026-01-20T03:18:55Z</time>
      </trkpt>
      <trkpt lon="76.986031" lat="10.434091">
        <ele>975.0</ele>
        <time>2026-01-20T03:18:58Z</time>
      </trkpt>
      <trkpt lon="76.986084" lat="10.434008">
        <ele>975.0</ele>
        <time>2026-01-20T03:19:00Z</time>
      </trkpt>
      <trkpt lon="76.986224" lat="10.433953">
        <ele>977.0</ele>
        <time>2026-01-20T03:19:02Z</time>
      </trkpt>
      <trkpt lon="76.986373" lat="10.433888">
        <ele>978.0</ele>
        <time>2026-01-20T03:19:04Z</time>
      </trkpt>
      <trkpt lon="76.986523" lat="10.433815">
        <ele>978.0</ele>
        <time>2026-01-20T03:19:06Z</time>
      </trkpt>
      <trkpt lon="76.986601" lat="10.433761">
        <ele>977.0</ele>
        <time>2026-01-20T03:19:07Z</time>
      </trkpt>
      <trkpt lon="76.986671" lat="10.433696">
        <ele>976.0</ele>
        <time>2026-01-20T03:19:08Z</time>
      </trkpt>
      <trkpt lon="76.986729" lat="10.433613">
        <ele>976.0</ele>
        <time>2026-01-20T03:19:09Z</time>
      </trkpt>
      <trkpt lon="76.98678" lat="10.433522">
        <ele>976.0</ele>
        <time>2026-01-20T03:19:10Z</time>
      </trkpt>
      <trkpt lon="76.986828" lat="10.433435">
        <ele>977.0</ele>
        <time>2026-01-20T03:19:11Z</time>
      </trkpt>
      <trkpt lon="76.98689" lat="10.433346">
        <ele>977.0</ele>
        <time>2026-01-20T03:19:12Z</time>
      </trkpt>
      <trkpt lon="76.986965" lat="10.433256">
        <ele>977.0</ele>
        <time>2026-01-20T03:19:13Z</time>
      </trkpt>
      <trkpt lon="76.987045" lat="10.433173">
        <ele>978.0</ele>
        <time>2026-01-20T03:19:14Z</time>
      </trkpt>
      <trkpt lon="76.987121" lat="10.433094">
        <ele>979.0</ele>
        <time>2026-01-20T03:19:15Z</time>
      </trkpt>
      <trkpt lon="76.987199" lat="10.43302">
        <ele>980.0</ele>
        <time>2026-01-20T03:19:16Z</time>
      </trkpt>
      <trkpt lon="76.98728" lat="10.432943">
        <ele>982.0</ele>
        <time>2026-01-20T03:19:17Z</time>
      </trkpt>
      <trkpt lon="76.987356" lat="10.432864">
        <ele>982.0</ele>
        <time>2026-01-20T03:19:18Z</time>
      </trkpt>
      <trkpt lon="76.987424" lat="10.432796">
        <ele>983.0</ele>
        <time>2026-01-20T03:19:19Z</time>
      </trkpt>
      <trkpt lon="76.98755" lat="10.432695">
        <ele>984.0</ele>
        <time>2026-01-20T03:19:21Z</time>
      </trkpt>
      <trkpt lon="76.987658" lat="10.432637">
        <ele>987.0</ele>
        <time>2026-01-20T03:19:23Z</time>
      </trkpt>
      <trkpt lon="76.987756" lat="10.432575">
        <ele>988.0</ele>
        <time>2026-01-20T03:19:25Z</time>
      </trkpt>
      <trkpt lon="76.98769" lat="10.4325">
        <ele>989.0</ele>
        <time>2026-01-20T03:19:28Z</time>
      </trkpt>
      <trkpt lon="76.98756" lat="10.432572">
        <ele>990.0</ele>
        <time>2026-01-20T03:19:30Z</time>
      </trkpt>
      <trkpt lon="76.987425" lat="10.432669">
        <ele>991.0</ele>
        <time>2026-01-20T03:19:32Z</time>
      </trkpt>
      <trkpt lon="76.987355" lat="10.432731">
        <ele>992.0</ele>
        <time>2026-01-20T03:19:33Z</time>
      </trkpt>
      <trkpt lon="76.987225" lat="10.432848">
        <ele>993.0</ele>
        <time>2026-01-20T03:19:35Z</time>
      </trkpt>
      <trkpt lon="76.987124" lat="10.432913">
        <ele>995.0</ele>
        <time>2026-01-20T03:19:37Z</time>
      </trkpt>
      <trkpt lon="76.98704" lat="10.432954">
        <ele>998.0</ele>
        <time>2026-01-20T03:19:39Z</time>
      </trkpt>
      <trkpt lon="76.987032" lat="10.432859">
        <ele>997.0</ele>
        <time>2026-01-20T03:19:44Z</time>
      </trkpt>
      <trkpt lon="76.987152" lat="10.432778">
        <ele>997.0</ele>
        <time>2026-01-20T03:19:46Z</time>
      </trkpt>
      <trkpt lon="76.987223" lat="10.432714">
        <ele>998.0</ele>
        <time>2026-01-20T03:19:47Z</time>
      </trkpt>
      <trkpt lon="76.987296" lat="10.432641">
        <ele>1000.0</ele>
        <time>2026-01-20T03:19:48Z</time>
      </trkpt>
      <trkpt lon="76.987361" lat="10.432566">
        <ele>1000.0</ele>
        <time>2026-01-20T03:19:49Z</time>
      </trkpt>
      <trkpt lon="76.987431" lat="10.432502">
        <ele>1001.0</ele>
        <time>2026-01-20T03:19:50Z</time>
      </trkpt>
      <trkpt lon="76.987516" lat="10.432451">
        <ele>1002.0</ele>
        <time>2026-01-20T03:19:51Z</time>
      </trkpt>
      <trkpt lon="76.987611" lat="10.432312">
        <ele>1002.0</ele>
        <time>2026-01-20T03:19:53Z</time>
      </trkpt>
      <trkpt lon="76.987656" lat="10.432157">
        <ele>1003.0</ele>
        <time>2026-01-20T03:19:55Z</time>
      </trkpt>
      <trkpt lon="76.987732" lat="10.432034">
        <ele>1005.0</ele>
        <time>2026-01-20T03:19:57Z</time>
      </trkpt>
      <trkpt lon="76.987797" lat="10.431962">
        <ele>1007.0</ele>
        <time>2026-01-20T03:19:59Z</time>
      </trkpt>
      <trkpt lon="76.987699" lat="10.431916">
        <ele>1007.0</ele>
        <time>2026-01-20T03:20:03Z</time>
      </trkpt>
      <trkpt lon="76.987644" lat="10.431988">
        <ele>1008.0</ele>
        <time>2026-01-20T03:20:04Z</time>
      </trkpt>
      <trkpt lon="76.987591" lat="10.432151">
        <ele>1009.0</ele>
        <time>2026-01-20T03:20:06Z</time>
      </trkpt>
      <trkpt lon="76.9875" lat="10.432286">
        <ele>1009.0</ele>
        <time>2026-01-20T03:20:08Z</time>
      </trkpt>
      <trkpt lon="76.987365" lat="10.432341">
        <ele>1011.0</ele>
        <time>2026-01-20T03:20:10Z</time>
      </trkpt>
      <trkpt lon="76.987215" lat="10.432383">
        <ele>1012.0</ele>
        <time>2026-01-20T03:20:12Z</time>
      </trkpt>
      <trkpt lon="76.987095" lat="10.432505">
        <ele>1011.0</ele>
        <time>2026-01-20T03:20:14Z</time>
      </trkpt>
      <trkpt lon="76.98698" lat="10.432619">
        <ele>1011.0</ele>
        <time>2026-01-20T03:20:16Z</time>
      </trkpt>
      <trkpt lon="76.98686" lat="10.432693">
        <ele>1012.0</ele>
        <time>2026-01-20T03:20:18Z</time>
      </trkpt>
      <trkpt lon="76.986753" lat="10.432841">
        <ele>1013.0</ele>
        <time>2026-01-20T03:20:20Z</time>
      </trkpt>
      <trkpt lon="76.986658" lat="10.432962">
        <ele>1013.0</ele>
        <time>2026-01-20T03:20:22Z</time>
      </trkpt>
      <trkpt lon="76.986553" lat="10.433061">
        <ele>1015.0</ele>
        <time>2026-01-20T03:20:24Z</time>
      </trkpt>
      <trkpt lon="76.986477" lat="10.433147">
        <ele>1014.0</ele>
        <time>2026-01-20T03:20:26Z</time>
      </trkpt>
      <trkpt lon="76.986329" lat="10.433136">
        <ele>1013.0</ele>
        <time>2026-01-20T03:20:29Z</time>
      </trkpt>
      <trkpt lon="76.986238" lat="10.432969">
        <ele>1013.0</ele>
        <time>2026-01-20T03:20:31Z</time>
      </trkpt>
      <trkpt lon="76.986195" lat="10.43288">
        <ele>1013.0</ele>
        <time>2026-01-20T03:20:32Z</time>
      </trkpt>
      <trkpt lon="76.98616" lat="10.43279">
        <ele>1013.0</ele>
        <time>2026-01-20T03:20:33Z</time>
      </trkpt>
      <trkpt lon="76.986131" lat="10.43269">
        <ele>1014.0</ele>
        <time>2026-01-20T03:20:34Z</time>
      </trkpt>
      <trkpt lon="76.98611" lat="10.432588">
        <ele>1014.0</ele>
        <time>2026-01-20T03:20:35Z</time>
      </trkpt>
      <trkpt lon="76.98608" lat="10.43249">
        <ele>1014.0</ele>
        <time>2026-01-20T03:20:36Z</time>
      </trkpt>
      <trkpt lon="76.98605" lat="10.43238">
        <ele>1014.0</ele>
        <time>2026-01-20T03:20:37Z</time>
      </trkpt>
      <trkpt lon="76.986011" lat="10.432274">
        <ele>1015.0</ele>
        <time>2026-01-20T03:20:38Z</time>
      </trkpt>
      <trkpt lon="76.985979" lat="10.432164">
        <ele>1015.0</ele>
        <time>2026-01-20T03:20:39Z</time>
      </trkpt>
      <trkpt lon="76.985942" lat="10.432058">
        <ele>1016.0</ele>
        <time>2026-01-20T03:20:40Z</time>
      </trkpt>
      <trkpt lon="76.985896" lat="10.431961">
        <ele>1016.0</ele>
        <time>2026-01-20T03:20:41Z</time>
      </trkpt>
      <trkpt lon="76.985793" lat="10.43182">
        <ele>1016.0</ele>
        <time>2026-01-20T03:20:43Z</time>
      </trkpt>
      <trkpt lon="76.985658" lat="10.431724">
        <ele>1018.0</ele>
        <time>2026-01-20T03:20:45Z</time>
      </trkpt>
      <trkpt lon="76.985487" lat="10.431722">
        <ele>1020.0</ele>
        <time>2026-01-20T03:20:47Z</time>
      </trkpt>
      <trkpt lon="76.985387" lat="10.431752">
        <ele>1023.0</ele>
        <time>2026-01-20T03:20:48Z</time>
      </trkpt>
      <trkpt lon="76.985284" lat="10.431782">
        <ele>1023.0</ele>
        <time>2026-01-20T03:20:49Z</time>
      </trkpt>
      <trkpt lon="76.985173" lat="10.431814">
        <ele>1024.0</ele>
        <time>2026-01-20T03:20:50Z</time>
      </trkpt>
      <trkpt lon="76.985069" lat="10.431831">
        <ele>1025.0</ele>
        <time>2026-01-20T03:20:51Z</time>
      </trkpt>
      <trkpt lon="76.984959" lat="10.431847">
        <ele>1028.0</ele>
        <time>2026-01-20T03:20:52Z</time>
      </trkpt>
      <trkpt lon="76.984857" lat="10.431871">
        <ele>1029.0</ele>
        <time>2026-01-20T03:20:53Z</time>
      </trkpt>
      <trkpt lon="76.984751" lat="10.431899">
        <ele>1029.0</ele>
        <time>2026-01-20T03:20:54Z</time>
      </trkpt>
      <trkpt lon="76.984654" lat="10.431924">
        <ele>1029.0</ele>
        <time>2026-01-20T03:20:55Z</time>
      </trkpt>
      <trkpt lon="76.984563" lat="10.431951">
        <ele>1029.0</ele>
        <time>2026-01-20T03:20:56Z</time>
      </trkpt>
      <trkpt lon="76.98446" lat="10.431959">
        <ele>1030.0</ele>
        <time>2026-01-20T03:20:57Z</time>
      </trkpt>
      <trkpt lon="76.984359" lat="10.431963">
        <ele>1031.0</ele>
        <time>2026-01-20T03:20:58Z</time>
      </trkpt>
      <trkpt lon="76.984267" lat="10.431941">
        <ele>1031.0</ele>
        <time>2026-01-20T03:20:59Z</time>
      </trkpt>
      <trkpt lon="76.984185" lat="10.431874">
        <ele>1030.0</ele>
        <time>2026-01-20T03:21:00Z</time>
      </trkpt>
      <trkpt lon="76.984099" lat="10.431695">
        <ele>1029.0</ele>
        <time>2026-01-20T03:21:02Z</time>
      </trkpt>
      <trkpt lon="76.984076" lat="10.431598">
        <ele>1031.0</ele>
        <time>2026-01-20T03:21:03Z</time>
      </trkpt>
      <trkpt lon="76.984053" lat="10.431482">
        <ele>1034.0</ele>
        <time>2026-01-20T03:21:05Z</time>
      </trkpt>
      <trkpt lon="76.984148" lat="10.431557">
        <ele>1041.0</ele>
        <time>2026-01-20T03:21:11Z</time>
      </trkpt>
      <trkpt lon="76.984258" lat="10.431667">
        <ele>1045.0</ele>
        <time>2026-01-20T03:21:13Z</time>
      </trkpt>
      <trkpt lon="76.984396" lat="10.431716">
        <ele>1047.0</ele>
        <time>2026-01-20T03:21:15Z</time>
      </trkpt>
      <trkpt lon="76.984555" lat="10.431678">
        <ele>1047.0</ele>
        <time>2026-01-20T03:21:17Z</time>
      </trkpt>
      <trkpt lon="76.984629" lat="10.431618">
        <ele>1047.0</ele>
        <time>2026-01-20T03:21:18Z</time>
      </trkpt>
      <trkpt lon="76.9847" lat="10.43156">
        <ele>1049.0</ele>
        <time>2026-01-20T03:21:19Z</time>
      </trkpt>
      <trkpt lon="76.984842" lat="10.431446">
        <ele>1051.0</ele>
        <time>2026-01-20T03:21:21Z</time>
      </trkpt>
      <trkpt lon="76.984927" lat="10.43141">
        <ele>1052.0</ele>
        <time>2026-01-20T03:21:22Z</time>
      </trkpt>
      <trkpt lon="76.98502" lat="10.431391">
        <ele>1052.0</ele>
        <time>2026-01-20T03:21:23Z</time>
      </trkpt>
      <trkpt lon="76.985126" lat="10.431372">
        <ele>1052.0</ele>
        <time>2026-01-20T03:21:24Z</time>
      </trkpt>
      <trkpt lon="76.985239" lat="10.431343">
        <ele>1052.0</ele>
        <time>2026-01-20T03:21:25Z</time>
      </trkpt>
      <trkpt lon="76.985349" lat="10.431312">
        <ele>1053.0</ele>
        <time>2026-01-20T03:21:26Z</time>
      </trkpt>
      <trkpt lon="76.98545" lat="10.431279">
        <ele>1055.0</ele>
        <time>2026-01-20T03:21:27Z</time>
      </trkpt>
      <trkpt lon="76.985565" lat="10.431235">
        <ele>1056.0</ele>
        <time>2026-01-20T03:21:28Z</time>
      </trkpt>
      <trkpt lon="76.985664" lat="10.431202">
        <ele>1058.0</ele>
        <time>2026-01-20T03:21:29Z</time>
      </trkpt>
      <trkpt lon="76.985835" lat="10.431191">
        <ele>1058.0</ele>
        <time>2026-01-20T03:21:31Z</time>
      </trkpt>
      <trkpt lon="76.98598" lat="10.431234">
        <ele>1058.0</ele>
        <time>2026-01-20T03:21:33Z</time>
      </trkpt>
      <trkpt lon="76.986092" lat="10.431354">
        <ele>1059.0</ele>
        <time>2026-01-20T03:21:35Z</time>
      </trkpt>
      <trkpt lon="76.986156" lat="10.431432">
        <ele>1060.0</ele>
        <time>2026-01-20T03:21:36Z</time>
      </trkpt>
      <trkpt lon="76.986291" lat="10.431546">
        <ele>1060.0</ele>
        <time>2026-01-20T03:21:38Z</time>
      </trkpt>
      <trkpt lon="76.986427" lat="10.431648">
        <ele>1061.0</ele>
        <time>2026-01-20T03:21:40Z</time>
      </trkpt>
      <trkpt lon="76.986564" lat="10.431671">
        <ele>1065.0</ele>
        <time>2026-01-20T03:21:42Z</time>
      </trkpt>
      <trkpt lon="76.986665" lat="10.431577">
        <ele>1065.0</ele>
        <time>2026-01-20T03:21:44Z</time>
      </trkpt>
      <trkpt lon="76.986739" lat="10.431442">
        <ele>1066.0</ele>
        <time>2026-01-20T03:21:46Z</time>
      </trkpt>
      <trkpt lon="76.986832" lat="10.431307">
        <ele>1066.0</ele>
        <time>2026-01-20T03:21:48Z</time>
      </trkpt>
      <trkpt lon="76.986953" lat="10.431204">
        <ele>1067.0</ele>
        <time>2026-01-20T03:21:50Z</time>
      </trkpt>
      <trkpt lon="76.98706" lat="10.431085">
        <ele>1069.0</ele>
        <time>2026-01-20T03:21:52Z</time>
      </trkpt>
      <trkpt lon="76.987135" lat="10.430957">
        <ele>1070.0</ele>
        <time>2026-01-20T03:21:54Z</time>
      </trkpt>
      <trkpt lon="76.987216" lat="10.430876">
        <ele>1073.0</ele>
        <time>2026-01-20T03:21:56Z</time>
      </trkpt>
      <trkpt lon="76.987312" lat="10.430812">
        <ele>1075.0</ele>
        <time>2026-01-20T03:21:58Z</time>
      </trkpt>
      <trkpt lon="76.987398" lat="10.430723">
        <ele>1077.0</ele>
        <time>2026-01-20T03:22:00Z</time>
      </trkpt>
      <trkpt lon="76.987499" lat="10.430643">
        <ele>1080.0</ele>
        <time>2026-01-20T03:22:02Z</time>
      </trkpt>
      <trkpt lon="76.987594" lat="10.43057">
        <ele>1083.0</ele>
        <time>2026-01-20T03:22:04Z</time>
      </trkpt>
      <trkpt lon="76.987676" lat="10.430477">
        <ele>1083.0</ele>
        <time>2026-01-20T03:22:06Z</time>
      </trkpt>
      <trkpt lon="76.987744" lat="10.430358">
        <ele>1083.0</ele>
        <time>2026-01-20T03:22:08Z</time>
      </trkpt>
      <trkpt lon="76.987795" lat="10.430228">
        <ele>1082.0</ele>
        <time>2026-01-20T03:22:10Z</time>
      </trkpt>
      <trkpt lon="76.987844" lat="10.430054">
        <ele>1081.0</ele>
        <time>2026-01-20T03:22:12Z</time>
      </trkpt>
      <trkpt lon="76.987867" lat="10.429961">
        <ele>1080.0</ele>
        <time>2026-01-20T03:22:13Z</time>
      </trkpt>
      <trkpt lon="76.987896" lat="10.429862">
        <ele>1080.0</ele>
        <time>2026-01-20T03:22:14Z</time>
      </trkpt>
      <trkpt lon="76.987918" lat="10.429766">
        <ele>1080.0</ele>
        <time>2026-01-20T03:22:15Z</time>
      </trkpt>
      <trkpt lon="76.987929" lat="10.429672">
        <ele>1079.0</ele>
        <time>2026-01-20T03:22:16Z</time>
      </trkpt>
      <trkpt lon="76.987941" lat="10.429494">
        <ele>1078.0</ele>
        <time>2026-01-20T03:22:18Z</time>
      </trkpt>
      <trkpt lon="76.987935" lat="10.429403">
        <ele>1077.0</ele>
        <time>2026-01-20T03:22:19Z</time>
      </trkpt>
      <trkpt lon="76.987923" lat="10.429302">
        <ele>1077.0</ele>
        <time>2026-01-20T03:22:20Z</time>
      </trkpt>
      <trkpt lon="76.987922" lat="10.429192">
        <ele>1076.0</ele>
        <time>2026-01-20T03:22:21Z</time>
      </trkpt>
      <trkpt lon="76.987931" lat="10.429082">
        <ele>1076.0</ele>
        <time>2026-01-20T03:22:22Z</time>
      </trkpt>
      <trkpt lon="76.98795" lat="10.428971">
        <ele>1077.0</ele>
        <time>2026-01-20T03:22:23Z</time>
      </trkpt>
      <trkpt lon="76.987974" lat="10.42886">
        <ele>1076.0</ele>
        <time>2026-01-20T03:22:24Z</time>
      </trkpt>
      <trkpt lon="76.987999" lat="10.428744">
        <ele>1076.0</ele>
        <time>2026-01-20T03:22:25Z</time>
      </trkpt>
      <trkpt lon="76.988035" lat="10.42863">
        <ele>1076.0</ele>
        <time>2026-01-20T03:22:26Z</time>
      </trkpt>
      <trkpt lon="76.988071" lat="10.428525">
        <ele>1075.0</ele>
        <time>2026-01-20T03:22:27Z</time>
      </trkpt>
      <trkpt lon="76.988109" lat="10.428421">
        <ele>1076.0</ele>
        <time>2026-01-20T03:22:28Z</time>
      </trkpt>
      <trkpt lon="76.988154" lat="10.428318">
        <ele>1076.0</ele>
        <time>2026-01-20T03:22:29Z</time>
      </trkpt>
      <trkpt lon="76.988199" lat="10.428216">
        <ele>1076.0</ele>
        <time>2026-01-20T03:22:30Z</time>
      </trkpt>
      <trkpt lon="76.988232" lat="10.428103">
        <ele>1076.0</ele>
        <time>2026-01-20T03:22:31Z</time>
      </trkpt>
      <trkpt lon="76.988263" lat="10.427991">
        <ele>1076.0</ele>
        <time>2026-01-20T03:22:32Z</time>
      </trkpt>
      <trkpt lon="76.988286" lat="10.427876">
        <ele>1076.0</ele>
        <time>2026-01-20T03:22:33Z</time>
      </trkpt>
      <trkpt lon="76.98831" lat="10.427754">
        <ele>1077.0</ele>
        <time>2026-01-20T03:22:34Z</time>
      </trkpt>
      <trkpt lon="76.988331" lat="10.427635">
        <ele>1077.0</ele>
        <time>2026-01-20T03:22:35Z</time>
      </trkpt>
      <trkpt lon="76.988357" lat="10.427511">
        <ele>1077.0</ele>
        <time>2026-01-20T03:22:36Z</time>
      </trkpt>
      <trkpt lon="76.988379" lat="10.427399">
        <ele>1076.0</ele>
        <time>2026-01-20T03:22:37Z</time>
      </trkpt>
      <trkpt lon="76.988413" lat="10.42728">
        <ele>1076.0</ele>
        <time>2026-01-20T03:22:38Z</time>
      </trkpt>
      <trkpt lon="76.988454" lat="10.427165">
        <ele>1076.0</ele>
        <time>2026-01-20T03:22:39Z</time>
      </trkpt>
      <trkpt lon="76.988502" lat="10.427049">
        <ele>1076.0</ele>
        <time>2026-01-20T03:22:40Z</time>
      </trkpt>
      <trkpt lon="76.988561" lat="10.426932">
        <ele>1076.0</ele>
        <time>2026-01-20T03:22:41Z</time>
      </trkpt>
      <trkpt lon="76.988606" lat="10.426815">
        <ele>1077.0</ele>
        <time>2026-01-20T03:22:42Z</time>
      </trkpt>
      <trkpt lon="76.988654" lat="10.426697">
        <ele>1077.0</ele>
        <time>2026-01-20T03:22:43Z</time>
      </trkpt>
      <trkpt lon="76.988699" lat="10.426578">
        <ele>1078.0</ele>
        <time>2026-01-20T03:22:44Z</time>
      </trkpt>
      <trkpt lon="76.988743" lat="10.426461">
        <ele>1079.0</ele>
        <time>2026-01-20T03:22:45Z</time>
      </trkpt>
      <trkpt lon="76.988778" lat="10.426345">
        <ele>1079.0</ele>
        <time>2026-01-20T03:22:46Z</time>
      </trkpt>
      <trkpt lon="76.988802" lat="10.426232">
        <ele>1080.0</ele>
        <time>2026-01-20T03:22:47Z</time>
      </trkpt>
      <trkpt lon="76.988826" lat="10.426121">
        <ele>1082.0</ele>
        <time>2026-01-20T03:22:48Z</time>
      </trkpt>
      <trkpt lon="76.988851" lat="10.426007">
        <ele>1083.0</ele>
        <time>2026-01-20T03:22:49Z</time>
      </trkpt>
      <trkpt lon="76.98888" lat="10.425896">
        <ele>1084.0</ele>
        <time>2026-01-20T03:22:50Z</time>
      </trkpt>
      <trkpt lon="76.988918" lat="10.425795">
        <ele>1085.0</ele>
        <time>2026-01-20T03:22:51Z</time>
      </trkpt>
      <trkpt lon="76.988965" lat="10.425705">
        <ele>1085.0</ele>
        <time>2026-01-20T03:22:52Z</time>
      </trkpt>
      <trkpt lon="76.989011" lat="10.425621">
        <ele>1084.0</ele>
        <time>2026-01-20T03:22:53Z</time>
      </trkpt>
      <trkpt lon="76.989061" lat="10.425544">
        <ele>1084.0</ele>
        <time>2026-01-20T03:22:54Z</time>
      </trkpt>
      <trkpt lon="76.989113" lat="10.425467">
        <ele>1084.0</ele>
        <time>2026-01-20T03:22:55Z</time>
      </trkpt>
      <trkpt lon="76.9892" lat="10.425333">
        <ele>1085.0</ele>
        <time>2026-01-20T03:22:57Z</time>
      </trkpt>
      <trkpt lon="76.989278" lat="10.425191">
        <ele>1085.0</ele>
        <time>2026-01-20T03:22:59Z</time>
      </trkpt>
      <trkpt lon="76.989358" lat="10.425046">
        <ele>1085.0</ele>
        <time>2026-01-20T03:23:01Z</time>
      </trkpt>
      <trkpt lon="76.989439" lat="10.424897">
        <ele>1084.0</ele>
        <time>2026-01-20T03:23:03Z</time>
      </trkpt>
      <trkpt lon="76.989515" lat="10.424746">
        <ele>1083.0</ele>
        <time>2026-01-20T03:23:05Z</time>
      </trkpt>
      <trkpt lon="76.989576" lat="10.424614">
        <ele>1082.0</ele>
        <time>2026-01-20T03:23:07Z</time>
      </trkpt>
      <trkpt lon="76.989722" lat="10.424547">
        <ele>1082.0</ele>
        <time>2026-01-20T03:23:09Z</time>
      </trkpt>
      <trkpt lon="76.989821" lat="10.424544">
        <ele>1082.0</ele>
        <time>2026-01-20T03:23:10Z</time>
      </trkpt>
      <trkpt lon="76.989991" lat="10.424541">
        <ele>1080.0</ele>
        <time>2026-01-20T03:23:12Z</time>
      </trkpt>
      <trkpt lon="76.990155" lat="10.424485">
        <ele>1080.0</ele>
        <time>2026-01-20T03:23:14Z</time>
      </trkpt>
      <trkpt lon="76.990308" lat="10.424421">
        <ele>1080.0</ele>
        <time>2026-01-20T03:23:16Z</time>
      </trkpt>
      <trkpt lon="76.990466" lat="10.424389">
        <ele>1079.0</ele>
        <time>2026-01-20T03:23:18Z</time>
      </trkpt>
      <trkpt lon="76.990615" lat="10.424421">
        <ele>1078.0</ele>
        <time>2026-01-20T03:23:20Z</time>
      </trkpt>
      <trkpt lon="76.990753" lat="10.424494">
        <ele>1077.0</ele>
        <time>2026-01-20T03:23:22Z</time>
      </trkpt>
      <trkpt lon="76.990907" lat="10.42454">
        <ele>1077.0</ele>
        <time>2026-01-20T03:23:24Z</time>
      </trkpt>
      <trkpt lon="76.991083" lat="10.424549">
        <ele>1076.0</ele>
        <time>2026-01-20T03:23:26Z</time>
      </trkpt>
      <trkpt lon="76.991249" lat="10.424485">
        <ele>1074.0</ele>
        <time>2026-01-20T03:23:28Z</time>
      </trkpt>
      <trkpt lon="76.991341" lat="10.424445">
        <ele>1073.0</ele>
        <time>2026-01-20T03:23:29Z</time>
      </trkpt>
      <trkpt lon="76.991439" lat="10.424389">
        <ele>1073.0</ele>
        <time>2026-01-20T03:23:30Z</time>
      </trkpt>
      <trkpt lon="76.99153" lat="10.424342">
        <ele>1074.0</ele>
        <time>2026-01-20T03:23:31Z</time>
      </trkpt>
      <trkpt lon="76.991622" lat="10.424296">
        <ele>1074.0</ele>
        <time>2026-01-20T03:23:32Z</time>
      </trkpt>
      <trkpt lon="76.991718" lat="10.424256">
        <ele>1074.0</ele>
        <time>2026-01-20T03:23:33Z</time>
      </trkpt>
      <trkpt lon="76.991821" lat="10.424234">
        <ele>1075.0</ele>
        <time>2026-01-20T03:23:34Z</time>
      </trkpt>
      <trkpt lon="76.991923" lat="10.424212">
        <ele>1075.0</ele>
        <time>2026-01-20T03:23:35Z</time>
      </trkpt>
      <trkpt lon="76.99202" lat="10.424194">
        <ele>1075.0</ele>
        <time>2026-01-20T03:23:36Z</time>
      </trkpt>
      <trkpt lon="76.992194" lat="10.424137">
        <ele>1074.0</ele>
        <time>2026-01-20T03:23:38Z</time>
      </trkpt>
      <trkpt lon="76.992272" lat="10.424082">
        <ele>1073.0</ele>
        <time>2026-01-20T03:23:39Z</time>
      </trkpt>
      <trkpt lon="76.992349" lat="10.423998">
        <ele>1074.0</ele>
        <time>2026-01-20T03:23:40Z</time>
      </trkpt>
      <trkpt lon="76.992434" lat="10.423893">
        <ele>1075.0</ele>
        <time>2026-01-20T03:23:41Z</time>
      </trkpt>
      <trkpt lon="76.992502" lat="10.423781">
        <ele>1075.0</ele>
        <time>2026-01-20T03:23:42Z</time>
      </trkpt>
      <trkpt lon="76.992575" lat="10.423677">
        <ele>1075.0</ele>
        <time>2026-01-20T03:23:43Z</time>
      </trkpt>
      <trkpt lon="76.992643" lat="10.423575">
        <ele>1076.0</ele>
        <time>2026-01-20T03:23:44Z</time>
      </trkpt>
      <trkpt lon="76.992701" lat="10.423476">
        <ele>1076.0</ele>
        <time>2026-01-20T03:23:45Z</time>
      </trkpt>
      <trkpt lon="76.992764" lat="10.423381">
        <ele>1076.0</ele>
        <time>2026-01-20T03:23:46Z</time>
      </trkpt>
      <trkpt lon="76.99283" lat="10.423282">
        <ele>1076.0</ele>
        <time>2026-01-20T03:23:47Z</time>
      </trkpt>
      <trkpt lon="76.9929" lat="10.423179">
        <ele>1075.0</ele>
        <time>2026-01-20T03:23:48Z</time>
      </trkpt>
      <trkpt lon="76.992975" lat="10.42307">
        <ele>1075.0</ele>
        <time>2026-01-20T03:23:49Z</time>
      </trkpt>
      <trkpt lon="76.993054" lat="10.422961">
        <ele>1074.0</ele>
        <time>2026-01-20T03:23:50Z</time>
      </trkpt>
      <trkpt lon="76.993121" lat="10.422857">
        <ele>1074.0</ele>
        <time>2026-01-20T03:23:51Z</time>
      </trkpt>
      <trkpt lon="76.99319" lat="10.422747">
        <ele>1074.0</ele>
        <time>2026-01-20T03:23:52Z</time>
      </trkpt>
      <trkpt lon="76.993251" lat="10.422634">
        <ele>1074.0</ele>
        <time>2026-01-20T03:23:53Z</time>
      </trkpt>
      <trkpt lon="76.993293" lat="10.422522">
        <ele>1074.0</ele>
        <time>2026-01-20T03:23:54Z</time>
      </trkpt>
      <trkpt lon="76.993328" lat="10.422404">
        <ele>1074.0</ele>
        <time>2026-01-20T03:23:55Z</time>
      </trkpt>
      <trkpt lon="76.993346" lat="10.422279">
        <ele>1074.0</ele>
        <time>2026-01-20T03:23:56Z</time>
      </trkpt>
      <trkpt lon="76.993347" lat="10.422155">
        <ele>1073.0</ele>
        <time>2026-01-20T03:23:57Z</time>
      </trkpt>
      <trkpt lon="76.993353" lat="10.422023">
        <ele>1073.0</ele>
        <time>2026-01-20T03:23:58Z</time>
      </trkpt>
      <trkpt lon="76.993359" lat="10.421896">
        <ele>1072.0</ele>
        <time>2026-01-20T03:23:59Z</time>
      </trkpt>
      <trkpt lon="76.993373" lat="10.421776">
        <ele>1073.0</ele>
        <time>2026-01-20T03:24:00Z</time>
      </trkpt>
      <trkpt lon="76.993401" lat="10.421664">
        <ele>1073.0</ele>
        <time>2026-01-20T03:24:01Z</time>
      </trkpt>
      <trkpt lon="76.993428" lat="10.421547">
        <ele>1072.0</ele>
        <time>2026-01-20T03:24:02Z</time>
      </trkpt>
      <trkpt lon="76.993441" lat="10.421427">
        <ele>1071.0</ele>
        <time>2026-01-20T03:24:03Z</time>
      </trkpt>
      <trkpt lon="76.993421" lat="10.421306">
        <ele>1070.0</ele>
        <time>2026-01-20T03:24:04Z</time>
      </trkpt>
      <trkpt lon="76.993382" lat="10.4212">
        <ele>1070.0</ele>
        <time>2026-01-20T03:24:05Z</time>
      </trkpt>
      <trkpt lon="76.993324" lat="10.421101">
        <ele>1070.0</ele>
        <time>2026-01-20T03:24:06Z</time>
      </trkpt>
      <trkpt lon="76.993265" lat="10.421018">
        <ele>1071.0</ele>
        <time>2026-01-20T03:24:07Z</time>
      </trkpt>
      <trkpt lon="76.993198" lat="10.420951">
        <ele>1072.0</ele>
        <time>2026-01-20T03:24:08Z</time>
      </trkpt>
      <trkpt lon="76.993048" lat="10.420922">
        <ele>1071.0</ele>
        <time>2026-01-20T03:24:10Z</time>
      </trkpt>
      <trkpt lon="76.992891" lat="10.420902">
        <ele>1071.0</ele>
        <time>2026-01-20T03:24:12Z</time>
      </trkpt>
      <trkpt lon="76.992821" lat="10.420779">
        <ele>1072.0</ele>
        <time>2026-01-20T03:24:14Z</time>
      </trkpt>
      <trkpt lon="76.992856" lat="10.420628">
        <ele>1071.0</ele>
        <time>2026-01-20T03:24:16Z</time>
      </trkpt>
      <trkpt lon="76.99289" lat="10.420481">
        <ele>1069.0</ele>
        <time>2026-01-20T03:24:18Z</time>
      </trkpt>
      <trkpt lon="76.992921" lat="10.420313">
        <ele>1066.0</ele>
        <time>2026-01-20T03:24:20Z</time>
      </trkpt>
      <trkpt lon="76.992972" lat="10.420169">
        <ele>1065.0</ele>
        <time>2026-01-20T03:24:22Z</time>
      </trkpt>
      <trkpt lon="76.992992" lat="10.420022">
        <ele>1065.0</ele>
        <time>2026-01-20T03:24:24Z</time>
      </trkpt>
      <trkpt lon="76.99299" lat="10.41987">
        <ele>1065.0</ele>
        <time>2026-01-20T03:24:26Z</time>
      </trkpt>
      <trkpt lon="76.992956" lat="10.419721">
        <ele>1066.0</ele>
        <time>2026-01-20T03:24:28Z</time>
      </trkpt>
      <trkpt lon="76.992892" lat="10.419622">
        <ele>1066.0</ele>
        <time>2026-01-20T03:24:30Z</time>
      </trkpt>
      <trkpt lon="76.992834" lat="10.419535">
        <ele>1066.0</ele>
        <time>2026-01-20T03:24:33Z</time>
      </trkpt>
      <trkpt lon="76.992779" lat="10.419445">
        <ele>1065.0</ele>
        <time>2026-01-20T03:24:36Z</time>
      </trkpt>
      <trkpt lon="76.992729" lat="10.419359">
        <ele>1066.0</ele>
        <time>2026-01-20T03:24:38Z</time>
      </trkpt>
      <trkpt lon="76.992655" lat="10.419248">
        <ele>1067.0</ele>
        <time>2026-01-20T03:24:40Z</time>
      </trkpt>
      <trkpt lon="76.992568" lat="10.41917">
        <ele>1067.0</ele>
        <time>2026-01-20T03:24:42Z</time>
      </trkpt>
      <trkpt lon="76.992508" lat="10.41908">
        <ele>1067.0</ele>
        <time>2026-01-20T03:24:45Z</time>
      </trkpt>
      <trkpt lon="76.992632" lat="10.419031">
        <ele>1068.0</ele>
        <time>2026-01-20T03:24:48Z</time>
      </trkpt>
      <trkpt lon="76.992774" lat="10.419132">
        <ele>1071.0</ele>
        <time>2026-01-20T03:24:50Z</time>
      </trkpt>
      <trkpt lon="76.992843" lat="10.419194">
        <ele>1072.0</ele>
        <time>2026-01-20T03:24:51Z</time>
      </trkpt>
      <trkpt lon="76.992959" lat="10.419314">
        <ele>1074.0</ele>
        <time>2026-01-20T03:24:53Z</time>
      </trkpt>
      <trkpt lon="76.993089" lat="10.419414">
        <ele>1075.0</ele>
        <time>2026-01-20T03:24:55Z</time>
      </trkpt>
      <trkpt lon="76.993183" lat="10.419422">
        <ele>1077.0</ele>
        <time>2026-01-20T03:24:56Z</time>
      </trkpt>
      <trkpt lon="76.993283" lat="10.419405">
        <ele>1077.0</ele>
        <time>2026-01-20T03:24:57Z</time>
      </trkpt>
      <trkpt lon="76.993377" lat="10.419372">
        <ele>1080.0</ele>
        <time>2026-01-20T03:24:58Z</time>
      </trkpt>
      <trkpt lon="76.993464" lat="10.419331">
        <ele>1081.0</ele>
        <time>2026-01-20T03:24:59Z</time>
      </trkpt>
      <trkpt lon="76.99356" lat="10.419287">
        <ele>1081.0</ele>
        <time>2026-01-20T03:25:00Z</time>
      </trkpt>
      <trkpt lon="76.993659" lat="10.419237">
        <ele>1083.0</ele>
        <time>2026-01-20T03:25:01Z</time>
      </trkpt>
      <trkpt lon="76.993741" lat="10.419183">
        <ele>1083.0</ele>
        <time>2026-01-20T03:25:02Z</time>
      </trkpt>
      <trkpt lon="76.99381" lat="10.419123">
        <ele>1083.0</ele>
        <time>2026-01-20T03:25:03Z</time>
      </trkpt>
      <trkpt lon="76.99387" lat="10.419052">
        <ele>1084.0</ele>
        <time>2026-01-20T03:25:04Z</time>
      </trkpt>
      <trkpt lon="76.993925" lat="10.41888">
        <ele>1085.0</ele>
        <time>2026-01-20T03:25:06Z</time>
      </trkpt>
      <trkpt lon="76.993901" lat="10.418782">
        <ele>1086.0</ele>
        <time>2026-01-20T03:25:07Z</time>
      </trkpt>
      <trkpt lon="76.993807" lat="10.418639">
        <ele>1087.0</ele>
        <time>2026-01-20T03:25:09Z</time>
      </trkpt>
      <trkpt lon="76.993689" lat="10.418541">
        <ele>1087.0</ele>
        <time>2026-01-20T03:25:11Z</time>
      </trkpt>
      <trkpt lon="76.993655" lat="10.418437">
        <ele>1088.0</ele>
        <time>2026-01-20T03:25:13Z</time>
      </trkpt>
      <trkpt lon="76.993757" lat="10.418323">
        <ele>1089.0</ele>
        <time>2026-01-20T03:25:15Z</time>
      </trkpt>
      <trkpt lon="76.993838" lat="10.418266">
        <ele>1090.0</ele>
        <time>2026-01-20T03:25:16Z</time>
      </trkpt>
      <trkpt lon="76.993933" lat="10.4182">
        <ele>1089.0</ele>
        <time>2026-01-20T03:25:17Z</time>
      </trkpt>
      <trkpt lon="76.994026" lat="10.418134">
        <ele>1088.0</ele>
        <time>2026-01-20T03:25:18Z</time>
      </trkpt>
      <trkpt lon="76.994125" lat="10.418056">
        <ele>1087.0</ele>
        <time>2026-01-20T03:25:19Z</time>
      </trkpt>
      <trkpt lon="76.994222" lat="10.417965">
        <ele>1086.0</ele>
        <time>2026-01-20T03:25:20Z</time>
      </trkpt>
      <trkpt lon="76.994316" lat="10.417871">
        <ele>1086.0</ele>
        <time>2026-01-20T03:25:21Z</time>
      </trkpt>
      <trkpt lon="76.994416" lat="10.417784">
        <ele>1085.0</ele>
        <time>2026-01-20T03:25:22Z</time>
      </trkpt>
      <trkpt lon="76.994517" lat="10.417705">
        <ele>1085.0</ele>
        <time>2026-01-20T03:25:23Z</time>
      </trkpt>
      <trkpt lon="76.994611" lat="10.417617">
        <ele>1085.0</ele>
        <time>2026-01-20T03:25:24Z</time>
      </trkpt>
      <trkpt lon="76.994699" lat="10.417523">
        <ele>1084.0</ele>
        <time>2026-01-20T03:25:25Z</time>
      </trkpt>
      <trkpt lon="76.994797" lat="10.417434">
        <ele>1084.0</ele>
        <time>2026-01-20T03:25:26Z</time>
      </trkpt>
      <trkpt lon="76.994897" lat="10.417344">
        <ele>1083.0</ele>
        <time>2026-01-20T03:25:27Z</time>
      </trkpt>
      <trkpt lon="76.994994" lat="10.41725">
        <ele>1083.0</ele>
        <time>2026-01-20T03:25:28Z</time>
      </trkpt>
      <trkpt lon="76.995078" lat="10.417142">
        <ele>1083.0</ele>
        <time>2026-01-20T03:25:29Z</time>
      </trkpt>
      <trkpt lon="76.995149" lat="10.417031">
        <ele>1083.0</ele>
        <time>2026-01-20T03:25:30Z</time>
      </trkpt>
      <trkpt lon="76.99521" lat="10.416941">
        <ele>1083.0</ele>
        <time>2026-01-20T03:25:31Z</time>
      </trkpt>
      <trkpt lon="76.995279" lat="10.41688">
        <ele>1082.0</ele>
        <time>2026-01-20T03:25:32Z</time>
      </trkpt>
      <trkpt lon="76.995429" lat="10.416826">
        <ele>1080.0</ele>
        <time>2026-01-20T03:25:34Z</time>
      </trkpt>
      <trkpt lon="76.995584" lat="10.416814">
        <ele>1079.0</ele>
        <time>2026-01-20T03:25:36Z</time>
      </trkpt>
      <trkpt lon="76.995709" lat="10.416728">
        <ele>1078.0</ele>
        <time>2026-01-20T03:25:38Z</time>
      </trkpt>
      <trkpt lon="76.995761" lat="10.416551">
        <ele>1078.0</ele>
        <time>2026-01-20T03:25:40Z</time>
      </trkpt>
      <trkpt lon="76.995777" lat="10.41644">
        <ele>1077.0</ele>
        <time>2026-01-20T03:25:41Z</time>
      </trkpt>
      <trkpt lon="76.995795" lat="10.416316">
        <ele>1076.0</ele>
        <time>2026-01-20T03:25:42Z</time>
      </trkpt>
      <trkpt lon="76.995812" lat="10.416196">
        <ele>1074.0</ele>
        <time>2026-01-20T03:25:43Z</time>
      </trkpt>
      <trkpt lon="76.995839" lat="10.416078">
        <ele>1074.0</ele>
        <time>2026-01-20T03:25:44Z</time>
      </trkpt>
      <trkpt lon="76.995864" lat="10.415965">
        <ele>1073.0</ele>
        <time>2026-01-20T03:25:45Z</time>
      </trkpt>
      <trkpt lon="76.995889" lat="10.415852">
        <ele>1073.0</ele>
        <time>2026-01-20T03:25:46Z</time>
      </trkpt>
      <trkpt lon="76.995904" lat="10.415743">
        <ele>1072.0</ele>
        <time>2026-01-20T03:25:47Z</time>
      </trkpt>
      <trkpt lon="76.995903" lat="10.415627">
        <ele>1072.0</ele>
        <time>2026-01-20T03:25:48Z</time>
      </trkpt>
      <trkpt lon="76.995874" lat="10.415498">
        <ele>1072.0</ele>
        <time>2026-01-20T03:25:49Z</time>
      </trkpt>
      <trkpt lon="76.99583" lat="10.415382">
        <ele>1073.0</ele>
        <time>2026-01-20T03:25:50Z</time>
      </trkpt>
      <trkpt lon="76.995766" lat="10.415261">
        <ele>1074.0</ele>
        <time>2026-01-20T03:25:51Z</time>
      </trkpt>
      <trkpt lon="76.995702" lat="10.415146">
        <ele>1074.0</ele>
        <time>2026-01-20T03:25:52Z</time>
      </trkpt>
      <trkpt lon="76.995639" lat="10.415032">
        <ele>1075.0</ele>
        <time>2026-01-20T03:25:53Z</time>
      </trkpt>
      <trkpt lon="76.99558" lat="10.414928">
        <ele>1075.0</ele>
        <time>2026-01-20T03:25:54Z</time>
      </trkpt>
      <trkpt lon="76.995525" lat="10.414831">
        <ele>1076.0</ele>
        <time>2026-01-20T03:25:55Z</time>
      </trkpt>
      <trkpt lon="76.995476" lat="10.414735">
        <ele>1076.0</ele>
        <time>2026-01-20T03:25:56Z</time>
      </trkpt>
      <trkpt lon="76.995458" lat="10.414642">
        <ele>1076.0</ele>
        <time>2026-01-20T03:25:57Z</time>
      </trkpt>
      <trkpt lon="76.995463" lat="10.41455">
        <ele>1075.0</ele>
        <time>2026-01-20T03:25:58Z</time>
      </trkpt>
      <trkpt lon="76.995497" lat="10.414461">
        <ele>1076.0</ele>
        <time>2026-01-20T03:25:59Z</time>
      </trkpt>
      <trkpt lon="76.995543" lat="10.414374">
        <ele>1075.0</ele>
        <time>2026-01-20T03:26:00Z</time>
      </trkpt>
      <trkpt lon="76.995582" lat="10.41428">
        <ele>1075.0</ele>
        <time>2026-01-20T03:26:01Z</time>
      </trkpt>
      <trkpt lon="76.995608" lat="10.414176">
        <ele>1074.0</ele>
        <time>2026-01-20T03:26:02Z</time>
      </trkpt>
      <trkpt lon="76.995622" lat="10.414075">
        <ele>1074.0</ele>
        <time>2026-01-20T03:26:03Z</time>
      </trkpt>
      <trkpt lon="76.995637" lat="10.413975">
        <ele>1074.0</ele>
        <time>2026-01-20T03:26:04Z</time>
      </trkpt>
      <trkpt lon="76.995649" lat="10.413881">
        <ele>1074.0</ele>
        <time>2026-01-20T03:26:05Z</time>
      </trkpt>
      <trkpt lon="76.995703" lat="10.413723">
        <ele>1074.0</ele>
        <time>2026-01-20T03:26:07Z</time>
      </trkpt>
      <trkpt lon="76.995788" lat="10.413611">
        <ele>1073.0</ele>
        <time>2026-01-20T03:26:09Z</time>
      </trkpt>
      <trkpt lon="76.995968" lat="10.413564">
        <ele>1073.0</ele>
        <time>2026-01-20T03:26:11Z</time>
      </trkpt>
      <trkpt lon="76.996078" lat="10.413553">
        <ele>1073.0</ele>
        <time>2026-01-20T03:26:12Z</time>
      </trkpt>
      <trkpt lon="76.996185" lat="10.413539">
        <ele>1072.0</ele>
        <time>2026-01-20T03:26:13Z</time>
      </trkpt>
      <trkpt lon="76.996283" lat="10.413529">
        <ele>1073.0</ele>
        <time>2026-01-20T03:26:14Z</time>
      </trkpt>
      <trkpt lon="76.996376" lat="10.413548">
        <ele>1073.0</ele>
        <time>2026-01-20T03:26:15Z</time>
      </trkpt>
      <trkpt lon="76.996464" lat="10.413594">
        <ele>1074.0</ele>
        <time>2026-01-20T03:26:16Z</time>
      </trkpt>
      <trkpt lon="76.996596" lat="10.413695">
        <ele>1075.0</ele>
        <time>2026-01-20T03:26:18Z</time>
      </trkpt>
      <trkpt lon="76.996718" lat="10.413754">
        <ele>1075.0</ele>
        <time>2026-01-20T03:26:20Z</time>
      </trkpt>
      <trkpt lon="76.99684" lat="10.413807">
        <ele>1075.0</ele>
        <time>2026-01-20T03:26:22Z</time>
      </trkpt>
      <trkpt lon="76.996971" lat="10.413863">
        <ele>1077.0</ele>
        <time>2026-01-20T03:26:24Z</time>
      </trkpt>
      <trkpt lon="76.997063" lat="10.413834">
        <ele>1077.0</ele>
        <time>2026-01-20T03:26:26Z</time>
      </trkpt>
      <trkpt lon="76.997135" lat="10.413721">
        <ele>1078.0</ele>
        <time>2026-01-20T03:26:28Z</time>
      </trkpt>
      <trkpt lon="76.997158" lat="10.413567">
        <ele>1077.0</ele>
        <time>2026-01-20T03:26:30Z</time>
      </trkpt>
      <trkpt lon="76.997156" lat="10.4134">
        <ele>1077.0</ele>
        <time>2026-01-20T03:26:32Z</time>
      </trkpt>
      <trkpt lon="76.997117" lat="10.413222">
        <ele>1075.0</ele>
        <time>2026-01-20T03:26:34Z</time>
      </trkpt>
      <trkpt lon="76.997067" lat="10.413133">
        <ele>1075.0</ele>
        <time>2026-01-20T03:26:35Z</time>
      </trkpt>
      <trkpt lon="76.996994" lat="10.413071">
        <ele>1077.0</ele>
        <time>2026-01-20T03:26:36Z</time>
      </trkpt>
      <trkpt lon="76.996906" lat="10.413029">
        <ele>1078.0</ele>
        <time>2026-01-20T03:26:37Z</time>
      </trkpt>
      <trkpt lon="76.996816" lat="10.413008">
        <ele>1079.0</ele>
        <time>2026-01-20T03:26:38Z</time>
      </trkpt>
      <trkpt lon="76.996715" lat="10.412985">
        <ele>1079.0</ele>
        <time>2026-01-20T03:26:39Z</time>
      </trkpt>
      <trkpt lon="76.996579" lat="10.412912">
        <ele>1079.0</ele>
        <time>2026-01-20T03:26:41Z</time>
      </trkpt>
      <trkpt lon="76.996531" lat="10.412764">
        <ele>1077.0</ele>
        <time>2026-01-20T03:26:43Z</time>
      </trkpt>
      <trkpt lon="76.996529" lat="10.412596">
        <ele>1078.0</ele>
        <time>2026-01-20T03:26:45Z</time>
      </trkpt>
      <trkpt lon="76.996498" lat="10.412504">
        <ele>1079.0</ele>
        <time>2026-01-20T03:26:46Z</time>
      </trkpt>
      <trkpt lon="76.996435" lat="10.412421">
        <ele>1080.0</ele>
        <time>2026-01-20T03:26:47Z</time>
      </trkpt>
      <trkpt lon="76.996356" lat="10.412349">
        <ele>1081.0</ele>
        <time>2026-01-20T03:26:48Z</time>
      </trkpt>
      <trkpt lon="76.996263" lat="10.412296">
        <ele>1081.0</ele>
        <time>2026-01-20T03:26:49Z</time>
      </trkpt>
      <trkpt lon="76.996166" lat="10.412242">
        <ele>1081.0</ele>
        <time>2026-01-20T03:26:50Z</time>
      </trkpt>
      <trkpt lon="76.996075" lat="10.412183">
        <ele>1081.0</ele>
        <time>2026-01-20T03:26:51Z</time>
      </trkpt>
      <trkpt lon="76.995995" lat="10.412126">
        <ele>1081.0</ele>
        <time>2026-01-20T03:26:52Z</time>
      </trkpt>
      <trkpt lon="76.995912" lat="10.411973">
        <ele>1080.0</ele>
        <time>2026-01-20T03:26:54Z</time>
      </trkpt>
      <trkpt lon="76.995918" lat="10.411856">
        <ele>1080.0</ele>
        <time>2026-01-20T03:26:56Z</time>
      </trkpt>
      <trkpt lon="76.996029" lat="10.411772">
        <ele>1080.0</ele>
        <time>2026-01-20T03:26:58Z</time>
      </trkpt>
      <trkpt lon="76.996122" lat="10.411774">
        <ele>1080.0</ele>
        <time>2026-01-20T03:26:59Z</time>
      </trkpt>
      <trkpt lon="76.996289" lat="10.411753">
        <ele>1081.0</ele>
        <time>2026-01-20T03:27:01Z</time>
      </trkpt>
      <trkpt lon="76.996425" lat="10.411667">
        <ele>1084.0</ele>
        <time>2026-01-20T03:27:03Z</time>
      </trkpt>
      <trkpt lon="76.996426" lat="10.41157">
        <ele>1083.0</ele>
        <time>2026-01-20T03:27:04Z</time>
      </trkpt>
      <trkpt lon="76.996427" lat="10.411474">
        <ele>1083.0</ele>
        <time>2026-01-20T03:27:05Z</time>
      </trkpt>
      <trkpt lon="76.996419" lat="10.411355">
        <ele>1082.0</ele>
        <time>2026-01-20T03:27:06Z</time>
      </trkpt>
      <trkpt lon="76.996426" lat="10.411237">
        <ele>1082.0</ele>
        <time>2026-01-20T03:27:07Z</time>
      </trkpt>
      <trkpt lon="76.996456" lat="10.411119">
        <ele>1082.0</ele>
        <time>2026-01-20T03:27:08Z</time>
      </trkpt>
      <trkpt lon="76.996475" lat="10.410995">
        <ele>1082.0</ele>
        <time>2026-01-20T03:27:09Z</time>
      </trkpt>
      <trkpt lon="76.99647" lat="10.410864">
        <ele>1081.0</ele>
        <time>2026-01-20T03:27:10Z</time>
      </trkpt>
      <trkpt lon="76.996452" lat="10.410733">
        <ele>1080.0</ele>
        <time>2026-01-20T03:27:11Z</time>
      </trkpt>
      <trkpt lon="76.996423" lat="10.4106">
        <ele>1079.0</ele>
        <time>2026-01-20T03:27:12Z</time>
      </trkpt>
      <trkpt lon="76.996388" lat="10.410463">
        <ele>1078.0</ele>
        <time>2026-01-20T03:27:13Z</time>
      </trkpt>
      <trkpt lon="76.996352" lat="10.410325">
        <ele>1078.0</ele>
        <time>2026-01-20T03:27:14Z</time>
      </trkpt>
      <trkpt lon="76.996312" lat="10.410189">
        <ele>1076.0</ele>
        <time>2026-01-20T03:27:15Z</time>
      </trkpt>
      <trkpt lon="76.99626" lat="10.410061">
        <ele>1076.0</ele>
        <time>2026-01-20T03:27:16Z</time>
      </trkpt>
      <trkpt lon="76.996203" lat="10.409943">
        <ele>1076.0</ele>
        <time>2026-01-20T03:27:17Z</time>
      </trkpt>
      <trkpt lon="76.99615" lat="10.40983">
        <ele>1077.0</ele>
        <time>2026-01-20T03:27:18Z</time>
      </trkpt>
      <trkpt lon="76.996098" lat="10.409721">
        <ele>1077.0</ele>
        <time>2026-01-20T03:27:19Z</time>
      </trkpt>
      <trkpt lon="76.996054" lat="10.409611">
        <ele>1077.0</ele>
        <time>2026-01-20T03:27:20Z</time>
      </trkpt>
      <trkpt lon="76.996005" lat="10.409511">
        <ele>1077.0</ele>
        <time>2026-01-20T03:27:21Z</time>
      </trkpt>
      <trkpt lon="76.995956" lat="10.409418">
        <ele>1078.0</ele>
        <time>2026-01-20T03:27:22Z</time>
      </trkpt>
      <trkpt lon="76.995916" lat="10.409333">
        <ele>1078.0</ele>
        <time>2026-01-20T03:27:23Z</time>
      </trkpt>
      <trkpt lon="76.99586" lat="10.409208">
        <ele>1079.0</ele>
        <time>2026-01-20T03:27:25Z</time>
      </trkpt>
      <trkpt lon="76.995889" lat="10.409095">
        <ele>1079.0</ele>
        <time>2026-01-20T03:27:28Z</time>
      </trkpt>
      <trkpt lon="76.995988" lat="10.409092">
        <ele>1080.0</ele>
        <time>2026-01-20T03:27:30Z</time>
      </trkpt>
      <trkpt lon="76.996125" lat="10.409148">
        <ele>1081.0</ele>
        <time>2026-01-20T03:27:32Z</time>
      </trkpt>
      <trkpt lon="76.996277" lat="10.409224">
        <ele>1082.0</ele>
        <time>2026-01-20T03:27:34Z</time>
      </trkpt>
      <trkpt lon="76.99635" lat="10.409292">
        <ele>1081.0</ele>
        <time>2026-01-20T03:27:35Z</time>
      </trkpt>
      <trkpt lon="76.996406" lat="10.409364">
        <ele>1082.0</ele>
        <time>2026-01-20T03:27:36Z</time>
      </trkpt>
      <trkpt lon="76.996459" lat="10.40946">
        <ele>1082.0</ele>
        <time>2026-01-20T03:27:37Z</time>
      </trkpt>
      <trkpt lon="76.996511" lat="10.409561">
        <ele>1082.0</ele>
        <time>2026-01-20T03:27:38Z</time>
      </trkpt>
      <trkpt lon="76.996555" lat="10.409665">
        <ele>1084.0</ele>
        <time>2026-01-20T03:27:39Z</time>
      </trkpt>
      <trkpt lon="76.996608" lat="10.409767">
        <ele>1085.0</ele>
        <time>2026-01-20T03:27:40Z</time>
      </trkpt>
      <trkpt lon="76.996676" lat="10.40987">
        <ele>1087.0</ele>
        <time>2026-01-20T03:27:41Z</time>
      </trkpt>
      <trkpt lon="76.996747" lat="10.409959">
        <ele>1089.0</ele>
        <time>2026-01-20T03:27:42Z</time>
      </trkpt>
      <trkpt lon="76.996819" lat="10.410039">
        <ele>1091.0</ele>
        <time>2026-01-20T03:27:43Z</time>
      </trkpt>
      <trkpt lon="76.996946" lat="10.410153">
        <ele>1092.0</ele>
        <time>2026-01-20T03:27:45Z</time>
      </trkpt>
      <trkpt lon="76.9971" lat="10.41019">
        <ele>1093.0</ele>
        <time>2026-01-20T03:27:47Z</time>
      </trkpt>
      <trkpt lon="76.997196" lat="10.410168">
        <ele>1094.0</ele>
        <time>2026-01-20T03:27:48Z</time>
      </trkpt>
      <trkpt lon="76.997295" lat="10.410123">
        <ele>1094.0</ele>
        <time>2026-01-20T03:27:49Z</time>
      </trkpt>
      <trkpt lon="76.997387" lat="10.410076">
        <ele>1095.0</ele>
        <time>2026-01-20T03:27:50Z</time>
      </trkpt>
      <trkpt lon="76.99748" lat="10.410023">
        <ele>1096.0</ele>
        <time>2026-01-20T03:27:51Z</time>
      </trkpt>
      <trkpt lon="76.997569" lat="10.409966">
        <ele>1096.0</ele>
        <time>2026-01-20T03:27:52Z</time>
      </trkpt>
      <trkpt lon="76.997654" lat="10.409904">
        <ele>1098.0</ele>
        <time>2026-01-20T03:27:53Z</time>
      </trkpt>
      <trkpt lon="76.99773" lat="10.409837">
        <ele>1099.0</ele>
        <time>2026-01-20T03:27:54Z</time>
      </trkpt>
      <trkpt lon="76.997793" lat="10.409749">
        <ele>1099.0</ele>
        <time>2026-01-20T03:27:55Z</time>
      </trkpt>
      <trkpt lon="76.997839" lat="10.40965">
        <ele>1100.0</ele>
        <time>2026-01-20T03:27:56Z</time>
      </trkpt>
      <trkpt lon="76.997882" lat="10.409553">
        <ele>1100.0</ele>
        <time>2026-01-20T03:27:57Z</time>
      </trkpt>
      <trkpt lon="76.997911" lat="10.409444">
        <ele>1101.0</ele>
        <time>2026-01-20T03:27:58Z</time>
      </trkpt>
      <trkpt lon="76.997934" lat="10.409333">
        <ele>1101.0</ele>
        <time>2026-01-20T03:27:59Z</time>
      </trkpt>
      <trkpt lon="76.997951" lat="10.409216">
        <ele>1102.0</ele>
        <time>2026-01-20T03:28:00Z</time>
      </trkpt>
      <trkpt lon="76.997956" lat="10.409103">
        <ele>1102.0</ele>
        <time>2026-01-20T03:28:01Z</time>
      </trkpt>
      <trkpt lon="76.997958" lat="10.408992">
        <ele>1102.0</ele>
        <time>2026-01-20T03:28:02Z</time>
      </trkpt>
      <trkpt lon="76.997957" lat="10.408884">
        <ele>1103.0</ele>
        <time>2026-01-20T03:28:03Z</time>
      </trkpt>
      <trkpt lon="76.997969" lat="10.408791">
        <ele>1103.0</ele>
        <time>2026-01-20T03:28:04Z</time>
      </trkpt>
      <trkpt lon="76.997998" lat="10.408701">
        <ele>1103.0</ele>
        <time>2026-01-20T03:28:05Z</time>
      </trkpt>
      <trkpt lon="76.998055" lat="10.408623">
        <ele>1103.0</ele>
        <time>2026-01-20T03:28:06Z</time>
      </trkpt>
      <trkpt lon="76.998124" lat="10.408547">
        <ele>1104.0</ele>
        <time>2026-01-20T03:28:07Z</time>
      </trkpt>
      <trkpt lon="76.998191" lat="10.408475">
        <ele>1106.0</ele>
        <time>2026-01-20T03:28:08Z</time>
      </trkpt>
      <trkpt lon="76.998257" lat="10.408405">
        <ele>1106.0</ele>
        <time>2026-01-20T03:28:09Z</time>
      </trkpt>
      <trkpt lon="76.998341" lat="10.408247">
        <ele>1107.0</ele>
        <time>2026-01-20T03:28:11Z</time>
      </trkpt>
      <trkpt lon="76.998398" lat="10.408094">
        <ele>1108.0</ele>
        <time>2026-01-20T03:28:13Z</time>
      </trkpt>
      <trkpt lon="76.998418" lat="10.407936">
        <ele>1110.0</ele>
        <time>2026-01-20T03:28:15Z</time>
      </trkpt>
      <trkpt lon="76.998403" lat="10.407764">
        <ele>1110.0</ele>
        <time>2026-01-20T03:28:17Z</time>
      </trkpt>
      <trkpt lon="76.998391" lat="10.407669">
        <ele>1111.0</ele>
        <time>2026-01-20T03:28:18Z</time>
      </trkpt>
      <trkpt lon="76.998376" lat="10.407571">
        <ele>1111.0</ele>
        <time>2026-01-20T03:28:19Z</time>
      </trkpt>
      <trkpt lon="76.998366" lat="10.407469">
        <ele>1111.0</ele>
        <time>2026-01-20T03:28:20Z</time>
      </trkpt>
      <trkpt lon="76.998345" lat="10.407354">
        <ele>1111.0</ele>
        <time>2026-01-20T03:28:21Z</time>
      </trkpt>
      <trkpt lon="76.998341" lat="10.407239">
        <ele>1111.0</ele>
        <time>2026-01-20T03:28:22Z</time>
      </trkpt>
      <trkpt lon="76.998346" lat="10.407126">
        <ele>1112.0</ele>
        <time>2026-01-20T03:28:23Z</time>
      </trkpt>
      <trkpt lon="76.998347" lat="10.407012">
        <ele>1112.0</ele>
        <time>2026-01-20T03:28:24Z</time>
      </trkpt>
      <trkpt lon="76.998344" lat="10.406905">
        <ele>1113.0</ele>
        <time>2026-01-20T03:28:25Z</time>
      </trkpt>
      <trkpt lon="76.998321" lat="10.406796">
        <ele>1114.0</ele>
        <time>2026-01-20T03:28:26Z</time>
      </trkpt>
      <trkpt lon="76.998274" lat="10.406684">
        <ele>1115.0</ele>
        <time>2026-01-20T03:28:27Z</time>
      </trkpt>
      <trkpt lon="76.998217" lat="10.406581">
        <ele>1116.0</ele>
        <time>2026-01-20T03:28:28Z</time>
      </trkpt>
      <trkpt lon="76.998143" lat="10.406487">
        <ele>1117.0</ele>
        <time>2026-01-20T03:28:29Z</time>
      </trkpt>
      <trkpt lon="76.998061" lat="10.406403">
        <ele>1118.0</ele>
        <time>2026-01-20T03:28:30Z</time>
      </trkpt>
      <trkpt lon="76.997972" lat="10.406332">
        <ele>1119.0</ele>
        <time>2026-01-20T03:28:31Z</time>
      </trkpt>
      <trkpt lon="76.997875" lat="10.406289">
        <ele>1120.0</ele>
        <time>2026-01-20T03:28:32Z</time>
      </trkpt>
      <trkpt lon="76.997776" lat="10.406264">
        <ele>1121.0</ele>
        <time>2026-01-20T03:28:33Z</time>
      </trkpt>
      <trkpt lon="76.997683" lat="10.406263">
        <ele>1122.0</ele>
        <time>2026-01-20T03:28:34Z</time>
      </trkpt>
      <trkpt lon="76.99759" lat="10.406287">
        <ele>1122.0</ele>
        <time>2026-01-20T03:28:35Z</time>
      </trkpt>
      <trkpt lon="76.997502" lat="10.40633">
        <ele>1123.0</ele>
        <time>2026-01-20T03:28:36Z</time>
      </trkpt>
      <trkpt lon="76.997418" lat="10.406381">
        <ele>1124.0</ele>
        <time>2026-01-20T03:28:37Z</time>
      </trkpt>
      <trkpt lon="76.997331" lat="10.406438">
        <ele>1125.0</ele>
        <time>2026-01-20T03:28:38Z</time>
      </trkpt>
      <trkpt lon="76.997248" lat="10.406501">
        <ele>1125.0</ele>
        <time>2026-01-20T03:28:39Z</time>
      </trkpt>
      <trkpt lon="76.997161" lat="10.406579">
        <ele>1126.0</ele>
        <time>2026-01-20T03:28:40Z</time>
      </trkpt>
      <trkpt lon="76.997081" lat="10.406652">
        <ele>1127.0</ele>
        <time>2026-01-20T03:28:41Z</time>
      </trkpt>
      <trkpt lon="76.997" lat="10.406726">
        <ele>1128.0</ele>
        <time>2026-01-20T03:28:42Z</time>
      </trkpt>
      <trkpt lon="76.996916" lat="10.40679">
        <ele>1128.0</ele>
        <time>2026-01-20T03:28:43Z</time>
      </trkpt>
      <trkpt lon="76.996835" lat="10.406853">
        <ele>1128.0</ele>
        <time>2026-01-20T03:28:44Z</time>
      </trkpt>
      <trkpt lon="76.996748" lat="10.406914">
        <ele>1128.0</ele>
        <time>2026-01-20T03:28:45Z</time>
      </trkpt>
      <trkpt lon="76.996654" lat="10.406965">
        <ele>1128.0</ele>
        <time>2026-01-20T03:28:46Z</time>
      </trkpt>
      <trkpt lon="76.996553" lat="10.407005">
        <ele>1128.0</ele>
        <time>2026-01-20T03:28:47Z</time>
      </trkpt>
      <trkpt lon="76.996459" lat="10.407039">
        <ele>1127.0</ele>
        <time>2026-01-20T03:28:48Z</time>
      </trkpt>
      <trkpt lon="76.996366" lat="10.407052">
        <ele>1128.0</ele>
        <time>2026-01-20T03:28:49Z</time>
      </trkpt>
      <trkpt lon="76.996201" lat="10.406993">
        <ele>1127.0</ele>
        <time>2026-01-20T03:28:51Z</time>
      </trkpt>
      <trkpt lon="76.99612" lat="10.406932">
        <ele>1127.0</ele>
        <time>2026-01-20T03:28:52Z</time>
      </trkpt>
      <trkpt lon="76.996054" lat="10.406854">
        <ele>1127.0</ele>
        <time>2026-01-20T03:28:53Z</time>
      </trkpt>
      <trkpt lon="76.995986" lat="10.406754">
        <ele>1126.0</ele>
        <time>2026-01-20T03:28:54Z</time>
      </trkpt>
      <trkpt lon="76.995912" lat="10.406627">
        <ele>1124.0</ele>
        <time>2026-01-20T03:28:55Z</time>
      </trkpt>
      <trkpt lon="76.995838" lat="10.406509">
        <ele>1123.0</ele>
        <time>2026-01-20T03:28:56Z</time>
      </trkpt>
      <trkpt lon="76.995764" lat="10.406394">
        <ele>1122.0</ele>
        <time>2026-01-20T03:28:57Z</time>
      </trkpt>
      <trkpt lon="76.995681" lat="10.40628">
        <ele>1123.0</ele>
        <time>2026-01-20T03:28:58Z</time>
      </trkpt>
      <trkpt lon="76.99558" lat="10.406179">
        <ele>1123.0</ele>
        <time>2026-01-20T03:28:59Z</time>
      </trkpt>
      <trkpt lon="76.995469" lat="10.406082">
        <ele>1124.0</ele>
        <time>2026-01-20T03:29:00Z</time>
      </trkpt>
      <trkpt lon="76.995346" lat="10.40599">
        <ele>1125.0</ele>
        <time>2026-01-20T03:29:01Z</time>
      </trkpt>
      <trkpt lon="76.995225" lat="10.4059">
        <ele>1126.0</ele>
        <time>2026-01-20T03:29:02Z</time>
      </trkpt>
      <trkpt lon="76.995101" lat="10.405813">
        <ele>1127.0</ele>
        <time>2026-01-20T03:29:03Z</time>
      </trkpt>
      <trkpt lon="76.994984" lat="10.405724">
        <ele>1127.0</ele>
        <time>2026-01-20T03:29:04Z</time>
      </trkpt>
      <trkpt lon="76.994872" lat="10.405622">
        <ele>1129.0</ele>
        <time>2026-01-20T03:29:05Z</time>
      </trkpt>
      <trkpt lon="76.994772" lat="10.405526">
        <ele>1130.0</ele>
        <time>2026-01-20T03:29:06Z</time>
      </trkpt>
      <trkpt lon="76.994687" lat="10.405435">
        <ele>1131.0</ele>
        <time>2026-01-20T03:29:07Z</time>
      </trkpt>
      <trkpt lon="76.994618" lat="10.405345">
        <ele>1132.0</ele>
        <time>2026-01-20T03:29:08Z</time>
      </trkpt>
      <trkpt lon="76.994556" lat="10.405267">
        <ele>1133.0</ele>
        <time>2026-01-20T03:29:09Z</time>
      </trkpt>
      <trkpt lon="76.994481" lat="10.405199">
        <ele>1134.0</ele>
        <time>2026-01-20T03:29:10Z</time>
      </trkpt>
      <trkpt lon="76.994402" lat="10.405147">
        <ele>1134.0</ele>
        <time>2026-01-20T03:29:11Z</time>
      </trkpt>
      <trkpt lon="76.994311" lat="10.405112">
        <ele>1135.0</ele>
        <time>2026-01-20T03:29:12Z</time>
      </trkpt>
      <trkpt lon="76.994213" lat="10.405105">
        <ele>1136.0</ele>
        <time>2026-01-20T03:29:13Z</time>
      </trkpt>
      <trkpt lon="76.994112" lat="10.405109">
        <ele>1137.0</ele>
        <time>2026-01-20T03:29:14Z</time>
      </trkpt>
      <trkpt lon="76.994006" lat="10.405128">
        <ele>1136.0</ele>
        <time>2026-01-20T03:29:15Z</time>
      </trkpt>
      <trkpt lon="76.993899" lat="10.405159">
        <ele>1136.0</ele>
        <time>2026-01-20T03:29:16Z</time>
      </trkpt>
      <trkpt lon="76.993812" lat="10.405204">
        <ele>1136.0</ele>
        <time>2026-01-20T03:29:17Z</time>
      </trkpt>
      <trkpt lon="76.99369" lat="10.405299">
        <ele>1138.0</ele>
        <time>2026-01-20T03:29:19Z</time>
      </trkpt>
      <trkpt lon="76.993571" lat="10.405287">
        <ele>1138.0</ele>
        <time>2026-01-20T03:29:21Z</time>
      </trkpt>
      <trkpt lon="76.993468" lat="10.405166">
        <ele>1137.0</ele>
        <time>2026-01-20T03:29:23Z</time>
      </trkpt>
      <trkpt lon="76.993439" lat="10.405074">
        <ele>1137.0</ele>
        <time>2026-01-20T03:29:24Z</time>
      </trkpt>
      <trkpt lon="76.993403" lat="10.404983">
        <ele>1137.0</ele>
        <time>2026-01-20T03:29:25Z</time>
      </trkpt>
      <trkpt lon="76.993344" lat="10.404886">
        <ele>1137.0</ele>
        <time>2026-01-20T03:29:26Z</time>
      </trkpt>
      <trkpt lon="76.993275" lat="10.404786">
        <ele>1137.0</ele>
        <time>2026-01-20T03:29:27Z</time>
      </trkpt>
      <trkpt lon="76.993215" lat="10.404694">
        <ele>1136.0</ele>
        <time>2026-01-20T03:29:28Z</time>
      </trkpt>
      <trkpt lon="76.993164" lat="10.404608">
        <ele>1137.0</ele>
        <time>2026-01-20T03:29:29Z</time>
      </trkpt>
      <trkpt lon="76.993142" lat="10.404516">
        <ele>1136.0</ele>
        <time>2026-01-20T03:29:30Z</time>
      </trkpt>
      <trkpt lon="76.993151" lat="10.404414">
        <ele>1136.0</ele>
        <time>2026-01-20T03:29:31Z</time>
      </trkpt>
      <trkpt lon="76.993198" lat="10.404319">
        <ele>1136.0</ele>
        <time>2026-01-20T03:29:32Z</time>
      </trkpt>
      <trkpt lon="76.993282" lat="10.404245">
        <ele>1137.0</ele>
        <time>2026-01-20T03:29:33Z</time>
      </trkpt>
      <trkpt lon="76.993373" lat="10.404207">
        <ele>1138.0</ele>
        <time>2026-01-20T03:29:34Z</time>
      </trkpt>
      <trkpt lon="76.993469" lat="10.404178">
        <ele>1139.0</ele>
        <time>2026-01-20T03:29:35Z</time>
      </trkpt>
      <trkpt lon="76.993574" lat="10.404083">
        <ele>1139.0</ele>
        <time>2026-01-20T03:29:37Z</time>
      </trkpt>
      <trkpt lon="76.993601" lat="10.403914">
        <ele>1140.0</ele>
        <time>2026-01-20T03:29:39Z</time>
      </trkpt>
      <trkpt lon="76.993578" lat="10.403813">
        <ele>1140.0</ele>
        <time>2026-01-20T03:29:40Z</time>
      </trkpt>
      <trkpt lon="76.993583" lat="10.403706">
        <ele>1140.0</ele>
        <time>2026-01-20T03:29:41Z</time>
      </trkpt>
      <trkpt lon="76.993596" lat="10.403598">
        <ele>1139.0</ele>
        <time>2026-01-20T03:29:42Z</time>
      </trkpt>
      <trkpt lon="76.9936" lat="10.403486">
        <ele>1139.0</ele>
        <time>2026-01-20T03:29:43Z</time>
      </trkpt>
      <trkpt lon="76.993576" lat="10.40338">
        <ele>1140.0</ele>
        <time>2026-01-20T03:29:44Z</time>
      </trkpt>
      <trkpt lon="76.993533" lat="10.403288">
        <ele>1141.0</ele>
        <time>2026-01-20T03:29:45Z</time>
      </trkpt>
      <trkpt lon="76.99349" lat="10.403198">
        <ele>1142.0</ele>
        <time>2026-01-20T03:29:46Z</time>
      </trkpt>
      <trkpt lon="76.993473" lat="10.403106">
        <ele>1142.0</ele>
        <time>2026-01-20T03:29:47Z</time>
      </trkpt>
      <trkpt lon="76.993479" lat="10.403004">
        <ele>1142.0</ele>
        <time>2026-01-20T03:29:48Z</time>
      </trkpt>
      <trkpt lon="76.993442" lat="10.402831">
        <ele>1143.0</ele>
        <time>2026-01-20T03:29:50Z</time>
      </trkpt>
      <trkpt lon="76.993353" lat="10.402697">
        <ele>1143.0</ele>
        <time>2026-01-20T03:29:52Z</time>
      </trkpt>
      <trkpt lon="76.993383" lat="10.402553">
        <ele>1143.0</ele>
        <time>2026-01-20T03:29:54Z</time>
      </trkpt>
      <trkpt lon="76.993494" lat="10.402425">
        <ele>1144.0</ele>
        <time>2026-01-20T03:29:56Z</time>
      </trkpt>
      <trkpt lon="76.993507" lat="10.402275">
        <ele>1144.0</ele>
        <time>2026-01-20T03:29:58Z</time>
      </trkpt>
      <trkpt lon="76.993393" lat="10.402154">
        <ele>1146.0</ele>
        <time>2026-01-20T03:30:00Z</time>
      </trkpt>
      <trkpt lon="76.993216" lat="10.402125">
        <ele>1146.0</ele>
        <time>2026-01-20T03:30:02Z</time>
      </trkpt>
      <trkpt lon="76.99311" lat="10.402145">
        <ele>1146.0</ele>
        <time>2026-01-20T03:30:03Z</time>
      </trkpt>
      <trkpt lon="76.993012" lat="10.402175">
        <ele>1146.0</ele>
        <time>2026-01-20T03:30:04Z</time>
      </trkpt>
      <trkpt lon="76.992909" lat="10.4022">
        <ele>1146.0</ele>
        <time>2026-01-20T03:30:05Z</time>
      </trkpt>
      <trkpt lon="76.992805" lat="10.402205">
        <ele>1146.0</ele>
        <time>2026-01-20T03:30:06Z</time>
      </trkpt>
      <trkpt lon="76.992707" lat="10.40218">
        <ele>1147.0</ele>
        <time>2026-01-20T03:30:07Z</time>
      </trkpt>
      <trkpt lon="76.992606" lat="10.402152">
        <ele>1148.0</ele>
        <time>2026-01-20T03:30:08Z</time>
      </trkpt>
      <trkpt lon="76.992505" lat="10.402111">
        <ele>1148.0</ele>
        <time>2026-01-20T03:30:09Z</time>
      </trkpt>
      <trkpt lon="76.992417" lat="10.40204">
        <ele>1148.0</ele>
        <time>2026-01-20T03:30:10Z</time>
      </trkpt>
      <trkpt lon="76.992338" lat="10.401951">
        <ele>1148.0</ele>
        <time>2026-01-20T03:30:11Z</time>
      </trkpt>
      <trkpt lon="76.992264" lat="10.401857">
        <ele>1148.0</ele>
        <time>2026-01-20T03:30:12Z</time>
      </trkpt>
      <trkpt lon="76.992192" lat="10.40177">
        <ele>1148.0</ele>
        <time>2026-01-20T03:30:13Z</time>
      </trkpt>
      <trkpt lon="76.992058" lat="10.40166">
        <ele>1151.0</ele>
        <time>2026-01-20T03:30:15Z</time>
      </trkpt>
      <trkpt lon="76.991968" lat="10.401633">
        <ele>1152.0</ele>
        <time>2026-01-20T03:30:16Z</time>
      </trkpt>
      <trkpt lon="76.991877" lat="10.40162">
        <ele>1152.0</ele>
        <time>2026-01-20T03:30:17Z</time>
      </trkpt>
      <trkpt lon="76.991781" lat="10.401604">
        <ele>1154.0</ele>
        <time>2026-01-20T03:30:18Z</time>
      </trkpt>
      <trkpt lon="76.991681" lat="10.401598">
        <ele>1154.0</ele>
        <time>2026-01-20T03:30:19Z</time>
      </trkpt>
      <trkpt lon="76.991546" lat="10.401509">
        <ele>1153.0</ele>
        <time>2026-01-20T03:30:21Z</time>
      </trkpt>
      <trkpt lon="76.991471" lat="10.401352">
        <ele>1153.0</ele>
        <time>2026-01-20T03:30:23Z</time>
      </trkpt>
      <trkpt lon="76.99148" lat="10.401173">
        <ele>1153.0</ele>
        <time>2026-01-20T03:30:25Z</time>
      </trkpt>
      <trkpt lon="76.991498" lat="10.401076">
        <ele>1153.0</ele>
        <time>2026-01-20T03:30:26Z</time>
      </trkpt>
      <trkpt lon="76.991495" lat="10.400975">
        <ele>1153.0</ele>
        <time>2026-01-20T03:30:27Z</time>
      </trkpt>
      <trkpt lon="76.991479" lat="10.400884">
        <ele>1152.0</ele>
        <time>2026-01-20T03:30:28Z</time>
      </trkpt>
      <trkpt lon="76.991455" lat="10.400796">
        <ele>1152.0</ele>
        <time>2026-01-20T03:30:29Z</time>
      </trkpt>
      <trkpt lon="76.991421" lat="10.400711">
        <ele>1153.0</ele>
        <time>2026-01-20T03:30:30Z</time>
      </trkpt>
      <trkpt lon="76.991372" lat="10.400625">
        <ele>1152.0</ele>
        <time>2026-01-20T03:30:31Z</time>
      </trkpt>
      <trkpt lon="76.991309" lat="10.400547">
        <ele>1153.0</ele>
        <time>2026-01-20T03:30:32Z</time>
      </trkpt>
      <trkpt lon="76.991237" lat="10.400479">
        <ele>1153.0</ele>
        <time>2026-01-20T03:30:33Z</time>
      </trkpt>
      <trkpt lon="76.991166" lat="10.400415">
        <ele>1153.0</ele>
        <time>2026-01-20T03:30:34Z</time>
      </trkpt>
      <trkpt lon="76.991083" lat="10.400359">
        <ele>1153.0</ele>
        <time>2026-01-20T03:30:35Z</time>
      </trkpt>
      <trkpt lon="76.990936" lat="10.400257">
        <ele>1153.0</ele>
        <time>2026-01-20T03:30:37Z</time>
      </trkpt>
      <trkpt lon="76.990863" lat="10.400197">
        <ele>1154.0</ele>
        <time>2026-01-20T03:30:38Z</time>
      </trkpt>
      <trkpt lon="76.990817" lat="10.400116">
        <ele>1154.0</ele>
        <time>2026-01-20T03:30:39Z</time>
      </trkpt>
      <trkpt lon="76.990797" lat="10.400019">
        <ele>1154.0</ele>
        <time>2026-01-20T03:30:40Z</time>
      </trkpt>
      <trkpt lon="76.990795" lat="10.399926">
        <ele>1154.0</ele>
        <time>2026-01-20T03:30:41Z</time>
      </trkpt>
      <trkpt lon="76.990898" lat="10.399782">
        <ele>1155.0</ele>
        <time>2026-01-20T03:30:43Z</time>
      </trkpt>
      <trkpt lon="76.990973" lat="10.39972">
        <ele>1155.0</ele>
        <time>2026-01-20T03:30:44Z</time>
      </trkpt>
      <trkpt lon="76.991044" lat="10.399646">
        <ele>1156.0</ele>
        <time>2026-01-20T03:30:45Z</time>
      </trkpt>
      <trkpt lon="76.991133" lat="10.399564">
        <ele>1155.0</ele>
        <time>2026-01-20T03:30:46Z</time>
      </trkpt>
      <trkpt lon="76.991193" lat="10.399425">
        <ele>1155.0</ele>
        <time>2026-01-20T03:30:48Z</time>
      </trkpt>
      <trkpt lon="76.99123" lat="10.399309">
        <ele>1155.0</ele>
        <time>2026-01-20T03:30:50Z</time>
      </trkpt>
      <trkpt lon="76.991259" lat="10.399177">
        <ele>1155.0</ele>
        <time>2026-01-20T03:30:52Z</time>
      </trkpt>
      <trkpt lon="76.991289" lat="10.398995">
        <ele>1154.0</ele>
        <time>2026-01-20T03:30:54Z</time>
      </trkpt>
      <trkpt lon="76.991305" lat="10.398893">
        <ele>1154.0</ele>
        <time>2026-01-20T03:30:55Z</time>
      </trkpt>
      <trkpt lon="76.991311" lat="10.398788">
        <ele>1154.0</ele>
        <time>2026-01-20T03:30:56Z</time>
      </trkpt>
      <trkpt lon="76.991328" lat="10.398682">
        <ele>1154.0</ele>
        <time>2026-01-20T03:30:57Z</time>
      </trkpt>
      <trkpt lon="76.991355" lat="10.398579">
        <ele>1154.0</ele>
        <time>2026-01-20T03:30:58Z</time>
      </trkpt>
      <trkpt lon="76.99138" lat="10.398471">
        <ele>1154.0</ele>
        <time>2026-01-20T03:30:59Z</time>
      </trkpt>
      <trkpt lon="76.991409" lat="10.398363">
        <ele>1154.0</ele>
        <time>2026-01-20T03:31:00Z</time>
      </trkpt>
      <trkpt lon="76.99144" lat="10.398252">
        <ele>1155.0</ele>
        <time>2026-01-20T03:31:01Z</time>
      </trkpt>
      <trkpt lon="76.991474" lat="10.398142">
        <ele>1155.0</ele>
        <time>2026-01-20T03:31:02Z</time>
      </trkpt>
      <trkpt lon="76.991512" lat="10.398031">
        <ele>1156.0</ele>
        <time>2026-01-20T03:31:03Z</time>
      </trkpt>
      <trkpt lon="76.99154" lat="10.397909">
        <ele>1157.0</ele>
        <time>2026-01-20T03:31:04Z</time>
      </trkpt>
      <trkpt lon="76.991567" lat="10.397805">
        <ele>1157.0</ele>
        <time>2026-01-20T03:31:05Z</time>
      </trkpt>
      <trkpt lon="76.991588" lat="10.397703">
        <ele>1158.0</ele>
        <time>2026-01-20T03:31:06Z</time>
      </trkpt>
      <trkpt lon="76.991593" lat="10.397589">
        <ele>1158.0</ele>
        <time>2026-01-20T03:31:07Z</time>
      </trkpt>
      <trkpt lon="76.991595" lat="10.397488">
        <ele>1158.0</ele>
        <time>2026-01-20T03:31:08Z</time>
      </trkpt>
      <trkpt lon="76.991589" lat="10.397389">
        <ele>1159.0</ele>
        <time>2026-01-20T03:31:09Z</time>
      </trkpt>
      <trkpt lon="76.991578" lat="10.397297">
        <ele>1160.0</ele>
        <time>2026-01-20T03:31:10Z</time>
      </trkpt>
      <trkpt lon="76.991546" lat="10.397211">
        <ele>1160.0</ele>
        <time>2026-01-20T03:31:11Z</time>
      </trkpt>
      <trkpt lon="76.991489" lat="10.397048">
        <ele>1161.0</ele>
        <time>2026-01-20T03:31:13Z</time>
      </trkpt>
      <trkpt lon="76.991444" lat="10.396888">
        <ele>1163.0</ele>
        <time>2026-01-20T03:31:15Z</time>
      </trkpt>
      <trkpt lon="76.991497" lat="10.39672">
        <ele>1163.0</ele>
        <time>2026-01-20T03:31:17Z</time>
      </trkpt>
      <trkpt lon="76.991539" lat="10.396623">
        <ele>1163.0</ele>
        <time>2026-01-20T03:31:18Z</time>
      </trkpt>
      <trkpt lon="76.991565" lat="10.396524">
        <ele>1163.0</ele>
        <time>2026-01-20T03:31:19Z</time>
      </trkpt>
      <trkpt lon="76.991583" lat="10.396418">
        <ele>1163.0</ele>
        <time>2026-01-20T03:31:20Z</time>
      </trkpt>
      <trkpt lon="76.99159" lat="10.39632">
        <ele>1163.0</ele>
        <time>2026-01-20T03:31:21Z</time>
      </trkpt>
      <trkpt lon="76.991597" lat="10.39622">
        <ele>1163.0</ele>
        <time>2026-01-20T03:31:22Z</time>
      </trkpt>
      <trkpt lon="76.991617" lat="10.396111">
        <ele>1164.0</ele>
        <time>2026-01-20T03:31:23Z</time>
      </trkpt>
      <trkpt lon="76.99163" lat="10.396008">
        <ele>1164.0</ele>
        <time>2026-01-20T03:31:24Z</time>
      </trkpt>
      <trkpt lon="76.991636" lat="10.395912">
        <ele>1164.0</ele>
        <time>2026-01-20T03:31:25Z</time>
      </trkpt>
      <trkpt lon="76.991652" lat="10.395813">
        <ele>1164.0</ele>
        <time>2026-01-20T03:31:26Z</time>
      </trkpt>
      <trkpt lon="76.99171" lat="10.395649">
        <ele>1164.0</ele>
        <time>2026-01-20T03:31:28Z</time>
      </trkpt>
      <trkpt lon="76.991758" lat="10.395483">
        <ele>1165.0</ele>
        <time>2026-01-20T03:31:30Z</time>
      </trkpt>
      <trkpt lon="76.991774" lat="10.395392">
        <ele>1165.0</ele>
        <time>2026-01-20T03:31:31Z</time>
      </trkpt>
      <trkpt lon="76.991768" lat="10.395213">
        <ele>1165.0</ele>
        <time>2026-01-20T03:31:33Z</time>
      </trkpt>
      <trkpt lon="76.991755" lat="10.395117">
        <ele>1164.0</ele>
        <time>2026-01-20T03:31:34Z</time>
      </trkpt>
      <trkpt lon="76.991743" lat="10.395018">
        <ele>1164.0</ele>
        <time>2026-01-20T03:31:35Z</time>
      </trkpt>
      <trkpt lon="76.99172" lat="10.394914">
        <ele>1165.0</ele>
        <time>2026-01-20T03:31:36Z</time>
      </trkpt>
      <trkpt lon="76.991712" lat="10.394809">
        <ele>1165.0</ele>
        <time>2026-01-20T03:31:37Z</time>
      </trkpt>
      <trkpt lon="76.991703" lat="10.394709">
        <ele>1165.0</ele>
        <time>2026-01-20T03:31:38Z</time>
      </trkpt>
      <trkpt lon="76.991766" lat="10.394552">
        <ele>1166.0</ele>
        <time>2026-01-20T03:31:40Z</time>
      </trkpt>
      <trkpt lon="76.991823" lat="10.39448">
        <ele>1167.0</ele>
        <time>2026-01-20T03:31:41Z</time>
      </trkpt>
      <trkpt lon="76.991911" lat="10.394375">
        <ele>1168.0</ele>
        <time>2026-01-20T03:31:43Z</time>
      </trkpt>
      <trkpt lon="76.992005" lat="10.394299">
        <ele>1168.0</ele>
        <time>2026-01-20T03:31:45Z</time>
      </trkpt>
      <trkpt lon="76.992133" lat="10.394305">
        <ele>1168.0</ele>
        <time>2026-01-20T03:31:47Z</time>
      </trkpt>
      <trkpt lon="76.992249" lat="10.394383">
        <ele>1168.0</ele>
        <time>2026-01-20T03:31:49Z</time>
      </trkpt>
      <trkpt lon="76.992371" lat="10.394471">
        <ele>1169.0</ele>
        <time>2026-01-20T03:31:51Z</time>
      </trkpt>
      <trkpt lon="76.992488" lat="10.394556">
        <ele>1169.0</ele>
        <time>2026-01-20T03:31:53Z</time>
      </trkpt>
      <trkpt lon="76.992615" lat="10.394628">
        <ele>1170.0</ele>
        <time>2026-01-20T03:31:55Z</time>
      </trkpt>
      <trkpt lon="76.992775" lat="10.394642">
        <ele>1171.0</ele>
        <time>2026-01-20T03:31:57Z</time>
      </trkpt>
      <trkpt lon="76.992909" lat="10.394579">
        <ele>1173.0</ele>
        <time>2026-01-20T03:31:59Z</time>
      </trkpt>
      <trkpt lon="76.993019" lat="10.394474">
        <ele>1174.0</ele>
        <time>2026-01-20T03:32:01Z</time>
      </trkpt>
      <trkpt lon="76.993067" lat="10.394393">
        <ele>1175.0</ele>
        <time>2026-01-20T03:32:02Z</time>
      </trkpt>
      <trkpt lon="76.993118" lat="10.394312">
        <ele>1174.0</ele>
        <time>2026-01-20T03:32:03Z</time>
      </trkpt>
      <trkpt lon="76.993178" lat="10.394159">
        <ele>1173.0</ele>
        <time>2026-01-20T03:32:05Z</time>
      </trkpt>
      <trkpt lon="76.993205" lat="10.394053">
        <ele>1174.0</ele>
        <time>2026-01-20T03:32:07Z</time>
      </trkpt>
      <trkpt lon="76.993326" lat="10.393997">
        <ele>1177.0</ele>
        <time>2026-01-20T03:32:10Z</time>
      </trkpt>
      <trkpt lon="76.993424" lat="10.393947">
        <ele>1180.0</ele>
        <time>2026-01-20T03:32:12Z</time>
      </trkpt>
      <trkpt lon="76.993495" lat="10.393823">
        <ele>1181.0</ele>
        <time>2026-01-20T03:32:14Z</time>
      </trkpt>
      <trkpt lon="76.993567" lat="10.393679">
        <ele>1181.0</ele>
        <time>2026-01-20T03:32:16Z</time>
      </trkpt>
      <trkpt lon="76.99369" lat="10.393533">
        <ele>1181.0</ele>
        <time>2026-01-20T03:32:18Z</time>
      </trkpt>
      <trkpt lon="76.993766" lat="10.393445">
        <ele>1180.0</ele>
        <time>2026-01-20T03:32:19Z</time>
      </trkpt>
      <trkpt lon="76.993851" lat="10.393366">
        <ele>1178.0</ele>
        <time>2026-01-20T03:32:20Z</time>
      </trkpt>
      <trkpt lon="76.993908" lat="10.393267">
        <ele>1176.0</ele>
        <time>2026-01-20T03:32:21Z</time>
      </trkpt>
      <trkpt lon="76.993958" lat="10.393172">
        <ele>1177.0</ele>
        <time>2026-01-20T03:32:22Z</time>
      </trkpt>
      <trkpt lon="76.993986" lat="10.393076">
        <ele>1177.0</ele>
        <time>2026-01-20T03:32:23Z</time>
      </trkpt>
      <trkpt lon="76.994004" lat="10.392985">
        <ele>1178.0</ele>
        <time>2026-01-20T03:32:24Z</time>
      </trkpt>
      <trkpt lon="76.994043" lat="10.392883">
        <ele>1179.0</ele>
        <time>2026-01-20T03:32:25Z</time>
      </trkpt>
      <trkpt lon="76.994074" lat="10.392777">
        <ele>1180.0</ele>
        <time>2026-01-20T03:32:26Z</time>
      </trkpt>
      <trkpt lon="76.99411" lat="10.392655">
        <ele>1181.0</ele>
        <time>2026-01-20T03:32:27Z</time>
      </trkpt>
      <trkpt lon="76.994138" lat="10.392517">
        <ele>1182.0</ele>
        <time>2026-01-20T03:32:28Z</time>
      </trkpt>
      <trkpt lon="76.994165" lat="10.392391">
        <ele>1185.0</ele>
        <time>2026-01-20T03:32:29Z</time>
      </trkpt>
      <trkpt lon="76.994193" lat="10.392263">
        <ele>1186.0</ele>
        <time>2026-01-20T03:32:30Z</time>
      </trkpt>
      <trkpt lon="76.994226" lat="10.392136">
        <ele>1186.0</ele>
        <time>2026-01-20T03:32:31Z</time>
      </trkpt>
      <trkpt lon="76.994248" lat="10.392012">
        <ele>1187.0</ele>
        <time>2026-01-20T03:32:32Z</time>
      </trkpt>
      <trkpt lon="76.994269" lat="10.391898">
        <ele>1189.0</ele>
        <time>2026-01-20T03:32:33Z</time>
      </trkpt>
      <trkpt lon="76.994293" lat="10.391775">
        <ele>1192.0</ele>
        <time>2026-01-20T03:32:34Z</time>
      </trkpt>
      <trkpt lon="76.994329" lat="10.391658">
        <ele>1197.0</ele>
        <time>2026-01-20T03:32:35Z</time>
      </trkpt>
      <trkpt lon="76.994378" lat="10.391535">
        <ele>1199.0</ele>
        <time>2026-01-20T03:32:36Z</time>
      </trkpt>
      <trkpt lon="76.994406" lat="10.39142">
        <ele>1201.0</ele>
        <time>2026-01-20T03:32:37Z</time>
      </trkpt>
      <trkpt lon="76.994436" lat="10.391308">
        <ele>1202.0</ele>
        <time>2026-01-20T03:32:38Z</time>
      </trkpt>
      <trkpt lon="76.99447" lat="10.391198">
        <ele>1203.0</ele>
        <time>2026-01-20T03:32:39Z</time>
      </trkpt>
      <trkpt lon="76.994506" lat="10.391103">
        <ele>1203.0</ele>
        <time>2026-01-20T03:32:40Z</time>
      </trkpt>
      <trkpt lon="76.994526" lat="10.391011">
        <ele>1203.0</ele>
        <time>2026-01-20T03:32:41Z</time>
      </trkpt>
      <trkpt lon="76.994564" lat="10.390865">
        <ele>1205.0</ele>
        <time>2026-01-20T03:32:43Z</time>
      </trkpt>
      <trkpt lon="76.99456" lat="10.390737">
        <ele>1206.0</ele>
        <time>2026-01-20T03:32:45Z</time>
      </trkpt>
      <trkpt lon="76.994611" lat="10.390649">
        <ele>1206.0</ele>
        <time>2026-01-20T03:32:47Z</time>
      </trkpt>
      <trkpt lon="76.994727" lat="10.390667">
        <ele>1207.0</ele>
        <time>2026-01-20T03:32:50Z</time>
      </trkpt>
      <trkpt lon="76.994808" lat="10.390768">
        <ele>1208.0</ele>
        <time>2026-01-20T03:32:52Z</time>
      </trkpt>
      <trkpt lon="76.994919" lat="10.390905">
        <ele>1208.0</ele>
        <time>2026-01-20T03:32:54Z</time>
      </trkpt>
      <trkpt lon="76.994985" lat="10.390971">
        <ele>1209.0</ele>
        <time>2026-01-20T03:32:55Z</time>
      </trkpt>
      <trkpt lon="76.995089" lat="10.391079">
        <ele>1209.0</ele>
        <time>2026-01-20T03:32:57Z</time>
      </trkpt>
      <trkpt lon="76.995214" lat="10.391139">
        <ele>1210.0</ele>
        <time>2026-01-20T03:32:59Z</time>
      </trkpt>
      <trkpt lon="76.995364" lat="10.391157">
        <ele>1212.0</ele>
        <time>2026-01-20T03:33:01Z</time>
      </trkpt>
      <trkpt lon="76.995525" lat="10.391249">
        <ele>1213.0</ele>
        <time>2026-01-20T03:33:03Z</time>
      </trkpt>
      <trkpt lon="76.995609" lat="10.391318">
        <ele>1214.0</ele>
        <time>2026-01-20T03:33:04Z</time>
      </trkpt>
      <trkpt lon="76.995694" lat="10.391381">
        <ele>1215.0</ele>
        <time>2026-01-20T03:33:05Z</time>
      </trkpt>
      <trkpt lon="76.995774" lat="10.391445">
        <ele>1218.0</ele>
        <time>2026-01-20T03:33:06Z</time>
      </trkpt>
      <trkpt lon="76.995898" lat="10.391562">
        <ele>1223.0</ele>
        <time>2026-01-20T03:33:08Z</time>
      </trkpt>
      <trkpt lon="76.996061" lat="10.391591">
        <ele>1224.0</ele>
        <time>2026-01-20T03:33:10Z</time>
      </trkpt>
      <trkpt lon="76.996241" lat="10.391575">
        <ele>1227.0</ele>
        <time>2026-01-20T03:33:12Z</time>
      </trkpt>
      <trkpt lon="76.996428" lat="10.391553">
        <ele>1229.0</ele>
        <time>2026-01-20T03:33:14Z</time>
      </trkpt>
      <trkpt lon="76.996533" lat="10.391546">
        <ele>1229.0</ele>
        <time>2026-01-20T03:33:15Z</time>
      </trkpt>
      <trkpt lon="76.996642" lat="10.391542">
        <ele>1231.0</ele>
        <time>2026-01-20T03:33:16Z</time>
      </trkpt>
      <trkpt lon="76.996747" lat="10.391523">
        <ele>1232.0</ele>
        <time>2026-01-20T03:33:17Z</time>
      </trkpt>
      <trkpt lon="76.996849" lat="10.391496">
        <ele>1232.0</ele>
        <time>2026-01-20T03:33:18Z</time>
      </trkpt>
      <trkpt lon="76.996947" lat="10.391454">
        <ele>1233.0</ele>
        <time>2026-01-20T03:33:19Z</time>
      </trkpt>
      <trkpt lon="76.997043" lat="10.391403">
        <ele>1234.0</ele>
        <time>2026-01-20T03:33:20Z</time>
      </trkpt>
      <trkpt lon="76.997114" lat="10.391346">
        <ele>1234.0</ele>
        <time>2026-01-20T03:33:21Z</time>
      </trkpt>
      <trkpt lon="76.997225" lat="10.39124">
        <ele>1235.0</ele>
        <time>2026-01-20T03:33:23Z</time>
      </trkpt>
      <trkpt lon="76.997317" lat="10.391101">
        <ele>1235.0</ele>
        <time>2026-01-20T03:33:25Z</time>
      </trkpt>
      <trkpt lon="76.997396" lat="10.390963">
        <ele>1236.0</ele>
        <time>2026-01-20T03:33:27Z</time>
      </trkpt>
      <trkpt lon="76.997495" lat="10.39087">
        <ele>1236.0</ele>
        <time>2026-01-20T03:33:29Z</time>
      </trkpt>
      <trkpt lon="76.997624" lat="10.390867">
        <ele>1236.0</ele>
        <time>2026-01-20T03:33:31Z</time>
      </trkpt>
      <trkpt lon="76.997745" lat="10.390984">
        <ele>1237.0</ele>
        <time>2026-01-20T03:33:33Z</time>
      </trkpt>
      <trkpt lon="76.997787" lat="10.391065">
        <ele>1237.0</ele>
        <time>2026-01-20T03:33:34Z</time>
      </trkpt>
      <trkpt lon="76.997872" lat="10.391213">
        <ele>1238.0</ele>
        <time>2026-01-20T03:33:36Z</time>
      </trkpt>
      <trkpt lon="76.997993" lat="10.391307">
        <ele>1239.0</ele>
        <time>2026-01-20T03:33:38Z</time>
      </trkpt>
      <trkpt lon="76.998165" lat="10.391368">
        <ele>1240.0</ele>
        <time>2026-01-20T03:33:40Z</time>
      </trkpt>
      <trkpt lon="76.998262" lat="10.391387">
        <ele>1241.0</ele>
        <time>2026-01-20T03:33:41Z</time>
      </trkpt>
      <trkpt lon="76.998415" lat="10.391444">
        <ele>1242.0</ele>
        <time>2026-01-20T03:33:43Z</time>
      </trkpt>
      <trkpt lon="76.998564" lat="10.39142">
        <ele>1243.0</ele>
        <time>2026-01-20T03:33:45Z</time>
      </trkpt>
      <trkpt lon="76.998695" lat="10.391335">
        <ele>1244.0</ele>
        <time>2026-01-20T03:33:47Z</time>
      </trkpt>
      <trkpt lon="76.998803" lat="10.391239">
        <ele>1245.0</ele>
        <time>2026-01-20T03:33:49Z</time>
      </trkpt>
      <trkpt lon="76.998936" lat="10.391218">
        <ele>1245.0</ele>
        <time>2026-01-20T03:33:51Z</time>
      </trkpt>
      <trkpt lon="76.999024" lat="10.391317">
        <ele>1248.0</ele>
        <time>2026-01-20T03:33:53Z</time>
      </trkpt>
      <trkpt lon="76.999079" lat="10.391466">
        <ele>1250.0</ele>
        <time>2026-01-20T03:33:55Z</time>
      </trkpt>
      <trkpt lon="76.999206" lat="10.391557">
        <ele>1251.0</ele>
        <time>2026-01-20T03:33:57Z</time>
      </trkpt>
      <trkpt lon="76.999296" lat="10.391593">
        <ele>1251.0</ele>
        <time>2026-01-20T03:33:58Z</time>
      </trkpt>
      <trkpt lon="76.99947" lat="10.39161">
        <ele>1253.0</ele>
        <time>2026-01-20T03:34:00Z</time>
      </trkpt>
      <trkpt lon="76.999638" lat="10.391606">
        <ele>1253.0</ele>
        <time>2026-01-20T03:34:02Z</time>
      </trkpt>
      <trkpt lon="76.999763" lat="10.391639">
        <ele>1254.0</ele>
        <time>2026-01-20T03:34:04Z</time>
      </trkpt>
      <trkpt lon="76.999865" lat="10.391659">
        <ele>1254.0</ele>
        <time>2026-01-20T03:34:06Z</time>
      </trkpt>
      <trkpt lon="76.999909" lat="10.391574">
        <ele>1256.0</ele>
        <time>2026-01-20T03:34:09Z</time>
      </trkpt>
      <trkpt lon="76.999847" lat="10.391501">
        <ele>1256.0</ele>
        <time>2026-01-20T03:34:11Z</time>
      </trkpt>
      <trkpt lon="76.999731" lat="10.391466">
        <ele>1257.0</ele>
        <time>2026-01-20T03:34:13Z</time>
      </trkpt>
      <trkpt lon="76.999574" lat="10.391448">
        <ele>1257.0</ele>
        <time>2026-01-20T03:34:15Z</time>
      </trkpt>
      <trkpt lon="76.999417" lat="10.39143">
        <ele>1257.0</ele>
        <time>2026-01-20T03:34:17Z</time>
      </trkpt>
      <trkpt lon="76.999274" lat="10.391375">
        <ele>1258.0</ele>
        <time>2026-01-20T03:34:19Z</time>
      </trkpt>
      <trkpt lon="76.99921" lat="10.391261">
        <ele>1259.0</ele>
        <time>2026-01-20T03:34:21Z</time>
      </trkpt>
      <trkpt lon="76.999179" lat="10.391127">
        <ele>1258.0</ele>
        <time>2026-01-20T03:34:23Z</time>
      </trkpt>
      <trkpt lon="76.999151" lat="10.391008">
        <ele>1258.0</ele>
        <time>2026-01-20T03:34:25Z</time>
      </trkpt>
      <trkpt lon="76.999069" lat="10.390913">
        <ele>1257.0</ele>
        <time>2026-01-20T03:34:27Z</time>
      </trkpt>
      <trkpt lon="76.998956" lat="10.390877">
        <ele>1258.0</ele>
        <time>2026-01-20T03:34:29Z</time>
      </trkpt>
      <trkpt lon="76.998824" lat="10.390877">
        <ele>1258.0</ele>
        <time>2026-01-20T03:34:31Z</time>
      </trkpt>
      <trkpt lon="76.998662" lat="10.390871">
        <ele>1258.0</ele>
        <time>2026-01-20T03:34:33Z</time>
      </trkpt>
      <trkpt lon="76.998513" lat="10.390852">
        <ele>1258.0</ele>
        <time>2026-01-20T03:34:35Z</time>
      </trkpt>
      <trkpt lon="76.998376" lat="10.390825">
        <ele>1259.0</ele>
        <time>2026-01-20T03:34:37Z</time>
      </trkpt>
      <trkpt lon="76.998232" lat="10.390792">
        <ele>1260.0</ele>
        <time>2026-01-20T03:34:39Z</time>
      </trkpt>
      <trkpt lon="76.998134" lat="10.390676">
        <ele>1260.0</ele>
        <time>2026-01-20T03:34:41Z</time>
      </trkpt>
      <trkpt lon="76.998113" lat="10.390531">
        <ele>1260.0</ele>
        <time>2026-01-20T03:34:43Z</time>
      </trkpt>
      <trkpt lon="76.998093" lat="10.390373">
        <ele>1260.0</ele>
        <time>2026-01-20T03:34:45Z</time>
      </trkpt>
      <trkpt lon="76.998014" lat="10.390253">
        <ele>1261.0</ele>
        <time>2026-01-20T03:34:47Z</time>
      </trkpt>
      <trkpt lon="76.997935" lat="10.390193">
        <ele>1261.0</ele>
        <time>2026-01-20T03:34:48Z</time>
      </trkpt>
      <trkpt lon="76.997785" lat="10.390091">
        <ele>1261.0</ele>
        <time>2026-01-20T03:34:50Z</time>
      </trkpt>
      <trkpt lon="76.997619" lat="10.390005">
        <ele>1262.0</ele>
        <time>2026-01-20T03:34:52Z</time>
      </trkpt>
      <trkpt lon="76.997489" lat="10.389933">
        <ele>1262.0</ele>
        <time>2026-01-20T03:34:54Z</time>
      </trkpt>
      <trkpt lon="76.997343" lat="10.38995">
        <ele>1266.0</ele>
        <time>2026-01-20T03:34:56Z</time>
      </trkpt>
      <trkpt lon="76.997224" lat="10.390021">
        <ele>1267.0</ele>
        <time>2026-01-20T03:34:58Z</time>
      </trkpt>
      <trkpt lon="76.997162" lat="10.390156">
        <ele>1269.0</ele>
        <time>2026-01-20T03:35:00Z</time>
      </trkpt>
      <trkpt lon="76.997101" lat="10.390314">
        <ele>1270.0</ele>
        <time>2026-01-20T03:35:02Z</time>
      </trkpt>
      <trkpt lon="76.996998" lat="10.390438">
        <ele>1270.0</ele>
        <time>2026-01-20T03:35:04Z</time>
      </trkpt>
      <trkpt lon="76.996857" lat="10.390551">
        <ele>1271.0</ele>
        <time>2026-01-20T03:35:06Z</time>
      </trkpt>
      <trkpt lon="76.996764" lat="10.390585">
        <ele>1271.0</ele>
        <time>2026-01-20T03:35:07Z</time>
      </trkpt>
      <trkpt lon="76.996631" lat="10.390622">
        <ele>1271.0</ele>
        <time>2026-01-20T03:35:09Z</time>
      </trkpt>
      <trkpt lon="76.996475" lat="10.390575">
        <ele>1271.0</ele>
        <time>2026-01-20T03:35:11Z</time>
      </trkpt>
      <trkpt lon="76.996395" lat="10.39051">
        <ele>1271.0</ele>
        <time>2026-01-20T03:35:12Z</time>
      </trkpt>
      <trkpt lon="76.996302" lat="10.390422">
        <ele>1272.0</ele>
        <time>2026-01-20T03:35:13Z</time>
      </trkpt>
      <trkpt lon="76.996221" lat="10.390357">
        <ele>1274.0</ele>
        <time>2026-01-20T03:35:14Z</time>
      </trkpt>
      <trkpt lon="76.996132" lat="10.390294">
        <ele>1275.0</ele>
        <time>2026-01-20T03:35:15Z</time>
      </trkpt>
      <trkpt lon="76.996041" lat="10.390232">
        <ele>1275.0</ele>
        <time>2026-01-20T03:35:16Z</time>
      </trkpt>
      <trkpt lon="76.995935" lat="10.390172">
        <ele>1276.0</ele>
        <time>2026-01-20T03:35:17Z</time>
      </trkpt>
      <trkpt lon="76.995836" lat="10.390116">
        <ele>1276.0</ele>
        <time>2026-01-20T03:35:18Z</time>
      </trkpt>
      <trkpt lon="76.995721" lat="10.390054">
        <ele>1277.0</ele>
        <time>2026-01-20T03:35:19Z</time>
      </trkpt>
      <trkpt lon="76.995617" lat="10.389996">
        <ele>1278.0</ele>
        <time>2026-01-20T03:35:20Z</time>
      </trkpt>
      <trkpt lon="76.995505" lat="10.389929">
        <ele>1279.0</ele>
        <time>2026-01-20T03:35:21Z</time>
      </trkpt>
      <trkpt lon="76.995418" lat="10.38987">
        <ele>1282.0</ele>
        <time>2026-01-20T03:35:22Z</time>
      </trkpt>
      <trkpt lon="76.995344" lat="10.389813">
        <ele>1284.0</ele>
        <time>2026-01-20T03:35:23Z</time>
      </trkpt>
      <trkpt lon="76.995225" lat="10.389694">
        <ele>1286.0</ele>
        <time>2026-01-20T03:35:25Z</time>
      </trkpt>
      <trkpt lon="76.995142" lat="10.389556">
        <ele>1288.0</ele>
        <time>2026-01-20T03:35:27Z</time>
      </trkpt>
      <trkpt lon="76.995117" lat="10.389371">
        <ele>1290.0</ele>
        <time>2026-01-20T03:35:29Z</time>
      </trkpt>
      <trkpt lon="76.995124" lat="10.389267">
        <ele>1291.0</ele>
        <time>2026-01-20T03:35:30Z</time>
      </trkpt>
      <trkpt lon="76.995133" lat="10.389161">
        <ele>1293.0</ele>
        <time>2026-01-20T03:35:31Z</time>
      </trkpt>
      <trkpt lon="76.995148" lat="10.389051">
        <ele>1293.0</ele>
        <time>2026-01-20T03:35:32Z</time>
      </trkpt>
      <trkpt lon="76.995156" lat="10.388935">
        <ele>1294.0</ele>
        <time>2026-01-20T03:35:33Z</time>
      </trkpt>
      <trkpt lon="76.995166" lat="10.388825">
        <ele>1294.0</ele>
        <time>2026-01-20T03:35:34Z</time>
      </trkpt>
      <trkpt lon="76.995178" lat="10.388714">
        <ele>1295.0</ele>
        <time>2026-01-20T03:35:35Z</time>
      </trkpt>
      <trkpt lon="76.995183" lat="10.388603">
        <ele>1295.0</ele>
        <time>2026-01-20T03:35:36Z</time>
      </trkpt>
      <trkpt lon="76.995176" lat="10.388491">
        <ele>1296.0</ele>
        <time>2026-01-20T03:35:37Z</time>
      </trkpt>
      <trkpt lon="76.995165" lat="10.388386">
        <ele>1298.0</ele>
        <time>2026-01-20T03:35:38Z</time>
      </trkpt>
      <trkpt lon="76.995151" lat="10.38828">
        <ele>1298.0</ele>
        <time>2026-01-20T03:35:39Z</time>
      </trkpt>
      <trkpt lon="76.995122" lat="10.388175">
        <ele>1298.0</ele>
        <time>2026-01-20T03:35:40Z</time>
      </trkpt>
      <trkpt lon="76.995069" lat="10.388067">
        <ele>1299.0</ele>
        <time>2026-01-20T03:35:41Z</time>
      </trkpt>
      <trkpt lon="76.995018" lat="10.387964">
        <ele>1300.0</ele>
        <time>2026-01-20T03:35:42Z</time>
      </trkpt>
      <trkpt lon="76.994955" lat="10.387865">
        <ele>1301.0</ele>
        <time>2026-01-20T03:35:43Z</time>
      </trkpt>
      <trkpt lon="76.994892" lat="10.387771">
        <ele>1302.0</ele>
        <time>2026-01-20T03:35:44Z</time>
      </trkpt>
      <trkpt lon="76.994826" lat="10.38768">
        <ele>1304.0</ele>
        <time>2026-01-20T03:35:45Z</time>
      </trkpt>
      <trkpt lon="76.994762" lat="10.387595">
        <ele>1305.0</ele>
        <time>2026-01-20T03:35:46Z</time>
      </trkpt>
      <trkpt lon="76.994695" lat="10.387518">
        <ele>1306.0</ele>
        <time>2026-01-20T03:35:47Z</time>
      </trkpt>
      <trkpt lon="76.994627" lat="10.38744">
        <ele>1306.0</ele>
        <time>2026-01-20T03:35:48Z</time>
      </trkpt>
      <trkpt lon="76.994563" lat="10.387347">
        <ele>1307.0</ele>
        <time>2026-01-20T03:35:49Z</time>
      </trkpt>
      <trkpt lon="76.994505" lat="10.387248">
        <ele>1308.0</ele>
        <time>2026-01-20T03:35:50Z</time>
      </trkpt>
      <trkpt lon="76.994454" lat="10.387142">
        <ele>1309.0</ele>
        <time>2026-01-20T03:35:51Z</time>
      </trkpt>
      <trkpt lon="76.994402" lat="10.387036">
        <ele>1311.0</ele>
        <time>2026-01-20T03:35:52Z</time>
      </trkpt>
      <trkpt lon="76.994354" lat="10.386927">
        <ele>1312.0</ele>
        <time>2026-01-20T03:35:53Z</time>
      </trkpt>
      <trkpt lon="76.994297" lat="10.386829">
        <ele>1313.0</ele>
        <time>2026-01-20T03:35:54Z</time>
      </trkpt>
      <trkpt lon="76.994222" lat="10.386739">
        <ele>1313.0</ele>
        <time>2026-01-20T03:35:55Z</time>
      </trkpt>
      <trkpt lon="76.994151" lat="10.386647">
        <ele>1314.0</ele>
        <time>2026-01-20T03:35:56Z</time>
      </trkpt>
      <trkpt lon="76.994083" lat="10.38655">
        <ele>1314.0</ele>
        <time>2026-01-20T03:35:57Z</time>
      </trkpt>
      <trkpt lon="76.99403" lat="10.386447">
        <ele>1314.0</ele>
        <time>2026-01-20T03:35:58Z</time>
      </trkpt>
      <trkpt lon="76.993987" lat="10.386342">
        <ele>1316.0</ele>
        <time>2026-01-20T03:35:59Z</time>
      </trkpt>
      <trkpt lon="76.993964" lat="10.386233">
        <ele>1316.0</ele>
        <time>2026-01-20T03:36:00Z</time>
      </trkpt>
      <trkpt lon="76.99395" lat="10.386133">
        <ele>1317.0</ele>
        <time>2026-01-20T03:36:01Z</time>
      </trkpt>
      <trkpt lon="76.993949" lat="10.386029">
        <ele>1318.0</ele>
        <time>2026-01-20T03:36:02Z</time>
      </trkpt>
      <trkpt lon="76.993948" lat="10.385927">
        <ele>1319.0</ele>
        <time>2026-01-20T03:36:03Z</time>
      </trkpt>
      <trkpt lon="76.993949" lat="10.385821">
        <ele>1319.0</ele>
        <time>2026-01-20T03:36:04Z</time>
      </trkpt>
      <trkpt lon="76.99395" lat="10.385707">
        <ele>1320.0</ele>
        <time>2026-01-20T03:36:05Z</time>
      </trkpt>
      <trkpt lon="76.99395" lat="10.385591">
        <ele>1320.0</ele>
        <time>2026-01-20T03:36:06Z</time>
      </trkpt>
      <trkpt lon="76.993949" lat="10.385485">
        <ele>1321.0</ele>
        <time>2026-01-20T03:36:07Z</time>
      </trkpt>
      <trkpt lon="76.993949" lat="10.385374">
        <ele>1322.0</ele>
        <time>2026-01-20T03:36:08Z</time>
      </trkpt>
      <trkpt lon="76.993949" lat="10.385273">
        <ele>1323.0</ele>
        <time>2026-01-20T03:36:09Z</time>
      </trkpt>
      <trkpt lon="76.993954" lat="10.385171">
        <ele>1323.0</ele>
        <time>2026-01-20T03:36:10Z</time>
      </trkpt>
      <trkpt lon="76.993993" lat="10.38502">
        <ele>1324.0</ele>
        <time>2026-01-20T03:36:12Z</time>
      </trkpt>
      <trkpt lon="76.994088" lat="10.384956">
        <ele>1327.0</ele>
        <time>2026-01-20T03:36:14Z</time>
      </trkpt>
      <trkpt lon="76.994195" lat="10.385001">
        <ele>1329.0</ele>
        <time>2026-01-20T03:36:16Z</time>
      </trkpt>
      <trkpt lon="76.994304" lat="10.385071">
        <ele>1331.0</ele>
        <time>2026-01-20T03:36:18Z</time>
      </trkpt>
      <trkpt lon="76.994424" lat="10.385041">
        <ele>1331.0</ele>
        <time>2026-01-20T03:36:20Z</time>
      </trkpt>
      <trkpt lon="76.994491" lat="10.38491">
        <ele>1331.0</ele>
        <time>2026-01-20T03:36:22Z</time>
      </trkpt>
      <trkpt lon="76.994556" lat="10.384732">
        <ele>1332.0</ele>
        <time>2026-01-20T03:36:24Z</time>
      </trkpt>
      <trkpt lon="76.994597" lat="10.384637">
        <ele>1333.0</ele>
        <time>2026-01-20T03:36:25Z</time>
      </trkpt>
      <trkpt lon="76.994633" lat="10.384533">
        <ele>1334.0</ele>
        <time>2026-01-20T03:36:26Z</time>
      </trkpt>
      <trkpt lon="76.994656" lat="10.384421">
        <ele>1334.0</ele>
        <time>2026-01-20T03:36:27Z</time>
      </trkpt>
      <trkpt lon="76.994666" lat="10.384303">
        <ele>1334.0</ele>
        <time>2026-01-20T03:36:28Z</time>
      </trkpt>
      <trkpt lon="76.994671" lat="10.384181">
        <ele>1335.0</ele>
        <time>2026-01-20T03:36:29Z</time>
      </trkpt>
      <trkpt lon="76.994674" lat="10.384058">
        <ele>1336.0</ele>
        <time>2026-01-20T03:36:30Z</time>
      </trkpt>
      <trkpt lon="76.994665" lat="10.383936">
        <ele>1336.0</ele>
        <time>2026-01-20T03:36:31Z</time>
      </trkpt>
      <trkpt lon="76.994656" lat="10.383809">
        <ele>1337.0</ele>
        <time>2026-01-20T03:36:32Z</time>
      </trkpt>
      <trkpt lon="76.994657" lat="10.383689">
        <ele>1337.0</ele>
        <time>2026-01-20T03:36:33Z</time>
      </trkpt>
      <trkpt lon="76.99466" lat="10.383573">
        <ele>1338.0</ele>
        <time>2026-01-20T03:36:34Z</time>
      </trkpt>
      <trkpt lon="76.994655" lat="10.383456">
        <ele>1339.0</ele>
        <time>2026-01-20T03:36:35Z</time>
      </trkpt>
      <trkpt lon="76.994646" lat="10.383348">
        <ele>1340.0</ele>
        <time>2026-01-20T03:36:36Z</time>
      </trkpt>
      <trkpt lon="76.994637" lat="10.383254">
        <ele>1340.0</ele>
        <time>2026-01-20T03:36:37Z</time>
      </trkpt>
      <trkpt lon="76.994629" lat="10.383117">
        <ele>1341.0</ele>
        <time>2026-01-20T03:36:39Z</time>
      </trkpt>
      <trkpt lon="76.994657" lat="10.382997">
        <ele>1341.0</ele>
        <time>2026-01-20T03:36:41Z</time>
      </trkpt>
      <trkpt lon="76.994767" lat="10.383013">
        <ele>1343.0</ele>
        <time>2026-01-20T03:36:43Z</time>
      </trkpt>
      <trkpt lon="76.994871" lat="10.383076">
        <ele>1344.0</ele>
        <time>2026-01-20T03:36:45Z</time>
      </trkpt>
      <trkpt lon="76.994991" lat="10.383212">
        <ele>1346.0</ele>
        <time>2026-01-20T03:36:47Z</time>
      </trkpt>
      <trkpt lon="76.995067" lat="10.383299">
        <ele>1346.0</ele>
        <time>2026-01-20T03:36:48Z</time>
      </trkpt>
      <trkpt lon="76.995137" lat="10.383391">
        <ele>1347.0</ele>
        <time>2026-01-20T03:36:49Z</time>
      </trkpt>
      <trkpt lon="76.995206" lat="10.383478">
        <ele>1347.0</ele>
        <time>2026-01-20T03:36:50Z</time>
      </trkpt>
      <trkpt lon="76.995273" lat="10.383572">
        <ele>1347.0</ele>
        <time>2026-01-20T03:36:51Z</time>
      </trkpt>
      <trkpt lon="76.995347" lat="10.383665">
        <ele>1347.0</ele>
        <time>2026-01-20T03:36:52Z</time>
      </trkpt>
      <trkpt lon="76.99542" lat="10.383763">
        <ele>1348.0</ele>
        <time>2026-01-20T03:36:53Z</time>
      </trkpt>
      <trkpt lon="76.995491" lat="10.383868">
        <ele>1349.0</ele>
        <time>2026-01-20T03:36:54Z</time>
      </trkpt>
      <trkpt lon="76.99556" lat="10.383976">
        <ele>1348.0</ele>
        <time>2026-01-20T03:36:55Z</time>
      </trkpt>
      <trkpt lon="76.995628" lat="10.384084">
        <ele>1349.0</ele>
        <time>2026-01-20T03:36:56Z</time>
      </trkpt>
      <trkpt lon="76.995692" lat="10.384193">
        <ele>1349.0</ele>
        <time>2026-01-20T03:36:57Z</time>
      </trkpt>
      <trkpt lon="76.995752" lat="10.384307">
        <ele>1349.0</ele>
        <time>2026-01-20T03:36:58Z</time>
      </trkpt>
      <trkpt lon="76.995809" lat="10.384431">
        <ele>1349.0</ele>
        <time>2026-01-20T03:36:59Z</time>
      </trkpt>
      <trkpt lon="76.995864" lat="10.384555">
        <ele>1349.0</ele>
        <time>2026-01-20T03:37:00Z</time>
      </trkpt>
      <trkpt lon="76.995923" lat="10.384676">
        <ele>1349.0</ele>
        <time>2026-01-20T03:37:01Z</time>
      </trkpt>
      <trkpt lon="76.995986" lat="10.384801">
        <ele>1349.0</ele>
        <time>2026-01-20T03:37:02Z</time>
      </trkpt>
      <trkpt lon="76.99604" lat="10.384926">
        <ele>1350.0</ele>
        <time>2026-01-20T03:37:03Z</time>
      </trkpt>
      <trkpt lon="76.996086" lat="10.385046">
        <ele>1350.0</ele>
        <time>2026-01-20T03:37:04Z</time>
      </trkpt>
      <trkpt lon="76.996121" lat="10.385166">
        <ele>1350.0</ele>
        <time>2026-01-20T03:37:05Z</time>
      </trkpt>
      <trkpt lon="76.996154" lat="10.38529">
        <ele>1351.0</ele>
        <time>2026-01-20T03:37:06Z</time>
      </trkpt>
      <trkpt lon="76.99618" lat="10.385415">
        <ele>1351.0</ele>
        <time>2026-01-20T03:37:07Z</time>
      </trkpt>
      <trkpt lon="76.996213" lat="10.385525">
        <ele>1352.0</ele>
        <time>2026-01-20T03:37:08Z</time>
      </trkpt>
      <trkpt lon="76.996244" lat="10.385623">
        <ele>1352.0</ele>
        <time>2026-01-20T03:37:09Z</time>
      </trkpt>
      <trkpt lon="76.996291" lat="10.385783">
        <ele>1353.0</ele>
        <time>2026-01-20T03:37:11Z</time>
      </trkpt>
      <trkpt lon="76.996333" lat="10.385886">
        <ele>1353.0</ele>
        <time>2026-01-20T03:37:13Z</time>
      </trkpt>
      <trkpt lon="76.996413" lat="10.385961">
        <ele>1354.0</ele>
        <time>2026-01-20T03:37:15Z</time>
      </trkpt>
      <trkpt lon="76.996503" lat="10.38593">
        <ele>1355.0</ele>
        <time>2026-01-20T03:37:17Z</time>
      </trkpt>
      <trkpt lon="76.996577" lat="10.385807">
        <ele>1354.0</ele>
        <time>2026-01-20T03:37:19Z</time>
      </trkpt>
      <trkpt lon="76.996565" lat="10.385681">
        <ele>1354.0</ele>
        <time>2026-01-20T03:37:21Z</time>
      </trkpt>
      <trkpt lon="76.996517" lat="10.385528">
        <ele>1355.0</ele>
        <time>2026-01-20T03:37:23Z</time>
      </trkpt>
      <trkpt lon="76.996491" lat="10.385351">
        <ele>1355.0</ele>
        <time>2026-01-20T03:37:25Z</time>
      </trkpt>
      <trkpt lon="76.99649" lat="10.385249">
        <ele>1356.0</ele>
        <time>2026-01-20T03:37:26Z</time>
      </trkpt>
      <trkpt lon="76.996498" lat="10.385145">
        <ele>1356.0</ele>
        <time>2026-01-20T03:37:27Z</time>
      </trkpt>
      <trkpt lon="76.996502" lat="10.385037">
        <ele>1357.0</ele>
        <time>2026-01-20T03:37:28Z</time>
      </trkpt>
      <trkpt lon="76.996498" lat="10.384925">
        <ele>1357.0</ele>
        <time>2026-01-20T03:37:29Z</time>
      </trkpt>
      <trkpt lon="76.996492" lat="10.384814">
        <ele>1358.0</ele>
        <time>2026-01-20T03:37:30Z</time>
      </trkpt>
      <trkpt lon="76.996483" lat="10.384698">
        <ele>1359.0</ele>
        <time>2026-01-20T03:37:31Z</time>
      </trkpt>
      <trkpt lon="76.996474" lat="10.384593">
        <ele>1359.0</ele>
        <time>2026-01-20T03:37:32Z</time>
      </trkpt>
      <trkpt lon="76.996459" lat="10.384495">
        <ele>1361.0</ele>
        <time>2026-01-20T03:37:33Z</time>
      </trkpt>
      <trkpt lon="76.996453" lat="10.384311">
        <ele>1363.0</ele>
        <time>2026-01-20T03:37:35Z</time>
      </trkpt>
      <trkpt lon="76.99648" lat="10.384222">
        <ele>1363.0</ele>
        <time>2026-01-20T03:37:36Z</time>
      </trkpt>
      <trkpt lon="76.996549" lat="10.384105">
        <ele>1364.0</ele>
        <time>2026-01-20T03:37:38Z</time>
      </trkpt>
      <trkpt lon="76.996652" lat="10.384027">
        <ele>1364.0</ele>
        <time>2026-01-20T03:37:40Z</time>
      </trkpt>
      <trkpt lon="76.996787" lat="10.384071">
        <ele>1365.0</ele>
        <time>2026-01-20T03:37:42Z</time>
      </trkpt>
      <trkpt lon="76.996894" lat="10.384202">
        <ele>1365.0</ele>
        <time>2026-01-20T03:37:44Z</time>
      </trkpt>
      <trkpt lon="76.996941" lat="10.384334">
        <ele>1364.0</ele>
        <time>2026-01-20T03:37:46Z</time>
      </trkpt>
      <trkpt lon="76.997004" lat="10.384429">
        <ele>1364.0</ele>
        <time>2026-01-20T03:37:48Z</time>
      </trkpt>
      <trkpt lon="76.997101" lat="10.384419">
        <ele>1363.0</ele>
        <time>2026-01-20T03:37:50Z</time>
      </trkpt>
      <trkpt lon="76.997146" lat="10.384335">
        <ele>1362.0</ele>
        <time>2026-01-20T03:37:52Z</time>
      </trkpt>
      <trkpt lon="76.997145" lat="10.384191">
        <ele>1362.0</ele>
        <time>2026-01-20T03:37:54Z</time>
      </trkpt>
      <trkpt lon="76.997153" lat="10.384084">
        <ele>1361.0</ele>
        <time>2026-01-20T03:37:55Z</time>
      </trkpt>
      <trkpt lon="76.997169" lat="10.383974">
        <ele>1362.0</ele>
        <time>2026-01-20T03:37:56Z</time>
      </trkpt>
      <trkpt lon="76.99719" lat="10.383864">
        <ele>1362.0</ele>
        <time>2026-01-20T03:37:57Z</time>
      </trkpt>
      <trkpt lon="76.997205" lat="10.383758">
        <ele>1361.0</ele>
        <time>2026-01-20T03:37:58Z</time>
      </trkpt>
      <trkpt lon="76.997209" lat="10.383652">
        <ele>1361.0</ele>
        <time>2026-01-20T03:37:59Z</time>
      </trkpt>
      <trkpt lon="76.997197" lat="10.383547">
        <ele>1361.0</ele>
        <time>2026-01-20T03:38:00Z</time>
      </trkpt>
      <trkpt lon="76.997171" lat="10.383443">
        <ele>1361.0</ele>
        <time>2026-01-20T03:38:01Z</time>
      </trkpt>
      <trkpt lon="76.997146" lat="10.383344">
        <ele>1361.0</ele>
        <time>2026-01-20T03:38:02Z</time>
      </trkpt>
      <trkpt lon="76.99713" lat="10.383243">
        <ele>1361.0</ele>
        <time>2026-01-20T03:38:03Z</time>
      </trkpt>
      <trkpt lon="76.997115" lat="10.383141">
        <ele>1361.0</ele>
        <time>2026-01-20T03:38:04Z</time>
      </trkpt>
      <trkpt lon="76.997118" lat="10.383039">
        <ele>1361.0</ele>
        <time>2026-01-20T03:38:05Z</time>
      </trkpt>
      <trkpt lon="76.997123" lat="10.382943">
        <ele>1361.0</ele>
        <time>2026-01-20T03:38:06Z</time>
      </trkpt>
      <trkpt lon="76.997152" lat="10.382848">
        <ele>1362.0</ele>
        <time>2026-01-20T03:38:07Z</time>
      </trkpt>
      <trkpt lon="76.997191" lat="10.382761">
        <ele>1362.0</ele>
        <time>2026-01-20T03:38:08Z</time>
      </trkpt>
      <trkpt lon="76.997278" lat="10.382644">
        <ele>1362.0</ele>
        <time>2026-01-20T03:38:10Z</time>
      </trkpt>
      <trkpt lon="76.997413" lat="10.382604">
        <ele>1360.0</ele>
        <time>2026-01-20T03:38:12Z</time>
      </trkpt>
      <trkpt lon="76.997543" lat="10.382671">
        <ele>1360.0</ele>
        <time>2026-01-20T03:38:14Z</time>
      </trkpt>
      <trkpt lon="76.997642" lat="10.382778">
        <ele>1359.0</ele>
        <time>2026-01-20T03:38:16Z</time>
      </trkpt>
      <trkpt lon="76.997744" lat="10.382866">
        <ele>1357.0</ele>
        <time>2026-01-20T03:38:18Z</time>
      </trkpt>
      <trkpt lon="76.997853" lat="10.382839">
        <ele>1356.0</ele>
        <time>2026-01-20T03:38:20Z</time>
      </trkpt>
      <trkpt lon="76.997918" lat="10.382738">
        <ele>1356.0</ele>
        <time>2026-01-20T03:38:22Z</time>
      </trkpt>
      <trkpt lon="76.99801" lat="10.382611">
        <ele>1357.0</ele>
        <time>2026-01-20T03:38:24Z</time>
      </trkpt>
      <trkpt lon="76.998038" lat="10.382456">
        <ele>1356.0</ele>
        <time>2026-01-20T03:38:26Z</time>
      </trkpt>
      <trkpt lon="76.997985" lat="10.382293">
        <ele>1356.0</ele>
        <time>2026-01-20T03:38:28Z</time>
      </trkpt>
      <trkpt lon="76.997978" lat="10.382113">
        <ele>1357.0</ele>
        <time>2026-01-20T03:38:30Z</time>
      </trkpt>
      <trkpt lon="76.997987" lat="10.38195">
        <ele>1357.0</ele>
        <time>2026-01-20T03:38:32Z</time>
      </trkpt>
      <trkpt lon="76.997991" lat="10.381813">
        <ele>1357.0</ele>
        <time>2026-01-20T03:38:34Z</time>
      </trkpt>
      <trkpt lon="76.997939" lat="10.381666">
        <ele>1358.0</ele>
        <time>2026-01-20T03:38:36Z</time>
      </trkpt>
      <trkpt lon="76.99789" lat="10.381587">
        <ele>1357.0</ele>
        <time>2026-01-20T03:38:37Z</time>
      </trkpt>
      <trkpt lon="76.997834" lat="10.381496">
        <ele>1357.0</ele>
        <time>2026-01-20T03:38:38Z</time>
      </trkpt>
      <trkpt lon="76.997786" lat="10.381407">
        <ele>1357.0</ele>
        <time>2026-01-20T03:38:39Z</time>
      </trkpt>
      <trkpt lon="76.99774" lat="10.381309">
        <ele>1357.0</ele>
        <time>2026-01-20T03:38:40Z</time>
      </trkpt>
      <trkpt lon="76.997713" lat="10.381198">
        <ele>1358.0</ele>
        <time>2026-01-20T03:38:41Z</time>
      </trkpt>
      <trkpt lon="76.997683" lat="10.381077">
        <ele>1358.0</ele>
        <time>2026-01-20T03:38:42Z</time>
      </trkpt>
      <trkpt lon="76.99765" lat="10.38095">
        <ele>1358.0</ele>
        <time>2026-01-20T03:38:43Z</time>
      </trkpt>
      <trkpt lon="76.997621" lat="10.380816">
        <ele>1358.0</ele>
        <time>2026-01-20T03:38:44Z</time>
      </trkpt>
      <trkpt lon="76.997592" lat="10.380682">
        <ele>1357.0</ele>
        <time>2026-01-20T03:38:45Z</time>
      </trkpt>
      <trkpt lon="76.997553" lat="10.380559">
        <ele>1356.0</ele>
        <time>2026-01-20T03:38:46Z</time>
      </trkpt>
      <trkpt lon="76.997504" lat="10.380438">
        <ele>1356.0</ele>
        <time>2026-01-20T03:38:47Z</time>
      </trkpt>
      <trkpt lon="76.997445" lat="10.380324">
        <ele>1355.0</ele>
        <time>2026-01-20T03:38:48Z</time>
      </trkpt>
      <trkpt lon="76.997378" lat="10.380217">
        <ele>1355.0</ele>
        <time>2026-01-20T03:38:49Z</time>
      </trkpt>
      <trkpt lon="76.997323" lat="10.380122">
        <ele>1354.0</ele>
        <time>2026-01-20T03:38:50Z</time>
      </trkpt>
      <trkpt lon="76.997278" lat="10.380037">
        <ele>1354.0</ele>
        <time>2026-01-20T03:38:51Z</time>
      </trkpt>
      <trkpt lon="76.997243" lat="10.379938">
        <ele>1353.0</ele>
        <time>2026-01-20T03:38:52Z</time>
      </trkpt>
      <trkpt lon="76.99723" lat="10.379831">
        <ele>1353.0</ele>
        <time>2026-01-20T03:38:53Z</time>
      </trkpt>
      <trkpt lon="76.997238" lat="10.379719">
        <ele>1352.0</ele>
        <time>2026-01-20T03:38:54Z</time>
      </trkpt>
      <trkpt lon="76.997253" lat="10.379596">
        <ele>1351.0</ele>
        <time>2026-01-20T03:38:55Z</time>
      </trkpt>
      <trkpt lon="76.997261" lat="10.37947">
        <ele>1350.0</ele>
        <time>2026-01-20T03:38:56Z</time>
      </trkpt>
      <trkpt lon="76.997273" lat="10.379342">
        <ele>1349.0</ele>
        <time>2026-01-20T03:38:57Z</time>
      </trkpt>
      <trkpt lon="76.997286" lat="10.379214">
        <ele>1347.0</ele>
        <time>2026-01-20T03:38:58Z</time>
      </trkpt>
      <trkpt lon="76.997303" lat="10.379088">
        <ele>1347.0</ele>
        <time>2026-01-20T03:38:59Z</time>
      </trkpt>
      <trkpt lon="76.997325" lat="10.37897">
        <ele>1346.0</ele>
        <time>2026-01-20T03:39:00Z</time>
      </trkpt>
      <trkpt lon="76.997356" lat="10.378863">
        <ele>1345.0</ele>
        <time>2026-01-20T03:39:01Z</time>
      </trkpt>
      <trkpt lon="76.997387" lat="10.378761">
        <ele>1345.0</ele>
        <time>2026-01-20T03:39:02Z</time>
      </trkpt>
      <trkpt lon="76.997403" lat="10.378581">
        <ele>1344.0</ele>
        <time>2026-01-20T03:39:04Z</time>
      </trkpt>
      <trkpt lon="76.997315" lat="10.378406">
        <ele>1343.0</ele>
        <time>2026-01-20T03:39:06Z</time>
      </trkpt>
      <trkpt lon="76.99723" lat="10.378322">
        <ele>1343.0</ele>
        <time>2026-01-20T03:39:07Z</time>
      </trkpt>
      <trkpt lon="76.997136" lat="10.378232">
        <ele>1342.0</ele>
        <time>2026-01-20T03:39:08Z</time>
      </trkpt>
      <trkpt lon="76.997032" lat="10.378142">
        <ele>1341.0</ele>
        <time>2026-01-20T03:39:09Z</time>
      </trkpt>
      <trkpt lon="76.996926" lat="10.378051">
        <ele>1341.0</ele>
        <time>2026-01-20T03:39:10Z</time>
      </trkpt>
      <trkpt lon="76.996829" lat="10.377952">
        <ele>1339.0</ele>
        <time>2026-01-20T03:39:11Z</time>
      </trkpt>
      <trkpt lon="76.996734" lat="10.377846">
        <ele>1338.0</ele>
        <time>2026-01-20T03:39:12Z</time>
      </trkpt>
      <trkpt lon="76.996648" lat="10.377741">
        <ele>1338.0</ele>
        <time>2026-01-20T03:39:13Z</time>
      </trkpt>
      <trkpt lon="76.996583" lat="10.377636">
        <ele>1336.0</ele>
        <time>2026-01-20T03:39:14Z</time>
      </trkpt>
      <trkpt lon="76.996529" lat="10.377527">
        <ele>1335.0</ele>
        <time>2026-01-20T03:39:15Z</time>
      </trkpt>
      <trkpt lon="76.996492" lat="10.377417">
        <ele>1335.0</ele>
        <time>2026-01-20T03:39:16Z</time>
      </trkpt>
      <trkpt lon="76.996447" lat="10.377308">
        <ele>1334.0</ele>
        <time>2026-01-20T03:39:17Z</time>
      </trkpt>
      <trkpt lon="76.996386" lat="10.377219">
        <ele>1334.0</ele>
        <time>2026-01-20T03:39:18Z</time>
      </trkpt>
      <trkpt lon="76.99631" lat="10.377146">
        <ele>1333.0</ele>
        <time>2026-01-20T03:39:19Z</time>
      </trkpt>
      <trkpt lon="76.996225" lat="10.377093">
        <ele>1333.0</ele>
        <time>2026-01-20T03:39:20Z</time>
      </trkpt>
      <trkpt lon="76.996133" lat="10.37705">
        <ele>1334.0</ele>
        <time>2026-01-20T03:39:21Z</time>
      </trkpt>
      <trkpt lon="76.996004" lat="10.376962">
        <ele>1333.0</ele>
        <time>2026-01-20T03:39:23Z</time>
      </trkpt>
      <trkpt lon="76.995939" lat="10.376859">
        <ele>1331.0</ele>
        <time>2026-01-20T03:39:25Z</time>
      </trkpt>
      <trkpt lon="76.995912" lat="10.376742">
        <ele>1331.0</ele>
        <time>2026-01-20T03:39:28Z</time>
      </trkpt>
      <trkpt lon="76.996038" lat="10.376801">
        <ele>1330.0</ele>
        <time>2026-01-20T03:39:32Z</time>
      </trkpt>
      <trkpt lon="76.996144" lat="10.376916">
        <ele>1329.0</ele>
        <time>2026-01-20T03:39:34Z</time>
      </trkpt>
      <trkpt lon="76.996229" lat="10.376971">
        <ele>1329.0</ele>
        <time>2026-01-20T03:39:35Z</time>
      </trkpt>
      <trkpt lon="76.996388" lat="10.37705">
        <ele>1328.0</ele>
        <time>2026-01-20T03:39:37Z</time>
      </trkpt>
      <trkpt lon="76.996468" lat="10.377095">
        <ele>1327.0</ele>
        <time>2026-01-20T03:39:38Z</time>
      </trkpt>
      <trkpt lon="76.996593" lat="10.377188">
        <ele>1327.0</ele>
        <time>2026-01-20T03:39:40Z</time>
      </trkpt>
      <trkpt lon="76.996696" lat="10.377266">
        <ele>1327.0</ele>
        <time>2026-01-20T03:39:42Z</time>
      </trkpt>
      <trkpt lon="76.996798" lat="10.377284">
        <ele>1327.0</ele>
        <time>2026-01-20T03:39:44Z</time>
      </trkpt>
      <trkpt lon="76.996853" lat="10.377168">
        <ele>1325.0</ele>
        <time>2026-01-20T03:39:46Z</time>
      </trkpt>
      <trkpt lon="76.996837" lat="10.377001">
        <ele>1325.0</ele>
        <time>2026-01-20T03:39:48Z</time>
      </trkpt>
      <trkpt lon="76.996779" lat="10.376917">
        <ele>1324.0</ele>
        <time>2026-01-20T03:39:49Z</time>
      </trkpt>
      <trkpt lon="76.996721" lat="10.376838">
        <ele>1321.0</ele>
        <time>2026-01-20T03:39:50Z</time>
      </trkpt>
      <trkpt lon="76.996671" lat="10.376749">
        <ele>1319.0</ele>
        <time>2026-01-20T03:39:51Z</time>
      </trkpt>
      <trkpt lon="76.996629" lat="10.376641">
        <ele>1318.0</ele>
        <time>2026-01-20T03:39:52Z</time>
      </trkpt>
      <trkpt lon="76.996601" lat="10.37654">
        <ele>1317.0</ele>
        <time>2026-01-20T03:39:53Z</time>
      </trkpt>
      <trkpt lon="76.996582" lat="10.376367">
        <ele>1316.0</ele>
        <time>2026-01-20T03:39:55Z</time>
      </trkpt>
      <trkpt lon="76.996515" lat="10.376212">
        <ele>1313.0</ele>
        <time>2026-01-20T03:39:57Z</time>
      </trkpt>
      <trkpt lon="76.996445" lat="10.376146">
        <ele>1312.0</ele>
        <time>2026-01-20T03:39:58Z</time>
      </trkpt>
      <trkpt lon="76.99637" lat="10.376078">
        <ele>1312.0</ele>
        <time>2026-01-20T03:39:59Z</time>
      </trkpt>
      <trkpt lon="76.996297" lat="10.376004">
        <ele>1311.0</ele>
        <time>2026-01-20T03:40:00Z</time>
      </trkpt>
      <trkpt lon="76.99623" lat="10.375916">
        <ele>1310.0</ele>
        <time>2026-01-20T03:40:01Z</time>
      </trkpt>
      <trkpt lon="76.996189" lat="10.375828">
        <ele>1310.0</ele>
        <time>2026-01-20T03:40:02Z</time>
      </trkpt>
      <trkpt lon="76.996153" lat="10.37569">
        <ele>1310.0</ele>
        <time>2026-01-20T03:40:04Z</time>
      </trkpt>
      <trkpt lon="76.996187" lat="10.375549">
        <ele>1309.0</ele>
        <time>2026-01-20T03:40:06Z</time>
      </trkpt>
      <trkpt lon="76.99626" lat="10.375436">
        <ele>1309.0</ele>
        <time>2026-01-20T03:40:08Z</time>
      </trkpt>
      <trkpt lon="76.996283" lat="10.375318">
        <ele>1309.0</ele>
        <time>2026-01-20T03:40:10Z</time>
      </trkpt>
      <trkpt lon="76.996243" lat="10.375225">
        <ele>1308.0</ele>
        <time>2026-01-20T03:40:12Z</time>
      </trkpt>
      <trkpt lon="76.996123" lat="10.375254">
        <ele>1308.0</ele>
        <time>2026-01-20T03:40:14Z</time>
      </trkpt>
      <trkpt lon="76.996016" lat="10.37535">
        <ele>1308.0</ele>
        <time>2026-01-20T03:40:16Z</time>
      </trkpt>
      <trkpt lon="76.995927" lat="10.375428">
        <ele>1308.0</ele>
        <time>2026-01-20T03:40:18Z</time>
      </trkpt>
      <trkpt lon="76.99583" lat="10.375448">
        <ele>1307.0</ele>
        <time>2026-01-20T03:40:20Z</time>
      </trkpt>
      <trkpt lon="76.995705" lat="10.375327">
        <ele>1307.0</ele>
        <time>2026-01-20T03:40:22Z</time>
      </trkpt>
      <trkpt lon="76.995575" lat="10.375208">
        <ele>1306.0</ele>
        <time>2026-01-20T03:40:24Z</time>
      </trkpt>
      <trkpt lon="76.995465" lat="10.375121">
        <ele>1303.0</ele>
        <time>2026-01-20T03:40:26Z</time>
      </trkpt>
      <trkpt lon="76.99544" lat="10.374977">
        <ele>1299.0</ele>
        <time>2026-01-20T03:40:28Z</time>
      </trkpt>
      <trkpt lon="76.99545" lat="10.374887">
        <ele>1298.0</ele>
        <time>2026-01-20T03:40:29Z</time>
      </trkpt>
      <trkpt lon="76.995448" lat="10.374735">
        <ele>1297.0</ele>
        <time>2026-01-20T03:40:31Z</time>
      </trkpt>
      <trkpt lon="76.995388" lat="10.374609">
        <ele>1297.0</ele>
        <time>2026-01-20T03:40:33Z</time>
      </trkpt>
      <trkpt lon="76.995259" lat="10.374563">
        <ele>1297.0</ele>
        <time>2026-01-20T03:40:35Z</time>
      </trkpt>
      <trkpt lon="76.99512" lat="10.374549">
        <ele>1297.0</ele>
        <time>2026-01-20T03:40:37Z</time>
      </trkpt>
      <trkpt lon="76.995038" lat="10.374441">
        <ele>1296.0</ele>
        <time>2026-01-20T03:40:39Z</time>
      </trkpt>
      <trkpt lon="76.995013" lat="10.374253">
        <ele>1294.0</ele>
        <time>2026-01-20T03:40:41Z</time>
      </trkpt>
      <trkpt lon="76.995" lat="10.374161">
        <ele>1293.0</ele>
        <time>2026-01-20T03:40:42Z</time>
      </trkpt>
      <trkpt lon="76.994994" lat="10.374061">
        <ele>1293.0</ele>
        <time>2026-01-20T03:40:43Z</time>
      </trkpt>
      <trkpt lon="76.994995" lat="10.373961">
        <ele>1293.0</ele>
        <time>2026-01-20T03:40:44Z</time>
      </trkpt>
      <trkpt lon="76.995028" lat="10.373802">
        <ele>1292.0</ele>
        <time>2026-01-20T03:40:46Z</time>
      </trkpt>
      <trkpt lon="76.995076" lat="10.373698">
        <ele>1291.0</ele>
        <time>2026-01-20T03:40:48Z</time>
      </trkpt>
      <trkpt lon="76.995054" lat="10.373588">
        <ele>1290.0</ele>
        <time>2026-01-20T03:40:51Z</time>
      </trkpt>
      <trkpt lon="76.99496" lat="10.373604">
        <ele>1289.0</ele>
        <time>2026-01-20T03:40:53Z</time>
      </trkpt>
      <trkpt lon="76.994889" lat="10.373721">
        <ele>1288.0</ele>
        <time>2026-01-20T03:40:55Z</time>
      </trkpt>
      <trkpt lon="76.994821" lat="10.373892">
        <ele>1287.0</ele>
        <time>2026-01-20T03:40:57Z</time>
      </trkpt>
      <trkpt lon="76.994786" lat="10.373984">
        <ele>1286.0</ele>
        <time>2026-01-20T03:40:58Z</time>
      </trkpt>
      <trkpt lon="76.994754" lat="10.374069">
        <ele>1285.0</ele>
        <time>2026-01-20T03:40:59Z</time>
      </trkpt>
      <trkpt lon="76.994729" lat="10.374159">
        <ele>1285.0</ele>
        <time>2026-01-20T03:41:00Z</time>
      </trkpt>
      <trkpt lon="76.99471" lat="10.374325">
        <ele>1285.0</ele>
        <time>2026-01-20T03:41:02Z</time>
      </trkpt>
      <trkpt lon="76.994709" lat="10.374451">
        <ele>1283.0</ele>
        <time>2026-01-20T03:41:04Z</time>
      </trkpt>
      <trkpt lon="76.994688" lat="10.374561">
        <ele>1280.0</ele>
        <time>2026-01-20T03:41:07Z</time>
      </trkpt>
      <trkpt lon="76.994586" lat="10.374513">
        <ele>1279.0</ele>
        <time>2026-01-20T03:41:10Z</time>
      </trkpt>
      <trkpt lon="76.994564" lat="10.374366">
        <ele>1278.0</ele>
        <time>2026-01-20T03:41:12Z</time>
      </trkpt>
      <trkpt lon="76.994564" lat="10.374188">
        <ele>1277.0</ele>
        <time>2026-01-20T03:41:14Z</time>
      </trkpt>
      <trkpt lon="76.994548" lat="10.374099">
        <ele>1277.0</ele>
        <time>2026-01-20T03:41:15Z</time>
      </trkpt>
      <trkpt lon="76.994534" lat="10.374009">
        <ele>1276.0</ele>
        <time>2026-01-20T03:41:16Z</time>
      </trkpt>
      <trkpt lon="76.994504" lat="10.373921">
        <ele>1276.0</ele>
        <time>2026-01-20T03:41:17Z</time>
      </trkpt>
      <trkpt lon="76.994469" lat="10.373835">
        <ele>1276.0</ele>
        <time>2026-01-20T03:41:18Z</time>
      </trkpt>
      <trkpt lon="76.994438" lat="10.373664">
        <ele>1275.0</ele>
        <time>2026-01-20T03:41:20Z</time>
      </trkpt>
      <trkpt lon="76.994427" lat="10.373574">
        <ele>1274.0</ele>
        <time>2026-01-20T03:41:21Z</time>
      </trkpt>
      <trkpt lon="76.994464" lat="10.37341">
        <ele>1277.0</ele>
        <time>2026-01-20T03:41:23Z</time>
      </trkpt>
      <trkpt lon="76.99456" lat="10.373285">
        <ele>1277.0</ele>
        <time>2026-01-20T03:41:25Z</time>
      </trkpt>
      <trkpt lon="76.994626" lat="10.373207">
        <ele>1277.0</ele>
        <time>2026-01-20T03:41:26Z</time>
      </trkpt>
      <trkpt lon="76.994648" lat="10.373036">
        <ele>1276.0</ele>
        <time>2026-01-20T03:41:28Z</time>
      </trkpt>
      <trkpt lon="76.994592" lat="10.372941">
        <ele>1274.0</ele>
        <time>2026-01-20T03:41:29Z</time>
      </trkpt>
      <trkpt lon="76.994539" lat="10.37285">
        <ele>1274.0</ele>
        <time>2026-01-20T03:41:30Z</time>
      </trkpt>
      <trkpt lon="76.994487" lat="10.372765">
        <ele>1274.0</ele>
        <time>2026-01-20T03:41:31Z</time>
      </trkpt>
      <trkpt lon="76.994426" lat="10.372687">
        <ele>1273.0</ele>
        <time>2026-01-20T03:41:32Z</time>
      </trkpt>
      <trkpt lon="76.994393" lat="10.372595">
        <ele>1273.0</ele>
        <time>2026-01-20T03:41:33Z</time>
      </trkpt>
      <trkpt lon="76.994362" lat="10.3725">
        <ele>1273.0</ele>
        <time>2026-01-20T03:41:34Z</time>
      </trkpt>
      <trkpt lon="76.994308" lat="10.372405">
        <ele>1273.0</ele>
        <time>2026-01-20T03:41:35Z</time>
      </trkpt>
      <trkpt lon="76.994263" lat="10.372316">
        <ele>1270.0</ele>
        <time>2026-01-20T03:41:36Z</time>
      </trkpt>
      <trkpt lon="76.994217" lat="10.372217">
        <ele>1269.0</ele>
        <time>2026-01-20T03:41:37Z</time>
      </trkpt>
      <trkpt lon="76.994173" lat="10.372121">
        <ele>1268.0</ele>
        <time>2026-01-20T03:41:38Z</time>
      </trkpt>
      <trkpt lon="76.994137" lat="10.372034">
        <ele>1266.0</ele>
        <time>2026-01-20T03:41:39Z</time>
      </trkpt>
      <trkpt lon="76.994109" lat="10.371928">
        <ele>1264.0</ele>
        <time>2026-01-20T03:41:40Z</time>
      </trkpt>
      <trkpt lon="76.994093" lat="10.371811">
        <ele>1264.0</ele>
        <time>2026-01-20T03:41:41Z</time>
      </trkpt>
      <trkpt lon="76.994095" lat="10.371687">
        <ele>1263.0</ele>
        <time>2026-01-20T03:41:42Z</time>
      </trkpt>
      <trkpt lon="76.994109" lat="10.371559">
        <ele>1262.0</ele>
        <time>2026-01-20T03:41:43Z</time>
      </trkpt>
      <trkpt lon="76.99411" lat="10.371437">
        <ele>1262.0</ele>
        <time>2026-01-20T03:41:44Z</time>
      </trkpt>
      <trkpt lon="76.994108" lat="10.371315">
        <ele>1261.0</ele>
        <time>2026-01-20T03:41:45Z</time>
      </trkpt>
      <trkpt lon="76.994102" lat="10.371195">
        <ele>1260.0</ele>
        <time>2026-01-20T03:41:46Z</time>
      </trkpt>
      <trkpt lon="76.994079" lat="10.371076">
        <ele>1259.0</ele>
        <time>2026-01-20T03:41:47Z</time>
      </trkpt>
      <trkpt lon="76.994063" lat="10.370965">
        <ele>1258.0</ele>
        <time>2026-01-20T03:41:48Z</time>
      </trkpt>
      <trkpt lon="76.994031" lat="10.370848">
        <ele>1258.0</ele>
        <time>2026-01-20T03:41:49Z</time>
      </trkpt>
      <trkpt lon="76.994009" lat="10.370725">
        <ele>1258.0</ele>
        <time>2026-01-20T03:41:50Z</time>
      </trkpt>
      <trkpt lon="76.994016" lat="10.370608">
        <ele>1258.0</ele>
        <time>2026-01-20T03:41:51Z</time>
      </trkpt>
      <trkpt lon="76.994013" lat="10.370493">
        <ele>1257.0</ele>
        <time>2026-01-20T03:41:52Z</time>
      </trkpt>
      <trkpt lon="76.994011" lat="10.370397">
        <ele>1258.0</ele>
        <time>2026-01-20T03:41:53Z</time>
      </trkpt>
      <trkpt lon="76.993996" lat="10.370306">
        <ele>1257.0</ele>
        <time>2026-01-20T03:41:54Z</time>
      </trkpt>
      <trkpt lon="76.993903" lat="10.370152">
        <ele>1257.0</ele>
        <time>2026-01-20T03:41:56Z</time>
      </trkpt>
      <trkpt lon="76.993803" lat="10.370053">
        <ele>1256.0</ele>
        <time>2026-01-20T03:41:58Z</time>
      </trkpt>
      <trkpt lon="76.993705" lat="10.369995">
        <ele>1255.0</ele>
        <time>2026-01-20T03:42:00Z</time>
      </trkpt>
      <trkpt lon="76.993602" lat="10.369996">
        <ele>1253.0</ele>
        <time>2026-01-20T03:42:03Z</time>
      </trkpt>
      <trkpt lon="76.993648" lat="10.370081">
        <ele>1252.0</ele>
        <time>2026-01-20T03:42:06Z</time>
      </trkpt>
      <trkpt lon="76.993759" lat="10.370143">
        <ele>1251.0</ele>
        <time>2026-01-20T03:42:08Z</time>
      </trkpt>
      <trkpt lon="76.99385" lat="10.37024">
        <ele>1251.0</ele>
        <time>2026-01-20T03:42:10Z</time>
      </trkpt>
      <trkpt lon="76.993859" lat="10.370395">
        <ele>1251.0</ele>
        <time>2026-01-20T03:42:12Z</time>
      </trkpt>
      <trkpt lon="76.993826" lat="10.370565">
        <ele>1251.0</ele>
        <time>2026-01-20T03:42:14Z</time>
      </trkpt>
      <trkpt lon="76.993802" lat="10.370657">
        <ele>1250.0</ele>
        <time>2026-01-20T03:42:15Z</time>
      </trkpt>
      <trkpt lon="76.993778" lat="10.370757">
        <ele>1251.0</ele>
        <time>2026-01-20T03:42:16Z</time>
      </trkpt>
      <trkpt lon="76.993769" lat="10.370875">
        <ele>1250.0</ele>
        <time>2026-01-20T03:42:17Z</time>
      </trkpt>
      <trkpt lon="76.993771" lat="10.370979">
        <ele>1249.0</ele>
        <time>2026-01-20T03:42:18Z</time>
      </trkpt>
      <trkpt lon="76.993765" lat="10.371086">
        <ele>1250.0</ele>
        <time>2026-01-20T03:42:19Z</time>
      </trkpt>
      <trkpt lon="76.993762" lat="10.371189">
        <ele>1249.0</ele>
        <time>2026-01-20T03:42:20Z</time>
      </trkpt>
      <trkpt lon="76.993743" lat="10.371296">
        <ele>1249.0</ele>
        <time>2026-01-20T03:42:21Z</time>
      </trkpt>
      <trkpt lon="76.993736" lat="10.371394">
        <ele>1248.0</ele>
        <time>2026-01-20T03:42:22Z</time>
      </trkpt>
      <trkpt lon="76.993716" lat="10.371507">
        <ele>1247.0</ele>
        <time>2026-01-20T03:42:23Z</time>
      </trkpt>
      <trkpt lon="76.993682" lat="10.371611">
        <ele>1246.0</ele>
        <time>2026-01-20T03:42:24Z</time>
      </trkpt>
      <trkpt lon="76.993647" lat="10.371715">
        <ele>1245.0</ele>
        <time>2026-01-20T03:42:25Z</time>
      </trkpt>
      <trkpt lon="76.993616" lat="10.371804">
        <ele>1244.0</ele>
        <time>2026-01-20T03:42:26Z</time>
      </trkpt>
      <trkpt lon="76.993556" lat="10.371896">
        <ele>1244.0</ele>
        <time>2026-01-20T03:42:27Z</time>
      </trkpt>
      <trkpt lon="76.993508" lat="10.37198">
        <ele>1244.0</ele>
        <time>2026-01-20T03:42:28Z</time>
      </trkpt>
      <trkpt lon="76.993413" lat="10.372122">
        <ele>1242.0</ele>
        <time>2026-01-20T03:42:30Z</time>
      </trkpt>
      <trkpt lon="76.993364" lat="10.372256">
        <ele>1241.0</ele>
        <time>2026-01-20T03:42:32Z</time>
      </trkpt>
      <trkpt lon="76.993366" lat="10.372348">
        <ele>1240.0</ele>
        <time>2026-01-20T03:42:34Z</time>
      </trkpt>
      <trkpt lon="76.993324" lat="10.372216">
        <ele>1234.0</ele>
        <time>2026-01-20T03:42:39Z</time>
      </trkpt>
      <trkpt lon="76.993334" lat="10.37212">
        <ele>1234.0</ele>
        <time>2026-01-20T03:42:40Z</time>
      </trkpt>
      <trkpt lon="76.99336" lat="10.372033">
        <ele>1234.0</ele>
        <time>2026-01-20T03:42:41Z</time>
      </trkpt>
      <trkpt lon="76.993426" lat="10.371868">
        <ele>1232.0</ele>
        <time>2026-01-20T03:42:43Z</time>
      </trkpt>
      <trkpt lon="76.993463" lat="10.371777">
        <ele>1231.0</ele>
        <time>2026-01-20T03:42:44Z</time>
      </trkpt>
      <trkpt lon="76.993497" lat="10.371688">
        <ele>1231.0</ele>
        <time>2026-01-20T03:42:45Z</time>
      </trkpt>
      <trkpt lon="76.993531" lat="10.371594">
        <ele>1231.0</ele>
        <time>2026-01-20T03:42:46Z</time>
      </trkpt>
      <trkpt lon="76.993558" lat="10.371491">
        <ele>1231.0</ele>
        <time>2026-01-20T03:42:47Z</time>
      </trkpt>
      <trkpt lon="76.993582" lat="10.371379">
        <ele>1230.0</ele>
        <time>2026-01-20T03:42:48Z</time>
      </trkpt>
      <trkpt lon="76.993598" lat="10.37127">
        <ele>1230.0</ele>
        <time>2026-01-20T03:42:49Z</time>
      </trkpt>
      <trkpt lon="76.993618" lat="10.371164">
        <ele>1229.0</ele>
        <time>2026-01-20T03:42:50Z</time>
      </trkpt>
      <trkpt lon="76.993631" lat="10.371063">
        <ele>1229.0</ele>
        <time>2026-01-20T03:42:51Z</time>
      </trkpt>
      <trkpt lon="76.993649" lat="10.370966">
        <ele>1228.0</ele>
        <time>2026-01-20T03:42:52Z</time>
      </trkpt>
      <trkpt lon="76.993658" lat="10.370873">
        <ele>1228.0</ele>
        <time>2026-01-20T03:42:53Z</time>
      </trkpt>
      <trkpt lon="76.993662" lat="10.370775">
        <ele>1228.0</ele>
        <time>2026-01-20T03:42:54Z</time>
      </trkpt>
      <trkpt lon="76.993633" lat="10.370616">
        <ele>1227.0</ele>
        <time>2026-01-20T03:42:56Z</time>
      </trkpt>
      <trkpt lon="76.99359" lat="10.370524">
        <ele>1227.0</ele>
        <time>2026-01-20T03:42:57Z</time>
      </trkpt>
      <trkpt lon="76.993546" lat="10.370442">
        <ele>1226.0</ele>
        <time>2026-01-20T03:42:58Z</time>
      </trkpt>
      <trkpt lon="76.99349" lat="10.370366">
        <ele>1226.0</ele>
        <time>2026-01-20T03:42:59Z</time>
      </trkpt>
      <trkpt lon="76.993403" lat="10.3703">
        <ele>1225.0</ele>
        <time>2026-01-20T03:43:00Z</time>
      </trkpt>
      <trkpt lon="76.993304" lat="10.370257">
        <ele>1224.0</ele>
        <time>2026-01-20T03:43:01Z</time>
      </trkpt>
      <trkpt lon="76.993213" lat="10.370226">
        <ele>1223.0</ele>
        <time>2026-01-20T03:43:02Z</time>
      </trkpt>
      <trkpt lon="76.99306" lat="10.370132">
        <ele>1222.0</ele>
        <time>2026-01-20T03:43:04Z</time>
      </trkpt>
      <trkpt lon="76.992939" lat="10.369994">
        <ele>1220.0</ele>
        <time>2026-01-20T03:43:06Z</time>
      </trkpt>
      <trkpt lon="76.992885" lat="10.369917">
        <ele>1220.0</ele>
        <time>2026-01-20T03:43:07Z</time>
      </trkpt>
      <trkpt lon="76.992838" lat="10.36983">
        <ele>1220.0</ele>
        <time>2026-01-20T03:43:08Z</time>
      </trkpt>
      <trkpt lon="76.992788" lat="10.369721">
        <ele>1220.0</ele>
        <time>2026-01-20T03:43:09Z</time>
      </trkpt>
      <trkpt lon="76.992735" lat="10.369616">
        <ele>1220.0</ele>
        <time>2026-01-20T03:43:10Z</time>
      </trkpt>
      <trkpt lon="76.992702" lat="10.369502">
        <ele>1218.0</ele>
        <time>2026-01-20T03:43:11Z</time>
      </trkpt>
      <trkpt lon="76.992691" lat="10.369386">
        <ele>1217.0</ele>
        <time>2026-01-20T03:43:12Z</time>
      </trkpt>
      <trkpt lon="76.992687" lat="10.369286">
        <ele>1215.0</ele>
        <time>2026-01-20T03:43:13Z</time>
      </trkpt>
      <trkpt lon="76.992687" lat="10.369176">
        <ele>1214.0</ele>
        <time>2026-01-20T03:43:14Z</time>
      </trkpt>
      <trkpt lon="76.992684" lat="10.36907">
        <ele>1213.0</ele>
        <time>2026-01-20T03:43:15Z</time>
      </trkpt>
      <trkpt lon="76.992674" lat="10.368958">
        <ele>1214.0</ele>
        <time>2026-01-20T03:43:16Z</time>
      </trkpt>
      <trkpt lon="76.992678" lat="10.368847">
        <ele>1213.0</ele>
        <time>2026-01-20T03:43:17Z</time>
      </trkpt>
      <trkpt lon="76.992694" lat="10.368754">
        <ele>1212.0</ele>
        <time>2026-01-20T03:43:18Z</time>
      </trkpt>
      <trkpt lon="76.992735" lat="10.368671">
        <ele>1212.0</ele>
        <time>2026-01-20T03:43:19Z</time>
      </trkpt>
      <trkpt lon="76.992809" lat="10.368597">
        <ele>1210.0</ele>
        <time>2026-01-20T03:43:20Z</time>
      </trkpt>
      <trkpt lon="76.992897" lat="10.368515">
        <ele>1208.0</ele>
        <time>2026-01-20T03:43:21Z</time>
      </trkpt>
      <trkpt lon="76.992981" lat="10.368455">
        <ele>1208.0</ele>
        <time>2026-01-20T03:43:22Z</time>
      </trkpt>
      <trkpt lon="76.993124" lat="10.368413">
        <ele>1204.0</ele>
        <time>2026-01-20T03:43:23Z</time>
      </trkpt>
      <trkpt lon="76.993264" lat="10.368353">
        <ele>1201.0</ele>
        <time>2026-01-20T03:43:24Z</time>
      </trkpt>
      <trkpt lon="76.993409" lat="10.368325">
        <ele>1201.0</ele>
        <time>2026-01-20T03:43:25Z</time>
      </trkpt>
      <trkpt lon="76.993529" lat="10.368316">
        <ele>1200.0</ele>
        <time>2026-01-20T03:43:26Z</time>
      </trkpt>
      <trkpt lon="76.993646" lat="10.368317">
        <ele>1200.0</ele>
        <time>2026-01-20T03:43:27Z</time>
      </trkpt>
      <trkpt lon="76.993818" lat="10.368322">
        <ele>1201.0</ele>
        <time>2026-01-20T03:43:29Z</time>
      </trkpt>
      <trkpt lon="76.993944" lat="10.368334">
        <ele>1202.0</ele>
        <time>2026-01-20T03:43:31Z</time>
      </trkpt>
      <trkpt lon="76.994021" lat="10.368278">
        <ele>1203.0</ele>
        <time>2026-01-20T03:43:33Z</time>
      </trkpt>
      <trkpt lon="76.993898" lat="10.368208">
        <ele>1201.0</ele>
        <time>2026-01-20T03:43:37Z</time>
      </trkpt>
      <trkpt lon="76.993807" lat="10.368198">
        <ele>1201.0</ele>
        <time>2026-01-20T03:43:38Z</time>
      </trkpt>
      <trkpt lon="76.993628" lat="10.368195">
        <ele>1201.0</ele>
        <time>2026-01-20T03:43:40Z</time>
      </trkpt>
      <trkpt lon="76.99353" lat="10.368193">
        <ele>1202.0</ele>
        <time>2026-01-20T03:43:41Z</time>
      </trkpt>
      <trkpt lon="76.993424" lat="10.368208">
        <ele>1201.0</ele>
        <time>2026-01-20T03:43:42Z</time>
      </trkpt>
      <trkpt lon="76.993316" lat="10.368216">
        <ele>1201.0</ele>
        <time>2026-01-20T03:43:43Z</time>
      </trkpt>
      <trkpt lon="76.993206" lat="10.368231">
        <ele>1201.0</ele>
        <time>2026-01-20T03:43:44Z</time>
      </trkpt>
      <trkpt lon="76.993099" lat="10.368263">
        <ele>1201.0</ele>
        <time>2026-01-20T03:43:45Z</time>
      </trkpt>
      <trkpt lon="76.992993" lat="10.368298">
        <ele>1201.0</ele>
        <time>2026-01-20T03:43:46Z</time>
      </trkpt>
      <trkpt lon="76.992888" lat="10.368343">
        <ele>1201.0</ele>
        <time>2026-01-20T03:43:47Z</time>
      </trkpt>
      <trkpt lon="76.992782" lat="10.368397">
        <ele>1201.0</ele>
        <time>2026-01-20T03:43:48Z</time>
      </trkpt>
      <trkpt lon="76.992688" lat="10.368449">
        <ele>1201.0</ele>
        <time>2026-01-20T03:43:49Z</time>
      </trkpt>
      <trkpt lon="76.99259" lat="10.368508">
        <ele>1200.0</ele>
        <time>2026-01-20T03:43:50Z</time>
      </trkpt>
      <trkpt lon="76.992509" lat="10.368581">
        <ele>1200.0</ele>
        <time>2026-01-20T03:43:51Z</time>
      </trkpt>
      <trkpt lon="76.992445" lat="10.368674">
        <ele>1199.0</ele>
        <time>2026-01-20T03:43:52Z</time>
      </trkpt>
      <trkpt lon="76.99241" lat="10.368776">
        <ele>1199.0</ele>
        <time>2026-01-20T03:43:53Z</time>
      </trkpt>
      <trkpt lon="76.992384" lat="10.368885">
        <ele>1199.0</ele>
        <time>2026-01-20T03:43:54Z</time>
      </trkpt>
      <trkpt lon="76.992364" lat="10.369008">
        <ele>1198.0</ele>
        <time>2026-01-20T03:43:55Z</time>
      </trkpt>
      <trkpt lon="76.99232" lat="10.369103">
        <ele>1198.0</ele>
        <time>2026-01-20T03:43:56Z</time>
      </trkpt>
      <trkpt lon="76.992258" lat="10.369197">
        <ele>1197.0</ele>
        <time>2026-01-20T03:43:57Z</time>
      </trkpt>
      <trkpt lon="76.992196" lat="10.369294">
        <ele>1197.0</ele>
        <time>2026-01-20T03:43:58Z</time>
      </trkpt>
      <trkpt lon="76.992117" lat="10.369377">
        <ele>1196.0</ele>
        <time>2026-01-20T03:43:59Z</time>
      </trkpt>
      <trkpt lon="76.992041" lat="10.369456">
        <ele>1195.0</ele>
        <time>2026-01-20T03:44:00Z</time>
      </trkpt>
      <trkpt lon="76.991988" lat="10.36954">
        <ele>1195.0</ele>
        <time>2026-01-20T03:44:01Z</time>
      </trkpt>
      <trkpt lon="76.991908" lat="10.369677">
        <ele>1195.0</ele>
        <time>2026-01-20T03:44:03Z</time>
      </trkpt>
      <trkpt lon="76.991875" lat="10.369774">
        <ele>1193.0</ele>
        <time>2026-01-20T03:44:05Z</time>
      </trkpt>
      <trkpt lon="76.991771" lat="10.369789">
        <ele>1191.0</ele>
        <time>2026-01-20T03:44:09Z</time>
      </trkpt>
      <trkpt lon="76.991734" lat="10.369659">
        <ele>1185.0</ele>
        <time>2026-01-20T03:44:11Z</time>
      </trkpt>
      <trkpt lon="76.991801" lat="10.369488">
        <ele>1184.0</ele>
        <time>2026-01-20T03:44:13Z</time>
      </trkpt>
      <trkpt lon="76.991867" lat="10.369411">
        <ele>1184.0</ele>
        <time>2026-01-20T03:44:14Z</time>
      </trkpt>
      <trkpt lon="76.991936" lat="10.369337">
        <ele>1184.0</ele>
        <time>2026-01-20T03:44:15Z</time>
      </trkpt>
      <trkpt lon="76.992011" lat="10.36926">
        <ele>1184.0</ele>
        <time>2026-01-20T03:44:16Z</time>
      </trkpt>
      <trkpt lon="76.992084" lat="10.369186">
        <ele>1183.0</ele>
        <time>2026-01-20T03:44:17Z</time>
      </trkpt>
      <trkpt lon="76.992143" lat="10.36911">
        <ele>1183.0</ele>
        <time>2026-01-20T03:44:18Z</time>
      </trkpt>
      <trkpt lon="76.99223" lat="10.368948">
        <ele>1182.0</ele>
        <time>2026-01-20T03:44:20Z</time>
      </trkpt>
      <trkpt lon="76.992262" lat="10.368863">
        <ele>1182.0</ele>
        <time>2026-01-20T03:44:21Z</time>
      </trkpt>
      <trkpt lon="76.992244" lat="10.368689">
        <ele>1180.0</ele>
        <time>2026-01-20T03:44:23Z</time>
      </trkpt>
      <trkpt lon="76.992192" lat="10.368529">
        <ele>1179.0</ele>
        <time>2026-01-20T03:44:25Z</time>
      </trkpt>
      <trkpt lon="76.992168" lat="10.368371">
        <ele>1177.0</ele>
        <time>2026-01-20T03:44:27Z</time>
      </trkpt>
      <trkpt lon="76.992226" lat="10.368215">
        <ele>1176.0</ele>
        <time>2026-01-20T03:44:29Z</time>
      </trkpt>
      <trkpt lon="76.992304" lat="10.368147">
        <ele>1176.0</ele>
        <time>2026-01-20T03:44:30Z</time>
      </trkpt>
      <trkpt lon="76.99237" lat="10.368071">
        <ele>1175.0</ele>
        <time>2026-01-20T03:44:31Z</time>
      </trkpt>
      <trkpt lon="76.99245" lat="10.368001">
        <ele>1175.0</ele>
        <time>2026-01-20T03:44:32Z</time>
      </trkpt>
      <trkpt lon="76.992532" lat="10.367935">
        <ele>1174.0</ele>
        <time>2026-01-20T03:44:33Z</time>
      </trkpt>
      <trkpt lon="76.992621" lat="10.367868">
        <ele>1174.0</ele>
        <time>2026-01-20T03:44:34Z</time>
      </trkpt>
      <trkpt lon="76.992715" lat="10.36781">
        <ele>1174.0</ele>
        <time>2026-01-20T03:44:35Z</time>
      </trkpt>
      <trkpt lon="76.992807" lat="10.36775">
        <ele>1174.0</ele>
        <time>2026-01-20T03:44:36Z</time>
      </trkpt>
      <trkpt lon="76.992902" lat="10.367696">
        <ele>1173.0</ele>
        <time>2026-01-20T03:44:37Z</time>
      </trkpt>
      <trkpt lon="76.993001" lat="10.367646">
        <ele>1173.0</ele>
        <time>2026-01-20T03:44:38Z</time>
      </trkpt>
      <trkpt lon="76.993096" lat="10.3676">
        <ele>1173.0</ele>
        <time>2026-01-20T03:44:39Z</time>
      </trkpt>
      <trkpt lon="76.993187" lat="10.367556">
        <ele>1173.0</ele>
        <time>2026-01-20T03:44:40Z</time>
      </trkpt>
      <trkpt lon="76.993279" lat="10.367521">
        <ele>1173.0</ele>
        <time>2026-01-20T03:44:41Z</time>
      </trkpt>
      <trkpt lon="76.993378" lat="10.367499">
        <ele>1172.0</ele>
        <time>2026-01-20T03:44:42Z</time>
      </trkpt>
      <trkpt lon="76.993469" lat="10.367482">
        <ele>1171.0</ele>
        <time>2026-01-20T03:44:43Z</time>
      </trkpt>
      <trkpt lon="76.993626" lat="10.367478">
        <ele>1170.0</ele>
        <time>2026-01-20T03:44:45Z</time>
      </trkpt>
      <trkpt lon="76.993732" lat="10.367512">
        <ele>1170.0</ele>
        <time>2026-01-20T03:44:47Z</time>
      </trkpt>
      <trkpt lon="76.993818" lat="10.367546">
        <ele>1169.0</ele>
        <time>2026-01-20T03:44:49Z</time>
      </trkpt>
      <trkpt lon="76.993909" lat="10.367583">
        <ele>1169.0</ele>
        <time>2026-01-20T03:44:51Z</time>
      </trkpt>
      <trkpt lon="76.994032" lat="10.36756">
        <ele>1170.0</ele>
        <time>2026-01-20T03:44:54Z</time>
      </trkpt>
      <trkpt lon="76.994047" lat="10.367464">
        <ele>1170.0</ele>
        <time>2026-01-20T03:44:56Z</time>
      </trkpt>
      <trkpt lon="76.993958" lat="10.367378">
        <ele>1169.0</ele>
        <time>2026-01-20T03:44:58Z</time>
      </trkpt>
      <trkpt lon="76.993799" lat="10.367318">
        <ele>1167.0</ele>
        <time>2026-01-20T03:45:00Z</time>
      </trkpt>
      <trkpt lon="76.993619" lat="10.367275">
        <ele>1166.0</ele>
        <time>2026-01-20T03:45:02Z</time>
      </trkpt>
      <trkpt lon="76.993524" lat="10.367261">
        <ele>1167.0</ele>
        <time>2026-01-20T03:45:03Z</time>
      </trkpt>
      <trkpt lon="76.993423" lat="10.367266">
        <ele>1166.0</ele>
        <time>2026-01-20T03:45:04Z</time>
      </trkpt>
      <trkpt lon="76.993325" lat="10.367285">
        <ele>1165.0</ele>
        <time>2026-01-20T03:45:05Z</time>
      </trkpt>
      <trkpt lon="76.993228" lat="10.367315">
        <ele>1164.0</ele>
        <time>2026-01-20T03:45:06Z</time>
      </trkpt>
      <trkpt lon="76.993125" lat="10.367345">
        <ele>1163.0</ele>
        <time>2026-01-20T03:45:07Z</time>
      </trkpt>
      <trkpt lon="76.993021" lat="10.36737">
        <ele>1163.0</ele>
        <time>2026-01-20T03:45:08Z</time>
      </trkpt>
      <trkpt lon="76.992924" lat="10.367386">
        <ele>1163.0</ele>
        <time>2026-01-20T03:45:09Z</time>
      </trkpt>
      <trkpt lon="76.992828" lat="10.367396">
        <ele>1162.0</ele>
        <time>2026-01-20T03:45:10Z</time>
      </trkpt>
      <trkpt lon="76.992733" lat="10.367406">
        <ele>1162.0</ele>
        <time>2026-01-20T03:45:11Z</time>
      </trkpt>
      <trkpt lon="76.992566" lat="10.367443">
        <ele>1160.0</ele>
        <time>2026-01-20T03:45:13Z</time>
      </trkpt>
      <trkpt lon="76.992411" lat="10.367497">
        <ele>1159.0</ele>
        <time>2026-01-20T03:45:15Z</time>
      </trkpt>
      <trkpt lon="76.992264" lat="10.36752">
        <ele>1159.0</ele>
        <time>2026-01-20T03:45:17Z</time>
      </trkpt>
      <trkpt lon="76.992162" lat="10.367468">
        <ele>1158.0</ele>
        <time>2026-01-20T03:45:20Z</time>
      </trkpt>
      <trkpt lon="76.992111" lat="10.367385">
        <ele>1157.0</ele>
        <time>2026-01-20T03:45:23Z</time>
      </trkpt>
      <trkpt lon="76.992075" lat="10.367301">
        <ele>1157.0</ele>
        <time>2026-01-20T03:45:26Z</time>
      </trkpt>
      <trkpt lon="76.992033" lat="10.367392">
        <ele>1171.0</ele>
        <time>2026-01-20T04:34:47Z</time>
      </trkpt>
      <trkpt lon="76.9921" lat="10.367485">
        <ele>1171.0</ele>
        <time>2026-01-20T04:34:49Z</time>
      </trkpt>
      <trkpt lon="76.992201" lat="10.367537">
        <ele>1171.0</ele>
        <time>2026-01-20T04:34:51Z</time>
      </trkpt>
      <trkpt lon="76.992305" lat="10.367538">
        <ele>1171.0</ele>
        <time>2026-01-20T04:34:53Z</time>
      </trkpt>
      <trkpt lon="76.992429" lat="10.367524">
        <ele>1171.0</ele>
        <time>2026-01-20T04:34:55Z</time>
      </trkpt>
      <trkpt lon="76.99255" lat="10.367485">
        <ele>1171.0</ele>
        <time>2026-01-20T04:34:57Z</time>
      </trkpt>
      <trkpt lon="76.992702" lat="10.367446">
        <ele>1171.0</ele>
        <time>2026-01-20T04:34:59Z</time>
      </trkpt>
      <trkpt lon="76.992891" lat="10.36742">
        <ele>1171.0</ele>
        <time>2026-01-20T04:35:01Z</time>
      </trkpt>
      <trkpt lon="76.992989" lat="10.367408">
        <ele>1171.0</ele>
        <time>2026-01-20T04:35:02Z</time>
      </trkpt>
      <trkpt lon="76.993087" lat="10.367391">
        <ele>1171.0</ele>
        <time>2026-01-20T04:35:03Z</time>
      </trkpt>
      <trkpt lon="76.993183" lat="10.367366">
        <ele>1171.0</ele>
        <time>2026-01-20T04:35:04Z</time>
      </trkpt>
      <trkpt lon="76.993276" lat="10.367343">
        <ele>1171.0</ele>
        <time>2026-01-20T04:35:05Z</time>
      </trkpt>
      <trkpt lon="76.993372" lat="10.367331">
        <ele>1171.0</ele>
        <time>2026-01-20T04:35:06Z</time>
      </trkpt>
      <trkpt lon="76.99347" lat="10.367337">
        <ele>1171.0</ele>
        <time>2026-01-20T04:35:07Z</time>
      </trkpt>
      <trkpt lon="76.993571" lat="10.367353">
        <ele>1171.0</ele>
        <time>2026-01-20T04:35:08Z</time>
      </trkpt>
      <trkpt lon="76.993668" lat="10.367375">
        <ele>1171.0</ele>
        <time>2026-01-20T04:35:09Z</time>
      </trkpt>
      <trkpt lon="76.993759" lat="10.367391">
        <ele>1171.0</ele>
        <time>2026-01-20T04:35:10Z</time>
      </trkpt>
      <trkpt lon="76.993901" lat="10.367429">
        <ele>1171.0</ele>
        <time>2026-01-20T04:35:12Z</time>
      </trkpt>
      <trkpt lon="76.993973" lat="10.367484">
        <ele>1171.0</ele>
        <time>2026-01-20T04:35:14Z</time>
      </trkpt>
      <trkpt lon="76.993922" lat="10.367573">
        <ele>1171.0</ele>
        <time>2026-01-20T04:35:17Z</time>
      </trkpt>
      <trkpt lon="76.993808" lat="10.367539">
        <ele>1171.0</ele>
        <time>2026-01-20T04:35:19Z</time>
      </trkpt>
      <trkpt lon="76.993666" lat="10.367506">
        <ele>1171.0</ele>
        <time>2026-01-20T04:35:21Z</time>
      </trkpt>
      <trkpt lon="76.993493" lat="10.367502">
        <ele>1171.0</ele>
        <time>2026-01-20T04:35:23Z</time>
      </trkpt>
      <trkpt lon="76.993401" lat="10.367519">
        <ele>1171.0</ele>
        <time>2026-01-20T04:35:24Z</time>
      </trkpt>
      <trkpt lon="76.993301" lat="10.367546">
        <ele>1171.0</ele>
        <time>2026-01-20T04:35:25Z</time>
      </trkpt>
      <trkpt lon="76.993195" lat="10.367583">
        <ele>1171.0</ele>
        <time>2026-01-20T04:35:26Z</time>
      </trkpt>
      <trkpt lon="76.993103" lat="10.367624">
        <ele>1171.0</ele>
        <time>2026-01-20T04:35:27Z</time>
      </trkpt>
      <trkpt lon="76.993001" lat="10.367671">
        <ele>1171.0</ele>
        <time>2026-01-20T04:35:28Z</time>
      </trkpt>
      <trkpt lon="76.992898" lat="10.367721">
        <ele>1171.0</ele>
        <time>2026-01-20T04:35:29Z</time>
      </trkpt>
      <trkpt lon="76.992801" lat="10.367765">
        <ele>1171.0</ele>
        <time>2026-01-20T04:35:30Z</time>
      </trkpt>
      <trkpt lon="76.992718" lat="10.367811">
        <ele>1171.0</ele>
        <time>2026-01-20T04:35:31Z</time>
      </trkpt>
      <trkpt lon="76.992631" lat="10.367861">
        <ele>1171.0</ele>
        <time>2026-01-20T04:35:32Z</time>
      </trkpt>
      <trkpt lon="76.992551" lat="10.367916">
        <ele>1171.0</ele>
        <time>2026-01-20T04:35:33Z</time>
      </trkpt>
      <trkpt lon="76.992473" lat="10.367971">
        <ele>1171.0</ele>
        <time>2026-01-20T04:35:34Z</time>
      </trkpt>
      <trkpt lon="76.992396" lat="10.368037">
        <ele>1171.0</ele>
        <time>2026-01-20T04:35:35Z</time>
      </trkpt>
      <trkpt lon="76.992322" lat="10.368107">
        <ele>1171.0</ele>
        <time>2026-01-20T04:35:36Z</time>
      </trkpt>
      <trkpt lon="76.99225" lat="10.368186">
        <ele>1171.0</ele>
        <time>2026-01-20T04:35:37Z</time>
      </trkpt>
      <trkpt lon="76.992189" lat="10.36827">
        <ele>1171.0</ele>
        <time>2026-01-20T04:35:38Z</time>
      </trkpt>
      <trkpt lon="76.992143" lat="10.36835">
        <ele>1171.0</ele>
        <time>2026-01-20T04:35:39Z</time>
      </trkpt>
      <trkpt lon="76.992109" lat="10.368515">
        <ele>1171.0</ele>
        <time>2026-01-20T04:35:41Z</time>
      </trkpt>
      <trkpt lon="76.992156" lat="10.368682">
        <ele>1171.0</ele>
        <time>2026-01-20T04:35:43Z</time>
      </trkpt>
      <trkpt lon="76.992191" lat="10.368853">
        <ele>1171.0</ele>
        <time>2026-01-20T04:35:45Z</time>
      </trkpt>
      <trkpt lon="76.992151" lat="10.369024">
        <ele>1171.0</ele>
        <time>2026-01-20T04:35:47Z</time>
      </trkpt>
      <trkpt lon="76.992111" lat="10.36911">
        <ele>1171.0</ele>
        <time>2026-01-20T04:35:48Z</time>
      </trkpt>
      <trkpt lon="76.992049" lat="10.369193">
        <ele>1171.0</ele>
        <time>2026-01-20T04:35:49Z</time>
      </trkpt>
      <trkpt lon="76.99199" lat="10.369274">
        <ele>1171.0</ele>
        <time>2026-01-20T04:35:50Z</time>
      </trkpt>
      <trkpt lon="76.991912" lat="10.369358">
        <ele>1171.0</ele>
        <time>2026-01-20T04:35:51Z</time>
      </trkpt>
      <trkpt lon="76.991846" lat="10.369433">
        <ele>1171.0</ele>
        <time>2026-01-20T04:35:52Z</time>
      </trkpt>
      <trkpt lon="76.991783" lat="10.369509">
        <ele>1171.0</ele>
        <time>2026-01-20T04:35:53Z</time>
      </trkpt>
      <trkpt lon="76.991721" lat="10.369644">
        <ele>1171.0</ele>
        <time>2026-01-20T04:35:55Z</time>
      </trkpt>
      <trkpt lon="76.991725" lat="10.369791">
        <ele>1171.0</ele>
        <time>2026-01-20T04:35:57Z</time>
      </trkpt>
      <trkpt lon="76.991788" lat="10.369878">
        <ele>1171.0</ele>
        <time>2026-01-20T04:35:59Z</time>
      </trkpt>
      <trkpt lon="76.991883" lat="10.369832">
        <ele>1171.0</ele>
        <time>2026-01-20T04:36:01Z</time>
      </trkpt>
      <trkpt lon="76.991957" lat="10.369691">
        <ele>1184.0</ele>
        <time>2026-01-20T04:36:03Z</time>
      </trkpt>
      <trkpt lon="76.992049" lat="10.369524">
        <ele>1185.0</ele>
        <time>2026-01-20T04:36:05Z</time>
      </trkpt>
      <trkpt lon="76.992103" lat="10.369441">
        <ele>1186.0</ele>
        <time>2026-01-20T04:36:06Z</time>
      </trkpt>
      <trkpt lon="76.992233" lat="10.369331">
        <ele>1186.0</ele>
        <time>2026-01-20T04:36:08Z</time>
      </trkpt>
      <trkpt lon="76.992371" lat="10.369207">
        <ele>1186.0</ele>
        <time>2026-01-20T04:36:10Z</time>
      </trkpt>
      <trkpt lon="76.992454" lat="10.369055">
        <ele>1186.0</ele>
        <time>2026-01-20T04:36:12Z</time>
      </trkpt>
      <trkpt lon="76.992469" lat="10.368965">
        <ele>1187.0</ele>
        <time>2026-01-20T04:36:13Z</time>
      </trkpt>
      <trkpt lon="76.992488" lat="10.368868">
        <ele>1187.0</ele>
        <time>2026-01-20T04:36:14Z</time>
      </trkpt>
      <trkpt lon="76.992506" lat="10.368757">
        <ele>1189.0</ele>
        <time>2026-01-20T04:36:15Z</time>
      </trkpt>
      <trkpt lon="76.99254" lat="10.368661">
        <ele>1189.0</ele>
        <time>2026-01-20T04:36:16Z</time>
      </trkpt>
      <trkpt lon="76.99258" lat="10.368575">
        <ele>1190.0</ele>
        <time>2026-01-20T04:36:17Z</time>
      </trkpt>
      <trkpt lon="76.992648" lat="10.368495">
        <ele>1190.0</ele>
        <time>2026-01-20T04:36:18Z</time>
      </trkpt>
      <trkpt lon="76.992725" lat="10.368434">
        <ele>1190.0</ele>
        <time>2026-01-20T04:36:19Z</time>
      </trkpt>
      <trkpt lon="76.992815" lat="10.368384">
        <ele>1190.0</ele>
        <time>2026-01-20T04:36:20Z</time>
      </trkpt>
      <trkpt lon="76.992913" lat="10.368346">
        <ele>1190.0</ele>
        <time>2026-01-20T04:36:21Z</time>
      </trkpt>
      <trkpt lon="76.993007" lat="10.368305">
        <ele>1191.0</ele>
        <time>2026-01-20T04:36:22Z</time>
      </trkpt>
      <trkpt lon="76.993107" lat="10.368277">
        <ele>1191.0</ele>
        <time>2026-01-20T04:36:23Z</time>
      </trkpt>
      <trkpt lon="76.993216" lat="10.368256">
        <ele>1192.0</ele>
        <time>2026-01-20T04:36:24Z</time>
      </trkpt>
      <trkpt lon="76.993328" lat="10.368249">
        <ele>1193.0</ele>
        <time>2026-01-20T04:36:25Z</time>
      </trkpt>
      <trkpt lon="76.993435" lat="10.368254">
        <ele>1193.0</ele>
        <time>2026-01-20T04:36:26Z</time>
      </trkpt>
      <trkpt lon="76.993531" lat="10.368253">
        <ele>1194.0</ele>
        <time>2026-01-20T04:36:27Z</time>
      </trkpt>
      <trkpt lon="76.993639" lat="10.368254">
        <ele>1195.0</ele>
        <time>2026-01-20T04:36:28Z</time>
      </trkpt>
      <trkpt lon="76.993737" lat="10.368251">
        <ele>1196.0</ele>
        <time>2026-01-20T04:36:29Z</time>
      </trkpt>
      <trkpt lon="76.993885" lat="10.368241">
        <ele>1199.0</ele>
        <time>2026-01-20T04:36:31Z</time>
      </trkpt>
      <trkpt lon="76.994" lat="10.36824">
        <ele>1201.0</ele>
        <time>2026-01-20T04:36:33Z</time>
      </trkpt>
      <trkpt lon="76.994027" lat="10.368346">
        <ele>1202.0</ele>
        <time>2026-01-20T04:36:37Z</time>
      </trkpt>
      <trkpt lon="76.993935" lat="10.368357">
        <ele>1203.0</ele>
        <time>2026-01-20T04:36:39Z</time>
      </trkpt>
      <trkpt lon="76.993813" lat="10.368341">
        <ele>1204.0</ele>
        <time>2026-01-20T04:36:41Z</time>
      </trkpt>
      <trkpt lon="76.993657" lat="10.368361">
        <ele>1203.0</ele>
        <time>2026-01-20T04:36:43Z</time>
      </trkpt>
      <trkpt lon="76.993482" lat="10.368403">
        <ele>1204.0</ele>
        <time>2026-01-20T04:36:45Z</time>
      </trkpt>
      <trkpt lon="76.993395" lat="10.368438">
        <ele>1205.0</ele>
        <time>2026-01-20T04:36:46Z</time>
      </trkpt>
      <trkpt lon="76.993235" lat="10.36851">
        <ele>1206.0</ele>
        <time>2026-01-20T04:36:48Z</time>
      </trkpt>
      <trkpt lon="76.993161" lat="10.368566">
        <ele>1207.0</ele>
        <time>2026-01-20T04:36:49Z</time>
      </trkpt>
      <trkpt lon="76.993083" lat="10.368618">
        <ele>1207.0</ele>
        <time>2026-01-20T04:36:50Z</time>
      </trkpt>
      <trkpt lon="76.993007" lat="10.368699">
        <ele>1208.0</ele>
        <time>2026-01-20T04:36:51Z</time>
      </trkpt>
      <trkpt lon="76.992961" lat="10.368783">
        <ele>1208.0</ele>
        <time>2026-01-20T04:36:52Z</time>
      </trkpt>
      <trkpt lon="76.992923" lat="10.368879">
        <ele>1208.0</ele>
        <time>2026-01-20T04:36:53Z</time>
      </trkpt>
      <trkpt lon="76.992902" lat="10.368976">
        <ele>1208.0</ele>
        <time>2026-01-20T04:36:54Z</time>
      </trkpt>
      <trkpt lon="76.992902" lat="10.369078">
        <ele>1208.0</ele>
        <time>2026-01-20T04:36:55Z</time>
      </trkpt>
      <trkpt lon="76.992893" lat="10.36918">
        <ele>1208.0</ele>
        <time>2026-01-20T04:36:56Z</time>
      </trkpt>
      <trkpt lon="76.992876" lat="10.369273">
        <ele>1209.0</ele>
        <time>2026-01-20T04:36:57Z</time>
      </trkpt>
      <trkpt lon="76.992848" lat="10.369374">
        <ele>1209.0</ele>
        <time>2026-01-20T04:36:58Z</time>
      </trkpt>
      <trkpt lon="76.992822" lat="10.369461">
        <ele>1210.0</ele>
        <time>2026-01-20T04:36:59Z</time>
      </trkpt>
      <trkpt lon="76.992832" lat="10.369561">
        <ele>1209.0</ele>
        <time>2026-01-20T04:37:00Z</time>
      </trkpt>
      <trkpt lon="76.992848" lat="10.369657">
        <ele>1210.0</ele>
        <time>2026-01-20T04:37:01Z</time>
      </trkpt>
      <trkpt lon="76.992867" lat="10.369762">
        <ele>1210.0</ele>
        <time>2026-01-20T04:37:02Z</time>
      </trkpt>
      <trkpt lon="76.992908" lat="10.369871">
        <ele>1211.0</ele>
        <time>2026-01-20T04:37:03Z</time>
      </trkpt>
      <trkpt lon="76.992949" lat="10.369963">
        <ele>1211.0</ele>
        <time>2026-01-20T04:37:04Z</time>
      </trkpt>
      <trkpt lon="76.992995" lat="10.37006">
        <ele>1211.0</ele>
        <time>2026-01-20T04:37:05Z</time>
      </trkpt>
      <trkpt lon="76.993045" lat="10.370142">
        <ele>1212.0</ele>
        <time>2026-01-20T04:37:06Z</time>
      </trkpt>
      <trkpt lon="76.993107" lat="10.370215">
        <ele>1213.0</ele>
        <time>2026-01-20T04:37:07Z</time>
      </trkpt>
      <trkpt lon="76.993187" lat="10.370273">
        <ele>1213.0</ele>
        <time>2026-01-20T04:37:08Z</time>
      </trkpt>
      <trkpt lon="76.993282" lat="10.370315">
        <ele>1212.0</ele>
        <time>2026-01-20T04:37:09Z</time>
      </trkpt>
      <trkpt lon="76.99338" lat="10.370342">
        <ele>1212.0</ele>
        <time>2026-01-20T04:37:10Z</time>
      </trkpt>
      <trkpt lon="76.993509" lat="10.370438">
        <ele>1214.0</ele>
        <time>2026-01-20T04:37:12Z</time>
      </trkpt>
      <trkpt lon="76.993568" lat="10.370608">
        <ele>1213.0</ele>
        <time>2026-01-20T04:37:14Z</time>
      </trkpt>
      <trkpt lon="76.993568" lat="10.370703">
        <ele>1214.0</ele>
        <time>2026-01-20T04:37:15Z</time>
      </trkpt>
      <trkpt lon="76.993573" lat="10.370795">
        <ele>1215.0</ele>
        <time>2026-01-20T04:37:16Z</time>
      </trkpt>
      <trkpt lon="76.99356" lat="10.370896">
        <ele>1216.0</ele>
        <time>2026-01-20T04:37:17Z</time>
      </trkpt>
      <trkpt lon="76.993555" lat="10.370992">
        <ele>1216.0</ele>
        <time>2026-01-20T04:37:18Z</time>
      </trkpt>
      <trkpt lon="76.993543" lat="10.371096">
        <ele>1217.0</ele>
        <time>2026-01-20T04:37:19Z</time>
      </trkpt>
      <trkpt lon="76.993543" lat="10.371201">
        <ele>1217.0</ele>
        <time>2026-01-20T04:37:20Z</time>
      </trkpt>
      <trkpt lon="76.993524" lat="10.371299">
        <ele>1217.0</ele>
        <time>2026-01-20T04:37:21Z</time>
      </trkpt>
      <trkpt lon="76.993504" lat="10.371405">
        <ele>1217.0</ele>
        <time>2026-01-20T04:37:22Z</time>
      </trkpt>
      <trkpt lon="76.993494" lat="10.371513">
        <ele>1217.0</ele>
        <time>2026-01-20T04:37:23Z</time>
      </trkpt>
      <trkpt lon="76.993472" lat="10.371606">
        <ele>1217.0</ele>
        <time>2026-01-20T04:37:24Z</time>
      </trkpt>
      <trkpt lon="76.993433" lat="10.371691">
        <ele>1218.0</ele>
        <time>2026-01-20T04:37:25Z</time>
      </trkpt>
      <trkpt lon="76.993382" lat="10.371782">
        <ele>1219.0</ele>
        <time>2026-01-20T04:37:26Z</time>
      </trkpt>
      <trkpt lon="76.993337" lat="10.371877">
        <ele>1220.0</ele>
        <time>2026-01-20T04:37:27Z</time>
      </trkpt>
      <trkpt lon="76.993286" lat="10.371967">
        <ele>1221.0</ele>
        <time>2026-01-20T04:37:28Z</time>
      </trkpt>
      <trkpt lon="76.993247" lat="10.372139">
        <ele>1223.0</ele>
        <time>2026-01-20T04:37:30Z</time>
      </trkpt>
      <trkpt lon="76.993214" lat="10.372302">
        <ele>1225.0</ele>
        <time>2026-01-20T04:37:32Z</time>
      </trkpt>
      <trkpt lon="76.993248" lat="10.372405">
        <ele>1226.0</ele>
        <time>2026-01-20T04:37:34Z</time>
      </trkpt>
      <trkpt lon="76.993341" lat="10.372378">
        <ele>1225.0</ele>
        <time>2026-01-20T04:37:36Z</time>
      </trkpt>
      <trkpt lon="76.993398" lat="10.372256">
        <ele>1225.0</ele>
        <time>2026-01-20T04:37:38Z</time>
      </trkpt>
      <trkpt lon="76.99347" lat="10.37211">
        <ele>1226.0</ele>
        <time>2026-01-20T04:37:40Z</time>
      </trkpt>
      <trkpt lon="76.993526" lat="10.372031">
        <ele>1227.0</ele>
        <time>2026-01-20T04:37:41Z</time>
      </trkpt>
      <trkpt lon="76.993579" lat="10.371945">
        <ele>1228.0</ele>
        <time>2026-01-20T04:37:42Z</time>
      </trkpt>
      <trkpt lon="76.993634" lat="10.371854">
        <ele>1229.0</ele>
        <time>2026-01-20T04:37:43Z</time>
      </trkpt>
      <trkpt lon="76.993702" lat="10.371759">
        <ele>1230.0</ele>
        <time>2026-01-20T04:37:44Z</time>
      </trkpt>
      <trkpt lon="76.993741" lat="10.371668">
        <ele>1231.0</ele>
        <time>2026-01-20T04:37:45Z</time>
      </trkpt>
      <trkpt lon="76.993769" lat="10.371571">
        <ele>1232.0</ele>
        <time>2026-01-20T04:37:46Z</time>
      </trkpt>
      <trkpt lon="76.993802" lat="10.371463">
        <ele>1233.0</ele>
        <time>2026-01-20T04:37:47Z</time>
      </trkpt>
      <trkpt lon="76.993821" lat="10.371362">
        <ele>1234.0</ele>
        <time>2026-01-20T04:37:48Z</time>
      </trkpt>
      <trkpt lon="76.993826" lat="10.371257">
        <ele>1234.0</ele>
        <time>2026-01-20T04:37:49Z</time>
      </trkpt>
      <trkpt lon="76.993835" lat="10.371141">
        <ele>1235.0</ele>
        <time>2026-01-20T04:37:50Z</time>
      </trkpt>
      <trkpt lon="76.993854" lat="10.371025">
        <ele>1235.0</ele>
        <time>2026-01-20T04:37:51Z</time>
      </trkpt>
      <trkpt lon="76.993862" lat="10.370914">
        <ele>1236.0</ele>
        <time>2026-01-20T04:37:52Z</time>
      </trkpt>
      <trkpt lon="76.993864" lat="10.370803">
        <ele>1237.0</ele>
        <time>2026-01-20T04:37:53Z</time>
      </trkpt>
      <trkpt lon="76.993866" lat="10.370698">
        <ele>1237.0</ele>
        <time>2026-01-20T04:37:54Z</time>
      </trkpt>
      <trkpt lon="76.993883" lat="10.370593">
        <ele>1237.0</ele>
        <time>2026-01-20T04:37:55Z</time>
      </trkpt>
      <trkpt lon="76.993893" lat="10.370495">
        <ele>1238.0</ele>
        <time>2026-01-20T04:37:56Z</time>
      </trkpt>
      <trkpt lon="76.993898" lat="10.370321">
        <ele>1240.0</ele>
        <time>2026-01-20T04:37:58Z</time>
      </trkpt>
      <trkpt lon="76.993844" lat="10.37018">
        <ele>1241.0</ele>
        <time>2026-01-20T04:38:00Z</time>
      </trkpt>
      <trkpt lon="76.99373" lat="10.370112">
        <ele>1243.0</ele>
        <time>2026-01-20T04:38:02Z</time>
      </trkpt>
      <trkpt lon="76.993664" lat="10.37005">
        <ele>1243.0</ele>
        <time>2026-01-20T04:38:04Z</time>
      </trkpt>
      <trkpt lon="76.993697" lat="10.369956">
        <ele>1248.0</ele>
        <time>2026-01-20T04:38:07Z</time>
      </trkpt>
      <trkpt lon="76.993819" lat="10.369994">
        <ele>1249.0</ele>
        <time>2026-01-20T04:38:10Z</time>
      </trkpt>
      <trkpt lon="76.993904" lat="10.370087">
        <ele>1250.0</ele>
        <time>2026-01-20T04:38:12Z</time>
      </trkpt>
      <trkpt lon="76.993967" lat="10.370217">
        <ele>1249.0</ele>
        <time>2026-01-20T04:38:14Z</time>
      </trkpt>
      <trkpt lon="76.993977" lat="10.370404">
        <ele>1249.0</ele>
        <time>2026-01-20T04:38:16Z</time>
      </trkpt>
      <trkpt lon="76.993973" lat="10.370513">
        <ele>1251.0</ele>
        <time>2026-01-20T04:38:17Z</time>
      </trkpt>
      <trkpt lon="76.993974" lat="10.370696">
        <ele>1251.0</ele>
        <time>2026-01-20T04:38:19Z</time>
      </trkpt>
      <trkpt lon="76.993983" lat="10.370795">
        <ele>1251.0</ele>
        <time>2026-01-20T04:38:20Z</time>
      </trkpt>
      <trkpt lon="76.994003" lat="10.370903">
        <ele>1251.0</ele>
        <time>2026-01-20T04:38:21Z</time>
      </trkpt>
      <trkpt lon="76.99403" lat="10.37102">
        <ele>1252.0</ele>
        <time>2026-01-20T04:38:22Z</time>
      </trkpt>
      <trkpt lon="76.994051" lat="10.371135">
        <ele>1252.0</ele>
        <time>2026-01-20T04:38:23Z</time>
      </trkpt>
      <trkpt lon="76.994066" lat="10.371254">
        <ele>1252.0</ele>
        <time>2026-01-20T04:38:24Z</time>
      </trkpt>
      <trkpt lon="76.99408" lat="10.371385">
        <ele>1253.0</ele>
        <time>2026-01-20T04:38:25Z</time>
      </trkpt>
      <trkpt lon="76.994086" lat="10.371516">
        <ele>1253.0</ele>
        <time>2026-01-20T04:38:26Z</time>
      </trkpt>
      <trkpt lon="76.994091" lat="10.371647">
        <ele>1253.0</ele>
        <time>2026-01-20T04:38:27Z</time>
      </trkpt>
      <trkpt lon="76.994094" lat="10.371766">
        <ele>1253.0</ele>
        <time>2026-01-20T04:38:28Z</time>
      </trkpt>
      <trkpt lon="76.994095" lat="10.371877">
        <ele>1255.0</ele>
        <time>2026-01-20T04:38:29Z</time>
      </trkpt>
      <trkpt lon="76.994104" lat="10.371978">
        <ele>1255.0</ele>
        <time>2026-01-20T04:38:30Z</time>
      </trkpt>
      <trkpt lon="76.99412" lat="10.372086">
        <ele>1256.0</ele>
        <time>2026-01-20T04:38:31Z</time>
      </trkpt>
      <trkpt lon="76.994162" lat="10.372184">
        <ele>1258.0</ele>
        <time>2026-01-20T04:38:32Z</time>
      </trkpt>
      <trkpt lon="76.994212" lat="10.372286">
        <ele>1258.0</ele>
        <time>2026-01-20T04:38:33Z</time>
      </trkpt>
      <trkpt lon="76.994272" lat="10.372396">
        <ele>1257.0</ele>
        <time>2026-01-20T04:38:34Z</time>
      </trkpt>
      <trkpt lon="76.994319" lat="10.372515">
        <ele>1258.0</ele>
        <time>2026-01-20T04:38:35Z</time>
      </trkpt>
      <trkpt lon="76.994379" lat="10.372643">
        <ele>1259.0</ele>
        <time>2026-01-20T04:38:36Z</time>
      </trkpt>
      <trkpt lon="76.994425" lat="10.372754">
        <ele>1260.0</ele>
        <time>2026-01-20T04:38:37Z</time>
      </trkpt>
      <trkpt lon="76.994468" lat="10.372868">
        <ele>1260.0</ele>
        <time>2026-01-20T04:38:38Z</time>
      </trkpt>
      <trkpt lon="76.994512" lat="10.372956">
        <ele>1261.0</ele>
        <time>2026-01-20T04:38:39Z</time>
      </trkpt>
      <trkpt lon="76.99456" lat="10.373038">
        <ele>1261.0</ele>
        <time>2026-01-20T04:38:40Z</time>
      </trkpt>
      <trkpt lon="76.994624" lat="10.37319">
        <ele>1262.0</ele>
        <time>2026-01-20T04:38:42Z</time>
      </trkpt>
      <trkpt lon="76.994627" lat="10.373282">
        <ele>1262.0</ele>
        <time>2026-01-20T04:38:43Z</time>
      </trkpt>
      <trkpt lon="76.994567" lat="10.373428">
        <ele>1264.0</ele>
        <time>2026-01-20T04:38:45Z</time>
      </trkpt>
      <trkpt lon="76.994457" lat="10.373534">
        <ele>1262.0</ele>
        <time>2026-01-20T04:38:47Z</time>
      </trkpt>
      <trkpt lon="76.994425" lat="10.37367">
        <ele>1264.0</ele>
        <time>2026-01-20T04:38:49Z</time>
      </trkpt>
      <trkpt lon="76.994467" lat="10.373849">
        <ele>1265.0</ele>
        <time>2026-01-20T04:38:51Z</time>
      </trkpt>
      <trkpt lon="76.994535" lat="10.374009">
        <ele>1264.0</ele>
        <time>2026-01-20T04:38:53Z</time>
      </trkpt>
      <trkpt lon="76.994568" lat="10.374169">
        <ele>1268.0</ele>
        <time>2026-01-20T04:38:55Z</time>
      </trkpt>
      <trkpt lon="76.994569" lat="10.374342">
        <ele>1268.0</ele>
        <time>2026-01-20T04:38:57Z</time>
      </trkpt>
      <trkpt lon="76.994581" lat="10.374478">
        <ele>1270.0</ele>
        <time>2026-01-20T04:38:59Z</time>
      </trkpt>
      <trkpt lon="76.99462" lat="10.374574">
        <ele>1273.0</ele>
        <time>2026-01-20T04:39:01Z</time>
      </trkpt>
      <trkpt lon="76.994714" lat="10.374592">
        <ele>1273.0</ele>
        <time>2026-01-20T04:39:03Z</time>
      </trkpt>
      <trkpt lon="76.994766" lat="10.374485">
        <ele>1274.0</ele>
        <time>2026-01-20T04:39:05Z</time>
      </trkpt>
      <trkpt lon="76.99477" lat="10.374347">
        <ele>1275.0</ele>
        <time>2026-01-20T04:39:07Z</time>
      </trkpt>
      <trkpt lon="76.994786" lat="10.374167">
        <ele>1276.0</ele>
        <time>2026-01-20T04:39:09Z</time>
      </trkpt>
      <trkpt lon="76.994804" lat="10.374071">
        <ele>1276.0</ele>
        <time>2026-01-20T04:39:10Z</time>
      </trkpt>
      <trkpt lon="76.994822" lat="10.373981">
        <ele>1277.0</ele>
        <time>2026-01-20T04:39:11Z</time>
      </trkpt>
      <trkpt lon="76.99488" lat="10.373825">
        <ele>1284.0</ele>
        <time>2026-01-20T04:39:13Z</time>
      </trkpt>
      <trkpt lon="76.99493" lat="10.373694">
        <ele>1285.0</ele>
        <time>2026-01-20T04:39:15Z</time>
      </trkpt>
      <trkpt lon="76.994964" lat="10.373608">
        <ele>1286.0</ele>
        <time>2026-01-20T04:39:17Z</time>
      </trkpt>
      <trkpt lon="76.994996" lat="10.373712">
        <ele>1287.0</ele>
        <time>2026-01-20T04:39:22Z</time>
      </trkpt>
      <trkpt lon="76.994944" lat="10.373824">
        <ele>1287.0</ele>
        <time>2026-01-20T04:39:24Z</time>
      </trkpt>
      <trkpt lon="76.994929" lat="10.373957">
        <ele>1287.0</ele>
        <time>2026-01-20T04:39:26Z</time>
      </trkpt>
      <trkpt lon="76.994939" lat="10.374131">
        <ele>1288.0</ele>
        <time>2026-01-20T04:39:28Z</time>
      </trkpt>
      <trkpt lon="76.994961" lat="10.37422">
        <ele>1288.0</ele>
        <time>2026-01-20T04:39:29Z</time>
      </trkpt>
      <trkpt lon="76.994986" lat="10.374382">
        <ele>1289.0</ele>
        <time>2026-01-20T04:39:31Z</time>
      </trkpt>
      <trkpt lon="76.995031" lat="10.374507">
        <ele>1289.0</ele>
        <time>2026-01-20T04:39:33Z</time>
      </trkpt>
      <trkpt lon="76.995157" lat="10.374577">
        <ele>1288.0</ele>
        <time>2026-01-20T04:39:35Z</time>
      </trkpt>
      <trkpt lon="76.995291" lat="10.374595">
        <ele>1292.0</ele>
        <time>2026-01-20T04:39:37Z</time>
      </trkpt>
      <trkpt lon="76.995409" lat="10.374627">
        <ele>1293.0</ele>
        <time>2026-01-20T04:39:39Z</time>
      </trkpt>
      <trkpt lon="76.995434" lat="10.374808">
        <ele>1295.0</ele>
        <time>2026-01-20T04:39:41Z</time>
      </trkpt>
      <trkpt lon="76.995431" lat="10.374916">
        <ele>1297.0</ele>
        <time>2026-01-20T04:39:42Z</time>
      </trkpt>
      <trkpt lon="76.995405" lat="10.375054">
        <ele>1298.0</ele>
        <time>2026-01-20T04:39:44Z</time>
      </trkpt>
      <trkpt lon="76.995468" lat="10.375157">
        <ele>1300.0</ele>
        <time>2026-01-20T04:39:46Z</time>
      </trkpt>
      <trkpt lon="76.995597" lat="10.375232">
        <ele>1300.0</ele>
        <time>2026-01-20T04:39:48Z</time>
      </trkpt>
      <trkpt lon="76.995732" lat="10.375326">
        <ele>1301.0</ele>
        <time>2026-01-20T04:39:50Z</time>
      </trkpt>
      <trkpt lon="76.995838" lat="10.375413">
        <ele>1302.0</ele>
        <time>2026-01-20T04:39:52Z</time>
      </trkpt>
      <trkpt lon="76.995948" lat="10.375471">
        <ele>1302.0</ele>
        <time>2026-01-20T04:39:54Z</time>
      </trkpt>
      <trkpt lon="76.996062" lat="10.375414">
        <ele>1304.0</ele>
        <time>2026-01-20T04:39:56Z</time>
      </trkpt>
      <trkpt lon="76.996142" lat="10.375313">
        <ele>1305.0</ele>
        <time>2026-01-20T04:39:58Z</time>
      </trkpt>
      <trkpt lon="76.996257" lat="10.375335">
        <ele>1306.0</ele>
        <time>2026-01-20T04:40:01Z</time>
      </trkpt>
      <trkpt lon="76.996238" lat="10.375467">
        <ele>1305.0</ele>
        <time>2026-01-20T04:40:03Z</time>
      </trkpt>
      <trkpt lon="76.996171" lat="10.375598">
        <ele>1306.0</ele>
        <time>2026-01-20T04:40:05Z</time>
      </trkpt>
      <trkpt lon="76.996151" lat="10.375754">
        <ele>1306.0</ele>
        <time>2026-01-20T04:40:07Z</time>
      </trkpt>
      <trkpt lon="76.996231" lat="10.375903">
        <ele>1308.0</ele>
        <time>2026-01-20T04:40:09Z</time>
      </trkpt>
      <trkpt lon="76.99628" lat="10.375989">
        <ele>1310.0</ele>
        <time>2026-01-20T04:40:10Z</time>
      </trkpt>
      <trkpt lon="76.996331" lat="10.376069">
        <ele>1310.0</ele>
        <time>2026-01-20T04:40:11Z</time>
      </trkpt>
      <trkpt lon="76.996455" lat="10.376203">
        <ele>1312.0</ele>
        <time>2026-01-20T04:40:13Z</time>
      </trkpt>
      <trkpt lon="76.996563" lat="10.376332">
        <ele>1313.0</ele>
        <time>2026-01-20T04:40:15Z</time>
      </trkpt>
      <trkpt lon="76.996604" lat="10.376508">
        <ele>1315.0</ele>
        <time>2026-01-20T04:40:17Z</time>
      </trkpt>
      <trkpt lon="76.996615" lat="10.376616">
        <ele>1315.0</ele>
        <time>2026-01-20T04:40:18Z</time>
      </trkpt>
      <trkpt lon="76.996635" lat="10.376717">
        <ele>1316.0</ele>
        <time>2026-01-20T04:40:19Z</time>
      </trkpt>
      <trkpt lon="76.996678" lat="10.376813">
        <ele>1318.0</ele>
        <time>2026-01-20T04:40:20Z</time>
      </trkpt>
      <trkpt lon="76.996726" lat="10.376898">
        <ele>1319.0</ele>
        <time>2026-01-20T04:40:21Z</time>
      </trkpt>
      <trkpt lon="76.996819" lat="10.377028">
        <ele>1320.0</ele>
        <time>2026-01-20T04:40:23Z</time>
      </trkpt>
      <trkpt lon="76.996869" lat="10.377149">
        <ele>1321.0</ele>
        <time>2026-01-20T04:40:25Z</time>
      </trkpt>
      <trkpt lon="76.996801" lat="10.37724">
        <ele>1320.0</ele>
        <time>2026-01-20T04:40:27Z</time>
      </trkpt>
      <trkpt lon="76.996707" lat="10.377248">
        <ele>1322.0</ele>
        <time>2026-01-20T04:40:29Z</time>
      </trkpt>
      <trkpt lon="76.996595" lat="10.377155">
        <ele>1322.0</ele>
        <time>2026-01-20T04:40:31Z</time>
      </trkpt>
      <trkpt lon="76.996475" lat="10.377066">
        <ele>1322.0</ele>
        <time>2026-01-20T04:40:33Z</time>
      </trkpt>
      <trkpt lon="76.996334" lat="10.376973">
        <ele>1323.0</ele>
        <time>2026-01-20T04:40:35Z</time>
      </trkpt>
      <trkpt lon="76.996255" lat="10.376926">
        <ele>1324.0</ele>
        <time>2026-01-20T04:40:36Z</time>
      </trkpt>
      <trkpt lon="76.996133" lat="10.376826">
        <ele>1325.0</ele>
        <time>2026-01-20T04:40:38Z</time>
      </trkpt>
      <trkpt lon="76.996046" lat="10.37673">
        <ele>1326.0</ele>
        <time>2026-01-20T04:40:40Z</time>
      </trkpt>
      <trkpt lon="76.995928" lat="10.376735">
        <ele>1327.0</ele>
        <time>2026-01-20T04:40:43Z</time>
      </trkpt>
      <trkpt lon="76.99592" lat="10.37686">
        <ele>1329.0</ele>
        <time>2026-01-20T04:40:45Z</time>
      </trkpt>
      <trkpt lon="76.996008" lat="10.376993">
        <ele>1331.0</ele>
        <time>2026-01-20T04:40:47Z</time>
      </trkpt>
      <trkpt lon="76.996132" lat="10.377099">
        <ele>1332.0</ele>
        <time>2026-01-20T04:40:49Z</time>
      </trkpt>
      <trkpt lon="76.996218" lat="10.377143">
        <ele>1333.0</ele>
        <time>2026-01-20T04:40:50Z</time>
      </trkpt>
      <trkpt lon="76.996373" lat="10.37724">
        <ele>1334.0</ele>
        <time>2026-01-20T04:40:52Z</time>
      </trkpt>
      <trkpt lon="76.996432" lat="10.377324">
        <ele>1334.0</ele>
        <time>2026-01-20T04:40:53Z</time>
      </trkpt>
      <trkpt lon="76.996477" lat="10.377406">
        <ele>1334.0</ele>
        <time>2026-01-20T04:40:54Z</time>
      </trkpt>
      <trkpt lon="76.996507" lat="10.377496">
        <ele>1335.0</ele>
        <time>2026-01-20T04:40:55Z</time>
      </trkpt>
      <trkpt lon="76.996535" lat="10.377595">
        <ele>1335.0</ele>
        <time>2026-01-20T04:40:56Z</time>
      </trkpt>
      <trkpt lon="76.996585" lat="10.37769">
        <ele>1337.0</ele>
        <time>2026-01-20T04:40:57Z</time>
      </trkpt>
      <trkpt lon="76.996647" lat="10.37778">
        <ele>1338.0</ele>
        <time>2026-01-20T04:40:58Z</time>
      </trkpt>
      <trkpt lon="76.996714" lat="10.377869">
        <ele>1339.0</ele>
        <time>2026-01-20T04:40:59Z</time>
      </trkpt>
      <trkpt lon="76.99678" lat="10.37796">
        <ele>1340.0</ele>
        <time>2026-01-20T04:41:00Z</time>
      </trkpt>
      <trkpt lon="76.996854" lat="10.378044">
        <ele>1341.0</ele>
        <time>2026-01-20T04:41:01Z</time>
      </trkpt>
      <trkpt lon="76.996937" lat="10.378116">
        <ele>1342.0</ele>
        <time>2026-01-20T04:41:02Z</time>
      </trkpt>
      <trkpt lon="76.997019" lat="10.378188">
        <ele>1342.0</ele>
        <time>2026-01-20T04:41:03Z</time>
      </trkpt>
      <trkpt lon="76.997103" lat="10.37826">
        <ele>1342.0</ele>
        <time>2026-01-20T04:41:04Z</time>
      </trkpt>
      <trkpt lon="76.997187" lat="10.378336">
        <ele>1343.0</ele>
        <time>2026-01-20T04:41:05Z</time>
      </trkpt>
      <trkpt lon="76.997264" lat="10.37841">
        <ele>1343.0</ele>
        <time>2026-01-20T04:41:06Z</time>
      </trkpt>
      <trkpt lon="76.997325" lat="10.378488">
        <ele>1344.0</ele>
        <time>2026-01-20T04:41:07Z</time>
      </trkpt>
      <trkpt lon="76.997394" lat="10.378642">
        <ele>1345.0</ele>
        <time>2026-01-20T04:41:09Z</time>
      </trkpt>
      <trkpt lon="76.997384" lat="10.378738">
        <ele>1345.0</ele>
        <time>2026-01-20T04:41:10Z</time>
      </trkpt>
      <trkpt lon="76.997357" lat="10.378836">
        <ele>1347.0</ele>
        <time>2026-01-20T04:41:11Z</time>
      </trkpt>
      <trkpt lon="76.997325" lat="10.378934">
        <ele>1348.0</ele>
        <time>2026-01-20T04:41:12Z</time>
      </trkpt>
      <trkpt lon="76.9973" lat="10.379034">
        <ele>1348.0</ele>
        <time>2026-01-20T04:41:13Z</time>
      </trkpt>
      <trkpt lon="76.997288" lat="10.379147">
        <ele>1348.0</ele>
        <time>2026-01-20T04:41:14Z</time>
      </trkpt>
      <trkpt lon="76.997282" lat="10.379261">
        <ele>1349.0</ele>
        <time>2026-01-20T04:41:15Z</time>
      </trkpt>
      <trkpt lon="76.997271" lat="10.37938">
        <ele>1349.0</ele>
        <time>2026-01-20T04:41:16Z</time>
      </trkpt>
      <trkpt lon="76.997261" lat="10.379499">
        <ele>1350.0</ele>
        <time>2026-01-20T04:41:17Z</time>
      </trkpt>
      <trkpt lon="76.99725" lat="10.379615">
        <ele>1350.0</ele>
        <time>2026-01-20T04:41:18Z</time>
      </trkpt>
      <trkpt lon="76.997242" lat="10.37973">
        <ele>1351.0</ele>
        <time>2026-01-20T04:41:19Z</time>
      </trkpt>
      <trkpt lon="76.99724" lat="10.379847">
        <ele>1351.0</ele>
        <time>2026-01-20T04:41:20Z</time>
      </trkpt>
      <trkpt lon="76.997246" lat="10.379959">
        <ele>1352.0</ele>
        <time>2026-01-20T04:41:21Z</time>
      </trkpt>
      <trkpt lon="76.997264" lat="10.380063">
        <ele>1353.0</ele>
        <time>2026-01-20T04:41:22Z</time>
      </trkpt>
      <trkpt lon="76.997302" lat="10.380169">
        <ele>1353.0</ele>
        <time>2026-01-20T04:41:23Z</time>
      </trkpt>
      <trkpt lon="76.997366" lat="10.380265">
        <ele>1354.0</ele>
        <time>2026-01-20T04:41:24Z</time>
      </trkpt>
      <trkpt lon="76.997433" lat="10.380366">
        <ele>1354.0</ele>
        <time>2026-01-20T04:41:25Z</time>
      </trkpt>
      <trkpt lon="76.997487" lat="10.380476">
        <ele>1354.0</ele>
        <time>2026-01-20T04:41:26Z</time>
      </trkpt>
      <trkpt lon="76.997538" lat="10.380583">
        <ele>1355.0</ele>
        <time>2026-01-20T04:41:27Z</time>
      </trkpt>
      <trkpt lon="76.997575" lat="10.380701">
        <ele>1355.0</ele>
        <time>2026-01-20T04:41:28Z</time>
      </trkpt>
      <trkpt lon="76.997611" lat="10.380819">
        <ele>1356.0</ele>
        <time>2026-01-20T04:41:29Z</time>
      </trkpt>
      <trkpt lon="76.997637" lat="10.380944">
        <ele>1356.0</ele>
        <time>2026-01-20T04:41:30Z</time>
      </trkpt>
      <trkpt lon="76.997668" lat="10.381064">
        <ele>1357.0</ele>
        <time>2026-01-20T04:41:31Z</time>
      </trkpt>
      <trkpt lon="76.997696" lat="10.381187">
        <ele>1357.0</ele>
        <time>2026-01-20T04:41:32Z</time>
      </trkpt>
      <trkpt lon="76.997732" lat="10.381312">
        <ele>1357.0</ele>
        <time>2026-01-20T04:41:33Z</time>
      </trkpt>
      <trkpt lon="76.99777" lat="10.381429">
        <ele>1358.0</ele>
        <time>2026-01-20T04:41:34Z</time>
      </trkpt>
      <trkpt lon="76.99781" lat="10.381542">
        <ele>1359.0</ele>
        <time>2026-01-20T04:41:35Z</time>
      </trkpt>
      <trkpt lon="76.997862" lat="10.38163">
        <ele>1359.0</ele>
        <time>2026-01-20T04:41:36Z</time>
      </trkpt>
      <trkpt lon="76.997918" lat="10.381718">
        <ele>1358.0</ele>
        <time>2026-01-20T04:41:37Z</time>
      </trkpt>
      <trkpt lon="76.997957" lat="10.381818">
        <ele>1358.0</ele>
        <time>2026-01-20T04:41:38Z</time>
      </trkpt>
      <trkpt lon="76.997979" lat="10.381929">
        <ele>1357.0</ele>
        <time>2026-01-20T04:41:39Z</time>
      </trkpt>
      <trkpt lon="76.997968" lat="10.38205">
        <ele>1357.0</ele>
        <time>2026-01-20T04:41:40Z</time>
      </trkpt>
      <trkpt lon="76.997964" lat="10.382152">
        <ele>1358.0</ele>
        <time>2026-01-20T04:41:41Z</time>
      </trkpt>
      <trkpt lon="76.997973" lat="10.382317">
        <ele>1357.0</ele>
        <time>2026-01-20T04:41:43Z</time>
      </trkpt>
      <trkpt lon="76.99803" lat="10.382438">
        <ele>1356.0</ele>
        <time>2026-01-20T04:41:45Z</time>
      </trkpt>
      <trkpt lon="76.998014" lat="10.38258">
        <ele>1355.0</ele>
        <time>2026-01-20T04:41:47Z</time>
      </trkpt>
      <trkpt lon="76.997973" lat="10.382668">
        <ele>1354.0</ele>
        <time>2026-01-20T04:41:48Z</time>
      </trkpt>
      <trkpt lon="76.997885" lat="10.382798">
        <ele>1354.0</ele>
        <time>2026-01-20T04:41:50Z</time>
      </trkpt>
      <trkpt lon="76.997786" lat="10.382862">
        <ele>1354.0</ele>
        <time>2026-01-20T04:41:52Z</time>
      </trkpt>
      <trkpt lon="76.997657" lat="10.382806">
        <ele>1355.0</ele>
        <time>2026-01-20T04:41:54Z</time>
      </trkpt>
      <trkpt lon="76.997545" lat="10.382679">
        <ele>1356.0</ele>
        <time>2026-01-20T04:41:56Z</time>
      </trkpt>
      <trkpt lon="76.997437" lat="10.382603">
        <ele>1356.0</ele>
        <time>2026-01-20T04:41:58Z</time>
      </trkpt>
      <trkpt lon="76.997307" lat="10.382622">
        <ele>1356.0</ele>
        <time>2026-01-20T04:42:00Z</time>
      </trkpt>
      <trkpt lon="76.997199" lat="10.382741">
        <ele>1357.0</ele>
        <time>2026-01-20T04:42:02Z</time>
      </trkpt>
      <trkpt lon="76.997152" lat="10.38283">
        <ele>1358.0</ele>
        <time>2026-01-20T04:42:03Z</time>
      </trkpt>
      <trkpt lon="76.997117" lat="10.382933">
        <ele>1358.0</ele>
        <time>2026-01-20T04:42:04Z</time>
      </trkpt>
      <trkpt lon="76.997101" lat="10.383034">
        <ele>1358.0</ele>
        <time>2026-01-20T04:42:05Z</time>
      </trkpt>
      <trkpt lon="76.997102" lat="10.383134">
        <ele>1357.0</ele>
        <time>2026-01-20T04:42:06Z</time>
      </trkpt>
      <trkpt lon="76.997103" lat="10.383239">
        <ele>1357.0</ele>
        <time>2026-01-20T04:42:07Z</time>
      </trkpt>
      <trkpt lon="76.99712" lat="10.383347">
        <ele>1357.0</ele>
        <time>2026-01-20T04:42:08Z</time>
      </trkpt>
      <trkpt lon="76.997141" lat="10.383455">
        <ele>1357.0</ele>
        <time>2026-01-20T04:42:09Z</time>
      </trkpt>
      <trkpt lon="76.99716" lat="10.383554">
        <ele>1357.0</ele>
        <time>2026-01-20T04:42:10Z</time>
      </trkpt>
      <trkpt lon="76.997183" lat="10.383646">
        <ele>1357.0</ele>
        <time>2026-01-20T04:42:11Z</time>
      </trkpt>
      <trkpt lon="76.997184" lat="10.383757">
        <ele>1357.0</ele>
        <time>2026-01-20T04:42:12Z</time>
      </trkpt>
      <trkpt lon="76.997163" lat="10.383899">
        <ele>1356.0</ele>
        <time>2026-01-20T04:42:13Z</time>
      </trkpt>
      <trkpt lon="76.997136" lat="10.384009">
        <ele>1357.0</ele>
        <time>2026-01-20T04:42:14Z</time>
      </trkpt>
      <trkpt lon="76.997118" lat="10.384104">
        <ele>1356.0</ele>
        <time>2026-01-20T04:42:15Z</time>
      </trkpt>
      <trkpt lon="76.997122" lat="10.384265">
        <ele>1357.0</ele>
        <time>2026-01-20T04:42:17Z</time>
      </trkpt>
      <trkpt lon="76.997125" lat="10.384365">
        <ele>1357.0</ele>
        <time>2026-01-20T04:42:19Z</time>
      </trkpt>
      <trkpt lon="76.997045" lat="10.384441">
        <ele>1358.0</ele>
        <time>2026-01-20T04:42:22Z</time>
      </trkpt>
      <trkpt lon="76.996981" lat="10.384332">
        <ele>1359.0</ele>
        <time>2026-01-20T04:42:24Z</time>
      </trkpt>
      <trkpt lon="76.996938" lat="10.384249">
        <ele>1359.0</ele>
        <time>2026-01-20T04:42:25Z</time>
      </trkpt>
      <trkpt lon="76.996832" lat="10.384109">
        <ele>1361.0</ele>
        <time>2026-01-20T04:42:27Z</time>
      </trkpt>
      <trkpt lon="76.996717" lat="10.384012">
        <ele>1361.0</ele>
        <time>2026-01-20T04:42:29Z</time>
      </trkpt>
      <trkpt lon="76.996577" lat="10.384054">
        <ele>1363.0</ele>
        <time>2026-01-20T04:42:31Z</time>
      </trkpt>
      <trkpt lon="76.996501" lat="10.384191">
        <ele>1363.0</ele>
        <time>2026-01-20T04:42:33Z</time>
      </trkpt>
      <trkpt lon="76.996457" lat="10.384364">
        <ele>1362.0</ele>
        <time>2026-01-20T04:42:35Z</time>
      </trkpt>
      <trkpt lon="76.996448" lat="10.38446">
        <ele>1362.0</ele>
        <time>2026-01-20T04:42:36Z</time>
      </trkpt>
      <trkpt lon="76.996447" lat="10.384562">
        <ele>1362.0</ele>
        <time>2026-01-20T04:42:37Z</time>
      </trkpt>
      <trkpt lon="76.996458" lat="10.384664">
        <ele>1361.0</ele>
        <time>2026-01-20T04:42:38Z</time>
      </trkpt>
      <trkpt lon="76.996468" lat="10.384765">
        <ele>1360.0</ele>
        <time>2026-01-20T04:42:39Z</time>
      </trkpt>
      <trkpt lon="76.996479" lat="10.384875">
        <ele>1359.0</ele>
        <time>2026-01-20T04:42:40Z</time>
      </trkpt>
      <trkpt lon="76.996485" lat="10.384979">
        <ele>1359.0</ele>
        <time>2026-01-20T04:42:41Z</time>
      </trkpt>
      <trkpt lon="76.996488" lat="10.385083">
        <ele>1358.0</ele>
        <time>2026-01-20T04:42:42Z</time>
      </trkpt>
      <trkpt lon="76.996486" lat="10.385182">
        <ele>1357.0</ele>
        <time>2026-01-20T04:42:43Z</time>
      </trkpt>
      <trkpt lon="76.996485" lat="10.385281">
        <ele>1356.0</ele>
        <time>2026-01-20T04:42:44Z</time>
      </trkpt>
      <trkpt lon="76.99648" lat="10.385372">
        <ele>1355.0</ele>
        <time>2026-01-20T04:42:45Z</time>
      </trkpt>
      <trkpt lon="76.996511" lat="10.385551">
        <ele>1354.0</ele>
        <time>2026-01-20T04:42:47Z</time>
      </trkpt>
      <trkpt lon="76.996543" lat="10.385695">
        <ele>1354.0</ele>
        <time>2026-01-20T04:42:49Z</time>
      </trkpt>
      <trkpt lon="76.996548" lat="10.385823">
        <ele>1353.0</ele>
        <time>2026-01-20T04:42:51Z</time>
      </trkpt>
      <trkpt lon="76.996501" lat="10.385924">
        <ele>1352.0</ele>
        <time>2026-01-20T04:42:53Z</time>
      </trkpt>
      <trkpt lon="76.996387" lat="10.3859">
        <ele>1351.0</ele>
        <time>2026-01-20T04:42:55Z</time>
      </trkpt>
      <trkpt lon="76.996326" lat="10.385759">
        <ele>1350.0</ele>
        <time>2026-01-20T04:42:57Z</time>
      </trkpt>
      <trkpt lon="76.996277" lat="10.385581">
        <ele>1349.0</ele>
        <time>2026-01-20T04:42:59Z</time>
      </trkpt>
      <trkpt lon="76.99625" lat="10.385484">
        <ele>1348.0</ele>
        <time>2026-01-20T04:43:00Z</time>
      </trkpt>
      <trkpt lon="76.996217" lat="10.385382">
        <ele>1348.0</ele>
        <time>2026-01-20T04:43:01Z</time>
      </trkpt>
      <trkpt lon="76.996185" lat="10.385278">
        <ele>1347.0</ele>
        <time>2026-01-20T04:43:02Z</time>
      </trkpt>
      <trkpt lon="76.996156" lat="10.38517">
        <ele>1346.0</ele>
        <time>2026-01-20T04:43:03Z</time>
      </trkpt>
      <trkpt lon="76.996128" lat="10.385058">
        <ele>1346.0</ele>
        <time>2026-01-20T04:43:04Z</time>
      </trkpt>
      <trkpt lon="76.996097" lat="10.384947">
        <ele>1346.0</ele>
        <time>2026-01-20T04:43:05Z</time>
      </trkpt>
      <trkpt lon="76.996039" lat="10.38484">
        <ele>1346.0</ele>
        <time>2026-01-20T04:43:06Z</time>
      </trkpt>
      <trkpt lon="76.995993" lat="10.384738">
        <ele>1346.0</ele>
        <time>2026-01-20T04:43:07Z</time>
      </trkpt>
      <trkpt lon="76.995938" lat="10.384628">
        <ele>1346.0</ele>
        <time>2026-01-20T04:43:08Z</time>
      </trkpt>
      <trkpt lon="76.995882" lat="10.384515">
        <ele>1345.0</ele>
        <time>2026-01-20T04:43:09Z</time>
      </trkpt>
      <trkpt lon="76.995823" lat="10.384402">
        <ele>1345.0</ele>
        <time>2026-01-20T04:43:10Z</time>
      </trkpt>
      <trkpt lon="76.995768" lat="10.384293">
        <ele>1345.0</ele>
        <time>2026-01-20T04:43:11Z</time>
      </trkpt>
      <trkpt lon="76.995705" lat="10.384192">
        <ele>1344.0</ele>
        <time>2026-01-20T04:43:12Z</time>
      </trkpt>
      <trkpt lon="76.99564" lat="10.384089">
        <ele>1344.0</ele>
        <time>2026-01-20T04:43:13Z</time>
      </trkpt>
      <trkpt lon="76.995572" lat="10.383981">
        <ele>1344.0</ele>
        <time>2026-01-20T04:43:14Z</time>
      </trkpt>
      <trkpt lon="76.995505" lat="10.383877">
        <ele>1344.0</ele>
        <time>2026-01-20T04:43:15Z</time>
      </trkpt>
      <trkpt lon="76.995425" lat="10.383777">
        <ele>1344.0</ele>
        <time>2026-01-20T04:43:16Z</time>
      </trkpt>
      <trkpt lon="76.995357" lat="10.383677">
        <ele>1344.0</ele>
        <time>2026-01-20T04:43:17Z</time>
      </trkpt>
      <trkpt lon="76.995286" lat="10.383577">
        <ele>1344.0</ele>
        <time>2026-01-20T04:43:18Z</time>
      </trkpt>
      <trkpt lon="76.995206" lat="10.383478">
        <ele>1344.0</ele>
        <time>2026-01-20T04:43:19Z</time>
      </trkpt>
      <trkpt lon="76.995132" lat="10.383382">
        <ele>1344.0</ele>
        <time>2026-01-20T04:43:20Z</time>
      </trkpt>
      <trkpt lon="76.995061" lat="10.383286">
        <ele>1344.0</ele>
        <time>2026-01-20T04:43:21Z</time>
      </trkpt>
      <trkpt lon="76.994987" lat="10.383196">
        <ele>1344.0</ele>
        <time>2026-01-20T04:43:22Z</time>
      </trkpt>
      <trkpt lon="76.994916" lat="10.383116">
        <ele>1343.0</ele>
        <time>2026-01-20T04:43:23Z</time>
      </trkpt>
      <trkpt lon="76.994792" lat="10.383011">
        <ele>1343.0</ele>
        <time>2026-01-20T04:43:25Z</time>
      </trkpt>
      <trkpt lon="76.994672" lat="10.382984">
        <ele>1343.0</ele>
        <time>2026-01-20T04:43:27Z</time>
      </trkpt>
      <trkpt lon="76.994602" lat="10.383064">
        <ele>1343.0</ele>
        <time>2026-01-20T04:43:29Z</time>
      </trkpt>
      <trkpt lon="76.994607" lat="10.383197">
        <ele>1342.0</ele>
        <time>2026-01-20T04:43:31Z</time>
      </trkpt>
      <trkpt lon="76.994622" lat="10.383359">
        <ele>1340.0</ele>
        <time>2026-01-20T04:43:33Z</time>
      </trkpt>
      <trkpt lon="76.994637" lat="10.383546">
        <ele>1340.0</ele>
        <time>2026-01-20T04:43:35Z</time>
      </trkpt>
      <trkpt lon="76.994641" lat="10.383652">
        <ele>1340.0</ele>
        <time>2026-01-20T04:43:36Z</time>
      </trkpt>
      <trkpt lon="76.994637" lat="10.383765">
        <ele>1339.0</ele>
        <time>2026-01-20T04:43:37Z</time>
      </trkpt>
      <trkpt lon="76.994637" lat="10.383874">
        <ele>1339.0</ele>
        <time>2026-01-20T04:43:38Z</time>
      </trkpt>
      <trkpt lon="76.994646" lat="10.383977">
        <ele>1339.0</ele>
        <time>2026-01-20T04:43:39Z</time>
      </trkpt>
      <trkpt lon="76.994649" lat="10.384076">
        <ele>1338.0</ele>
        <time>2026-01-20T04:43:40Z</time>
      </trkpt>
      <trkpt lon="76.994651" lat="10.384183">
        <ele>1337.0</ele>
        <time>2026-01-20T04:43:41Z</time>
      </trkpt>
      <trkpt lon="76.994648" lat="10.384286">
        <ele>1336.0</ele>
        <time>2026-01-20T04:43:42Z</time>
      </trkpt>
      <trkpt lon="76.99464" lat="10.38439">
        <ele>1336.0</ele>
        <time>2026-01-20T04:43:43Z</time>
      </trkpt>
      <trkpt lon="76.994629" lat="10.384489">
        <ele>1335.0</ele>
        <time>2026-01-20T04:43:44Z</time>
      </trkpt>
      <trkpt lon="76.994603" lat="10.384588">
        <ele>1334.0</ele>
        <time>2026-01-20T04:43:45Z</time>
      </trkpt>
      <trkpt lon="76.994575" lat="10.384682">
        <ele>1333.0</ele>
        <time>2026-01-20T04:43:46Z</time>
      </trkpt>
      <trkpt lon="76.994525" lat="10.384833">
        <ele>1333.0</ele>
        <time>2026-01-20T04:43:48Z</time>
      </trkpt>
      <trkpt lon="76.994483" lat="10.384928">
        <ele>1332.0</ele>
        <time>2026-01-20T04:43:50Z</time>
      </trkpt>
      <trkpt lon="76.994442" lat="10.385018">
        <ele>1331.0</ele>
        <time>2026-01-20T04:43:52Z</time>
      </trkpt>
      <trkpt lon="76.994306" lat="10.385055">
        <ele>1331.0</ele>
        <time>2026-01-20T04:43:55Z</time>
      </trkpt>
      <trkpt lon="76.994201" lat="10.384984">
        <ele>1351.0</ele>
        <time>2026-01-20T04:43:57Z</time>
      </trkpt>
      <trkpt lon="76.994075" lat="10.38493">
        <ele>1351.0</ele>
        <time>2026-01-20T04:43:59Z</time>
      </trkpt>
      <trkpt lon="76.993965" lat="10.384979">
        <ele>1351.0</ele>
        <time>2026-01-20T04:44:01Z</time>
      </trkpt>
      <trkpt lon="76.993921" lat="10.385115">
        <ele>1351.0</ele>
        <time>2026-01-20T04:44:03Z</time>
      </trkpt>
      <trkpt lon="76.993911" lat="10.385261">
        <ele>1351.0</ele>
        <time>2026-01-20T04:44:05Z</time>
      </trkpt>
      <trkpt lon="76.993909" lat="10.385425">
        <ele>1351.0</ele>
        <time>2026-01-20T04:44:07Z</time>
      </trkpt>
      <trkpt lon="76.993915" lat="10.385524">
        <ele>1351.0</ele>
        <time>2026-01-20T04:44:08Z</time>
      </trkpt>
      <trkpt lon="76.99392" lat="10.385624">
        <ele>1351.0</ele>
        <time>2026-01-20T04:44:09Z</time>
      </trkpt>
      <trkpt lon="76.993924" lat="10.385728">
        <ele>1351.0</ele>
        <time>2026-01-20T04:44:10Z</time>
      </trkpt>
      <trkpt lon="76.993928" lat="10.385834">
        <ele>1351.0</ele>
        <time>2026-01-20T04:44:11Z</time>
      </trkpt>
      <trkpt lon="76.993928" lat="10.385941">
        <ele>1351.0</ele>
        <time>2026-01-20T04:44:12Z</time>
      </trkpt>
      <trkpt lon="76.993931" lat="10.386047">
        <ele>1351.0</ele>
        <time>2026-01-20T04:44:13Z</time>
      </trkpt>
      <trkpt lon="76.993936" lat="10.386154">
        <ele>1351.0</ele>
        <time>2026-01-20T04:44:14Z</time>
      </trkpt>
      <trkpt lon="76.993953" lat="10.386261">
        <ele>1351.0</ele>
        <time>2026-01-20T04:44:15Z</time>
      </trkpt>
      <trkpt lon="76.993986" lat="10.386368">
        <ele>1351.0</ele>
        <time>2026-01-20T04:44:16Z</time>
      </trkpt>
      <trkpt lon="76.994033" lat="10.38647">
        <ele>1351.0</ele>
        <time>2026-01-20T04:44:17Z</time>
      </trkpt>
      <trkpt lon="76.994083" lat="10.386564">
        <ele>1351.0</ele>
        <time>2026-01-20T04:44:18Z</time>
      </trkpt>
      <trkpt lon="76.99414" lat="10.386661">
        <ele>1351.0</ele>
        <time>2026-01-20T04:44:19Z</time>
      </trkpt>
      <trkpt lon="76.994203" lat="10.38675">
        <ele>1351.0</ele>
        <time>2026-01-20T04:44:20Z</time>
      </trkpt>
      <trkpt lon="76.994269" lat="10.386839">
        <ele>1351.0</ele>
        <time>2026-01-20T04:44:21Z</time>
      </trkpt>
      <trkpt lon="76.994328" lat="10.386931">
        <ele>1351.0</ele>
        <time>2026-01-20T04:44:22Z</time>
      </trkpt>
      <trkpt lon="76.994384" lat="10.387025">
        <ele>1351.0</ele>
        <time>2026-01-20T04:44:23Z</time>
      </trkpt>
      <trkpt lon="76.994431" lat="10.387121">
        <ele>1351.0</ele>
        <time>2026-01-20T04:44:24Z</time>
      </trkpt>
      <trkpt lon="76.994476" lat="10.387221">
        <ele>1351.0</ele>
        <time>2026-01-20T04:44:25Z</time>
      </trkpt>
      <trkpt lon="76.994518" lat="10.387323">
        <ele>1351.0</ele>
        <time>2026-01-20T04:44:26Z</time>
      </trkpt>
      <trkpt lon="76.994569" lat="10.38742">
        <ele>1351.0</ele>
        <time>2026-01-20T04:44:27Z</time>
      </trkpt>
      <trkpt lon="76.994635" lat="10.387502">
        <ele>1351.0</ele>
        <time>2026-01-20T04:44:28Z</time>
      </trkpt>
      <trkpt lon="76.994715" lat="10.387583">
        <ele>1351.0</ele>
        <time>2026-01-20T04:44:29Z</time>
      </trkpt>
      <trkpt lon="76.994789" lat="10.387663">
        <ele>1351.0</ele>
        <time>2026-01-20T04:44:30Z</time>
      </trkpt>
      <trkpt lon="76.99485" lat="10.387751">
        <ele>1351.0</ele>
        <time>2026-01-20T04:44:31Z</time>
      </trkpt>
      <trkpt lon="76.99491" lat="10.387842">
        <ele>1351.0</ele>
        <time>2026-01-20T04:44:32Z</time>
      </trkpt>
      <trkpt lon="76.994968" lat="10.387932">
        <ele>1351.0</ele>
        <time>2026-01-20T04:44:33Z</time>
      </trkpt>
      <trkpt lon="76.995018" lat="10.38803">
        <ele>1351.0</ele>
        <time>2026-01-20T04:44:34Z</time>
      </trkpt>
      <trkpt lon="76.995055" lat="10.388118">
        <ele>1351.0</ele>
        <time>2026-01-20T04:44:35Z</time>
      </trkpt>
      <trkpt lon="76.995094" lat="10.388206">
        <ele>1351.0</ele>
        <time>2026-01-20T04:44:36Z</time>
      </trkpt>
      <trkpt lon="76.995125" lat="10.3883">
        <ele>1351.0</ele>
        <time>2026-01-20T04:44:37Z</time>
      </trkpt>
      <trkpt lon="76.995136" lat="10.388402">
        <ele>1351.0</ele>
        <time>2026-01-20T04:44:38Z</time>
      </trkpt>
      <trkpt lon="76.995141" lat="10.388506">
        <ele>1351.0</ele>
        <time>2026-01-20T04:44:39Z</time>
      </trkpt>
      <trkpt lon="76.995145" lat="10.388618">
        <ele>1351.0</ele>
        <time>2026-01-20T04:44:40Z</time>
      </trkpt>
      <trkpt lon="76.995147" lat="10.388729">
        <ele>1351.0</ele>
        <time>2026-01-20T04:44:41Z</time>
      </trkpt>
      <trkpt lon="76.995141" lat="10.388842">
        <ele>1351.0</ele>
        <time>2026-01-20T04:44:42Z</time>
      </trkpt>
      <trkpt lon="76.99514" lat="10.38895">
        <ele>1351.0</ele>
        <time>2026-01-20T04:44:43Z</time>
      </trkpt>
      <trkpt lon="76.99513" lat="10.389062">
        <ele>1351.0</ele>
        <time>2026-01-20T04:44:44Z</time>
      </trkpt>
      <trkpt lon="76.995116" lat="10.389172">
        <ele>1351.0</ele>
        <time>2026-01-20T04:44:45Z</time>
      </trkpt>
      <trkpt lon="76.995111" lat="10.389279">
        <ele>1351.0</ele>
        <time>2026-01-20T04:44:46Z</time>
      </trkpt>
      <trkpt lon="76.995104" lat="10.389378">
        <ele>1351.0</ele>
        <time>2026-01-20T04:44:47Z</time>
      </trkpt>
      <trkpt lon="76.9951" lat="10.389472">
        <ele>1351.0</ele>
        <time>2026-01-20T04:44:48Z</time>
      </trkpt>
      <trkpt lon="76.99511" lat="10.389563">
        <ele>1351.0</ele>
        <time>2026-01-20T04:44:49Z</time>
      </trkpt>
      <trkpt lon="76.995184" lat="10.389732">
        <ele>1351.0</ele>
        <time>2026-01-20T04:44:51Z</time>
      </trkpt>
      <trkpt lon="76.995245" lat="10.389809">
        <ele>1351.0</ele>
        <time>2026-01-20T04:44:52Z</time>
      </trkpt>
      <trkpt lon="76.995318" lat="10.389876">
        <ele>1351.0</ele>
        <time>2026-01-20T04:44:53Z</time>
      </trkpt>
      <trkpt lon="76.995394" lat="10.389939">
        <ele>1351.0</ele>
        <time>2026-01-20T04:44:54Z</time>
      </trkpt>
      <trkpt lon="76.995476" lat="10.389996">
        <ele>1351.0</ele>
        <time>2026-01-20T04:44:55Z</time>
      </trkpt>
      <trkpt lon="76.995562" lat="10.390057">
        <ele>1351.0</ele>
        <time>2026-01-20T04:44:56Z</time>
      </trkpt>
      <trkpt lon="76.995656" lat="10.390121">
        <ele>1351.0</ele>
        <time>2026-01-20T04:44:57Z</time>
      </trkpt>
      <trkpt lon="76.995754" lat="10.390182">
        <ele>1351.0</ele>
        <time>2026-01-20T04:44:58Z</time>
      </trkpt>
      <trkpt lon="76.995851" lat="10.390244">
        <ele>1351.0</ele>
        <time>2026-01-20T04:44:59Z</time>
      </trkpt>
      <trkpt lon="76.995941" lat="10.390309">
        <ele>1351.0</ele>
        <time>2026-01-20T04:45:00Z</time>
      </trkpt>
      <trkpt lon="76.996033" lat="10.390375">
        <ele>1351.0</ele>
        <time>2026-01-20T04:45:01Z</time>
      </trkpt>
      <trkpt lon="76.996121" lat="10.390439">
        <ele>1351.0</ele>
        <time>2026-01-20T04:45:02Z</time>
      </trkpt>
      <trkpt lon="76.996199" lat="10.390505">
        <ele>1351.0</ele>
        <time>2026-01-20T04:45:03Z</time>
      </trkpt>
      <trkpt lon="76.996272" lat="10.390566">
        <ele>1351.0</ele>
        <time>2026-01-20T04:45:04Z</time>
      </trkpt>
      <trkpt lon="76.996351" lat="10.390619">
        <ele>1351.0</ele>
        <time>2026-01-20T04:45:05Z</time>
      </trkpt>
      <trkpt lon="76.996447" lat="10.390655">
        <ele>1351.0</ele>
        <time>2026-01-20T04:45:06Z</time>
      </trkpt>
      <trkpt lon="76.996542" lat="10.390681">
        <ele>1351.0</ele>
        <time>2026-01-20T04:45:07Z</time>
      </trkpt>
      <trkpt lon="76.996717" lat="10.390684">
        <ele>1351.0</ele>
        <time>2026-01-20T04:45:09Z</time>
      </trkpt>
      <trkpt lon="76.996815" lat="10.390654">
        <ele>1351.0</ele>
        <time>2026-01-20T04:45:10Z</time>
      </trkpt>
      <trkpt lon="76.996903" lat="10.390629">
        <ele>1351.0</ele>
        <time>2026-01-20T04:45:11Z</time>
      </trkpt>
      <trkpt lon="76.996985" lat="10.390581">
        <ele>1351.0</ele>
        <time>2026-01-20T04:45:12Z</time>
      </trkpt>
      <trkpt lon="76.997055" lat="10.390517">
        <ele>1351.0</ele>
        <time>2026-01-20T04:45:13Z</time>
      </trkpt>
      <trkpt lon="76.99712" lat="10.390445">
        <ele>1351.0</ele>
        <time>2026-01-20T04:45:14Z</time>
      </trkpt>
      <trkpt lon="76.997178" lat="10.390362">
        <ele>1351.0</ele>
        <time>2026-01-20T04:45:15Z</time>
      </trkpt>
      <trkpt lon="76.997242" lat="10.390209">
        <ele>1351.0</ele>
        <time>2026-01-20T04:45:17Z</time>
      </trkpt>
      <trkpt lon="76.997313" lat="10.390087">
        <ele>1351.0</ele>
        <time>2026-01-20T04:45:19Z</time>
      </trkpt>
      <trkpt lon="76.99742" lat="10.390023">
        <ele>1351.0</ele>
        <time>2026-01-20T04:45:21Z</time>
      </trkpt>
      <trkpt lon="76.997556" lat="10.390044">
        <ele>1351.0</ele>
        <time>2026-01-20T04:45:23Z</time>
      </trkpt>
      <trkpt lon="76.997724" lat="10.390097">
        <ele>1283.0</ele>
        <time>2026-01-20T04:45:25Z</time>
      </trkpt>
      <trkpt lon="76.997883" lat="10.390189">
        <ele>1281.0</ele>
        <time>2026-01-20T04:45:27Z</time>
      </trkpt>
      <trkpt lon="76.997953" lat="10.390257">
        <ele>1281.0</ele>
        <time>2026-01-20T04:45:28Z</time>
      </trkpt>
      <trkpt lon="76.998017" lat="10.390422">
        <ele>1281.0</ele>
        <time>2026-01-20T04:45:30Z</time>
      </trkpt>
      <trkpt lon="76.998036" lat="10.390512">
        <ele>1281.0</ele>
        <time>2026-01-20T04:45:31Z</time>
      </trkpt>
      <trkpt lon="76.998055" lat="10.390609">
        <ele>1281.0</ele>
        <time>2026-01-20T04:45:32Z</time>
      </trkpt>
      <trkpt lon="76.998094" lat="10.390762">
        <ele>1280.0</ele>
        <time>2026-01-20T04:45:34Z</time>
      </trkpt>
      <trkpt lon="76.998181" lat="10.390868">
        <ele>1279.0</ele>
        <time>2026-01-20T04:45:36Z</time>
      </trkpt>
      <trkpt lon="76.998338" lat="10.390923">
        <ele>1278.0</ele>
        <time>2026-01-20T04:45:38Z</time>
      </trkpt>
      <trkpt lon="76.998501" lat="10.390982">
        <ele>1277.0</ele>
        <time>2026-01-20T04:45:40Z</time>
      </trkpt>
      <trkpt lon="76.998587" lat="10.391026">
        <ele>1277.0</ele>
        <time>2026-01-20T04:45:41Z</time>
      </trkpt>
      <trkpt lon="76.998771" lat="10.391058">
        <ele>1277.0</ele>
        <time>2026-01-20T04:45:43Z</time>
      </trkpt>
      <trkpt lon="76.998941" lat="10.391039">
        <ele>1276.0</ele>
        <time>2026-01-20T04:45:45Z</time>
      </trkpt>
      <trkpt lon="76.999079" lat="10.391023">
        <ele>1276.0</ele>
        <time>2026-01-20T04:45:47Z</time>
      </trkpt>
      <trkpt lon="76.999153" lat="10.39112">
        <ele>1275.0</ele>
        <time>2026-01-20T04:45:50Z</time>
      </trkpt>
      <trkpt lon="76.999157" lat="10.391269">
        <ele>1273.0</ele>
        <time>2026-01-20T04:45:52Z</time>
      </trkpt>
      <trkpt lon="76.999198" lat="10.391408">
        <ele>1272.0</ele>
        <time>2026-01-20T04:45:54Z</time>
      </trkpt>
      <trkpt lon="76.999333" lat="10.391515">
        <ele>1272.0</ele>
        <time>2026-01-20T04:45:56Z</time>
      </trkpt>
      <trkpt lon="76.999489" lat="10.3916">
        <ele>1269.0</ele>
        <time>2026-01-20T04:45:58Z</time>
      </trkpt>
      <trkpt lon="76.99964" lat="10.391633">
        <ele>1267.0</ele>
        <time>2026-01-20T04:46:00Z</time>
      </trkpt>
      <trkpt lon="76.999793" lat="10.391648">
        <ele>1266.0</ele>
        <time>2026-01-20T04:46:02Z</time>
      </trkpt>
      <trkpt lon="76.999886" lat="10.391648">
        <ele>1266.0</ele>
        <time>2026-01-20T04:46:04Z</time>
      </trkpt>
      <trkpt lon="76.999754" lat="10.391644">
        <ele>1263.0</ele>
        <time>2026-01-20T04:46:11Z</time>
      </trkpt>
      <trkpt lon="76.999613" lat="10.39162">
        <ele>1262.0</ele>
        <time>2026-01-20T04:46:13Z</time>
      </trkpt>
      <trkpt lon="76.99944" lat="10.391626">
        <ele>1260.0</ele>
        <time>2026-01-20T04:46:15Z</time>
      </trkpt>
      <trkpt lon="76.999277" lat="10.391601">
        <ele>1258.0</ele>
        <time>2026-01-20T04:46:17Z</time>
      </trkpt>
      <trkpt lon="76.999145" lat="10.391521">
        <ele>1258.0</ele>
        <time>2026-01-20T04:46:19Z</time>
      </trkpt>
      <trkpt lon="76.999074" lat="10.3914">
        <ele>1257.0</ele>
        <time>2026-01-20T04:46:21Z</time>
      </trkpt>
      <trkpt lon="76.999016" lat="10.391289">
        <ele>1257.0</ele>
        <time>2026-01-20T04:46:23Z</time>
      </trkpt>
      <trkpt lon="76.99889" lat="10.391281">
        <ele>1257.0</ele>
        <time>2026-01-20T04:46:25Z</time>
      </trkpt>
      <trkpt lon="76.998754" lat="10.391347">
        <ele>1257.0</ele>
        <time>2026-01-20T04:46:27Z</time>
      </trkpt>
      <trkpt lon="76.998616" lat="10.391436">
        <ele>1257.0</ele>
        <time>2026-01-20T04:46:29Z</time>
      </trkpt>
      <trkpt lon="76.998467" lat="10.39149">
        <ele>1257.0</ele>
        <time>2026-01-20T04:46:31Z</time>
      </trkpt>
      <trkpt lon="76.998303" lat="10.391446">
        <ele>1256.0</ele>
        <time>2026-01-20T04:46:33Z</time>
      </trkpt>
      <trkpt lon="76.998135" lat="10.391381">
        <ele>1254.0</ele>
        <time>2026-01-20T04:46:35Z</time>
      </trkpt>
      <trkpt lon="76.997977" lat="10.391314">
        <ele>1251.0</ele>
        <time>2026-01-20T04:46:37Z</time>
      </trkpt>
      <trkpt lon="76.997858" lat="10.391198">
        <ele>1251.0</ele>
        <time>2026-01-20T04:46:39Z</time>
      </trkpt>
      <trkpt lon="76.997761" lat="10.391074">
        <ele>1251.0</ele>
        <time>2026-01-20T04:46:41Z</time>
      </trkpt>
      <trkpt lon="76.997682" lat="10.390933">
        <ele>1250.0</ele>
        <time>2026-01-20T04:46:43Z</time>
      </trkpt>
      <trkpt lon="76.997553" lat="10.390883">
        <ele>1249.0</ele>
        <time>2026-01-20T04:46:45Z</time>
      </trkpt>
      <trkpt lon="76.997428" lat="10.39092">
        <ele>1249.0</ele>
        <time>2026-01-20T04:46:47Z</time>
      </trkpt>
      <trkpt lon="76.997358" lat="10.391057">
        <ele>1247.0</ele>
        <time>2026-01-20T04:46:49Z</time>
      </trkpt>
      <trkpt lon="76.997293" lat="10.391203">
        <ele>1248.0</ele>
        <time>2026-01-20T04:46:51Z</time>
      </trkpt>
      <trkpt lon="76.997208" lat="10.391348">
        <ele>1249.0</ele>
        <time>2026-01-20T04:46:53Z</time>
      </trkpt>
      <trkpt lon="76.997138" lat="10.391414">
        <ele>1249.0</ele>
        <time>2026-01-20T04:46:54Z</time>
      </trkpt>
      <trkpt lon="76.996988" lat="10.391533">
        <ele>1249.0</ele>
        <time>2026-01-20T04:46:56Z</time>
      </trkpt>
      <trkpt lon="76.996831" lat="10.391602">
        <ele>1247.0</ele>
        <time>2026-01-20T04:46:58Z</time>
      </trkpt>
      <trkpt lon="76.99666" lat="10.391623">
        <ele>1246.0</ele>
        <time>2026-01-20T04:47:00Z</time>
      </trkpt>
      <trkpt lon="76.996565" lat="10.391614">
        <ele>1245.0</ele>
        <time>2026-01-20T04:47:01Z</time>
      </trkpt>
      <trkpt lon="76.99646" lat="10.391619">
        <ele>1243.0</ele>
        <time>2026-01-20T04:47:02Z</time>
      </trkpt>
      <trkpt lon="76.996359" lat="10.391624">
        <ele>1242.0</ele>
        <time>2026-01-20T04:47:03Z</time>
      </trkpt>
      <trkpt lon="76.996265" lat="10.391631">
        <ele>1241.0</ele>
        <time>2026-01-20T04:47:04Z</time>
      </trkpt>
      <trkpt lon="76.9961" lat="10.391651">
        <ele>1240.0</ele>
        <time>2026-01-20T04:47:06Z</time>
      </trkpt>
      <trkpt lon="76.995937" lat="10.391614">
        <ele>1238.0</ele>
        <time>2026-01-20T04:47:08Z</time>
      </trkpt>
      <trkpt lon="76.995793" lat="10.391495">
        <ele>1236.0</ele>
        <time>2026-01-20T04:47:10Z</time>
      </trkpt>
      <trkpt lon="76.995728" lat="10.39142">
        <ele>1235.0</ele>
        <time>2026-01-20T04:47:11Z</time>
      </trkpt>
      <trkpt lon="76.99566" lat="10.391357">
        <ele>1235.0</ele>
        <time>2026-01-20T04:47:12Z</time>
      </trkpt>
      <trkpt lon="76.995517" lat="10.391257">
        <ele>1233.0</ele>
        <time>2026-01-20T04:47:14Z</time>
      </trkpt>
      <trkpt lon="76.995373" lat="10.391217">
        <ele>1232.0</ele>
        <time>2026-01-20T04:47:16Z</time>
      </trkpt>
      <trkpt lon="76.995212" lat="10.391196">
        <ele>1232.0</ele>
        <time>2026-01-20T04:47:18Z</time>
      </trkpt>
      <trkpt lon="76.995067" lat="10.391136">
        <ele>1231.0</ele>
        <time>2026-01-20T04:47:20Z</time>
      </trkpt>
      <trkpt lon="76.994935" lat="10.391014">
        <ele>1230.0</ele>
        <time>2026-01-20T04:47:22Z</time>
      </trkpt>
      <trkpt lon="76.994876" lat="10.390943">
        <ele>1229.0</ele>
        <time>2026-01-20T04:47:23Z</time>
      </trkpt>
      <trkpt lon="76.994821" lat="10.390865">
        <ele>1229.0</ele>
        <time>2026-01-20T04:47:24Z</time>
      </trkpt>
      <trkpt lon="76.994732" lat="10.390757">
        <ele>1228.0</ele>
        <time>2026-01-20T04:47:26Z</time>
      </trkpt>
      <trkpt lon="76.994677" lat="10.390685">
        <ele>1228.0</ele>
        <time>2026-01-20T04:47:28Z</time>
      </trkpt>
      <trkpt lon="76.994596" lat="10.390743">
        <ele>1229.0</ele>
        <time>2026-01-20T04:47:32Z</time>
      </trkpt>
      <trkpt lon="76.994598" lat="10.390835">
        <ele>1229.0</ele>
        <time>2026-01-20T04:47:34Z</time>
      </trkpt>
      <trkpt lon="76.994623" lat="10.39097">
        <ele>1230.0</ele>
        <time>2026-01-20T04:47:36Z</time>
      </trkpt>
      <trkpt lon="76.994576" lat="10.391138">
        <ele>1230.0</ele>
        <time>2026-01-20T04:47:38Z</time>
      </trkpt>
      <trkpt lon="76.994546" lat="10.391233">
        <ele>1230.0</ele>
        <time>2026-01-20T04:47:39Z</time>
      </trkpt>
      <trkpt lon="76.994516" lat="10.391337">
        <ele>1230.0</ele>
        <time>2026-01-20T04:47:40Z</time>
      </trkpt>
      <trkpt lon="76.994496" lat="10.391438">
        <ele>1230.0</ele>
        <time>2026-01-20T04:47:41Z</time>
      </trkpt>
      <trkpt lon="76.994465" lat="10.391539">
        <ele>1230.0</ele>
        <time>2026-01-20T04:47:42Z</time>
      </trkpt>
      <trkpt lon="76.994429" lat="10.391639">
        <ele>1228.0</ele>
        <time>2026-01-20T04:47:43Z</time>
      </trkpt>
      <trkpt lon="76.994388" lat="10.391738">
        <ele>1228.0</ele>
        <time>2026-01-20T04:47:44Z</time>
      </trkpt>
      <trkpt lon="76.994347" lat="10.391828">
        <ele>1226.0</ele>
        <time>2026-01-20T04:47:45Z</time>
      </trkpt>
      <trkpt lon="76.994311" lat="10.391926">
        <ele>1226.0</ele>
        <time>2026-01-20T04:47:46Z</time>
      </trkpt>
      <trkpt lon="76.994287" lat="10.392029">
        <ele>1226.0</ele>
        <time>2026-01-20T04:47:47Z</time>
      </trkpt>
      <trkpt lon="76.994262" lat="10.392131">
        <ele>1226.0</ele>
        <time>2026-01-20T04:47:48Z</time>
      </trkpt>
      <trkpt lon="76.994246" lat="10.392234">
        <ele>1226.0</ele>
        <time>2026-01-20T04:47:49Z</time>
      </trkpt>
      <trkpt lon="76.994231" lat="10.392338">
        <ele>1226.0</ele>
        <time>2026-01-20T04:47:50Z</time>
      </trkpt>
      <trkpt lon="76.994216" lat="10.392444">
        <ele>1225.0</ele>
        <time>2026-01-20T04:47:51Z</time>
      </trkpt>
      <trkpt lon="76.994192" lat="10.392548">
        <ele>1226.0</ele>
        <time>2026-01-20T04:47:52Z</time>
      </trkpt>
      <trkpt lon="76.99418" lat="10.392646">
        <ele>1225.0</ele>
        <time>2026-01-20T04:47:53Z</time>
      </trkpt>
      <trkpt lon="76.994164" lat="10.392756">
        <ele>1225.0</ele>
        <time>2026-01-20T04:47:54Z</time>
      </trkpt>
      <trkpt lon="76.994144" lat="10.392865">
        <ele>1224.0</ele>
        <time>2026-01-20T04:47:55Z</time>
      </trkpt>
      <trkpt lon="76.994123" lat="10.392965">
        <ele>1224.0</ele>
        <time>2026-01-20T04:47:56Z</time>
      </trkpt>
      <trkpt lon="76.994105" lat="10.393066">
        <ele>1223.0</ele>
        <time>2026-01-20T04:47:57Z</time>
      </trkpt>
      <trkpt lon="76.994078" lat="10.393171">
        <ele>1222.0</ele>
        <time>2026-01-20T04:47:58Z</time>
      </trkpt>
      <trkpt lon="76.99405" lat="10.393265">
        <ele>1222.0</ele>
        <time>2026-01-20T04:47:59Z</time>
      </trkpt>
      <trkpt lon="76.994027" lat="10.393362">
        <ele>1222.0</ele>
        <time>2026-01-20T04:48:00Z</time>
      </trkpt>
      <trkpt lon="76.993996" lat="10.393453">
        <ele>1221.0</ele>
        <time>2026-01-20T04:48:01Z</time>
      </trkpt>
      <trkpt lon="76.993961" lat="10.39354">
        <ele>1220.0</ele>
        <time>2026-01-20T04:48:02Z</time>
      </trkpt>
      <trkpt lon="76.993915" lat="10.393635">
        <ele>1219.0</ele>
        <time>2026-01-20T04:48:03Z</time>
      </trkpt>
      <trkpt lon="76.993869" lat="10.393725">
        <ele>1220.0</ele>
        <time>2026-01-20T04:48:04Z</time>
      </trkpt>
      <trkpt lon="76.993808" lat="10.393813">
        <ele>1219.0</ele>
        <time>2026-01-20T04:48:05Z</time>
      </trkpt>
      <trkpt lon="76.993712" lat="10.393958">
        <ele>1217.0</ele>
        <time>2026-01-20T04:48:07Z</time>
      </trkpt>
      <trkpt lon="76.993608" lat="10.394071">
        <ele>1213.0</ele>
        <time>2026-01-20T04:48:09Z</time>
      </trkpt>
      <trkpt lon="76.993537" lat="10.394168">
        <ele>1212.0</ele>
        <time>2026-01-20T04:48:11Z</time>
      </trkpt>
      <trkpt lon="76.993441" lat="10.394227">
        <ele>1209.0</ele>
        <time>2026-01-20T04:48:14Z</time>
      </trkpt>
      <trkpt lon="76.99333" lat="10.394241">
        <ele>1208.0</ele>
        <time>2026-01-20T04:48:17Z</time>
      </trkpt>
      <trkpt lon="76.99323" lat="10.394327">
        <ele>1208.0</ele>
        <time>2026-01-20T04:48:20Z</time>
      </trkpt>
      <trkpt lon="76.993147" lat="10.394466">
        <ele>1207.0</ele>
        <time>2026-01-20T04:48:22Z</time>
      </trkpt>
      <trkpt lon="76.993064" lat="10.394615">
        <ele>1206.0</ele>
        <time>2026-01-20T04:48:24Z</time>
      </trkpt>
      <trkpt lon="76.99297" lat="10.394742">
        <ele>1203.0</ele>
        <time>2026-01-20T04:48:26Z</time>
      </trkpt>
      <trkpt lon="76.992837" lat="10.394781">
        <ele>1201.0</ele>
        <time>2026-01-20T04:48:28Z</time>
      </trkpt>
      <trkpt lon="76.992686" lat="10.394774">
        <ele>1199.0</ele>
        <time>2026-01-20T04:48:30Z</time>
      </trkpt>
      <trkpt lon="76.99255" lat="10.394704">
        <ele>1199.0</ele>
        <time>2026-01-20T04:48:32Z</time>
      </trkpt>
      <trkpt lon="76.992414" lat="10.394609">
        <ele>1199.0</ele>
        <time>2026-01-20T04:48:34Z</time>
      </trkpt>
      <trkpt lon="76.992342" lat="10.394554">
        <ele>1198.0</ele>
        <time>2026-01-20T04:48:35Z</time>
      </trkpt>
      <trkpt lon="76.992266" lat="10.3945">
        <ele>1197.0</ele>
        <time>2026-01-20T04:48:36Z</time>
      </trkpt>
      <trkpt lon="76.992111" lat="10.394446">
        <ele>1195.0</ele>
        <time>2026-01-20T04:48:38Z</time>
      </trkpt>
      <trkpt lon="76.991989" lat="10.394431">
        <ele>1192.0</ele>
        <time>2026-01-20T04:48:40Z</time>
      </trkpt>
      <trkpt lon="76.991875" lat="10.394472">
        <ele>1190.0</ele>
        <time>2026-01-20T04:48:42Z</time>
      </trkpt>
      <trkpt lon="76.991759" lat="10.394536">
        <ele>1189.0</ele>
        <time>2026-01-20T04:48:44Z</time>
      </trkpt>
      <trkpt lon="76.991726" lat="10.394622">
        <ele>1189.0</ele>
        <time>2026-01-20T04:48:45Z</time>
      </trkpt>
      <trkpt lon="76.991704" lat="10.394719">
        <ele>1188.0</ele>
        <time>2026-01-20T04:48:46Z</time>
      </trkpt>
      <trkpt lon="76.991703" lat="10.394819">
        <ele>1188.0</ele>
        <time>2026-01-20T04:48:47Z</time>
      </trkpt>
      <trkpt lon="76.991709" lat="10.39492">
        <ele>1188.0</ele>
        <time>2026-01-20T04:48:48Z</time>
      </trkpt>
      <trkpt lon="76.991735" lat="10.395033">
        <ele>1190.0</ele>
        <time>2026-01-20T04:48:49Z</time>
      </trkpt>
      <trkpt lon="76.991766" lat="10.395141">
        <ele>1190.0</ele>
        <time>2026-01-20T04:48:50Z</time>
      </trkpt>
      <trkpt lon="76.991779" lat="10.395241">
        <ele>1190.0</ele>
        <time>2026-01-20T04:48:51Z</time>
      </trkpt>
      <trkpt lon="76.991796" lat="10.395341">
        <ele>1190.0</ele>
        <time>2026-01-20T04:48:52Z</time>
      </trkpt>
      <trkpt lon="76.99181" lat="10.395437">
        <ele>1190.0</ele>
        <time>2026-01-20T04:48:53Z</time>
      </trkpt>
      <trkpt lon="76.99181" lat="10.395618">
        <ele>1191.0</ele>
        <time>2026-01-20T04:48:55Z</time>
      </trkpt>
      <trkpt lon="76.991764" lat="10.395775">
        <ele>1192.0</ele>
        <time>2026-01-20T04:48:57Z</time>
      </trkpt>
      <trkpt lon="76.991731" lat="10.395863">
        <ele>1192.0</ele>
        <time>2026-01-20T04:48:58Z</time>
      </trkpt>
      <trkpt lon="76.991697" lat="10.396036">
        <ele>1193.0</ele>
        <time>2026-01-20T04:49:00Z</time>
      </trkpt>
      <trkpt lon="76.991689" lat="10.396131">
        <ele>1194.0</ele>
        <time>2026-01-20T04:49:01Z</time>
      </trkpt>
      <trkpt lon="76.991684" lat="10.396223">
        <ele>1193.0</ele>
        <time>2026-01-20T04:49:02Z</time>
      </trkpt>
      <trkpt lon="76.991662" lat="10.39641">
        <ele>1192.0</ele>
        <time>2026-01-20T04:49:04Z</time>
      </trkpt>
      <trkpt lon="76.99164" lat="10.396507">
        <ele>1191.0</ele>
        <time>2026-01-20T04:49:05Z</time>
      </trkpt>
      <trkpt lon="76.99162" lat="10.396602">
        <ele>1191.0</ele>
        <time>2026-01-20T04:49:06Z</time>
      </trkpt>
      <trkpt lon="76.991589" lat="10.396703">
        <ele>1190.0</ele>
        <time>2026-01-20T04:49:07Z</time>
      </trkpt>
      <trkpt lon="76.991564" lat="10.39679">
        <ele>1190.0</ele>
        <time>2026-01-20T04:49:08Z</time>
      </trkpt>
      <trkpt lon="76.991512" lat="10.396936">
        <ele>1190.0</ele>
        <time>2026-01-20T04:49:10Z</time>
      </trkpt>
      <trkpt lon="76.991451" lat="10.397063">
        <ele>1192.0</ele>
        <time>2026-01-20T04:49:12Z</time>
      </trkpt>
      <trkpt lon="76.991488" lat="10.397208">
        <ele>1190.0</ele>
        <time>2026-01-20T04:49:14Z</time>
      </trkpt>
      <trkpt lon="76.991528" lat="10.39729">
        <ele>1190.0</ele>
        <time>2026-01-20T04:49:15Z</time>
      </trkpt>
      <trkpt lon="76.991589" lat="10.397451">
        <ele>1189.0</ele>
        <time>2026-01-20T04:49:17Z</time>
      </trkpt>
      <trkpt lon="76.991606" lat="10.397609">
        <ele>1187.0</ele>
        <time>2026-01-20T04:49:19Z</time>
      </trkpt>
      <trkpt lon="76.991602" lat="10.397786">
        <ele>1184.0</ele>
        <time>2026-01-20T04:49:21Z</time>
      </trkpt>
      <trkpt lon="76.99158" lat="10.397954">
        <ele>1182.0</ele>
        <time>2026-01-20T04:49:23Z</time>
      </trkpt>
      <trkpt lon="76.99156" lat="10.39805">
        <ele>1181.0</ele>
        <time>2026-01-20T04:49:24Z</time>
      </trkpt>
      <trkpt lon="76.99154" lat="10.398151">
        <ele>1181.0</ele>
        <time>2026-01-20T04:49:25Z</time>
      </trkpt>
      <trkpt lon="76.991503" lat="10.398256">
        <ele>1180.0</ele>
        <time>2026-01-20T04:49:26Z</time>
      </trkpt>
      <trkpt lon="76.99145" lat="10.398365">
        <ele>1179.0</ele>
        <time>2026-01-20T04:49:27Z</time>
      </trkpt>
      <trkpt lon="76.991408" lat="10.39847">
        <ele>1178.0</ele>
        <time>2026-01-20T04:49:28Z</time>
      </trkpt>
      <trkpt lon="76.991369" lat="10.398572">
        <ele>1178.0</ele>
        <time>2026-01-20T04:49:29Z</time>
      </trkpt>
      <trkpt lon="76.991334" lat="10.398675">
        <ele>1177.0</ele>
        <time>2026-01-20T04:49:30Z</time>
      </trkpt>
      <trkpt lon="76.991293" lat="10.398782">
        <ele>1176.0</ele>
        <time>2026-01-20T04:49:31Z</time>
      </trkpt>
      <trkpt lon="76.991269" lat="10.398891">
        <ele>1176.0</ele>
        <time>2026-01-20T04:49:32Z</time>
      </trkpt>
      <trkpt lon="76.991251" lat="10.39899">
        <ele>1176.0</ele>
        <time>2026-01-20T04:49:33Z</time>
      </trkpt>
      <trkpt lon="76.991254" lat="10.3991">
        <ele>1175.0</ele>
        <time>2026-01-20T04:49:34Z</time>
      </trkpt>
      <trkpt lon="76.991255" lat="10.399206">
        <ele>1174.0</ele>
        <time>2026-01-20T04:49:35Z</time>
      </trkpt>
      <trkpt lon="76.991244" lat="10.399304">
        <ele>1173.0</ele>
        <time>2026-01-20T04:49:36Z</time>
      </trkpt>
      <trkpt lon="76.991239" lat="10.399396">
        <ele>1173.0</ele>
        <time>2026-01-20T04:49:37Z</time>
      </trkpt>
      <trkpt lon="76.991218" lat="10.399541">
        <ele>1173.0</ele>
        <time>2026-01-20T04:49:39Z</time>
      </trkpt>
      <trkpt lon="76.991151" lat="10.399679">
        <ele>1173.0</ele>
        <time>2026-01-20T04:49:41Z</time>
      </trkpt>
      <trkpt lon="76.99104" lat="10.39981">
        <ele>1171.0</ele>
        <time>2026-01-20T04:49:43Z</time>
      </trkpt>
      <trkpt lon="76.990975" lat="10.399875">
        <ele>1171.0</ele>
        <time>2026-01-20T04:49:44Z</time>
      </trkpt>
      <trkpt lon="76.990899" lat="10.400009">
        <ele>1171.0</ele>
        <time>2026-01-20T04:49:46Z</time>
      </trkpt>
      <trkpt lon="76.990899" lat="10.400155">
        <ele>1170.0</ele>
        <time>2026-01-20T04:49:48Z</time>
      </trkpt>
      <trkpt lon="76.990955" lat="10.400307">
        <ele>1170.0</ele>
        <time>2026-01-20T04:49:50Z</time>
      </trkpt>
      <trkpt lon="76.991028" lat="10.40037">
        <ele>1169.0</ele>
        <time>2026-01-20T04:49:51Z</time>
      </trkpt>
      <trkpt lon="76.991114" lat="10.400433">
        <ele>1169.0</ele>
        <time>2026-01-20T04:49:52Z</time>
      </trkpt>
      <trkpt lon="76.991195" lat="10.400488">
        <ele>1168.0</ele>
        <time>2026-01-20T04:49:53Z</time>
      </trkpt>
      <trkpt lon="76.991278" lat="10.400543">
        <ele>1168.0</ele>
        <time>2026-01-20T04:49:54Z</time>
      </trkpt>
      <trkpt lon="76.991353" lat="10.40061">
        <ele>1168.0</ele>
        <time>2026-01-20T04:49:55Z</time>
      </trkpt>
      <trkpt lon="76.991436" lat="10.400761">
        <ele>1167.0</ele>
        <time>2026-01-20T04:49:57Z</time>
      </trkpt>
      <trkpt lon="76.991467" lat="10.400855">
        <ele>1167.0</ele>
        <time>2026-01-20T04:49:58Z</time>
      </trkpt>
      <trkpt lon="76.991491" lat="10.400954">
        <ele>1167.0</ele>
        <time>2026-01-20T04:49:59Z</time>
      </trkpt>
      <trkpt lon="76.991505" lat="10.401056">
        <ele>1166.0</ele>
        <time>2026-01-20T04:50:00Z</time>
      </trkpt>
      <trkpt lon="76.991519" lat="10.401153">
        <ele>1165.0</ele>
        <time>2026-01-20T04:50:01Z</time>
      </trkpt>
      <trkpt lon="76.991515" lat="10.40125">
        <ele>1165.0</ele>
        <time>2026-01-20T04:50:02Z</time>
      </trkpt>
      <trkpt lon="76.991505" lat="10.401343">
        <ele>1164.0</ele>
        <time>2026-01-20T04:50:03Z</time>
      </trkpt>
      <trkpt lon="76.991525" lat="10.401502">
        <ele>1163.0</ele>
        <time>2026-01-20T04:50:05Z</time>
      </trkpt>
      <trkpt lon="76.991647" lat="10.401605">
        <ele>1162.0</ele>
        <time>2026-01-20T04:50:07Z</time>
      </trkpt>
      <trkpt lon="76.991815" lat="10.401669">
        <ele>1161.0</ele>
        <time>2026-01-20T04:50:09Z</time>
      </trkpt>
      <trkpt lon="76.991905" lat="10.401692">
        <ele>1160.0</ele>
        <time>2026-01-20T04:50:10Z</time>
      </trkpt>
      <trkpt lon="76.992075" lat="10.401735">
        <ele>1160.0</ele>
        <time>2026-01-20T04:50:12Z</time>
      </trkpt>
      <trkpt lon="76.992216" lat="10.401794">
        <ele>1156.0</ele>
        <time>2026-01-20T04:50:14Z</time>
      </trkpt>
      <trkpt lon="76.992274" lat="10.401864">
        <ele>1156.0</ele>
        <time>2026-01-20T04:50:15Z</time>
      </trkpt>
      <trkpt lon="76.992321" lat="10.401944">
        <ele>1156.0</ele>
        <time>2026-01-20T04:50:16Z</time>
      </trkpt>
      <trkpt lon="76.992378" lat="10.402022">
        <ele>1155.0</ele>
        <time>2026-01-20T04:50:17Z</time>
      </trkpt>
      <trkpt lon="76.992429" lat="10.402097">
        <ele>1155.0</ele>
        <time>2026-01-20T04:50:18Z</time>
      </trkpt>
      <trkpt lon="76.9925" lat="10.402162">
        <ele>1155.0</ele>
        <time>2026-01-20T04:50:19Z</time>
      </trkpt>
      <trkpt lon="76.992598" lat="10.402204">
        <ele>1154.0</ele>
        <time>2026-01-20T04:50:20Z</time>
      </trkpt>
      <trkpt lon="76.992695" lat="10.402236">
        <ele>1153.0</ele>
        <time>2026-01-20T04:50:21Z</time>
      </trkpt>
      <trkpt lon="76.992797" lat="10.402248">
        <ele>1152.0</ele>
        <time>2026-01-20T04:50:22Z</time>
      </trkpt>
      <trkpt lon="76.9929" lat="10.402253">
        <ele>1151.0</ele>
        <time>2026-01-20T04:50:23Z</time>
      </trkpt>
      <trkpt lon="76.992997" lat="10.40224">
        <ele>1151.0</ele>
        <time>2026-01-20T04:50:24Z</time>
      </trkpt>
      <trkpt lon="76.993089" lat="10.402216">
        <ele>1150.0</ele>
        <time>2026-01-20T04:50:25Z</time>
      </trkpt>
      <trkpt lon="76.993266" lat="10.402187">
        <ele>1148.0</ele>
        <time>2026-01-20T04:50:27Z</time>
      </trkpt>
      <trkpt lon="76.993408" lat="10.402195">
        <ele>1149.0</ele>
        <time>2026-01-20T04:50:29Z</time>
      </trkpt>
      <trkpt lon="76.993497" lat="10.402277">
        <ele>1148.0</ele>
        <time>2026-01-20T04:50:31Z</time>
      </trkpt>
      <trkpt lon="76.993485" lat="10.402417">
        <ele>1147.0</ele>
        <time>2026-01-20T04:50:33Z</time>
      </trkpt>
      <trkpt lon="76.993389" lat="10.40253">
        <ele>1146.0</ele>
        <time>2026-01-20T04:50:35Z</time>
      </trkpt>
      <trkpt lon="76.993339" lat="10.402648">
        <ele>1146.0</ele>
        <time>2026-01-20T04:50:37Z</time>
      </trkpt>
      <trkpt lon="76.993389" lat="10.402786">
        <ele>1146.0</ele>
        <time>2026-01-20T04:50:39Z</time>
      </trkpt>
      <trkpt lon="76.993431" lat="10.402874">
        <ele>1146.0</ele>
        <time>2026-01-20T04:50:40Z</time>
      </trkpt>
      <trkpt lon="76.993458" lat="10.402962">
        <ele>1146.0</ele>
        <time>2026-01-20T04:50:41Z</time>
      </trkpt>
      <trkpt lon="76.993459" lat="10.403059">
        <ele>1146.0</ele>
        <time>2026-01-20T04:50:42Z</time>
      </trkpt>
      <trkpt lon="76.993465" lat="10.403159">
        <ele>1146.0</ele>
        <time>2026-01-20T04:50:43Z</time>
      </trkpt>
      <trkpt lon="76.993484" lat="10.403253">
        <ele>1146.0</ele>
        <time>2026-01-20T04:50:44Z</time>
      </trkpt>
      <trkpt lon="76.993519" lat="10.403348">
        <ele>1146.0</ele>
        <time>2026-01-20T04:50:45Z</time>
      </trkpt>
      <trkpt lon="76.993559" lat="10.403442">
        <ele>1145.0</ele>
        <time>2026-01-20T04:50:46Z</time>
      </trkpt>
      <trkpt lon="76.993583" lat="10.403536">
        <ele>1145.0</ele>
        <time>2026-01-20T04:50:47Z</time>
      </trkpt>
      <trkpt lon="76.993593" lat="10.403629">
        <ele>1145.0</ele>
        <time>2026-01-20T04:50:48Z</time>
      </trkpt>
      <trkpt lon="76.99358" lat="10.403736">
        <ele>1145.0</ele>
        <time>2026-01-20T04:50:49Z</time>
      </trkpt>
      <trkpt lon="76.993584" lat="10.403838">
        <ele>1145.0</ele>
        <time>2026-01-20T04:50:50Z</time>
      </trkpt>
      <trkpt lon="76.993594" lat="10.403989">
        <ele>1145.0</ele>
        <time>2026-01-20T04:50:52Z</time>
      </trkpt>
      <trkpt lon="76.993545" lat="10.404115">
        <ele>1144.0</ele>
        <time>2026-01-20T04:50:54Z</time>
      </trkpt>
      <trkpt lon="76.99341" lat="10.404186">
        <ele>1144.0</ele>
        <time>2026-01-20T04:50:56Z</time>
      </trkpt>
      <trkpt lon="76.993253" lat="10.404237">
        <ele>1143.0</ele>
        <time>2026-01-20T04:50:58Z</time>
      </trkpt>
      <trkpt lon="76.993194" lat="10.40431">
        <ele>1143.0</ele>
        <time>2026-01-20T04:50:59Z</time>
      </trkpt>
      <trkpt lon="76.993155" lat="10.404396">
        <ele>1142.0</ele>
        <time>2026-01-20T04:51:00Z</time>
      </trkpt>
      <trkpt lon="76.99313" lat="10.404495">
        <ele>1143.0</ele>
        <time>2026-01-20T04:51:01Z</time>
      </trkpt>
      <trkpt lon="76.993144" lat="10.404593">
        <ele>1142.0</ele>
        <time>2026-01-20T04:51:02Z</time>
      </trkpt>
      <trkpt lon="76.993182" lat="10.404686">
        <ele>1143.0</ele>
        <time>2026-01-20T04:51:03Z</time>
      </trkpt>
      <trkpt lon="76.993237" lat="10.40477">
        <ele>1143.0</ele>
        <time>2026-01-20T04:51:04Z</time>
      </trkpt>
      <trkpt lon="76.993299" lat="10.404858">
        <ele>1142.0</ele>
        <time>2026-01-20T04:51:05Z</time>
      </trkpt>
      <trkpt lon="76.993356" lat="10.404946">
        <ele>1142.0</ele>
        <time>2026-01-20T04:51:06Z</time>
      </trkpt>
      <trkpt lon="76.993409" lat="10.405027">
        <ele>1141.0</ele>
        <time>2026-01-20T04:51:07Z</time>
      </trkpt>
      <trkpt lon="76.993448" lat="10.40511">
        <ele>1141.0</ele>
        <time>2026-01-20T04:51:08Z</time>
      </trkpt>
      <trkpt lon="76.993519" lat="10.405266">
        <ele>1141.0</ele>
        <time>2026-01-20T04:51:10Z</time>
      </trkpt>
      <trkpt lon="76.993655" lat="10.405342">
        <ele>1141.0</ele>
        <time>2026-01-20T04:51:12Z</time>
      </trkpt>
      <trkpt lon="76.993785" lat="10.405302">
        <ele>1141.0</ele>
        <time>2026-01-20T04:51:14Z</time>
      </trkpt>
      <trkpt lon="76.993907" lat="10.405216">
        <ele>1140.0</ele>
        <time>2026-01-20T04:51:16Z</time>
      </trkpt>
      <trkpt lon="76.99399" lat="10.405175">
        <ele>1140.0</ele>
        <time>2026-01-20T04:51:17Z</time>
      </trkpt>
      <trkpt lon="76.994091" lat="10.405146">
        <ele>1139.0</ele>
        <time>2026-01-20T04:51:18Z</time>
      </trkpt>
      <trkpt lon="76.994191" lat="10.405133">
        <ele>1138.0</ele>
        <time>2026-01-20T04:51:19Z</time>
      </trkpt>
      <trkpt lon="76.994289" lat="10.405141">
        <ele>1138.0</ele>
        <time>2026-01-20T04:51:20Z</time>
      </trkpt>
      <trkpt lon="76.994452" lat="10.405187">
        <ele>1137.0</ele>
        <time>2026-01-20T04:51:22Z</time>
      </trkpt>
      <trkpt lon="76.99453" lat="10.405248">
        <ele>1137.0</ele>
        <time>2026-01-20T04:51:23Z</time>
      </trkpt>
      <trkpt lon="76.994596" lat="10.405332">
        <ele>1136.0</ele>
        <time>2026-01-20T04:51:24Z</time>
      </trkpt>
      <trkpt lon="76.994649" lat="10.405412">
        <ele>1136.0</ele>
        <time>2026-01-20T04:51:25Z</time>
      </trkpt>
      <trkpt lon="76.994769" lat="10.405552">
        <ele>1135.0</ele>
        <time>2026-01-20T04:51:27Z</time>
      </trkpt>
      <trkpt lon="76.994897" lat="10.405677">
        <ele>1134.0</ele>
        <time>2026-01-20T04:51:29Z</time>
      </trkpt>
      <trkpt lon="76.995031" lat="10.405779">
        <ele>1132.0</ele>
        <time>2026-01-20T04:51:31Z</time>
      </trkpt>
      <trkpt lon="76.995175" lat="10.405892">
        <ele>1130.0</ele>
        <time>2026-01-20T04:51:33Z</time>
      </trkpt>
      <trkpt lon="76.995247" lat="10.405947">
        <ele>1131.0</ele>
        <time>2026-01-20T04:51:34Z</time>
      </trkpt>
      <trkpt lon="76.995323" lat="10.406011">
        <ele>1130.0</ele>
        <time>2026-01-20T04:51:35Z</time>
      </trkpt>
      <trkpt lon="76.995407" lat="10.406068">
        <ele>1129.0</ele>
        <time>2026-01-20T04:51:36Z</time>
      </trkpt>
      <trkpt lon="76.995489" lat="10.406125">
        <ele>1129.0</ele>
        <time>2026-01-20T04:51:37Z</time>
      </trkpt>
      <trkpt lon="76.995564" lat="10.406187">
        <ele>1128.0</ele>
        <time>2026-01-20T04:51:38Z</time>
      </trkpt>
      <trkpt lon="76.995639" lat="10.406259">
        <ele>1127.0</ele>
        <time>2026-01-20T04:51:39Z</time>
      </trkpt>
      <trkpt lon="76.995705" lat="10.406339">
        <ele>1127.0</ele>
        <time>2026-01-20T04:51:40Z</time>
      </trkpt>
      <trkpt lon="76.995772" lat="10.406424">
        <ele>1127.0</ele>
        <time>2026-01-20T04:51:41Z</time>
      </trkpt>
      <trkpt lon="76.995832" lat="10.406519">
        <ele>1126.0</ele>
        <time>2026-01-20T04:51:42Z</time>
      </trkpt>
      <trkpt lon="76.995895" lat="10.406623">
        <ele>1126.0</ele>
        <time>2026-01-20T04:51:43Z</time>
      </trkpt>
      <trkpt lon="76.995953" lat="10.40672">
        <ele>1126.0</ele>
        <time>2026-01-20T04:51:44Z</time>
      </trkpt>
      <trkpt lon="76.996012" lat="10.406805">
        <ele>1126.0</ele>
        <time>2026-01-20T04:51:45Z</time>
      </trkpt>
      <trkpt lon="76.996066" lat="10.406884">
        <ele>1127.0</ele>
        <time>2026-01-20T04:51:46Z</time>
      </trkpt>
      <trkpt lon="76.996148" lat="10.407002">
        <ele>1128.0</ele>
        <time>2026-01-20T04:51:48Z</time>
      </trkpt>
      <trkpt lon="76.996251" lat="10.40708">
        <ele>1128.0</ele>
        <time>2026-01-20T04:51:50Z</time>
      </trkpt>
      <trkpt lon="76.996403" lat="10.407089">
        <ele>1129.0</ele>
        <time>2026-01-20T04:51:52Z</time>
      </trkpt>
      <trkpt lon="76.996492" lat="10.407063">
        <ele>1129.0</ele>
        <time>2026-01-20T04:51:53Z</time>
      </trkpt>
      <trkpt lon="76.99666" lat="10.407002">
        <ele>1129.0</ele>
        <time>2026-01-20T04:51:55Z</time>
      </trkpt>
      <trkpt lon="76.996811" lat="10.406936">
        <ele>1128.0</ele>
        <time>2026-01-20T04:51:57Z</time>
      </trkpt>
      <trkpt lon="76.996956" lat="10.406831">
        <ele>1127.0</ele>
        <time>2026-01-20T04:51:59Z</time>
      </trkpt>
      <trkpt lon="76.997027" lat="10.406768">
        <ele>1127.0</ele>
        <time>2026-01-20T04:52:00Z</time>
      </trkpt>
      <trkpt lon="76.997147" lat="10.406636">
        <ele>1126.0</ele>
        <time>2026-01-20T04:52:02Z</time>
      </trkpt>
      <trkpt lon="76.997279" lat="10.406515">
        <ele>1125.0</ele>
        <time>2026-01-20T04:52:04Z</time>
      </trkpt>
      <trkpt lon="76.997354" lat="10.406459">
        <ele>1124.0</ele>
        <time>2026-01-20T04:52:05Z</time>
      </trkpt>
      <trkpt lon="76.997494" lat="10.406385">
        <ele>1123.0</ele>
        <time>2026-01-20T04:52:07Z</time>
      </trkpt>
      <trkpt lon="76.997596" lat="10.406336">
        <ele>1123.0</ele>
        <time>2026-01-20T04:52:09Z</time>
      </trkpt>
      <trkpt lon="76.997718" lat="10.4063">
        <ele>1124.0</ele>
        <time>2026-01-20T04:52:11Z</time>
      </trkpt>
      <trkpt lon="76.997874" lat="10.406312">
        <ele>1124.0</ele>
        <time>2026-01-20T04:52:13Z</time>
      </trkpt>
      <trkpt lon="76.997958" lat="10.40636">
        <ele>1124.0</ele>
        <time>2026-01-20T04:52:14Z</time>
      </trkpt>
      <trkpt lon="76.998042" lat="10.406418">
        <ele>1123.0</ele>
        <time>2026-01-20T04:52:15Z</time>
      </trkpt>
      <trkpt lon="76.998115" lat="10.406491">
        <ele>1123.0</ele>
        <time>2026-01-20T04:52:16Z</time>
      </trkpt>
      <trkpt lon="76.998182" lat="10.406574">
        <ele>1122.0</ele>
        <time>2026-01-20T04:52:17Z</time>
      </trkpt>
      <trkpt lon="76.998242" lat="10.406659">
        <ele>1122.0</ele>
        <time>2026-01-20T04:52:18Z</time>
      </trkpt>
      <trkpt lon="76.998286" lat="10.406757">
        <ele>1122.0</ele>
        <time>2026-01-20T04:52:19Z</time>
      </trkpt>
      <trkpt lon="76.998319" lat="10.406862">
        <ele>1121.0</ele>
        <time>2026-01-20T04:52:20Z</time>
      </trkpt>
      <trkpt lon="76.998339" lat="10.406966">
        <ele>1120.0</ele>
        <time>2026-01-20T04:52:21Z</time>
      </trkpt>
      <trkpt lon="76.998348" lat="10.40708">
        <ele>1120.0</ele>
        <time>2026-01-20T04:52:22Z</time>
      </trkpt>
      <trkpt lon="76.998349" lat="10.407191">
        <ele>1120.0</ele>
        <time>2026-01-20T04:52:23Z</time>
      </trkpt>
      <trkpt lon="76.99835" lat="10.407303">
        <ele>1119.0</ele>
        <time>2026-01-20T04:52:24Z</time>
      </trkpt>
      <trkpt lon="76.998351" lat="10.407419">
        <ele>1118.0</ele>
        <time>2026-01-20T04:52:25Z</time>
      </trkpt>
      <trkpt lon="76.998361" lat="10.407534">
        <ele>1116.0</ele>
        <time>2026-01-20T04:52:26Z</time>
      </trkpt>
      <trkpt lon="76.998371" lat="10.407647">
        <ele>1116.0</ele>
        <time>2026-01-20T04:52:27Z</time>
      </trkpt>
      <trkpt lon="76.998387" lat="10.407759">
        <ele>1116.0</ele>
        <time>2026-01-20T04:52:28Z</time>
      </trkpt>
      <trkpt lon="76.998392" lat="10.407876">
        <ele>1115.0</ele>
        <time>2026-01-20T04:52:29Z</time>
      </trkpt>
      <trkpt lon="76.998383" lat="10.407984">
        <ele>1115.0</ele>
        <time>2026-01-20T04:52:30Z</time>
      </trkpt>
      <trkpt lon="76.998375" lat="10.408089">
        <ele>1115.0</ele>
        <time>2026-01-20T04:52:31Z</time>
      </trkpt>
      <trkpt lon="76.998356" lat="10.408197">
        <ele>1114.0</ele>
        <time>2026-01-20T04:52:32Z</time>
      </trkpt>
      <trkpt lon="76.998327" lat="10.408298">
        <ele>1114.0</ele>
        <time>2026-01-20T04:52:33Z</time>
      </trkpt>
      <trkpt lon="76.998279" lat="10.408388">
        <ele>1113.0</ele>
        <time>2026-01-20T04:52:34Z</time>
      </trkpt>
      <trkpt lon="76.99821" lat="10.408483">
        <ele>1112.0</ele>
        <time>2026-01-20T04:52:35Z</time>
      </trkpt>
      <trkpt lon="76.998141" lat="10.408568">
        <ele>1111.0</ele>
        <time>2026-01-20T04:52:36Z</time>
      </trkpt>
      <trkpt lon="76.998077" lat="10.408655">
        <ele>1111.0</ele>
        <time>2026-01-20T04:52:37Z</time>
      </trkpt>
      <trkpt lon="76.997979" lat="10.408813">
        <ele>1110.0</ele>
        <time>2026-01-20T04:52:39Z</time>
      </trkpt>
      <trkpt lon="76.997951" lat="10.408903">
        <ele>1109.0</ele>
        <time>2026-01-20T04:52:40Z</time>
      </trkpt>
      <trkpt lon="76.997945" lat="10.409021">
        <ele>1109.0</ele>
        <time>2026-01-20T04:52:41Z</time>
      </trkpt>
      <trkpt lon="76.997942" lat="10.409134">
        <ele>1109.0</ele>
        <time>2026-01-20T04:52:42Z</time>
      </trkpt>
      <trkpt lon="76.997935" lat="10.409239">
        <ele>1107.0</ele>
        <time>2026-01-20T04:52:43Z</time>
      </trkpt>
      <trkpt lon="76.997921" lat="10.409346">
        <ele>1107.0</ele>
        <time>2026-01-20T04:52:44Z</time>
      </trkpt>
      <trkpt lon="76.997896" lat="10.409448">
        <ele>1107.0</ele>
        <time>2026-01-20T04:52:45Z</time>
      </trkpt>
      <trkpt lon="76.997872" lat="10.409545">
        <ele>1107.0</ele>
        <time>2026-01-20T04:52:46Z</time>
      </trkpt>
      <trkpt lon="76.997827" lat="10.409704">
        <ele>1105.0</ele>
        <time>2026-01-20T04:52:48Z</time>
      </trkpt>
      <trkpt lon="76.997725" lat="10.409857">
        <ele>1105.0</ele>
        <time>2026-01-20T04:52:50Z</time>
      </trkpt>
      <trkpt lon="76.997646" lat="10.409923">
        <ele>1103.0</ele>
        <time>2026-01-20T04:52:51Z</time>
      </trkpt>
      <trkpt lon="76.997556" lat="10.409985">
        <ele>1102.0</ele>
        <time>2026-01-20T04:52:52Z</time>
      </trkpt>
      <trkpt lon="76.99747" lat="10.410043">
        <ele>1101.0</ele>
        <time>2026-01-20T04:52:53Z</time>
      </trkpt>
      <trkpt lon="76.997388" lat="10.410097">
        <ele>1101.0</ele>
        <time>2026-01-20T04:52:54Z</time>
      </trkpt>
      <trkpt lon="76.997302" lat="10.410145">
        <ele>1100.0</ele>
        <time>2026-01-20T04:52:55Z</time>
      </trkpt>
      <trkpt lon="76.997214" lat="10.410179">
        <ele>1099.0</ele>
        <time>2026-01-20T04:52:56Z</time>
      </trkpt>
      <trkpt lon="76.997124" lat="10.410198">
        <ele>1098.0</ele>
        <time>2026-01-20T04:52:57Z</time>
      </trkpt>
      <trkpt lon="76.996978" lat="10.410182">
        <ele>1097.0</ele>
        <time>2026-01-20T04:52:59Z</time>
      </trkpt>
      <trkpt lon="76.996854" lat="10.41008">
        <ele>1097.0</ele>
        <time>2026-01-20T04:53:01Z</time>
      </trkpt>
      <trkpt lon="76.996735" lat="10.409951">
        <ele>1096.0</ele>
        <time>2026-01-20T04:53:03Z</time>
      </trkpt>
      <trkpt lon="76.99668" lat="10.40987">
        <ele>1095.0</ele>
        <time>2026-01-20T04:53:04Z</time>
      </trkpt>
      <trkpt lon="76.996633" lat="10.409784">
        <ele>1094.0</ele>
        <time>2026-01-20T04:53:05Z</time>
      </trkpt>
      <trkpt lon="76.996582" lat="10.409695">
        <ele>1094.0</ele>
        <time>2026-01-20T04:53:06Z</time>
      </trkpt>
      <trkpt lon="76.996541" lat="10.409599">
        <ele>1093.0</ele>
        <time>2026-01-20T04:53:07Z</time>
      </trkpt>
      <trkpt lon="76.996495" lat="10.409516">
        <ele>1092.0</ele>
        <time>2026-01-20T04:53:08Z</time>
      </trkpt>
      <trkpt lon="76.996465" lat="10.409425">
        <ele>1094.0</ele>
        <time>2026-01-20T04:53:09Z</time>
      </trkpt>
      <trkpt lon="76.996406" lat="10.409348">
        <ele>1096.0</ele>
        <time>2026-01-20T04:53:10Z</time>
      </trkpt>
      <trkpt lon="76.996299" lat="10.409232">
        <ele>1098.0</ele>
        <time>2026-01-20T04:53:12Z</time>
      </trkpt>
      <trkpt lon="76.996154" lat="10.409176">
        <ele>1095.0</ele>
        <time>2026-01-20T04:53:14Z</time>
      </trkpt>
      <trkpt lon="76.996039" lat="10.409116">
        <ele>1091.0</ele>
        <time>2026-01-20T04:53:16Z</time>
      </trkpt>
      <trkpt lon="76.995925" lat="10.409084">
        <ele>1088.0</ele>
        <time>2026-01-20T04:53:18Z</time>
      </trkpt>
      <trkpt lon="76.995846" lat="10.409159">
        <ele>1087.0</ele>
        <time>2026-01-20T04:53:20Z</time>
      </trkpt>
      <trkpt lon="76.995834" lat="10.40928">
        <ele>1085.0</ele>
        <time>2026-01-20T04:53:22Z</time>
      </trkpt>
      <trkpt lon="76.995915" lat="10.409437">
        <ele>1084.0</ele>
        <time>2026-01-20T04:53:24Z</time>
      </trkpt>
      <trkpt lon="76.995959" lat="10.409517">
        <ele>1082.0</ele>
        <time>2026-01-20T04:53:25Z</time>
      </trkpt>
      <trkpt lon="76.996016" lat="10.409614">
        <ele>1081.0</ele>
        <time>2026-01-20T04:53:26Z</time>
      </trkpt>
      <trkpt lon="76.99607" lat="10.409721">
        <ele>1081.0</ele>
        <time>2026-01-20T04:53:27Z</time>
      </trkpt>
      <trkpt lon="76.996131" lat="10.409838">
        <ele>1080.0</ele>
        <time>2026-01-20T04:53:28Z</time>
      </trkpt>
      <trkpt lon="76.996184" lat="10.409954">
        <ele>1080.0</ele>
        <time>2026-01-20T04:53:29Z</time>
      </trkpt>
      <trkpt lon="76.99624" lat="10.41008">
        <ele>1079.0</ele>
        <time>2026-01-20T04:53:30Z</time>
      </trkpt>
      <trkpt lon="76.996293" lat="10.410216">
        <ele>1078.0</ele>
        <time>2026-01-20T04:53:31Z</time>
      </trkpt>
      <trkpt lon="76.996338" lat="10.410348">
        <ele>1079.0</ele>
        <time>2026-01-20T04:53:32Z</time>
      </trkpt>
      <trkpt lon="76.996374" lat="10.410482">
        <ele>1079.0</ele>
        <time>2026-01-20T04:53:33Z</time>
      </trkpt>
      <trkpt lon="76.996405" lat="10.410607">
        <ele>1080.0</ele>
        <time>2026-01-20T04:53:34Z</time>
      </trkpt>
      <trkpt lon="76.996431" lat="10.410731">
        <ele>1082.0</ele>
        <time>2026-01-20T04:53:35Z</time>
      </trkpt>
      <trkpt lon="76.996452" lat="10.41084">
        <ele>1083.0</ele>
        <time>2026-01-20T04:53:36Z</time>
      </trkpt>
      <trkpt lon="76.996458" lat="10.410949">
        <ele>1083.0</ele>
        <time>2026-01-20T04:53:37Z</time>
      </trkpt>
      <trkpt lon="76.996454" lat="10.411059">
        <ele>1084.0</ele>
        <time>2026-01-20T04:53:38Z</time>
      </trkpt>
      <trkpt lon="76.996436" lat="10.411171">
        <ele>1085.0</ele>
        <time>2026-01-20T04:53:39Z</time>
      </trkpt>
      <trkpt lon="76.996418" lat="10.411277">
        <ele>1084.0</ele>
        <time>2026-01-20T04:53:40Z</time>
      </trkpt>
      <trkpt lon="76.996404" lat="10.41138">
        <ele>1084.0</ele>
        <time>2026-01-20T04:53:41Z</time>
      </trkpt>
      <trkpt lon="76.996397" lat="10.411557">
        <ele>1084.0</ele>
        <time>2026-01-20T04:53:43Z</time>
      </trkpt>
      <trkpt lon="76.996346" lat="10.411698">
        <ele>1084.0</ele>
        <time>2026-01-20T04:53:45Z</time>
      </trkpt>
      <trkpt lon="76.996232" lat="10.411764">
        <ele>1086.0</ele>
        <time>2026-01-20T04:53:47Z</time>
      </trkpt>
      <trkpt lon="76.996089" lat="10.411788">
        <ele>1086.0</ele>
        <time>2026-01-20T04:53:49Z</time>
      </trkpt>
      <trkpt lon="76.995946" lat="10.411819">
        <ele>1086.0</ele>
        <time>2026-01-20T04:53:51Z</time>
      </trkpt>
      <trkpt lon="76.995912" lat="10.411948">
        <ele>1085.0</ele>
        <time>2026-01-20T04:53:53Z</time>
      </trkpt>
      <trkpt lon="76.995978" lat="10.412114">
        <ele>1084.0</ele>
        <time>2026-01-20T04:53:55Z</time>
      </trkpt>
      <trkpt lon="76.99603" lat="10.412189">
        <ele>1083.0</ele>
        <time>2026-01-20T04:53:56Z</time>
      </trkpt>
      <trkpt lon="76.996182" lat="10.412294">
        <ele>1083.0</ele>
        <time>2026-01-20T04:53:58Z</time>
      </trkpt>
      <trkpt lon="76.996272" lat="10.412338">
        <ele>1083.0</ele>
        <time>2026-01-20T04:53:59Z</time>
      </trkpt>
      <trkpt lon="76.996358" lat="10.412392">
        <ele>1082.0</ele>
        <time>2026-01-20T04:54:00Z</time>
      </trkpt>
      <trkpt lon="76.996482" lat="10.412526">
        <ele>1082.0</ele>
        <time>2026-01-20T04:54:02Z</time>
      </trkpt>
      <trkpt lon="76.996509" lat="10.412694">
        <ele>1081.0</ele>
        <time>2026-01-20T04:54:04Z</time>
      </trkpt>
      <trkpt lon="76.996503" lat="10.412856">
        <ele>1082.0</ele>
        <time>2026-01-20T04:54:06Z</time>
      </trkpt>
      <trkpt lon="76.996559" lat="10.412975">
        <ele>1081.0</ele>
        <time>2026-01-20T04:54:08Z</time>
      </trkpt>
      <trkpt lon="76.99665" lat="10.413015">
        <ele>1081.0</ele>
        <time>2026-01-20T04:54:09Z</time>
      </trkpt>
      <trkpt lon="76.996831" lat="10.41307">
        <ele>1081.0</ele>
        <time>2026-01-20T04:54:11Z</time>
      </trkpt>
      <trkpt lon="76.996982" lat="10.413136">
        <ele>1079.0</ele>
        <time>2026-01-20T04:54:13Z</time>
      </trkpt>
      <trkpt lon="76.997089" lat="10.413265">
        <ele>1078.0</ele>
        <time>2026-01-20T04:54:15Z</time>
      </trkpt>
      <trkpt lon="76.99712" lat="10.413358">
        <ele>1078.0</ele>
        <time>2026-01-20T04:54:16Z</time>
      </trkpt>
      <trkpt lon="76.99715" lat="10.41352">
        <ele>1078.0</ele>
        <time>2026-01-20T04:54:18Z</time>
      </trkpt>
      <trkpt lon="76.997142" lat="10.413666">
        <ele>1077.0</ele>
        <time>2026-01-20T04:54:20Z</time>
      </trkpt>
      <trkpt lon="76.99711" lat="10.41378">
        <ele>1078.0</ele>
        <time>2026-01-20T04:54:22Z</time>
      </trkpt>
      <trkpt lon="76.997047" lat="10.413871">
        <ele>1077.0</ele>
        <time>2026-01-20T04:54:24Z</time>
      </trkpt>
      <trkpt lon="76.996937" lat="10.413854">
        <ele>1077.0</ele>
        <time>2026-01-20T04:54:26Z</time>
      </trkpt>
      <trkpt lon="76.99685" lat="10.413827">
        <ele>1076.0</ele>
        <time>2026-01-20T04:54:28Z</time>
      </trkpt>
      <trkpt lon="76.996736" lat="10.413778">
        <ele>1094.0</ele>
        <time>2026-01-20T04:55:03Z</time>
      </trkpt>
      <trkpt lon="76.996651" lat="10.413736">
        <ele>1094.0</ele>
        <time>2026-01-20T04:55:05Z</time>
      </trkpt>
      <trkpt lon="76.996532" lat="10.413632">
        <ele>1094.0</ele>
        <time>2026-01-20T04:55:07Z</time>
      </trkpt>
      <trkpt lon="76.996394" lat="10.413553">
        <ele>1094.0</ele>
        <time>2026-01-20T04:55:09Z</time>
      </trkpt>
      <trkpt lon="76.996294" lat="10.413543">
        <ele>1094.0</ele>
        <time>2026-01-20T04:55:10Z</time>
      </trkpt>
      <trkpt lon="76.996191" lat="10.413551">
        <ele>1094.0</ele>
        <time>2026-01-20T04:55:11Z</time>
      </trkpt>
      <trkpt lon="76.996085" lat="10.413565">
        <ele>1094.0</ele>
        <time>2026-01-20T04:55:12Z</time>
      </trkpt>
      <trkpt lon="76.995918" lat="10.413591">
        <ele>1094.0</ele>
        <time>2026-01-20T04:55:14Z</time>
      </trkpt>
      <trkpt lon="76.995773" lat="10.41365">
        <ele>1094.0</ele>
        <time>2026-01-20T04:55:16Z</time>
      </trkpt>
      <trkpt lon="76.995714" lat="10.413722">
        <ele>1094.0</ele>
        <time>2026-01-20T04:55:17Z</time>
      </trkpt>
      <trkpt lon="76.995671" lat="10.413812">
        <ele>1094.0</ele>
        <time>2026-01-20T04:55:18Z</time>
      </trkpt>
      <trkpt lon="76.995642" lat="10.413909">
        <ele>1094.0</ele>
        <time>2026-01-20T04:55:19Z</time>
      </trkpt>
      <trkpt lon="76.995621" lat="10.414008">
        <ele>1094.0</ele>
        <time>2026-01-20T04:55:20Z</time>
      </trkpt>
      <trkpt lon="76.995608" lat="10.414115">
        <ele>1094.0</ele>
        <time>2026-01-20T04:55:21Z</time>
      </trkpt>
      <trkpt lon="76.995599" lat="10.414224">
        <ele>1094.0</ele>
        <time>2026-01-20T04:55:22Z</time>
      </trkpt>
      <trkpt lon="76.995582" lat="10.414328">
        <ele>1094.0</ele>
        <time>2026-01-20T04:55:23Z</time>
      </trkpt>
      <trkpt lon="76.995552" lat="10.414424">
        <ele>1094.0</ele>
        <time>2026-01-20T04:55:24Z</time>
      </trkpt>
      <trkpt lon="76.995517" lat="10.414517">
        <ele>1094.0</ele>
        <time>2026-01-20T04:55:25Z</time>
      </trkpt>
      <trkpt lon="76.995485" lat="10.414605">
        <ele>1094.0</ele>
        <time>2026-01-20T04:55:26Z</time>
      </trkpt>
      <trkpt lon="76.995493" lat="10.414784">
        <ele>1094.0</ele>
        <time>2026-01-20T04:55:28Z</time>
      </trkpt>
      <trkpt lon="76.99554" lat="10.414893">
        <ele>1094.0</ele>
        <time>2026-01-20T04:55:29Z</time>
      </trkpt>
      <trkpt lon="76.995596" lat="10.414996">
        <ele>1094.0</ele>
        <time>2026-01-20T04:55:30Z</time>
      </trkpt>
      <trkpt lon="76.995655" lat="10.415104">
        <ele>1094.0</ele>
        <time>2026-01-20T04:55:31Z</time>
      </trkpt>
      <trkpt lon="76.995707" lat="10.415214">
        <ele>1094.0</ele>
        <time>2026-01-20T04:55:32Z</time>
      </trkpt>
      <trkpt lon="76.995756" lat="10.415323">
        <ele>1094.0</ele>
        <time>2026-01-20T04:55:33Z</time>
      </trkpt>
      <trkpt lon="76.995805" lat="10.415424">
        <ele>1094.0</ele>
        <time>2026-01-20T04:55:34Z</time>
      </trkpt>
      <trkpt lon="76.99585" lat="10.415523">
        <ele>1094.0</ele>
        <time>2026-01-20T04:55:35Z</time>
      </trkpt>
      <trkpt lon="76.99589" lat="10.415624">
        <ele>1094.0</ele>
        <time>2026-01-20T04:55:36Z</time>
      </trkpt>
      <trkpt lon="76.995918" lat="10.415732">
        <ele>1094.0</ele>
        <time>2026-01-20T04:55:37Z</time>
      </trkpt>
      <trkpt lon="76.995919" lat="10.415852">
        <ele>1094.0</ele>
        <time>2026-01-20T04:55:38Z</time>
      </trkpt>
      <trkpt lon="76.995874" lat="10.41599">
        <ele>1094.0</ele>
        <time>2026-01-20T04:55:39Z</time>
      </trkpt>
      <trkpt lon="76.995845" lat="10.416108">
        <ele>1094.0</ele>
        <time>2026-01-20T04:55:40Z</time>
      </trkpt>
      <trkpt lon="76.995829" lat="10.416233">
        <ele>1094.0</ele>
        <time>2026-01-20T04:55:41Z</time>
      </trkpt>
      <trkpt lon="76.995813" lat="10.416349">
        <ele>1094.0</ele>
        <time>2026-01-20T04:55:42Z</time>
      </trkpt>
      <trkpt lon="76.995788" lat="10.416459">
        <ele>1094.0</ele>
        <time>2026-01-20T04:55:43Z</time>
      </trkpt>
      <trkpt lon="76.995771" lat="10.416555">
        <ele>1094.0</ele>
        <time>2026-01-20T04:55:44Z</time>
      </trkpt>
      <trkpt lon="76.995709" lat="10.416712">
        <ele>1094.0</ele>
        <time>2026-01-20T04:55:46Z</time>
      </trkpt>
      <trkpt lon="76.99558" lat="10.416797">
        <ele>1094.0</ele>
        <time>2026-01-20T04:55:48Z</time>
      </trkpt>
      <trkpt lon="76.995416" lat="10.416823">
        <ele>1094.0</ele>
        <time>2026-01-20T04:55:50Z</time>
      </trkpt>
      <trkpt lon="76.99526" lat="10.416909">
        <ele>1094.0</ele>
        <time>2026-01-20T04:55:52Z</time>
      </trkpt>
      <trkpt lon="76.995204" lat="10.416988">
        <ele>1094.0</ele>
        <time>2026-01-20T04:55:53Z</time>
      </trkpt>
      <trkpt lon="76.995154" lat="10.417071">
        <ele>1094.0</ele>
        <time>2026-01-20T04:55:54Z</time>
      </trkpt>
      <trkpt lon="76.995092" lat="10.417159">
        <ele>1094.0</ele>
        <time>2026-01-20T04:55:55Z</time>
      </trkpt>
      <trkpt lon="76.995025" lat="10.417252">
        <ele>1094.0</ele>
        <time>2026-01-20T04:55:56Z</time>
      </trkpt>
      <trkpt lon="76.994941" lat="10.417339">
        <ele>1094.0</ele>
        <time>2026-01-20T04:55:57Z</time>
      </trkpt>
      <trkpt lon="76.994847" lat="10.417423">
        <ele>1094.0</ele>
        <time>2026-01-20T04:55:58Z</time>
      </trkpt>
      <trkpt lon="76.994754" lat="10.417508">
        <ele>1094.0</ele>
        <time>2026-01-20T04:55:59Z</time>
      </trkpt>
      <trkpt lon="76.994671" lat="10.417593">
        <ele>1094.0</ele>
        <time>2026-01-20T04:56:00Z</time>
      </trkpt>
      <trkpt lon="76.994585" lat="10.417678">
        <ele>1094.0</ele>
        <time>2026-01-20T04:56:01Z</time>
      </trkpt>
      <trkpt lon="76.994491" lat="10.417761">
        <ele>1094.0</ele>
        <time>2026-01-20T04:56:02Z</time>
      </trkpt>
      <trkpt lon="76.994396" lat="10.417843">
        <ele>1094.0</ele>
        <time>2026-01-20T04:56:03Z</time>
      </trkpt>
      <trkpt lon="76.994295" lat="10.417926">
        <ele>1094.0</ele>
        <time>2026-01-20T04:56:04Z</time>
      </trkpt>
      <trkpt lon="76.994199" lat="10.418007">
        <ele>1094.0</ele>
        <time>2026-01-20T04:56:05Z</time>
      </trkpt>
      <trkpt lon="76.994102" lat="10.418085">
        <ele>1094.0</ele>
        <time>2026-01-20T04:56:06Z</time>
      </trkpt>
      <trkpt lon="76.994011" lat="10.418154">
        <ele>1094.0</ele>
        <time>2026-01-20T04:56:07Z</time>
      </trkpt>
      <trkpt lon="76.993916" lat="10.418221">
        <ele>1094.0</ele>
        <time>2026-01-20T04:56:08Z</time>
      </trkpt>
      <trkpt lon="76.993837" lat="10.41828">
        <ele>1094.0</ele>
        <time>2026-01-20T04:56:09Z</time>
      </trkpt>
      <trkpt lon="76.993713" lat="10.418381">
        <ele>1094.0</ele>
        <time>2026-01-20T04:56:11Z</time>
      </trkpt>
      <trkpt lon="76.993644" lat="10.418461">
        <ele>1093.0</ele>
        <time>2026-01-20T04:56:13Z</time>
      </trkpt>
      <trkpt lon="76.993641" lat="10.41857">
        <ele>1094.0</ele>
        <time>2026-01-20T04:56:15Z</time>
      </trkpt>
      <trkpt lon="76.993739" lat="10.418673">
        <ele>1094.0</ele>
        <time>2026-01-20T04:56:17Z</time>
      </trkpt>
      <trkpt lon="76.993863" lat="10.418767">
        <ele>1094.0</ele>
        <time>2026-01-20T04:56:19Z</time>
      </trkpt>
      <trkpt lon="76.993904" lat="10.418901">
        <ele>1094.0</ele>
        <time>2026-01-20T04:56:21Z</time>
      </trkpt>
      <trkpt lon="76.993873" lat="10.419054">
        <ele>1094.0</ele>
        <time>2026-01-20T04:56:23Z</time>
      </trkpt>
      <trkpt lon="76.993784" lat="10.41918">
        <ele>1094.0</ele>
        <time>2026-01-20T04:56:25Z</time>
      </trkpt>
      <trkpt lon="76.993703" lat="10.419237">
        <ele>1094.0</ele>
        <time>2026-01-20T04:56:26Z</time>
      </trkpt>
      <trkpt lon="76.993626" lat="10.419287">
        <ele>1094.0</ele>
        <time>2026-01-20T04:56:27Z</time>
      </trkpt>
      <trkpt lon="76.993539" lat="10.419332">
        <ele>1094.0</ele>
        <time>2026-01-20T04:56:28Z</time>
      </trkpt>
      <trkpt lon="76.993451" lat="10.419369">
        <ele>1094.0</ele>
        <time>2026-01-20T04:56:29Z</time>
      </trkpt>
      <trkpt lon="76.993362" lat="10.419399">
        <ele>1094.0</ele>
        <time>2026-01-20T04:56:30Z</time>
      </trkpt>
      <trkpt lon="76.993212" lat="10.419427">
        <ele>1094.0</ele>
        <time>2026-01-20T04:56:32Z</time>
      </trkpt>
      <trkpt lon="76.993059" lat="10.419393">
        <ele>1082.0</ele>
        <time>2026-01-20T04:56:34Z</time>
      </trkpt>
      <trkpt lon="76.992932" lat="10.419295">
        <ele>1082.0</ele>
        <time>2026-01-20T04:56:36Z</time>
      </trkpt>
      <trkpt lon="76.992822" lat="10.419177">
        <ele>1080.0</ele>
        <time>2026-01-20T04:56:38Z</time>
      </trkpt>
      <trkpt lon="76.992708" lat="10.419093">
        <ele>1079.0</ele>
        <time>2026-01-20T04:56:40Z</time>
      </trkpt>
      <trkpt lon="76.992593" lat="10.419041">
        <ele>1079.0</ele>
        <time>2026-01-20T04:56:42Z</time>
      </trkpt>
      <trkpt lon="76.9925" lat="10.419066">
        <ele>1080.0</ele>
        <time>2026-01-20T04:56:44Z</time>
      </trkpt>
      <trkpt lon="76.992487" lat="10.419184">
        <ele>1078.0</ele>
        <time>2026-01-20T04:56:47Z</time>
      </trkpt>
      <trkpt lon="76.992575" lat="10.419266">
        <ele>1078.0</ele>
        <time>2026-01-20T04:56:49Z</time>
      </trkpt>
      <trkpt lon="76.992665" lat="10.419361">
        <ele>1079.0</ele>
        <time>2026-01-20T04:56:51Z</time>
      </trkpt>
      <trkpt lon="76.992757" lat="10.419489">
        <ele>1077.0</ele>
        <time>2026-01-20T04:56:53Z</time>
      </trkpt>
      <trkpt lon="76.992817" lat="10.419559">
        <ele>1076.0</ele>
        <time>2026-01-20T04:56:54Z</time>
      </trkpt>
      <trkpt lon="76.992912" lat="10.419694">
        <ele>1075.0</ele>
        <time>2026-01-20T04:56:56Z</time>
      </trkpt>
      <trkpt lon="76.992956" lat="10.419777">
        <ele>1075.0</ele>
        <time>2026-01-20T04:56:57Z</time>
      </trkpt>
      <trkpt lon="76.992983" lat="10.419932">
        <ele>1075.0</ele>
        <time>2026-01-20T04:56:59Z</time>
      </trkpt>
      <trkpt lon="76.992969" lat="10.420109">
        <ele>1073.0</ele>
        <time>2026-01-20T04:57:01Z</time>
      </trkpt>
      <trkpt lon="76.992918" lat="10.42028">
        <ele>1073.0</ele>
        <time>2026-01-20T04:57:03Z</time>
      </trkpt>
      <trkpt lon="76.992898" lat="10.42038">
        <ele>1073.0</ele>
        <time>2026-01-20T04:57:04Z</time>
      </trkpt>
      <trkpt lon="76.992872" lat="10.42048">
        <ele>1073.0</ele>
        <time>2026-01-20T04:57:05Z</time>
      </trkpt>
      <trkpt lon="76.992842" lat="10.420577">
        <ele>1072.0</ele>
        <time>2026-01-20T04:57:06Z</time>
      </trkpt>
      <trkpt lon="76.992825" lat="10.420669">
        <ele>1072.0</ele>
        <time>2026-01-20T04:57:07Z</time>
      </trkpt>
      <trkpt lon="76.992809" lat="10.420827">
        <ele>1072.0</ele>
        <time>2026-01-20T04:57:09Z</time>
      </trkpt>
      <trkpt lon="76.992892" lat="10.420953">
        <ele>1071.0</ele>
        <time>2026-01-20T04:57:11Z</time>
      </trkpt>
      <trkpt lon="76.993056" lat="10.420999">
        <ele>1071.0</ele>
        <time>2026-01-20T04:57:13Z</time>
      </trkpt>
      <trkpt lon="76.993202" lat="10.421014">
        <ele>1072.0</ele>
        <time>2026-01-20T04:57:15Z</time>
      </trkpt>
      <trkpt lon="76.993311" lat="10.421109">
        <ele>1071.0</ele>
        <time>2026-01-20T04:57:17Z</time>
      </trkpt>
      <trkpt lon="76.993396" lat="10.42126">
        <ele>1071.0</ele>
        <time>2026-01-20T04:57:19Z</time>
      </trkpt>
      <trkpt lon="76.993446" lat="10.42143">
        <ele>1072.0</ele>
        <time>2026-01-20T04:57:21Z</time>
      </trkpt>
      <trkpt lon="76.99344" lat="10.421607">
        <ele>1071.0</ele>
        <time>2026-01-20T04:57:23Z</time>
      </trkpt>
      <trkpt lon="76.993424" lat="10.421709">
        <ele>1071.0</ele>
        <time>2026-01-20T04:57:24Z</time>
      </trkpt>
      <trkpt lon="76.993404" lat="10.421829">
        <ele>1071.0</ele>
        <time>2026-01-20T04:57:25Z</time>
      </trkpt>
      <trkpt lon="76.993386" lat="10.421944">
        <ele>1070.0</ele>
        <time>2026-01-20T04:57:26Z</time>
      </trkpt>
      <trkpt lon="76.993367" lat="10.42206">
        <ele>1071.0</ele>
        <time>2026-01-20T04:57:27Z</time>
      </trkpt>
      <trkpt lon="76.993351" lat="10.422168">
        <ele>1071.0</ele>
        <time>2026-01-20T04:57:28Z</time>
      </trkpt>
      <trkpt lon="76.993335" lat="10.422285">
        <ele>1071.0</ele>
        <time>2026-01-20T04:57:29Z</time>
      </trkpt>
      <trkpt lon="76.993319" lat="10.422392">
        <ele>1071.0</ele>
        <time>2026-01-20T04:57:30Z</time>
      </trkpt>
      <trkpt lon="76.993313" lat="10.42249">
        <ele>1071.0</ele>
        <time>2026-01-20T04:57:31Z</time>
      </trkpt>
      <trkpt lon="76.993296" lat="10.422587">
        <ele>1070.0</ele>
        <time>2026-01-20T04:57:32Z</time>
      </trkpt>
      <trkpt lon="76.993258" lat="10.422682">
        <ele>1070.0</ele>
        <time>2026-01-20T04:57:33Z</time>
      </trkpt>
      <trkpt lon="76.993222" lat="10.422777">
        <ele>1070.0</ele>
        <time>2026-01-20T04:57:34Z</time>
      </trkpt>
      <trkpt lon="76.993173" lat="10.422874">
        <ele>1070.0</ele>
        <time>2026-01-20T04:57:35Z</time>
      </trkpt>
      <trkpt lon="76.993117" lat="10.422971">
        <ele>1070.0</ele>
        <time>2026-01-20T04:57:36Z</time>
      </trkpt>
      <trkpt lon="76.993055" lat="10.423063">
        <ele>1069.0</ele>
        <time>2026-01-20T04:57:37Z</time>
      </trkpt>
      <trkpt lon="76.992989" lat="10.42316">
        <ele>1069.0</ele>
        <time>2026-01-20T04:57:38Z</time>
      </trkpt>
      <trkpt lon="76.992926" lat="10.423248">
        <ele>1069.0</ele>
        <time>2026-01-20T04:57:39Z</time>
      </trkpt>
      <trkpt lon="76.992866" lat="10.423342">
        <ele>1070.0</ele>
        <time>2026-01-20T04:57:40Z</time>
      </trkpt>
      <trkpt lon="76.992792" lat="10.423439">
        <ele>1070.0</ele>
        <time>2026-01-20T04:57:41Z</time>
      </trkpt>
      <trkpt lon="76.992728" lat="10.423523">
        <ele>1071.0</ele>
        <time>2026-01-20T04:57:42Z</time>
      </trkpt>
      <trkpt lon="76.992667" lat="10.423605">
        <ele>1072.0</ele>
        <time>2026-01-20T04:57:43Z</time>
      </trkpt>
      <trkpt lon="76.992601" lat="10.423697">
        <ele>1072.0</ele>
        <time>2026-01-20T04:57:44Z</time>
      </trkpt>
      <trkpt lon="76.99253" lat="10.423782">
        <ele>1072.0</ele>
        <time>2026-01-20T04:57:45Z</time>
      </trkpt>
      <trkpt lon="76.992454" lat="10.423872">
        <ele>1073.0</ele>
        <time>2026-01-20T04:57:46Z</time>
      </trkpt>
      <trkpt lon="76.992373" lat="10.423958">
        <ele>1072.0</ele>
        <time>2026-01-20T04:57:47Z</time>
      </trkpt>
      <trkpt lon="76.992301" lat="10.424033">
        <ele>1072.0</ele>
        <time>2026-01-20T04:57:48Z</time>
      </trkpt>
      <trkpt lon="76.99223" lat="10.424105">
        <ele>1071.0</ele>
        <time>2026-01-20T04:57:49Z</time>
      </trkpt>
      <trkpt lon="76.992146" lat="10.42416">
        <ele>1072.0</ele>
        <time>2026-01-20T04:57:50Z</time>
      </trkpt>
      <trkpt lon="76.992064" lat="10.424216">
        <ele>1072.0</ele>
        <time>2026-01-20T04:57:51Z</time>
      </trkpt>
      <trkpt lon="76.991976" lat="10.424257">
        <ele>1072.0</ele>
        <time>2026-01-20T04:57:52Z</time>
      </trkpt>
      <trkpt lon="76.991879" lat="10.424276">
        <ele>1072.0</ele>
        <time>2026-01-20T04:57:53Z</time>
      </trkpt>
      <trkpt lon="76.99178" lat="10.424299">
        <ele>1072.0</ele>
        <time>2026-01-20T04:57:54Z</time>
      </trkpt>
      <trkpt lon="76.99167" lat="10.424313">
        <ele>1072.0</ele>
        <time>2026-01-20T04:57:55Z</time>
      </trkpt>
      <trkpt lon="76.991567" lat="10.424341">
        <ele>1073.0</ele>
        <time>2026-01-20T04:57:56Z</time>
      </trkpt>
      <trkpt lon="76.991468" lat="10.424384">
        <ele>1073.0</ele>
        <time>2026-01-20T04:57:57Z</time>
      </trkpt>
      <trkpt lon="76.991375" lat="10.424439">
        <ele>1073.0</ele>
        <time>2026-01-20T04:57:58Z</time>
      </trkpt>
      <trkpt lon="76.991286" lat="10.424498">
        <ele>1074.0</ele>
        <time>2026-01-20T04:57:59Z</time>
      </trkpt>
      <trkpt lon="76.991207" lat="10.424544">
        <ele>1073.0</ele>
        <time>2026-01-20T04:58:00Z</time>
      </trkpt>
      <trkpt lon="76.991056" lat="10.424595">
        <ele>1073.0</ele>
        <time>2026-01-20T04:58:02Z</time>
      </trkpt>
      <trkpt lon="76.990898" lat="10.424587">
        <ele>1073.0</ele>
        <time>2026-01-20T04:58:04Z</time>
      </trkpt>
      <trkpt lon="76.990797" lat="10.42456">
        <ele>1074.0</ele>
        <time>2026-01-20T04:58:05Z</time>
      </trkpt>
      <trkpt lon="76.990706" lat="10.424522">
        <ele>1074.0</ele>
        <time>2026-01-20T04:58:06Z</time>
      </trkpt>
      <trkpt lon="76.990617" lat="10.424483">
        <ele>1073.0</ele>
        <time>2026-01-20T04:58:07Z</time>
      </trkpt>
      <trkpt lon="76.990527" lat="10.424456">
        <ele>1074.0</ele>
        <time>2026-01-20T04:58:08Z</time>
      </trkpt>
      <trkpt lon="76.990434" lat="10.424434">
        <ele>1074.0</ele>
        <time>2026-01-20T04:58:09Z</time>
      </trkpt>
      <trkpt lon="76.990335" lat="10.424437">
        <ele>1074.0</ele>
        <time>2026-01-20T04:58:10Z</time>
      </trkpt>
      <trkpt lon="76.990223" lat="10.424453">
        <ele>1074.0</ele>
        <time>2026-01-20T04:58:11Z</time>
      </trkpt>
      <trkpt lon="76.99012" lat="10.424468">
        <ele>1074.0</ele>
        <time>2026-01-20T04:58:12Z</time>
      </trkpt>
      <trkpt lon="76.990023" lat="10.42449">
        <ele>1073.0</ele>
        <time>2026-01-20T04:58:13Z</time>
      </trkpt>
      <trkpt lon="76.989927" lat="10.424502">
        <ele>1074.0</ele>
        <time>2026-01-20T04:58:14Z</time>
      </trkpt>
      <trkpt lon="76.989768" lat="10.424513">
        <ele>1075.0</ele>
        <time>2026-01-20T04:58:16Z</time>
      </trkpt>
      <trkpt lon="76.989622" lat="10.424587">
        <ele>1076.0</ele>
        <time>2026-01-20T04:58:18Z</time>
      </trkpt>
      <trkpt lon="76.989563" lat="10.424672">
        <ele>1077.0</ele>
        <time>2026-01-20T04:58:19Z</time>
      </trkpt>
      <trkpt lon="76.989512" lat="10.424757">
        <ele>1079.0</ele>
        <time>2026-01-20T04:58:20Z</time>
      </trkpt>
      <trkpt lon="76.989466" lat="10.424844">
        <ele>1079.0</ele>
        <time>2026-01-20T04:58:21Z</time>
      </trkpt>
      <trkpt lon="76.989419" lat="10.424932">
        <ele>1080.0</ele>
        <time>2026-01-20T04:58:22Z</time>
      </trkpt>
      <trkpt lon="76.989371" lat="10.425023">
        <ele>1081.0</ele>
        <time>2026-01-20T04:58:23Z</time>
      </trkpt>
      <trkpt lon="76.989323" lat="10.425119">
        <ele>1082.0</ele>
        <time>2026-01-20T04:58:24Z</time>
      </trkpt>
      <trkpt lon="76.989277" lat="10.425211">
        <ele>1084.0</ele>
        <time>2026-01-20T04:58:25Z</time>
      </trkpt>
      <trkpt lon="76.989229" lat="10.425301">
        <ele>1086.0</ele>
        <time>2026-01-20T04:58:26Z</time>
      </trkpt>
      <trkpt lon="76.989178" lat="10.4254">
        <ele>1087.0</ele>
        <time>2026-01-20T04:58:27Z</time>
      </trkpt>
      <trkpt lon="76.989124" lat="10.425494">
        <ele>1088.0</ele>
        <time>2026-01-20T04:58:28Z</time>
      </trkpt>
      <trkpt lon="76.989069" lat="10.425586">
        <ele>1088.0</ele>
        <time>2026-01-20T04:58:29Z</time>
      </trkpt>
      <trkpt lon="76.989015" lat="10.425677">
        <ele>1089.0</ele>
        <time>2026-01-20T04:58:30Z</time>
      </trkpt>
      <trkpt lon="76.988963" lat="10.425763">
        <ele>1089.0</ele>
        <time>2026-01-20T04:58:31Z</time>
      </trkpt>
      <trkpt lon="76.988907" lat="10.425854">
        <ele>1089.0</ele>
        <time>2026-01-20T04:58:32Z</time>
      </trkpt>
      <trkpt lon="76.988856" lat="10.425957">
        <ele>1088.0</ele>
        <time>2026-01-20T04:58:33Z</time>
      </trkpt>
      <trkpt lon="76.988817" lat="10.426071">
        <ele>1087.0</ele>
        <time>2026-01-20T04:58:34Z</time>
      </trkpt>
      <trkpt lon="76.988789" lat="10.42619">
        <ele>1086.0</ele>
        <time>2026-01-20T04:58:35Z</time>
      </trkpt>
      <trkpt lon="76.988762" lat="10.426312">
        <ele>1085.0</ele>
        <time>2026-01-20T04:58:36Z</time>
      </trkpt>
      <trkpt lon="76.988729" lat="10.426438">
        <ele>1084.0</ele>
        <time>2026-01-20T04:58:37Z</time>
      </trkpt>
      <trkpt lon="76.988699" lat="10.42656">
        <ele>1084.0</ele>
        <time>2026-01-20T04:58:38Z</time>
      </trkpt>
      <trkpt lon="76.988667" lat="10.426684">
        <ele>1084.0</ele>
        <time>2026-01-20T04:58:39Z</time>
      </trkpt>
      <trkpt lon="76.988626" lat="10.426806">
        <ele>1082.0</ele>
        <time>2026-01-20T04:58:40Z</time>
      </trkpt>
      <trkpt lon="76.988574" lat="10.426916">
        <ele>1080.0</ele>
        <time>2026-01-20T04:58:41Z</time>
      </trkpt>
      <trkpt lon="76.988516" lat="10.427026">
        <ele>1079.0</ele>
        <time>2026-01-20T04:58:42Z</time>
      </trkpt>
      <trkpt lon="76.988459" lat="10.427139">
        <ele>1078.0</ele>
        <time>2026-01-20T04:58:43Z</time>
      </trkpt>
      <trkpt lon="76.988409" lat="10.427255">
        <ele>1078.0</ele>
        <time>2026-01-20T04:58:44Z</time>
      </trkpt>
      <trkpt lon="76.988375" lat="10.42737">
        <ele>1079.0</ele>
        <time>2026-01-20T04:58:45Z</time>
      </trkpt>
      <trkpt lon="76.988343" lat="10.427485">
        <ele>1079.0</ele>
        <time>2026-01-20T04:58:46Z</time>
      </trkpt>
      <trkpt lon="76.988312" lat="10.427601">
        <ele>1079.0</ele>
        <time>2026-01-20T04:58:47Z</time>
      </trkpt>
      <trkpt lon="76.988286" lat="10.42772">
        <ele>1080.0</ele>
        <time>2026-01-20T04:58:48Z</time>
      </trkpt>
      <trkpt lon="76.988266" lat="10.427836">
        <ele>1080.0</ele>
        <time>2026-01-20T04:58:49Z</time>
      </trkpt>
      <trkpt lon="76.988244" lat="10.427951">
        <ele>1080.0</ele>
        <time>2026-01-20T04:58:50Z</time>
      </trkpt>
      <trkpt lon="76.988214" lat="10.428064">
        <ele>1080.0</ele>
        <time>2026-01-20T04:58:51Z</time>
      </trkpt>
      <trkpt lon="76.988182" lat="10.428177">
        <ele>1081.0</ele>
        <time>2026-01-20T04:58:52Z</time>
      </trkpt>
      <trkpt lon="76.98814" lat="10.428291">
        <ele>1080.0</ele>
        <time>2026-01-20T04:58:53Z</time>
      </trkpt>
      <trkpt lon="76.988084" lat="10.42841">
        <ele>1081.0</ele>
        <time>2026-01-20T04:58:54Z</time>
      </trkpt>
      <trkpt lon="76.988032" lat="10.428532">
        <ele>1081.0</ele>
        <time>2026-01-20T04:58:55Z</time>
      </trkpt>
      <trkpt lon="76.987989" lat="10.428652">
        <ele>1081.0</ele>
        <time>2026-01-20T04:58:56Z</time>
      </trkpt>
      <trkpt lon="76.987956" lat="10.42878">
        <ele>1081.0</ele>
        <time>2026-01-20T04:58:57Z</time>
      </trkpt>
      <trkpt lon="76.987929" lat="10.428907">
        <ele>1081.0</ele>
        <time>2026-01-20T04:58:58Z</time>
      </trkpt>
      <trkpt lon="76.987909" lat="10.429037">
        <ele>1082.0</ele>
        <time>2026-01-20T04:58:59Z</time>
      </trkpt>
      <trkpt lon="76.987895" lat="10.429161">
        <ele>1082.0</ele>
        <time>2026-01-20T04:59:00Z</time>
      </trkpt>
      <trkpt lon="76.987883" lat="10.429284">
        <ele>1083.0</ele>
        <time>2026-01-20T04:59:01Z</time>
      </trkpt>
      <trkpt lon="76.987883" lat="10.429408">
        <ele>1085.0</ele>
        <time>2026-01-20T04:59:02Z</time>
      </trkpt>
      <trkpt lon="76.987898" lat="10.429526">
        <ele>1085.0</ele>
        <time>2026-01-20T04:59:03Z</time>
      </trkpt>
      <trkpt lon="76.987911" lat="10.429634">
        <ele>1085.0</ele>
        <time>2026-01-20T04:59:04Z</time>
      </trkpt>
      <trkpt lon="76.987918" lat="10.429737">
        <ele>1084.0</ele>
        <time>2026-01-20T04:59:05Z</time>
      </trkpt>
      <trkpt lon="76.987905" lat="10.429844">
        <ele>1085.0</ele>
        <time>2026-01-20T04:59:06Z</time>
      </trkpt>
      <trkpt lon="76.987882" lat="10.429957">
        <ele>1085.0</ele>
        <time>2026-01-20T04:59:07Z</time>
      </trkpt>
      <trkpt lon="76.987856" lat="10.430067">
        <ele>1086.0</ele>
        <time>2026-01-20T04:59:08Z</time>
      </trkpt>
      <trkpt lon="76.987827" lat="10.430163">
        <ele>1086.0</ele>
        <time>2026-01-20T04:59:09Z</time>
      </trkpt>
      <trkpt lon="76.987797" lat="10.430259">
        <ele>1086.0</ele>
        <time>2026-01-20T04:59:10Z</time>
      </trkpt>
      <trkpt lon="76.987712" lat="10.430422">
        <ele>1086.0</ele>
        <time>2026-01-20T04:59:12Z</time>
      </trkpt>
      <trkpt lon="76.987655" lat="10.430506">
        <ele>1086.0</ele>
        <time>2026-01-20T04:59:13Z</time>
      </trkpt>
      <trkpt lon="76.987595" lat="10.430588">
        <ele>1086.0</ele>
        <time>2026-01-20T04:59:14Z</time>
      </trkpt>
      <trkpt lon="76.987523" lat="10.430674">
        <ele>1086.0</ele>
        <time>2026-01-20T04:59:15Z</time>
      </trkpt>
      <trkpt lon="76.987461" lat="10.43076">
        <ele>1087.0</ele>
        <time>2026-01-20T04:59:16Z</time>
      </trkpt>
      <trkpt lon="76.987393" lat="10.430839">
        <ele>1087.0</ele>
        <time>2026-01-20T04:59:17Z</time>
      </trkpt>
      <trkpt lon="76.987314" lat="10.430922">
        <ele>1087.0</ele>
        <time>2026-01-20T04:59:18Z</time>
      </trkpt>
      <trkpt lon="76.987244" lat="10.431002">
        <ele>1086.0</ele>
        <time>2026-01-20T04:59:19Z</time>
      </trkpt>
      <trkpt lon="76.987178" lat="10.431076">
        <ele>1087.0</ele>
        <time>2026-01-20T04:59:20Z</time>
      </trkpt>
      <trkpt lon="76.987121" lat="10.431149">
        <ele>1087.0</ele>
        <time>2026-01-20T04:59:21Z</time>
      </trkpt>
      <trkpt lon="76.987005" lat="10.431281">
        <ele>1086.0</ele>
        <time>2026-01-20T04:59:23Z</time>
      </trkpt>
      <trkpt lon="76.986862" lat="10.431377">
        <ele>1086.0</ele>
        <time>2026-01-20T04:59:25Z</time>
      </trkpt>
      <trkpt lon="76.986788" lat="10.431433">
        <ele>1086.0</ele>
        <time>2026-01-20T04:59:26Z</time>
      </trkpt>
      <trkpt lon="76.986691" lat="10.431562">
        <ele>1086.0</ele>
        <time>2026-01-20T04:59:28Z</time>
      </trkpt>
      <trkpt lon="76.98662" lat="10.431672">
        <ele>1085.0</ele>
        <time>2026-01-20T04:59:30Z</time>
      </trkpt>
      <trkpt lon="76.986525" lat="10.43171">
        <ele>1084.0</ele>
        <time>2026-01-20T04:59:32Z</time>
      </trkpt>
      <trkpt lon="76.986374" lat="10.431645">
        <ele>1082.0</ele>
        <time>2026-01-20T04:59:34Z</time>
      </trkpt>
      <trkpt lon="76.986296" lat="10.431592">
        <ele>1082.0</ele>
        <time>2026-01-20T04:59:35Z</time>
      </trkpt>
      <trkpt lon="76.986157" lat="10.431476">
        <ele>1080.0</ele>
        <time>2026-01-20T04:59:37Z</time>
      </trkpt>
      <trkpt lon="76.986048" lat="10.431351">
        <ele>1080.0</ele>
        <time>2026-01-20T04:59:39Z</time>
      </trkpt>
      <trkpt lon="76.98595" lat="10.431271">
        <ele>1079.0</ele>
        <time>2026-01-20T04:59:41Z</time>
      </trkpt>
      <trkpt lon="76.985796" lat="10.431235">
        <ele>1077.0</ele>
        <time>2026-01-20T04:59:43Z</time>
      </trkpt>
      <trkpt lon="76.98563" lat="10.431203">
        <ele>1077.0</ele>
        <time>2026-01-20T04:59:45Z</time>
      </trkpt>
      <trkpt lon="76.985537" lat="10.431225">
        <ele>1076.0</ele>
        <time>2026-01-20T04:59:46Z</time>
      </trkpt>
      <trkpt lon="76.98544" lat="10.43127">
        <ele>1075.0</ele>
        <time>2026-01-20T04:59:47Z</time>
      </trkpt>
      <trkpt lon="76.985354" lat="10.431323">
        <ele>1074.0</ele>
        <time>2026-01-20T04:59:48Z</time>
      </trkpt>
      <trkpt lon="76.985264" lat="10.431366">
        <ele>1073.0</ele>
        <time>2026-01-20T04:59:49Z</time>
      </trkpt>
      <trkpt lon="76.985178" lat="10.431411">
        <ele>1073.0</ele>
        <time>2026-01-20T04:59:50Z</time>
      </trkpt>
      <trkpt lon="76.985093" lat="10.431448">
        <ele>1073.0</ele>
        <time>2026-01-20T04:59:51Z</time>
      </trkpt>
      <trkpt lon="76.984995" lat="10.43147">
        <ele>1072.0</ele>
        <time>2026-01-20T04:59:52Z</time>
      </trkpt>
      <trkpt lon="76.984899" lat="10.431487">
        <ele>1071.0</ele>
        <time>2026-01-20T04:59:53Z</time>
      </trkpt>
      <trkpt lon="76.98474" lat="10.431579">
        <ele>1071.0</ele>
        <time>2026-01-20T04:59:55Z</time>
      </trkpt>
      <trkpt lon="76.984609" lat="10.431679">
        <ele>1069.0</ele>
        <time>2026-01-20T04:59:57Z</time>
      </trkpt>
      <trkpt lon="76.984475" lat="10.43176">
        <ele>1067.0</ele>
        <time>2026-01-20T04:59:59Z</time>
      </trkpt>
      <trkpt lon="76.984325" lat="10.431766">
        <ele>1065.0</ele>
        <time>2026-01-20T05:00:01Z</time>
      </trkpt>
      <trkpt lon="76.984214" lat="10.431637">
        <ele>1063.0</ele>
        <time>2026-01-20T05:00:03Z</time>
      </trkpt>
      <trkpt lon="76.98414" lat="10.431492">
        <ele>1061.0</ele>
        <time>2026-01-20T05:00:05Z</time>
      </trkpt>
      <trkpt lon="76.984049" lat="10.431421">
        <ele>1060.0</ele>
        <time>2026-01-20T05:00:07Z</time>
      </trkpt>
      <trkpt lon="76.983995" lat="10.431511">
        <ele>1057.0</ele>
        <time>2026-01-20T05:00:10Z</time>
      </trkpt>
      <trkpt lon="76.984041" lat="10.431659">
        <ele>1056.0</ele>
        <time>2026-01-20T05:00:12Z</time>
      </trkpt>
      <trkpt lon="76.984106" lat="10.431801">
        <ele>1053.0</ele>
        <time>2026-01-20T05:00:14Z</time>
      </trkpt>
      <trkpt lon="76.984227" lat="10.431916">
        <ele>1051.0</ele>
        <time>2026-01-20T05:00:16Z</time>
      </trkpt>
      <trkpt lon="76.984314" lat="10.431957">
        <ele>1051.0</ele>
        <time>2026-01-20T05:00:17Z</time>
      </trkpt>
      <trkpt lon="76.9844" lat="10.431992">
        <ele>1051.0</ele>
        <time>2026-01-20T05:00:18Z</time>
      </trkpt>
      <trkpt lon="76.984496" lat="10.432015">
        <ele>1051.0</ele>
        <time>2026-01-20T05:00:19Z</time>
      </trkpt>
      <trkpt lon="76.984611" lat="10.431999">
        <ele>1050.0</ele>
        <time>2026-01-20T05:00:20Z</time>
      </trkpt>
      <trkpt lon="76.984712" lat="10.431976">
        <ele>1050.0</ele>
        <time>2026-01-20T05:00:21Z</time>
      </trkpt>
      <trkpt lon="76.984823" lat="10.431946">
        <ele>1050.0</ele>
        <time>2026-01-20T05:00:22Z</time>
      </trkpt>
      <trkpt lon="76.984937" lat="10.431923">
        <ele>1049.0</ele>
        <time>2026-01-20T05:00:23Z</time>
      </trkpt>
      <trkpt lon="76.985043" lat="10.431914">
        <ele>1049.0</ele>
        <time>2026-01-20T05:00:24Z</time>
      </trkpt>
      <trkpt lon="76.985147" lat="10.431905">
        <ele>1050.0</ele>
        <time>2026-01-20T05:00:25Z</time>
      </trkpt>
      <trkpt lon="76.985249" lat="10.431893">
        <ele>1050.0</ele>
        <time>2026-01-20T05:00:26Z</time>
      </trkpt>
      <trkpt lon="76.98535" lat="10.43187">
        <ele>1050.0</ele>
        <time>2026-01-20T05:00:27Z</time>
      </trkpt>
      <trkpt lon="76.985447" lat="10.431839">
        <ele>1049.0</ele>
        <time>2026-01-20T05:00:28Z</time>
      </trkpt>
      <trkpt lon="76.985539" lat="10.431815">
        <ele>1048.0</ele>
        <time>2026-01-20T05:00:29Z</time>
      </trkpt>
      <trkpt lon="76.985693" lat="10.431801">
        <ele>1047.0</ele>
        <time>2026-01-20T05:00:31Z</time>
      </trkpt>
      <trkpt lon="76.985816" lat="10.431889">
        <ele>1045.0</ele>
        <time>2026-01-20T05:00:33Z</time>
      </trkpt>
      <trkpt lon="76.985871" lat="10.431965">
        <ele>1044.0</ele>
        <time>2026-01-20T05:00:34Z</time>
      </trkpt>
      <trkpt lon="76.985912" lat="10.432053">
        <ele>1043.0</ele>
        <time>2026-01-20T05:00:35Z</time>
      </trkpt>
      <trkpt lon="76.985949" lat="10.432145">
        <ele>1042.0</ele>
        <time>2026-01-20T05:00:36Z</time>
      </trkpt>
      <trkpt lon="76.98598" lat="10.432243">
        <ele>1042.0</ele>
        <time>2026-01-20T05:00:37Z</time>
      </trkpt>
      <trkpt lon="76.986006" lat="10.43235">
        <ele>1041.0</ele>
        <time>2026-01-20T05:00:38Z</time>
      </trkpt>
      <trkpt lon="76.98603" lat="10.432463">
        <ele>1040.0</ele>
        <time>2026-01-20T05:00:39Z</time>
      </trkpt>
      <trkpt lon="76.986057" lat="10.432576">
        <ele>1039.0</ele>
        <time>2026-01-20T05:00:40Z</time>
      </trkpt>
      <trkpt lon="76.986084" lat="10.432677">
        <ele>1038.0</ele>
        <time>2026-01-20T05:00:41Z</time>
      </trkpt>
      <trkpt lon="76.986109" lat="10.432774">
        <ele>1037.0</ele>
        <time>2026-01-20T05:00:42Z</time>
      </trkpt>
      <trkpt lon="76.986136" lat="10.432875">
        <ele>1035.0</ele>
        <time>2026-01-20T05:00:43Z</time>
      </trkpt>
      <trkpt lon="76.986165" lat="10.43297">
        <ele>1034.0</ele>
        <time>2026-01-20T05:00:44Z</time>
      </trkpt>
      <trkpt lon="76.986226" lat="10.43313">
        <ele>1033.0</ele>
        <time>2026-01-20T05:00:46Z</time>
      </trkpt>
      <trkpt lon="76.98632" lat="10.433251">
        <ele>1031.0</ele>
        <time>2026-01-20T05:00:48Z</time>
      </trkpt>
      <trkpt lon="76.986436" lat="10.433283">
        <ele>1029.0</ele>
        <time>2026-01-20T05:00:50Z</time>
      </trkpt>
      <trkpt lon="76.986574" lat="10.433187">
        <ele>1029.0</ele>
        <time>2026-01-20T05:00:52Z</time>
      </trkpt>
      <trkpt lon="76.986636" lat="10.433111">
        <ele>1027.0</ele>
        <time>2026-01-20T05:00:53Z</time>
      </trkpt>
      <trkpt lon="76.986709" lat="10.433043">
        <ele>1026.0</ele>
        <time>2026-01-20T05:00:54Z</time>
      </trkpt>
      <trkpt lon="76.986783" lat="10.432974">
        <ele>1026.0</ele>
        <time>2026-01-20T05:00:55Z</time>
      </trkpt>
      <trkpt lon="76.986851" lat="10.4329">
        <ele>1027.0</ele>
        <time>2026-01-20T05:00:56Z</time>
      </trkpt>
      <trkpt lon="76.986924" lat="10.432825">
        <ele>1026.0</ele>
        <time>2026-01-20T05:00:57Z</time>
      </trkpt>
      <trkpt lon="76.987063" lat="10.432716">
        <ele>1026.0</ele>
        <time>2026-01-20T05:00:59Z</time>
      </trkpt>
      <trkpt lon="76.98716" lat="10.432568">
        <ele>1026.0</ele>
        <time>2026-01-20T05:01:01Z</time>
      </trkpt>
      <trkpt lon="76.987232" lat="10.432429">
        <ele>1025.0</ele>
        <time>2026-01-20T05:01:03Z</time>
      </trkpt>
      <trkpt lon="76.98736" lat="10.432343">
        <ele>1025.0</ele>
        <time>2026-01-20T05:01:05Z</time>
      </trkpt>
      <trkpt lon="76.987489" lat="10.432292">
        <ele>1025.0</ele>
        <time>2026-01-20T05:01:07Z</time>
      </trkpt>
      <trkpt lon="76.987592" lat="10.432189">
        <ele>1024.0</ele>
        <time>2026-01-20T05:01:09Z</time>
      </trkpt>
      <trkpt lon="76.987661" lat="10.432067">
        <ele>1024.0</ele>
        <time>2026-01-20T05:01:11Z</time>
      </trkpt>
      <trkpt lon="76.987706" lat="10.43198">
        <ele>1023.0</ele>
        <time>2026-01-20T05:01:13Z</time>
      </trkpt>
      <trkpt lon="76.987797" lat="10.432001">
        <ele>1021.0</ele>
        <time>2026-01-20T05:01:17Z</time>
      </trkpt>
      <trkpt lon="76.987761" lat="10.432091">
        <ele>1019.0</ele>
        <time>2026-01-20T05:01:19Z</time>
      </trkpt>
      <trkpt lon="76.98769" lat="10.432209">
        <ele>1015.0</ele>
        <time>2026-01-20T05:01:21Z</time>
      </trkpt>
      <trkpt lon="76.987623" lat="10.432344">
        <ele>1013.0</ele>
        <time>2026-01-20T05:01:23Z</time>
      </trkpt>
      <trkpt lon="76.987569" lat="10.432471">
        <ele>1012.0</ele>
        <time>2026-01-20T05:01:25Z</time>
      </trkpt>
      <trkpt lon="76.987476" lat="10.432576">
        <ele>1011.0</ele>
        <time>2026-01-20T05:01:27Z</time>
      </trkpt>
      <trkpt lon="76.987353" lat="10.4327">
        <ele>1011.0</ele>
        <time>2026-01-20T05:01:29Z</time>
      </trkpt>
      <trkpt lon="76.987226" lat="10.432801">
        <ele>1011.0</ele>
        <time>2026-01-20T05:01:31Z</time>
      </trkpt>
      <trkpt lon="76.987104" lat="10.432862">
        <ele>1014.0</ele>
        <time>2026-01-20T05:01:33Z</time>
      </trkpt>
      <trkpt lon="76.987036" lat="10.432935">
        <ele>1014.0</ele>
        <time>2026-01-20T05:01:35Z</time>
      </trkpt>
      <trkpt lon="76.987024" lat="10.433025">
        <ele>1015.0</ele>
        <time>2026-01-20T05:01:37Z</time>
      </trkpt>
      <trkpt lon="76.987145" lat="10.433005">
        <ele>1016.0</ele>
        <time>2026-01-20T05:01:40Z</time>
      </trkpt>
      <trkpt lon="76.987272" lat="10.432908">
        <ele>1014.0</ele>
        <time>2026-01-20T05:01:42Z</time>
      </trkpt>
      <trkpt lon="76.987406" lat="10.432805">
        <ele>1015.0</ele>
        <time>2026-01-20T05:01:44Z</time>
      </trkpt>
      <trkpt lon="76.987523" lat="10.432705">
        <ele>1014.0</ele>
        <time>2026-01-20T05:01:46Z</time>
      </trkpt>
      <trkpt lon="76.987621" lat="10.432614">
        <ele>1013.0</ele>
        <time>2026-01-20T05:01:48Z</time>
      </trkpt>
      <trkpt lon="76.987697" lat="10.432563">
        <ele>1011.0</ele>
        <time>2026-01-20T05:01:50Z</time>
      </trkpt>
      <trkpt lon="76.987638" lat="10.432679">
        <ele>1003.0</ele>
        <time>2026-01-20T05:01:56Z</time>
      </trkpt>
      <trkpt lon="76.987497" lat="10.432784">
        <ele>1002.0</ele>
        <time>2026-01-20T05:01:58Z</time>
      </trkpt>
      <trkpt lon="76.987388" lat="10.43291">
        <ele>1000.0</ele>
        <time>2026-01-20T05:02:00Z</time>
      </trkpt>
      <trkpt lon="76.987327" lat="10.432989">
        <ele>999.0</ele>
        <time>2026-01-20T05:02:01Z</time>
      </trkpt>
      <trkpt lon="76.987261" lat="10.433056">
        <ele>999.0</ele>
        <time>2026-01-20T05:02:02Z</time>
      </trkpt>
      <trkpt lon="76.98719" lat="10.433122">
        <ele>998.0</ele>
        <time>2026-01-20T05:02:03Z</time>
      </trkpt>
      <trkpt lon="76.987117" lat="10.433199">
        <ele>997.0</ele>
        <time>2026-01-20T05:02:04Z</time>
      </trkpt>
      <trkpt lon="76.987044" lat="10.433276">
        <ele>996.0</ele>
        <time>2026-01-20T05:02:05Z</time>
      </trkpt>
      <trkpt lon="76.986983" lat="10.433351">
        <ele>996.0</ele>
        <time>2026-01-20T05:02:06Z</time>
      </trkpt>
      <trkpt lon="76.986918" lat="10.433433">
        <ele>996.0</ele>
        <time>2026-01-20T05:02:07Z</time>
      </trkpt>
      <trkpt lon="76.986853" lat="10.43351">
        <ele>996.0</ele>
        <time>2026-01-20T05:02:08Z</time>
      </trkpt>
      <trkpt lon="76.986801" lat="10.433589">
        <ele>995.0</ele>
        <time>2026-01-20T05:02:09Z</time>
      </trkpt>
      <trkpt lon="76.986694" lat="10.433733">
        <ele>994.0</ele>
        <time>2026-01-20T05:02:11Z</time>
      </trkpt>
      <trkpt lon="76.986628" lat="10.433806">
        <ele>993.0</ele>
        <time>2026-01-20T05:02:12Z</time>
      </trkpt>
      <trkpt lon="76.986556" lat="10.433865">
        <ele>992.0</ele>
        <time>2026-01-20T05:02:13Z</time>
      </trkpt>
      <trkpt lon="76.986472" lat="10.433907">
        <ele>991.0</ele>
        <time>2026-01-20T05:02:14Z</time>
      </trkpt>
      <trkpt lon="76.986388" lat="10.433953">
        <ele>990.0</ele>
        <time>2026-01-20T05:02:15Z</time>
      </trkpt>
      <trkpt lon="76.986231" lat="10.434018">
        <ele>988.0</ele>
        <time>2026-01-20T05:02:17Z</time>
      </trkpt>
      <trkpt lon="76.986104" lat="10.434066">
        <ele>987.0</ele>
        <time>2026-01-20T05:02:19Z</time>
      </trkpt>
      <trkpt lon="76.986023" lat="10.434135">
        <ele>987.0</ele>
        <time>2026-01-20T05:02:21Z</time>
      </trkpt>
      <trkpt lon="76.986069" lat="10.434241">
        <ele>989.0</ele>
        <time>2026-01-20T05:02:24Z</time>
      </trkpt>
      <trkpt lon="76.986181" lat="10.434205">
        <ele>989.0</ele>
        <time>2026-01-20T05:02:26Z</time>
      </trkpt>
      <trkpt lon="76.986313" lat="10.434119">
        <ele>989.0</ele>
        <time>2026-01-20T05:02:28Z</time>
      </trkpt>
      <trkpt lon="76.986397" lat="10.434073">
        <ele>988.0</ele>
        <time>2026-01-20T05:02:29Z</time>
      </trkpt>
      <trkpt lon="76.986488" lat="10.434044">
        <ele>988.0</ele>
        <time>2026-01-20T05:02:30Z</time>
      </trkpt>
      <trkpt lon="76.986581" lat="10.434016">
        <ele>987.0</ele>
        <time>2026-01-20T05:02:31Z</time>
      </trkpt>
      <trkpt lon="76.986665" lat="10.433979">
        <ele>986.0</ele>
        <time>2026-01-20T05:02:32Z</time>
      </trkpt>
      <trkpt lon="76.986755" lat="10.433935">
        <ele>986.0</ele>
        <time>2026-01-20T05:02:33Z</time>
      </trkpt>
      <trkpt lon="76.986832" lat="10.433884">
        <ele>985.0</ele>
        <time>2026-01-20T05:02:34Z</time>
      </trkpt>
      <trkpt lon="76.986931" lat="10.43376">
        <ele>986.0</ele>
        <time>2026-01-20T05:02:36Z</time>
      </trkpt>
      <trkpt lon="76.987014" lat="10.433634">
        <ele>986.0</ele>
        <time>2026-01-20T05:02:38Z</time>
      </trkpt>
      <trkpt lon="76.987165" lat="10.433537">
        <ele>985.0</ele>
        <time>2026-01-20T05:02:40Z</time>
      </trkpt>
      <trkpt lon="76.987255" lat="10.433508">
        <ele>984.0</ele>
        <time>2026-01-20T05:02:41Z</time>
      </trkpt>
      <trkpt lon="76.987408" lat="10.433455">
        <ele>981.0</ele>
        <time>2026-01-20T05:02:43Z</time>
      </trkpt>
      <trkpt lon="76.987578" lat="10.433481">
        <ele>981.0</ele>
        <time>2026-01-20T05:02:45Z</time>
      </trkpt>
      <trkpt lon="76.987735" lat="10.433514">
        <ele>982.0</ele>
        <time>2026-01-20T05:02:47Z</time>
      </trkpt>
      <trkpt lon="76.987888" lat="10.433438">
        <ele>980.0</ele>
        <time>2026-01-20T05:02:49Z</time>
      </trkpt>
      <trkpt lon="76.987947" lat="10.433352">
        <ele>979.0</ele>
        <time>2026-01-20T05:02:50Z</time>
      </trkpt>
      <trkpt lon="76.988019" lat="10.43327">
        <ele>978.0</ele>
        <time>2026-01-20T05:02:51Z</time>
      </trkpt>
      <trkpt lon="76.988086" lat="10.433196">
        <ele>978.0</ele>
        <time>2026-01-20T05:02:52Z</time>
      </trkpt>
      <trkpt lon="76.988157" lat="10.433105">
        <ele>977.0</ele>
        <time>2026-01-20T05:02:53Z</time>
      </trkpt>
      <trkpt lon="76.98822" lat="10.433021">
        <ele>978.0</ele>
        <time>2026-01-20T05:02:54Z</time>
      </trkpt>
      <trkpt lon="76.988281" lat="10.432936">
        <ele>977.0</ele>
        <time>2026-01-20T05:02:55Z</time>
      </trkpt>
      <trkpt lon="76.988336" lat="10.43284">
        <ele>977.0</ele>
        <time>2026-01-20T05:02:56Z</time>
      </trkpt>
      <trkpt lon="76.988378" lat="10.432733">
        <ele>976.0</ele>
        <time>2026-01-20T05:02:57Z</time>
      </trkpt>
      <trkpt lon="76.988407" lat="10.432609">
        <ele>975.0</ele>
        <time>2026-01-20T05:02:58Z</time>
      </trkpt>
      <trkpt lon="76.988424" lat="10.432496">
        <ele>974.0</ele>
        <time>2026-01-20T05:02:59Z</time>
      </trkpt>
      <trkpt lon="76.988461" lat="10.432396">
        <ele>973.0</ele>
        <time>2026-01-20T05:03:00Z</time>
      </trkpt>
      <trkpt lon="76.988506" lat="10.432305">
        <ele>972.0</ele>
        <time>2026-01-20T05:03:01Z</time>
      </trkpt>
      <trkpt lon="76.988568" lat="10.432227">
        <ele>971.0</ele>
        <time>2026-01-20T05:03:02Z</time>
      </trkpt>
      <trkpt lon="76.98863" lat="10.432157">
        <ele>970.0</ele>
        <time>2026-01-20T05:03:03Z</time>
      </trkpt>
      <trkpt lon="76.988739" lat="10.432027">
        <ele>970.0</ele>
        <time>2026-01-20T05:03:05Z</time>
      </trkpt>
      <trkpt lon="76.988835" lat="10.431899">
        <ele>970.0</ele>
        <time>2026-01-20T05:03:07Z</time>
      </trkpt>
      <trkpt lon="76.988887" lat="10.431799">
        <ele>970.0</ele>
        <time>2026-01-20T05:03:09Z</time>
      </trkpt>
      <trkpt lon="76.988974" lat="10.431875">
        <ele>965.0</ele>
        <time>2026-01-20T05:03:13Z</time>
      </trkpt>
      <trkpt lon="76.988957" lat="10.432003">
        <ele>963.0</ele>
        <time>2026-01-20T05:03:15Z</time>
      </trkpt>
      <trkpt lon="76.988902" lat="10.432175">
        <ele>962.0</ele>
        <time>2026-01-20T05:03:17Z</time>
      </trkpt>
      <trkpt lon="76.98889" lat="10.432341">
        <ele>958.0</ele>
        <time>2026-01-20T05:03:19Z</time>
      </trkpt>
      <trkpt lon="76.988944" lat="10.432533">
        <ele>956.0</ele>
        <time>2026-01-20T05:03:21Z</time>
      </trkpt>
      <trkpt lon="76.988976" lat="10.432625">
        <ele>955.0</ele>
        <time>2026-01-20T05:03:22Z</time>
      </trkpt>
      <trkpt lon="76.989079" lat="10.432765">
        <ele>952.0</ele>
        <time>2026-01-20T05:03:24Z</time>
      </trkpt>
      <trkpt lon="76.989147" lat="10.432832">
        <ele>952.0</ele>
        <time>2026-01-20T05:03:25Z</time>
      </trkpt>
      <trkpt lon="76.98922" lat="10.432906">
        <ele>951.0</ele>
        <time>2026-01-20T05:03:26Z</time>
      </trkpt>
      <trkpt lon="76.989294" lat="10.432999">
        <ele>951.0</ele>
        <time>2026-01-20T05:03:27Z</time>
      </trkpt>
      <trkpt lon="76.989346" lat="10.433096">
        <ele>950.0</ele>
        <time>2026-01-20T05:03:28Z</time>
      </trkpt>
      <trkpt lon="76.989369" lat="10.433222">
        <ele>950.0</ele>
        <time>2026-01-20T05:03:29Z</time>
      </trkpt>
      <trkpt lon="76.989389" lat="10.433345">
        <ele>950.0</ele>
        <time>2026-01-20T05:03:30Z</time>
      </trkpt>
      <trkpt lon="76.989398" lat="10.433472">
        <ele>950.0</ele>
        <time>2026-01-20T05:03:31Z</time>
      </trkpt>
      <trkpt lon="76.989412" lat="10.433596">
        <ele>949.0</ele>
        <time>2026-01-20T05:03:32Z</time>
      </trkpt>
      <trkpt lon="76.989429" lat="10.433715">
        <ele>948.0</ele>
        <time>2026-01-20T05:03:33Z</time>
      </trkpt>
      <trkpt lon="76.989443" lat="10.433832">
        <ele>946.0</ele>
        <time>2026-01-20T05:03:34Z</time>
      </trkpt>
      <trkpt lon="76.989451" lat="10.433947">
        <ele>944.0</ele>
        <time>2026-01-20T05:03:35Z</time>
      </trkpt>
      <trkpt lon="76.98946" lat="10.434051">
        <ele>943.0</ele>
        <time>2026-01-20T05:03:36Z</time>
      </trkpt>
      <trkpt lon="76.989473" lat="10.434152">
        <ele>942.0</ele>
        <time>2026-01-20T05:03:37Z</time>
      </trkpt>
      <trkpt lon="76.989493" lat="10.434248">
        <ele>941.0</ele>
        <time>2026-01-20T05:03:38Z</time>
      </trkpt>
      <trkpt lon="76.989525" lat="10.43434">
        <ele>940.0</ele>
        <time>2026-01-20T05:03:39Z</time>
      </trkpt>
      <trkpt lon="76.989575" lat="10.434425">
        <ele>939.0</ele>
        <time>2026-01-20T05:03:40Z</time>
      </trkpt>
      <trkpt lon="76.989664" lat="10.434554">
        <ele>938.0</ele>
        <time>2026-01-20T05:03:42Z</time>
      </trkpt>
      <trkpt lon="76.989791" lat="10.434606">
        <ele>935.0</ele>
        <time>2026-01-20T05:03:44Z</time>
      </trkpt>
      <trkpt lon="76.989899" lat="10.434549">
        <ele>934.0</ele>
        <time>2026-01-20T05:03:46Z</time>
      </trkpt>
      <trkpt lon="76.989996" lat="10.434448">
        <ele>933.0</ele>
        <time>2026-01-20T05:03:48Z</time>
      </trkpt>
      <trkpt lon="76.990043" lat="10.43436">
        <ele>933.0</ele>
        <time>2026-01-20T05:03:49Z</time>
      </trkpt>
      <trkpt lon="76.990149" lat="10.434208">
        <ele>933.0</ele>
        <time>2026-01-20T05:03:51Z</time>
      </trkpt>
      <trkpt lon="76.990199" lat="10.434124">
        <ele>933.0</ele>
        <time>2026-01-20T05:03:52Z</time>
      </trkpt>
      <trkpt lon="76.990246" lat="10.434015">
        <ele>932.0</ele>
        <time>2026-01-20T05:03:53Z</time>
      </trkpt>
      <trkpt lon="76.990271" lat="10.433903">
        <ele>931.0</ele>
        <time>2026-01-20T05:03:54Z</time>
      </trkpt>
      <trkpt lon="76.990302" lat="10.433815">
        <ele>930.0</ele>
        <time>2026-01-20T05:03:55Z</time>
      </trkpt>
      <trkpt lon="76.990325" lat="10.433651">
        <ele>929.0</ele>
        <time>2026-01-20T05:03:57Z</time>
      </trkpt>
      <trkpt lon="76.990284" lat="10.433515">
        <ele>928.0</ele>
        <time>2026-01-20T05:03:59Z</time>
      </trkpt>
      <trkpt lon="76.990386" lat="10.433545">
        <ele>921.0</ele>
        <time>2026-01-20T05:04:04Z</time>
      </trkpt>
      <trkpt lon="76.990392" lat="10.433678">
        <ele>919.0</ele>
        <time>2026-01-20T05:04:06Z</time>
      </trkpt>
      <trkpt lon="76.990407" lat="10.433786">
        <ele>917.0</ele>
        <time>2026-01-20T05:04:07Z</time>
      </trkpt>
      <trkpt lon="76.990437" lat="10.433881">
        <ele>916.0</ele>
        <time>2026-01-20T05:04:08Z</time>
      </trkpt>
      <trkpt lon="76.990478" lat="10.433981">
        <ele>916.0</ele>
        <time>2026-01-20T05:04:09Z</time>
      </trkpt>
      <trkpt lon="76.990504" lat="10.434096">
        <ele>915.0</ele>
        <time>2026-01-20T05:04:10Z</time>
      </trkpt>
      <trkpt lon="76.990526" lat="10.434217">
        <ele>914.0</ele>
        <time>2026-01-20T05:04:11Z</time>
      </trkpt>
      <trkpt lon="76.990528" lat="10.434336">
        <ele>911.0</ele>
        <time>2026-01-20T05:04:12Z</time>
      </trkpt>
      <trkpt lon="76.990527" lat="10.434451">
        <ele>909.0</ele>
        <time>2026-01-20T05:04:13Z</time>
      </trkpt>
      <trkpt lon="76.990539" lat="10.43457">
        <ele>907.0</ele>
        <time>2026-01-20T05:04:14Z</time>
      </trkpt>
      <trkpt lon="76.990553" lat="10.434694">
        <ele>907.0</ele>
        <time>2026-01-20T05:04:15Z</time>
      </trkpt>
      <trkpt lon="76.990576" lat="10.434806">
        <ele>906.0</ele>
        <time>2026-01-20T05:04:16Z</time>
      </trkpt>
      <trkpt lon="76.990601" lat="10.434971">
        <ele>905.0</ele>
        <time>2026-01-20T05:04:18Z</time>
      </trkpt>
      <trkpt lon="76.990575" lat="10.435095">
        <ele>903.0</ele>
        <time>2026-01-20T05:04:20Z</time>
      </trkpt>
      <trkpt lon="76.990504" lat="10.435183">
        <ele>899.0</ele>
        <time>2026-01-20T05:04:22Z</time>
      </trkpt>
      <trkpt lon="76.990315" lat="10.43521">
        <ele>896.0</ele>
        <time>2026-01-20T05:04:24Z</time>
      </trkpt>
      <trkpt lon="76.990185" lat="10.435215">
        <ele>894.0</ele>
        <time>2026-01-20T05:04:25Z</time>
      </trkpt>
      <trkpt lon="76.990054" lat="10.435219">
        <ele>893.0</ele>
        <time>2026-01-20T05:04:26Z</time>
      </trkpt>
      <trkpt lon="76.989927" lat="10.435221">
        <ele>892.0</ele>
        <time>2026-01-20T05:04:27Z</time>
      </trkpt>
      <trkpt lon="76.989792" lat="10.435221">
        <ele>892.0</ele>
        <time>2026-01-20T05:04:28Z</time>
      </trkpt>
      <trkpt lon="76.989662" lat="10.435222">
        <ele>891.0</ele>
        <time>2026-01-20T05:04:29Z</time>
      </trkpt>
      <trkpt lon="76.989533" lat="10.435223">
        <ele>891.0</ele>
        <time>2026-01-20T05:04:30Z</time>
      </trkpt>
      <trkpt lon="76.98941" lat="10.435217">
        <ele>890.0</ele>
        <time>2026-01-20T05:04:31Z</time>
      </trkpt>
      <trkpt lon="76.989288" lat="10.435203">
        <ele>890.0</ele>
        <time>2026-01-20T05:04:32Z</time>
      </trkpt>
      <trkpt lon="76.989179" lat="10.435176">
        <ele>889.0</ele>
        <time>2026-01-20T05:04:33Z</time>
      </trkpt>
      <trkpt lon="76.989068" lat="10.435147">
        <ele>890.0</ele>
        <time>2026-01-20T05:04:34Z</time>
      </trkpt>
      <trkpt lon="76.988953" lat="10.435144">
        <ele>891.0</ele>
        <time>2026-01-20T05:04:35Z</time>
      </trkpt>
      <trkpt lon="76.988864" lat="10.435181">
        <ele>891.0</ele>
        <time>2026-01-20T05:04:36Z</time>
      </trkpt>
      <trkpt lon="76.98878" lat="10.435218">
        <ele>890.0</ele>
        <time>2026-01-20T05:04:37Z</time>
      </trkpt>
      <trkpt lon="76.988637" lat="10.435266">
        <ele>891.0</ele>
        <time>2026-01-20T05:04:39Z</time>
      </trkpt>
      <trkpt lon="76.988491" lat="10.435237">
        <ele>892.0</ele>
        <time>2026-01-20T05:04:41Z</time>
      </trkpt>
      <trkpt lon="76.98836" lat="10.435142">
        <ele>891.0</ele>
        <time>2026-01-20T05:04:43Z</time>
      </trkpt>
      <trkpt lon="76.98822" lat="10.435102">
        <ele>890.0</ele>
        <time>2026-01-20T05:04:45Z</time>
      </trkpt>
      <trkpt lon="76.988102" lat="10.435183">
        <ele>890.0</ele>
        <time>2026-01-20T05:04:47Z</time>
      </trkpt>
      <trkpt lon="76.988033" lat="10.435328">
        <ele>889.0</ele>
        <time>2026-01-20T05:04:49Z</time>
      </trkpt>
      <trkpt lon="76.98789" lat="10.435444">
        <ele>889.0</ele>
        <time>2026-01-20T05:04:51Z</time>
      </trkpt>
      <trkpt lon="76.9878" lat="10.435498">
        <ele>888.0</ele>
        <time>2026-01-20T05:04:52Z</time>
      </trkpt>
      <trkpt lon="76.987707" lat="10.43554">
        <ele>888.0</ele>
        <time>2026-01-20T05:04:53Z</time>
      </trkpt>
      <trkpt lon="76.987619" lat="10.435582">
        <ele>887.0</ele>
        <time>2026-01-20T05:04:54Z</time>
      </trkpt>
      <trkpt lon="76.987547" lat="10.435642">
        <ele>888.0</ele>
        <time>2026-01-20T05:04:55Z</time>
      </trkpt>
      <trkpt lon="76.987489" lat="10.435726">
        <ele>888.0</ele>
        <time>2026-01-20T05:04:56Z</time>
      </trkpt>
      <trkpt lon="76.987454" lat="10.435821">
        <ele>887.0</ele>
        <time>2026-01-20T05:04:57Z</time>
      </trkpt>
      <trkpt lon="76.987436" lat="10.435937">
        <ele>887.0</ele>
        <time>2026-01-20T05:04:58Z</time>
      </trkpt>
      <trkpt lon="76.987424" lat="10.436036">
        <ele>887.0</ele>
        <time>2026-01-20T05:04:59Z</time>
      </trkpt>
      <trkpt lon="76.987411" lat="10.436133">
        <ele>887.0</ele>
        <time>2026-01-20T05:05:00Z</time>
      </trkpt>
      <trkpt lon="76.987383" lat="10.436229">
        <ele>886.0</ele>
        <time>2026-01-20T05:05:01Z</time>
      </trkpt>
      <trkpt lon="76.987349" lat="10.436317">
        <ele>886.0</ele>
        <time>2026-01-20T05:05:02Z</time>
      </trkpt>
      <trkpt lon="76.98729" lat="10.436391">
        <ele>885.0</ele>
        <time>2026-01-20T05:05:03Z</time>
      </trkpt>
      <trkpt lon="76.987213" lat="10.436449">
        <ele>884.0</ele>
        <time>2026-01-20T05:05:04Z</time>
      </trkpt>
      <trkpt lon="76.987126" lat="10.436498">
        <ele>882.0</ele>
        <time>2026-01-20T05:05:05Z</time>
      </trkpt>
      <trkpt lon="76.987036" lat="10.436534">
        <ele>881.0</ele>
        <time>2026-01-20T05:05:06Z</time>
      </trkpt>
      <trkpt lon="76.986952" lat="10.436598">
        <ele>880.0</ele>
        <time>2026-01-20T05:05:07Z</time>
      </trkpt>
      <trkpt lon="76.98689" lat="10.436684">
        <ele>880.0</ele>
        <time>2026-01-20T05:05:08Z</time>
      </trkpt>
      <trkpt lon="76.986836" lat="10.436777">
        <ele>879.0</ele>
        <time>2026-01-20T05:05:09Z</time>
      </trkpt>
      <trkpt lon="76.986782" lat="10.436865">
        <ele>879.0</ele>
        <time>2026-01-20T05:05:10Z</time>
      </trkpt>
      <trkpt lon="76.986726" lat="10.436954">
        <ele>878.0</ele>
        <time>2026-01-20T05:05:11Z</time>
      </trkpt>
      <trkpt lon="76.986669" lat="10.437033">
        <ele>877.0</ele>
        <time>2026-01-20T05:05:12Z</time>
      </trkpt>
      <trkpt lon="76.986597" lat="10.437106">
        <ele>875.0</ele>
        <time>2026-01-20T05:05:13Z</time>
      </trkpt>
      <trkpt lon="76.986527" lat="10.437179">
        <ele>875.0</ele>
        <time>2026-01-20T05:05:14Z</time>
      </trkpt>
      <trkpt lon="76.986431" lat="10.437239">
        <ele>874.0</ele>
        <time>2026-01-20T05:05:15Z</time>
      </trkpt>
      <trkpt lon="76.986325" lat="10.43729">
        <ele>874.0</ele>
        <time>2026-01-20T05:05:16Z</time>
      </trkpt>
      <trkpt lon="76.986227" lat="10.437335">
        <ele>873.0</ele>
        <time>2026-01-20T05:05:17Z</time>
      </trkpt>
      <trkpt lon="76.986126" lat="10.43738">
        <ele>872.0</ele>
        <time>2026-01-20T05:05:18Z</time>
      </trkpt>
      <trkpt lon="76.986033" lat="10.437403">
        <ele>871.0</ele>
        <time>2026-01-20T05:05:19Z</time>
      </trkpt>
      <trkpt lon="76.985938" lat="10.437414">
        <ele>871.0</ele>
        <time>2026-01-20T05:05:20Z</time>
      </trkpt>
      <trkpt lon="76.985751" lat="10.437407">
        <ele>871.0</ele>
        <time>2026-01-20T05:05:22Z</time>
      </trkpt>
      <trkpt lon="76.98566" lat="10.43738">
        <ele>871.0</ele>
        <time>2026-01-20T05:05:23Z</time>
      </trkpt>
      <trkpt lon="76.985501" lat="10.43728">
        <ele>868.0</ele>
        <time>2026-01-20T05:05:25Z</time>
      </trkpt>
      <trkpt lon="76.985411" lat="10.437242">
        <ele>867.0</ele>
        <time>2026-01-20T05:05:26Z</time>
      </trkpt>
      <trkpt lon="76.985259" lat="10.437214">
        <ele>867.0</ele>
        <time>2026-01-20T05:05:28Z</time>
      </trkpt>
      <trkpt lon="76.985144" lat="10.437271">
        <ele>865.0</ele>
        <time>2026-01-20T05:05:30Z</time>
      </trkpt>
      <trkpt lon="76.985068" lat="10.437409">
        <ele>867.0</ele>
        <time>2026-01-20T05:05:32Z</time>
      </trkpt>
      <trkpt lon="76.984957" lat="10.437472">
        <ele>867.0</ele>
        <time>2026-01-20T05:05:34Z</time>
      </trkpt>
      <trkpt lon="76.984846" lat="10.437468">
        <ele>866.0</ele>
        <time>2026-01-20T05:05:36Z</time>
      </trkpt>
      <trkpt lon="76.984754" lat="10.437498">
        <ele>867.0</ele>
        <time>2026-01-20T05:05:38Z</time>
      </trkpt>
      <trkpt lon="76.984829" lat="10.437609">
        <ele>866.0</ele>
        <time>2026-01-20T05:05:41Z</time>
      </trkpt>
      <trkpt lon="76.984989" lat="10.437631">
        <ele>867.0</ele>
        <time>2026-01-20T05:05:43Z</time>
      </trkpt>
      <trkpt lon="76.98508" lat="10.437616">
        <ele>866.0</ele>
        <time>2026-01-20T05:05:44Z</time>
      </trkpt>
      <trkpt lon="76.985224" lat="10.437532">
        <ele>865.0</ele>
        <time>2026-01-20T05:05:46Z</time>
      </trkpt>
      <trkpt lon="76.985322" lat="10.437433">
        <ele>864.0</ele>
        <time>2026-01-20T05:05:48Z</time>
      </trkpt>
      <trkpt lon="76.985446" lat="10.437421">
        <ele>863.0</ele>
        <time>2026-01-20T05:05:50Z</time>
      </trkpt>
      <trkpt lon="76.985591" lat="10.437517">
        <ele>863.0</ele>
        <time>2026-01-20T05:05:52Z</time>
      </trkpt>
      <trkpt lon="76.985712" lat="10.437667">
        <ele>862.0</ele>
        <time>2026-01-20T05:05:54Z</time>
      </trkpt>
      <trkpt lon="76.985782" lat="10.437731">
        <ele>862.0</ele>
        <time>2026-01-20T05:05:55Z</time>
      </trkpt>
      <trkpt lon="76.98586" lat="10.437777">
        <ele>862.0</ele>
        <time>2026-01-20T05:05:56Z</time>
      </trkpt>
      <trkpt lon="76.985952" lat="10.437798">
        <ele>862.0</ele>
        <time>2026-01-20T05:05:57Z</time>
      </trkpt>
      <trkpt lon="76.986045" lat="10.437803">
        <ele>862.0</ele>
        <time>2026-01-20T05:05:58Z</time>
      </trkpt>
      <trkpt lon="76.986223" lat="10.437793">
        <ele>862.0</ele>
        <time>2026-01-20T05:06:00Z</time>
      </trkpt>
      <trkpt lon="76.986389" lat="10.437684">
        <ele>861.0</ele>
        <time>2026-01-20T05:06:02Z</time>
      </trkpt>
      <trkpt lon="76.986484" lat="10.437627">
        <ele>860.0</ele>
        <time>2026-01-20T05:06:03Z</time>
      </trkpt>
      <trkpt lon="76.986579" lat="10.4376">
        <ele>860.0</ele>
        <time>2026-01-20T05:06:04Z</time>
      </trkpt>
      <trkpt lon="76.986666" lat="10.43757">
        <ele>860.0</ele>
        <time>2026-01-20T05:06:05Z</time>
      </trkpt>
      <trkpt lon="76.986804" lat="10.437505">
        <ele>857.0</ele>
        <time>2026-01-20T05:06:07Z</time>
      </trkpt>
      <trkpt lon="76.986921" lat="10.43745">
        <ele>855.0</ele>
        <time>2026-01-20T05:06:09Z</time>
      </trkpt>
      <trkpt lon="76.987035" lat="10.437406">
        <ele>853.0</ele>
        <time>2026-01-20T05:06:11Z</time>
      </trkpt>
      <trkpt lon="76.987109" lat="10.437461">
        <ele>853.0</ele>
        <time>2026-01-20T05:06:14Z</time>
      </trkpt>
      <trkpt lon="76.987" lat="10.43753">
        <ele>851.0</ele>
        <time>2026-01-20T05:06:16Z</time>
      </trkpt>
      <trkpt lon="76.986906" lat="10.437557">
        <ele>851.0</ele>
        <time>2026-01-20T05:06:17Z</time>
      </trkpt>
      <trkpt lon="76.986729" lat="10.437619">
        <ele>850.0</ele>
        <time>2026-01-20T05:06:19Z</time>
      </trkpt>
      <trkpt lon="76.986632" lat="10.437683">
        <ele>850.0</ele>
        <time>2026-01-20T05:06:20Z</time>
      </trkpt>
      <trkpt lon="76.986536" lat="10.437753">
        <ele>850.0</ele>
        <time>2026-01-20T05:06:21Z</time>
      </trkpt>
      <trkpt lon="76.98645" lat="10.43783">
        <ele>849.0</ele>
        <time>2026-01-20T05:06:22Z</time>
      </trkpt>
      <trkpt lon="76.986372" lat="10.437909">
        <ele>848.0</ele>
        <time>2026-01-20T05:06:23Z</time>
      </trkpt>
      <trkpt lon="76.986298" lat="10.437969">
        <ele>847.0</ele>
        <time>2026-01-20T05:06:24Z</time>
      </trkpt>
      <trkpt lon="76.986219" lat="10.438019">
        <ele>847.0</ele>
        <time>2026-01-20T05:06:25Z</time>
      </trkpt>
      <trkpt lon="76.986068" lat="10.438068">
        <ele>846.0</ele>
        <time>2026-01-20T05:06:27Z</time>
      </trkpt>
      <trkpt lon="76.98593" lat="10.438069">
        <ele>845.0</ele>
        <time>2026-01-20T05:06:29Z</time>
      </trkpt>
      <trkpt lon="76.985833" lat="10.438083">
        <ele>844.0</ele>
        <time>2026-01-20T05:06:31Z</time>
      </trkpt>
      <trkpt lon="76.98584" lat="10.438181">
        <ele>844.0</ele>
        <time>2026-01-20T05:06:33Z</time>
      </trkpt>
      <trkpt lon="76.985954" lat="10.43822">
        <ele>843.0</ele>
        <time>2026-01-20T05:06:35Z</time>
      </trkpt>
      <trkpt lon="76.986133" lat="10.438208">
        <ele>840.0</ele>
        <time>2026-01-20T05:06:37Z</time>
      </trkpt>
      <trkpt lon="76.986226" lat="10.438199">
        <ele>840.0</ele>
        <time>2026-01-20T05:06:38Z</time>
      </trkpt>
      <trkpt lon="76.986376" lat="10.438116">
        <ele>838.0</ele>
        <time>2026-01-20T05:06:40Z</time>
      </trkpt>
      <trkpt lon="76.986505" lat="10.438006">
        <ele>837.0</ele>
        <time>2026-01-20T05:06:42Z</time>
      </trkpt>
      <trkpt lon="76.986598" lat="10.437898">
        <ele>837.0</ele>
        <time>2026-01-20T05:06:44Z</time>
      </trkpt>
      <trkpt lon="76.986677" lat="10.437834">
        <ele>838.0</ele>
        <time>2026-01-20T05:06:46Z</time>
      </trkpt>
      <trkpt lon="76.986667" lat="10.437954">
        <ele>836.0</ele>
        <time>2026-01-20T05:06:50Z</time>
      </trkpt>
      <trkpt lon="76.986545" lat="10.438034">
        <ele>836.0</ele>
        <time>2026-01-20T05:06:52Z</time>
      </trkpt>
      <trkpt lon="76.986399" lat="10.438154">
        <ele>835.0</ele>
        <time>2026-01-20T05:06:54Z</time>
      </trkpt>
      <trkpt lon="76.986316" lat="10.438222">
        <ele>834.0</ele>
        <time>2026-01-20T05:06:55Z</time>
      </trkpt>
      <trkpt lon="76.986227" lat="10.438282">
        <ele>833.0</ele>
        <time>2026-01-20T05:06:56Z</time>
      </trkpt>
      <trkpt lon="76.986129" lat="10.438332">
        <ele>833.0</ele>
        <time>2026-01-20T05:06:57Z</time>
      </trkpt>
      <trkpt lon="76.986034" lat="10.438382">
        <ele>832.0</ele>
        <time>2026-01-20T05:06:58Z</time>
      </trkpt>
      <trkpt lon="76.985942" lat="10.438441">
        <ele>832.0</ele>
        <time>2026-01-20T05:06:59Z</time>
      </trkpt>
      <trkpt lon="76.985859" lat="10.438489">
        <ele>831.0</ele>
        <time>2026-01-20T05:07:00Z</time>
      </trkpt>
      <trkpt lon="76.985766" lat="10.43853">
        <ele>830.0</ele>
        <time>2026-01-20T05:07:01Z</time>
      </trkpt>
      <trkpt lon="76.985671" lat="10.438548">
        <ele>829.0</ele>
        <time>2026-01-20T05:07:02Z</time>
      </trkpt>
      <trkpt lon="76.985564" lat="10.438553">
        <ele>829.0</ele>
        <time>2026-01-20T05:07:03Z</time>
      </trkpt>
      <trkpt lon="76.985466" lat="10.438567">
        <ele>829.0</ele>
        <time>2026-01-20T05:07:04Z</time>
      </trkpt>
      <trkpt lon="76.985301" lat="10.438598">
        <ele>828.0</ele>
        <time>2026-01-20T05:07:06Z</time>
      </trkpt>
      <trkpt lon="76.985171" lat="10.43864">
        <ele>828.0</ele>
        <time>2026-01-20T05:07:08Z</time>
      </trkpt>
      <trkpt lon="76.985132" lat="10.438749">
        <ele>827.0</ele>
        <time>2026-01-20T05:07:10Z</time>
      </trkpt>
      <trkpt lon="76.985181" lat="10.438866">
        <ele>828.0</ele>
        <time>2026-01-20T05:07:12Z</time>
      </trkpt>
      <trkpt lon="76.985234" lat="10.438943">
        <ele>828.0</ele>
        <time>2026-01-20T05:07:13Z</time>
      </trkpt>
      <trkpt lon="76.985294" lat="10.439031">
        <ele>829.0</ele>
        <time>2026-01-20T05:07:14Z</time>
      </trkpt>
      <trkpt lon="76.985348" lat="10.439127">
        <ele>830.0</ele>
        <time>2026-01-20T05:07:15Z</time>
      </trkpt>
      <trkpt lon="76.985393" lat="10.439222">
        <ele>829.0</ele>
        <time>2026-01-20T05:07:16Z</time>
      </trkpt>
      <trkpt lon="76.985411" lat="10.439321">
        <ele>829.0</ele>
        <time>2026-01-20T05:07:17Z</time>
      </trkpt>
      <trkpt lon="76.985415" lat="10.439438">
        <ele>828.0</ele>
        <time>2026-01-20T05:07:18Z</time>
      </trkpt>
      <trkpt lon="76.985412" lat="10.439558">
        <ele>827.0</ele>
        <time>2026-01-20T05:07:19Z</time>
      </trkpt>
      <trkpt lon="76.985407" lat="10.439676">
        <ele>826.0</ele>
        <time>2026-01-20T05:07:20Z</time>
      </trkpt>
      <trkpt lon="76.985424" lat="10.439799">
        <ele>825.0</ele>
        <time>2026-01-20T05:07:21Z</time>
      </trkpt>
      <trkpt lon="76.985461" lat="10.439911">
        <ele>826.0</ele>
        <time>2026-01-20T05:07:22Z</time>
      </trkpt>
      <trkpt lon="76.985506" lat="10.440032">
        <ele>825.0</ele>
        <time>2026-01-20T05:07:23Z</time>
      </trkpt>
      <trkpt lon="76.985539" lat="10.440145">
        <ele>824.0</ele>
        <time>2026-01-20T05:07:24Z</time>
      </trkpt>
      <trkpt lon="76.985564" lat="10.440254">
        <ele>822.0</ele>
        <time>2026-01-20T05:07:25Z</time>
      </trkpt>
      <trkpt lon="76.985564" lat="10.440358">
        <ele>820.0</ele>
        <time>2026-01-20T05:07:26Z</time>
      </trkpt>
      <trkpt lon="76.985536" lat="10.440462">
        <ele>819.0</ele>
        <time>2026-01-20T05:07:27Z</time>
      </trkpt>
      <trkpt lon="76.985492" lat="10.440571">
        <ele>819.0</ele>
        <time>2026-01-20T05:07:28Z</time>
      </trkpt>
      <trkpt lon="76.985451" lat="10.440678">
        <ele>818.0</ele>
        <time>2026-01-20T05:07:29Z</time>
      </trkpt>
      <trkpt lon="76.985425" lat="10.440785">
        <ele>817.0</ele>
        <time>2026-01-20T05:07:30Z</time>
      </trkpt>
      <trkpt lon="76.985405" lat="10.440891">
        <ele>816.0</ele>
        <time>2026-01-20T05:07:31Z</time>
      </trkpt>
      <trkpt lon="76.985404" lat="10.441">
        <ele>816.0</ele>
        <time>2026-01-20T05:07:32Z</time>
      </trkpt>
      <trkpt lon="76.985404" lat="10.441123">
        <ele>816.0</ele>
        <time>2026-01-20T05:07:33Z</time>
      </trkpt>
      <trkpt lon="76.985401" lat="10.44124">
        <ele>817.0</ele>
        <time>2026-01-20T05:07:34Z</time>
      </trkpt>
      <trkpt lon="76.985388" lat="10.441349">
        <ele>817.0</ele>
        <time>2026-01-20T05:07:35Z</time>
      </trkpt>
      <trkpt lon="76.985379" lat="10.44145">
        <ele>817.0</ele>
        <time>2026-01-20T05:07:36Z</time>
      </trkpt>
      <trkpt lon="76.985383" lat="10.441548">
        <ele>818.0</ele>
        <time>2026-01-20T05:07:37Z</time>
      </trkpt>
      <trkpt lon="76.985438" lat="10.441704">
        <ele>820.0</ele>
        <time>2026-01-20T05:07:39Z</time>
      </trkpt>
      <trkpt lon="76.985478" lat="10.441812">
        <ele>821.0</ele>
        <time>2026-01-20T05:07:41Z</time>
      </trkpt>
      <trkpt lon="76.985527" lat="10.441892">
        <ele>822.0</ele>
        <time>2026-01-20T05:07:43Z</time>
      </trkpt>
      <trkpt lon="76.98563" lat="10.441968">
        <ele>822.0</ele>
        <time>2026-01-20T05:07:45Z</time>
      </trkpt>
      <trkpt lon="76.985725" lat="10.442096">
        <ele>823.0</ele>
        <time>2026-01-20T05:07:47Z</time>
      </trkpt>
      <trkpt lon="76.985776" lat="10.442236">
        <ele>823.0</ele>
        <time>2026-01-20T05:07:49Z</time>
      </trkpt>
      <trkpt lon="76.985793" lat="10.442381">
        <ele>824.0</ele>
        <time>2026-01-20T05:07:51Z</time>
      </trkpt>
      <trkpt lon="76.985784" lat="10.442501">
        <ele>825.0</ele>
        <time>2026-01-20T05:07:53Z</time>
      </trkpt>
      <trkpt lon="76.985744" lat="10.442623">
        <ele>824.0</ele>
        <time>2026-01-20T05:07:55Z</time>
      </trkpt>
      <trkpt lon="76.985686" lat="10.442764">
        <ele>826.0</ele>
        <time>2026-01-20T05:07:57Z</time>
      </trkpt>
      <trkpt lon="76.985629" lat="10.44293">
        <ele>827.0</ele>
        <time>2026-01-20T05:07:59Z</time>
      </trkpt>
      <trkpt lon="76.985608" lat="10.443092">
        <ele>829.0</ele>
        <time>2026-01-20T05:08:01Z</time>
      </trkpt>
      <trkpt lon="76.98562" lat="10.443277">
        <ele>829.0</ele>
        <time>2026-01-20T05:08:03Z</time>
      </trkpt>
      <trkpt lon="76.98562" lat="10.443379">
        <ele>829.0</ele>
        <time>2026-01-20T05:08:04Z</time>
      </trkpt>
      <trkpt lon="76.985625" lat="10.443479">
        <ele>829.0</ele>
        <time>2026-01-20T05:08:05Z</time>
      </trkpt>
      <trkpt lon="76.985637" lat="10.443575">
        <ele>829.0</ele>
        <time>2026-01-20T05:08:06Z</time>
      </trkpt>
      <trkpt lon="76.985649" lat="10.443672">
        <ele>829.0</ele>
        <time>2026-01-20T05:08:07Z</time>
      </trkpt>
      <trkpt lon="76.985653" lat="10.443773">
        <ele>829.0</ele>
        <time>2026-01-20T05:08:08Z</time>
      </trkpt>
      <trkpt lon="76.985663" lat="10.443865">
        <ele>829.0</ele>
        <time>2026-01-20T05:08:09Z</time>
      </trkpt>
      <trkpt lon="76.985676" lat="10.444039">
        <ele>830.0</ele>
        <time>2026-01-20T05:08:11Z</time>
      </trkpt>
      <trkpt lon="76.98566" lat="10.444188">
        <ele>829.0</ele>
        <time>2026-01-20T05:08:13Z</time>
      </trkpt>
      <trkpt lon="76.98564" lat="10.444346">
        <ele>830.0</ele>
        <time>2026-01-20T05:08:15Z</time>
      </trkpt>
      <trkpt lon="76.985651" lat="10.444436">
        <ele>830.0</ele>
        <time>2026-01-20T05:08:16Z</time>
      </trkpt>
      <trkpt lon="76.985719" lat="10.444608">
        <ele>829.0</ele>
        <time>2026-01-20T05:08:18Z</time>
      </trkpt>
      <trkpt lon="76.985782" lat="10.444774">
        <ele>829.0</ele>
        <time>2026-01-20T05:08:20Z</time>
      </trkpt>
      <trkpt lon="76.985776" lat="10.444955">
        <ele>828.0</ele>
        <time>2026-01-20T05:08:22Z</time>
      </trkpt>
      <trkpt lon="76.985747" lat="10.445051">
        <ele>827.0</ele>
        <time>2026-01-20T05:08:23Z</time>
      </trkpt>
      <trkpt lon="76.985722" lat="10.445144">
        <ele>826.0</ele>
        <time>2026-01-20T05:08:24Z</time>
      </trkpt>
      <trkpt lon="76.985686" lat="10.445235">
        <ele>825.0</ele>
        <time>2026-01-20T05:08:25Z</time>
      </trkpt>
      <trkpt lon="76.98563" lat="10.445324">
        <ele>824.0</ele>
        <time>2026-01-20T05:08:26Z</time>
      </trkpt>
      <trkpt lon="76.985573" lat="10.445412">
        <ele>823.0</ele>
        <time>2026-01-20T05:08:27Z</time>
      </trkpt>
      <trkpt lon="76.985523" lat="10.445502">
        <ele>822.0</ele>
        <time>2026-01-20T05:08:28Z</time>
      </trkpt>
      <trkpt lon="76.985469" lat="10.445589">
        <ele>820.0</ele>
        <time>2026-01-20T05:08:29Z</time>
      </trkpt>
      <trkpt lon="76.985393" lat="10.445683">
        <ele>820.0</ele>
        <time>2026-01-20T05:08:30Z</time>
      </trkpt>
      <trkpt lon="76.985317" lat="10.445778">
        <ele>820.0</ele>
        <time>2026-01-20T05:08:31Z</time>
      </trkpt>
      <trkpt lon="76.985253" lat="10.445875">
        <ele>820.0</ele>
        <time>2026-01-20T05:08:32Z</time>
      </trkpt>
      <trkpt lon="76.985199" lat="10.445969">
        <ele>820.0</ele>
        <time>2026-01-20T05:08:33Z</time>
      </trkpt>
      <trkpt lon="76.985151" lat="10.446063">
        <ele>821.0</ele>
        <time>2026-01-20T05:08:34Z</time>
      </trkpt>
      <trkpt lon="76.985109" lat="10.446162">
        <ele>821.0</ele>
        <time>2026-01-20T05:08:35Z</time>
      </trkpt>
      <trkpt lon="76.985081" lat="10.44627">
        <ele>819.0</ele>
        <time>2026-01-20T05:08:36Z</time>
      </trkpt>
      <trkpt lon="76.985067" lat="10.446383">
        <ele>818.0</ele>
        <time>2026-01-20T05:08:37Z</time>
      </trkpt>
      <trkpt lon="76.985055" lat="10.446494">
        <ele>818.0</ele>
        <time>2026-01-20T05:08:38Z</time>
      </trkpt>
      <trkpt lon="76.985038" lat="10.4466">
        <ele>816.0</ele>
        <time>2026-01-20T05:08:39Z</time>
      </trkpt>
      <trkpt lon="76.985005" lat="10.4467">
        <ele>815.0</ele>
        <time>2026-01-20T05:08:40Z</time>
      </trkpt>
      <trkpt lon="76.984967" lat="10.446799">
        <ele>814.0</ele>
        <time>2026-01-20T05:08:41Z</time>
      </trkpt>
      <trkpt lon="76.984921" lat="10.4469">
        <ele>813.0</ele>
        <time>2026-01-20T05:08:42Z</time>
      </trkpt>
      <trkpt lon="76.984868" lat="10.446995">
        <ele>811.0</ele>
        <time>2026-01-20T05:08:43Z</time>
      </trkpt>
      <trkpt lon="76.984803" lat="10.447079">
        <ele>810.0</ele>
        <time>2026-01-20T05:08:44Z</time>
      </trkpt>
      <trkpt lon="76.984739" lat="10.447154">
        <ele>809.0</ele>
        <time>2026-01-20T05:08:45Z</time>
      </trkpt>
      <trkpt lon="76.98461" lat="10.447258">
        <ele>807.0</ele>
        <time>2026-01-20T05:08:47Z</time>
      </trkpt>
      <trkpt lon="76.984481" lat="10.447292">
        <ele>805.0</ele>
        <time>2026-01-20T05:08:49Z</time>
      </trkpt>
      <trkpt lon="76.984373" lat="10.447306">
        <ele>804.0</ele>
        <time>2026-01-20T05:08:51Z</time>
      </trkpt>
      <trkpt lon="76.984316" lat="10.447379">
        <ele>804.0</ele>
        <time>2026-01-20T05:08:53Z</time>
      </trkpt>
      <trkpt lon="76.984424" lat="10.447447">
        <ele>803.0</ele>
        <time>2026-01-20T05:08:55Z</time>
      </trkpt>
      <trkpt lon="76.984571" lat="10.447411">
        <ele>803.0</ele>
        <time>2026-01-20T05:08:57Z</time>
      </trkpt>
      <trkpt lon="76.984729" lat="10.44735">
        <ele>803.0</ele>
        <time>2026-01-20T05:08:59Z</time>
      </trkpt>
      <trkpt lon="76.984811" lat="10.447305">
        <ele>803.0</ele>
        <time>2026-01-20T05:09:00Z</time>
      </trkpt>
      <trkpt lon="76.984895" lat="10.447249">
        <ele>801.0</ele>
        <time>2026-01-20T05:09:01Z</time>
      </trkpt>
      <trkpt lon="76.984982" lat="10.447195">
        <ele>799.0</ele>
        <time>2026-01-20T05:09:02Z</time>
      </trkpt>
      <trkpt lon="76.985076" lat="10.447131">
        <ele>797.0</ele>
        <time>2026-01-20T05:09:03Z</time>
      </trkpt>
      <trkpt lon="76.985159" lat="10.447054">
        <ele>796.0</ele>
        <time>2026-01-20T05:09:04Z</time>
      </trkpt>
      <trkpt lon="76.985225" lat="10.446967">
        <ele>796.0</ele>
        <time>2026-01-20T05:09:05Z</time>
      </trkpt>
      <trkpt lon="76.985286" lat="10.446874">
        <ele>796.0</ele>
        <time>2026-01-20T05:09:06Z</time>
      </trkpt>
      <trkpt lon="76.985341" lat="10.446773">
        <ele>795.0</ele>
        <time>2026-01-20T05:09:07Z</time>
      </trkpt>
      <trkpt lon="76.98539" lat="10.446679">
        <ele>794.0</ele>
        <time>2026-01-20T05:09:08Z</time>
      </trkpt>
      <trkpt lon="76.985446" lat="10.446583">
        <ele>794.0</ele>
        <time>2026-01-20T05:09:09Z</time>
      </trkpt>
      <trkpt lon="76.985501" lat="10.446489">
        <ele>794.0</ele>
        <time>2026-01-20T05:09:10Z</time>
      </trkpt>
      <trkpt lon="76.985547" lat="10.446396">
        <ele>793.0</ele>
        <time>2026-01-20T05:09:11Z</time>
      </trkpt>
      <trkpt lon="76.985593" lat="10.446312">
        <ele>793.0</ele>
        <time>2026-01-20T05:09:12Z</time>
      </trkpt>
      <trkpt lon="76.985671" lat="10.446198">
        <ele>793.0</ele>
        <time>2026-01-20T05:09:14Z</time>
      </trkpt>
      <trkpt lon="76.985818" lat="10.446151">
        <ele>791.0</ele>
        <time>2026-01-20T05:09:16Z</time>
      </trkpt>
      <trkpt lon="76.985995" lat="10.44618">
        <ele>790.0</ele>
        <time>2026-01-20T05:09:18Z</time>
      </trkpt>
      <trkpt lon="76.986171" lat="10.446165">
        <ele>789.0</ele>
        <time>2026-01-20T05:09:20Z</time>
      </trkpt>
      <trkpt lon="76.986311" lat="10.446153">
        <ele>787.0</ele>
        <time>2026-01-20T05:09:22Z</time>
      </trkpt>
      <trkpt lon="76.986408" lat="10.446168">
        <ele>787.0</ele>
        <time>2026-01-20T05:09:24Z</time>
      </trkpt>
      <trkpt lon="76.98645" lat="10.446257">
        <ele>784.0</ele>
        <time>2026-01-20T05:09:27Z</time>
      </trkpt>
      <trkpt lon="76.986325" lat="10.446337">
        <ele>782.0</ele>
        <time>2026-01-20T05:09:29Z</time>
      </trkpt>
      <trkpt lon="76.986156" lat="10.446365">
        <ele>781.0</ele>
        <time>2026-01-20T05:09:31Z</time>
      </trkpt>
      <trkpt lon="76.985985" lat="10.446355">
        <ele>779.0</ele>
        <time>2026-01-20T05:09:33Z</time>
      </trkpt>
      <trkpt lon="76.985855" lat="10.44636">
        <ele>778.0</ele>
        <time>2026-01-20T05:09:35Z</time>
      </trkpt>
      <trkpt lon="76.985758" lat="10.446461">
        <ele>777.0</ele>
        <time>2026-01-20T05:09:37Z</time>
      </trkpt>
      <trkpt lon="76.985707" lat="10.446616">
        <ele>776.0</ele>
        <time>2026-01-20T05:09:39Z</time>
      </trkpt>
      <trkpt lon="76.985689" lat="10.446793">
        <ele>772.0</ele>
        <time>2026-01-20T05:09:41Z</time>
      </trkpt>
      <trkpt lon="76.985673" lat="10.446906">
        <ele>769.0</ele>
        <time>2026-01-20T05:09:42Z</time>
      </trkpt>
      <trkpt lon="76.985667" lat="10.447008">
        <ele>767.0</ele>
        <time>2026-01-20T05:09:43Z</time>
      </trkpt>
      <trkpt lon="76.985665" lat="10.447127">
        <ele>766.0</ele>
        <time>2026-01-20T05:09:44Z</time>
      </trkpt>
      <trkpt lon="76.985665" lat="10.447242">
        <ele>766.0</ele>
        <time>2026-01-20T05:09:45Z</time>
      </trkpt>
      <trkpt lon="76.985658" lat="10.447352">
        <ele>765.0</ele>
        <time>2026-01-20T05:09:46Z</time>
      </trkpt>
      <trkpt lon="76.985658" lat="10.447462">
        <ele>765.0</ele>
        <time>2026-01-20T05:09:47Z</time>
      </trkpt>
      <trkpt lon="76.985632" lat="10.447576">
        <ele>764.0</ele>
        <time>2026-01-20T05:09:48Z</time>
      </trkpt>
      <trkpt lon="76.985608" lat="10.447679">
        <ele>763.0</ele>
        <time>2026-01-20T05:09:49Z</time>
      </trkpt>
      <trkpt lon="76.98549" lat="10.447817">
        <ele>762.0</ele>
        <time>2026-01-20T05:09:51Z</time>
      </trkpt>
      <trkpt lon="76.985383" lat="10.447847">
        <ele>761.0</ele>
        <time>2026-01-20T05:09:52Z</time>
      </trkpt>
      <trkpt lon="76.985271" lat="10.447861">
        <ele>760.0</ele>
        <time>2026-01-20T05:09:53Z</time>
      </trkpt>
      <trkpt lon="76.985154" lat="10.447891">
        <ele>760.0</ele>
        <time>2026-01-20T05:09:54Z</time>
      </trkpt>
      <trkpt lon="76.98504" lat="10.447937">
        <ele>759.0</ele>
        <time>2026-01-20T05:09:55Z</time>
      </trkpt>
      <trkpt lon="76.984934" lat="10.447981">
        <ele>759.0</ele>
        <time>2026-01-20T05:09:56Z</time>
      </trkpt>
      <trkpt lon="76.984834" lat="10.448021">
        <ele>758.0</ele>
        <time>2026-01-20T05:09:57Z</time>
      </trkpt>
      <trkpt lon="76.984734" lat="10.448044">
        <ele>758.0</ele>
        <time>2026-01-20T05:09:58Z</time>
      </trkpt>
      <trkpt lon="76.984639" lat="10.448071">
        <ele>758.0</ele>
        <time>2026-01-20T05:09:59Z</time>
      </trkpt>
      <trkpt lon="76.984538" lat="10.448085">
        <ele>758.0</ele>
        <time>2026-01-20T05:10:00Z</time>
      </trkpt>
      <trkpt lon="76.984433" lat="10.44808">
        <ele>757.0</ele>
        <time>2026-01-20T05:10:01Z</time>
      </trkpt>
      <trkpt lon="76.984331" lat="10.448054">
        <ele>756.0</ele>
        <time>2026-01-20T05:10:02Z</time>
      </trkpt>
      <trkpt lon="76.984199" lat="10.447979">
        <ele>754.0</ele>
        <time>2026-01-20T05:10:04Z</time>
      </trkpt>
      <trkpt lon="76.984029" lat="10.44794">
        <ele>753.0</ele>
        <time>2026-01-20T05:10:06Z</time>
      </trkpt>
      <trkpt lon="76.98384" lat="10.447985">
        <ele>752.0</ele>
        <time>2026-01-20T05:10:08Z</time>
      </trkpt>
      <trkpt lon="76.983743" lat="10.448011">
        <ele>751.0</ele>
        <time>2026-01-20T05:10:09Z</time>
      </trkpt>
      <trkpt lon="76.983648" lat="10.44803">
        <ele>750.0</ele>
        <time>2026-01-20T05:10:10Z</time>
      </trkpt>
      <trkpt lon="76.983553" lat="10.448057">
        <ele>749.0</ele>
        <time>2026-01-20T05:10:11Z</time>
      </trkpt>
      <trkpt lon="76.983459" lat="10.448089">
        <ele>750.0</ele>
        <time>2026-01-20T05:10:12Z</time>
      </trkpt>
      <trkpt lon="76.983368" lat="10.448122">
        <ele>750.0</ele>
        <time>2026-01-20T05:10:13Z</time>
      </trkpt>
      <trkpt lon="76.983277" lat="10.448157">
        <ele>750.0</ele>
        <time>2026-01-20T05:10:14Z</time>
      </trkpt>
      <trkpt lon="76.98314" lat="10.448199">
        <ele>749.0</ele>
        <time>2026-01-20T05:10:16Z</time>
      </trkpt>
      <trkpt lon="76.983018" lat="10.448208">
        <ele>749.0</ele>
        <time>2026-01-20T05:10:18Z</time>
      </trkpt>
      <trkpt lon="76.982925" lat="10.448258">
        <ele>750.0</ele>
        <time>2026-01-20T05:10:20Z</time>
      </trkpt>
      <trkpt lon="76.982925" lat="10.448356">
        <ele>751.0</ele>
        <time>2026-01-20T05:10:22Z</time>
      </trkpt>
      <trkpt lon="76.983012" lat="10.448419">
        <ele>751.0</ele>
        <time>2026-01-20T05:10:24Z</time>
      </trkpt>
      <trkpt lon="76.983142" lat="10.448357">
        <ele>751.0</ele>
        <time>2026-01-20T05:10:26Z</time>
      </trkpt>
      <trkpt lon="76.983239" lat="10.448322">
        <ele>749.0</ele>
        <time>2026-01-20T05:10:27Z</time>
      </trkpt>
      <trkpt lon="76.98333" lat="10.448292">
        <ele>749.0</ele>
        <time>2026-01-20T05:10:28Z</time>
      </trkpt>
      <trkpt lon="76.983418" lat="10.448253">
        <ele>748.0</ele>
        <time>2026-01-20T05:10:29Z</time>
      </trkpt>
      <trkpt lon="76.983516" lat="10.448227">
        <ele>747.0</ele>
        <time>2026-01-20T05:10:30Z</time>
      </trkpt>
      <trkpt lon="76.983614" lat="10.44821">
        <ele>746.0</ele>
        <time>2026-01-20T05:10:31Z</time>
      </trkpt>
      <trkpt lon="76.983709" lat="10.448197">
        <ele>746.0</ele>
        <time>2026-01-20T05:10:32Z</time>
      </trkpt>
      <trkpt lon="76.983808" lat="10.448189">
        <ele>746.0</ele>
        <time>2026-01-20T05:10:33Z</time>
      </trkpt>
      <trkpt lon="76.983906" lat="10.448178">
        <ele>745.0</ele>
        <time>2026-01-20T05:10:34Z</time>
      </trkpt>
      <trkpt lon="76.984003" lat="10.448183">
        <ele>744.0</ele>
        <time>2026-01-20T05:10:35Z</time>
      </trkpt>
      <trkpt lon="76.984094" lat="10.448216">
        <ele>743.0</ele>
        <time>2026-01-20T05:10:36Z</time>
      </trkpt>
      <trkpt lon="76.984175" lat="10.448276">
        <ele>743.0</ele>
        <time>2026-01-20T05:10:37Z</time>
      </trkpt>
      <trkpt lon="76.984257" lat="10.448326">
        <ele>742.0</ele>
        <time>2026-01-20T05:10:38Z</time>
      </trkpt>
      <trkpt lon="76.98433" lat="10.448386">
        <ele>742.0</ele>
        <time>2026-01-20T05:10:39Z</time>
      </trkpt>
      <trkpt lon="76.984419" lat="10.448437">
        <ele>740.0</ele>
        <time>2026-01-20T05:10:40Z</time>
      </trkpt>
      <trkpt lon="76.984503" lat="10.448498">
        <ele>740.0</ele>
        <time>2026-01-20T05:10:41Z</time>
      </trkpt>
      <trkpt lon="76.984586" lat="10.44855">
        <ele>739.0</ele>
        <time>2026-01-20T05:10:42Z</time>
      </trkpt>
      <trkpt lon="76.984725" lat="10.448607">
        <ele>737.0</ele>
        <time>2026-01-20T05:10:44Z</time>
      </trkpt>
      <trkpt lon="76.984849" lat="10.448664">
        <ele>737.0</ele>
        <time>2026-01-20T05:10:46Z</time>
      </trkpt>
      <trkpt lon="76.984908" lat="10.448781">
        <ele>736.0</ele>
        <time>2026-01-20T05:10:48Z</time>
      </trkpt>
      <trkpt lon="76.98486" lat="10.44894">
        <ele>735.0</ele>
        <time>2026-01-20T05:10:50Z</time>
      </trkpt>
      <trkpt lon="76.984752" lat="10.449064">
        <ele>734.0</ele>
        <time>2026-01-20T05:10:52Z</time>
      </trkpt>
      <trkpt lon="76.984633" lat="10.44916">
        <ele>733.0</ele>
        <time>2026-01-20T05:10:54Z</time>
      </trkpt>
      <trkpt lon="76.984548" lat="10.449231">
        <ele>732.0</ele>
        <time>2026-01-20T05:10:56Z</time>
      </trkpt>
      <trkpt lon="76.984409" lat="10.449241">
        <ele>732.0</ele>
        <time>2026-01-20T05:10:59Z</time>
      </trkpt>
      <trkpt lon="76.984353" lat="10.449139">
        <ele>732.0</ele>
        <time>2026-01-20T05:11:01Z</time>
      </trkpt>
      <trkpt lon="76.984355" lat="10.448976">
        <ele>730.0</ele>
        <time>2026-01-20T05:11:03Z</time>
      </trkpt>
      <trkpt lon="76.984318" lat="10.448805">
        <ele>729.0</ele>
        <time>2026-01-20T05:11:05Z</time>
      </trkpt>
      <trkpt lon="76.984272" lat="10.448661">
        <ele>726.0</ele>
        <time>2026-01-20T05:11:07Z</time>
      </trkpt>
      <trkpt lon="76.984253" lat="10.448534">
        <ele>725.0</ele>
        <time>2026-01-20T05:11:09Z</time>
      </trkpt>
      <trkpt lon="76.984158" lat="10.448443">
        <ele>723.0</ele>
        <time>2026-01-20T05:11:11Z</time>
      </trkpt>
      <trkpt lon="76.984003" lat="10.448384">
        <ele>723.0</ele>
        <time>2026-01-20T05:11:13Z</time>
      </trkpt>
      <trkpt lon="76.983909" lat="10.448379">
        <ele>723.0</ele>
        <time>2026-01-20T05:11:14Z</time>
      </trkpt>
      <trkpt lon="76.983733" lat="10.44841">
        <ele>721.0</ele>
        <time>2026-01-20T05:11:16Z</time>
      </trkpt>
      <trkpt lon="76.983593" lat="10.44845">
        <ele>719.0</ele>
        <time>2026-01-20T05:11:18Z</time>
      </trkpt>
      <trkpt lon="76.983456" lat="10.448519">
        <ele>717.0</ele>
        <time>2026-01-20T05:11:20Z</time>
      </trkpt>
      <trkpt lon="76.983302" lat="10.44854">
        <ele>716.0</ele>
        <time>2026-01-20T05:11:22Z</time>
      </trkpt>
      <trkpt lon="76.98316" lat="10.44856">
        <ele>715.0</ele>
        <time>2026-01-20T05:11:24Z</time>
      </trkpt>
      <trkpt lon="76.983039" lat="10.448571">
        <ele>714.0</ele>
        <time>2026-01-20T05:11:26Z</time>
      </trkpt>
      <trkpt lon="76.982952" lat="10.448599">
        <ele>713.0</ele>
        <time>2026-01-20T05:11:28Z</time>
      </trkpt>
      <trkpt lon="76.982995" lat="10.448723">
        <ele>713.0</ele>
        <time>2026-01-20T05:11:31Z</time>
      </trkpt>
      <trkpt lon="76.98314" lat="10.448726">
        <ele>713.0</ele>
        <time>2026-01-20T05:11:33Z</time>
      </trkpt>
      <trkpt lon="76.983318" lat="10.448676">
        <ele>711.0</ele>
        <time>2026-01-20T05:11:35Z</time>
      </trkpt>
      <trkpt lon="76.98342" lat="10.448657">
        <ele>710.0</ele>
        <time>2026-01-20T05:11:36Z</time>
      </trkpt>
      <trkpt lon="76.983522" lat="10.448642">
        <ele>709.0</ele>
        <time>2026-01-20T05:11:37Z</time>
      </trkpt>
      <trkpt lon="76.983615" lat="10.448626">
        <ele>709.0</ele>
        <time>2026-01-20T05:11:38Z</time>
      </trkpt>
      <trkpt lon="76.983777" lat="10.448589">
        <ele>708.0</ele>
        <time>2026-01-20T05:11:40Z</time>
      </trkpt>
      <trkpt lon="76.983916" lat="10.448586">
        <ele>706.0</ele>
        <time>2026-01-20T05:11:42Z</time>
      </trkpt>
      <trkpt lon="76.984014" lat="10.448628">
        <ele>706.0</ele>
        <time>2026-01-20T05:11:44Z</time>
      </trkpt>
      <trkpt lon="76.984008" lat="10.448726">
        <ele>704.0</ele>
        <time>2026-01-20T05:11:47Z</time>
      </trkpt>
      <trkpt lon="76.983916" lat="10.448697">
        <ele>703.0</ele>
        <time>2026-01-20T05:11:49Z</time>
      </trkpt>
      <trkpt lon="76.983799" lat="10.448654">
        <ele>701.0</ele>
        <time>2026-01-20T05:11:51Z</time>
      </trkpt>
      <trkpt lon="76.983632" lat="10.448698">
        <ele>700.0</ele>
        <time>2026-01-20T05:11:53Z</time>
      </trkpt>
      <trkpt lon="76.983537" lat="10.44873">
        <ele>699.0</ele>
        <time>2026-01-20T05:11:54Z</time>
      </trkpt>
      <trkpt lon="76.983437" lat="10.448751">
        <ele>698.0</ele>
        <time>2026-01-20T05:11:55Z</time>
      </trkpt>
      <trkpt lon="76.983338" lat="10.448778">
        <ele>697.0</ele>
        <time>2026-01-20T05:11:56Z</time>
      </trkpt>
      <trkpt lon="76.983242" lat="10.448814">
        <ele>697.0</ele>
        <time>2026-01-20T05:11:57Z</time>
      </trkpt>
      <trkpt lon="76.983148" lat="10.448848">
        <ele>696.0</ele>
        <time>2026-01-20T05:11:58Z</time>
      </trkpt>
      <trkpt lon="76.982979" lat="10.448877">
        <ele>695.0</ele>
        <time>2026-01-20T05:12:00Z</time>
      </trkpt>
      <trkpt lon="76.982861" lat="10.448852">
        <ele>694.0</ele>
        <time>2026-01-20T05:12:02Z</time>
      </trkpt>
      <trkpt lon="76.982752" lat="10.448803">
        <ele>694.0</ele>
        <time>2026-01-20T05:12:04Z</time>
      </trkpt>
      <trkpt lon="76.982653" lat="10.448836">
        <ele>695.0</ele>
        <time>2026-01-20T05:12:06Z</time>
      </trkpt>
      <trkpt lon="76.982691" lat="10.448926">
        <ele>696.0</ele>
        <time>2026-01-20T05:12:08Z</time>
      </trkpt>
      <trkpt lon="76.98282" lat="10.448988">
        <ele>695.0</ele>
        <time>2026-01-20T05:12:10Z</time>
      </trkpt>
      <trkpt lon="76.983009" lat="10.448999">
        <ele>693.0</ele>
        <time>2026-01-20T05:12:12Z</time>
      </trkpt>
      <trkpt lon="76.983105" lat="10.448992">
        <ele>692.0</ele>
        <time>2026-01-20T05:12:13Z</time>
      </trkpt>
      <trkpt lon="76.983207" lat="10.448973">
        <ele>692.0</ele>
        <time>2026-01-20T05:12:14Z</time>
      </trkpt>
      <trkpt lon="76.983306" lat="10.448954">
        <ele>690.0</ele>
        <time>2026-01-20T05:12:15Z</time>
      </trkpt>
      <trkpt lon="76.983403" lat="10.448935">
        <ele>689.0</ele>
        <time>2026-01-20T05:12:16Z</time>
      </trkpt>
      <trkpt lon="76.983503" lat="10.448931">
        <ele>689.0</ele>
        <time>2026-01-20T05:12:17Z</time>
      </trkpt>
      <trkpt lon="76.983672" lat="10.448925">
        <ele>689.0</ele>
        <time>2026-01-20T05:12:19Z</time>
      </trkpt>
      <trkpt lon="76.98381" lat="10.448946">
        <ele>689.0</ele>
        <time>2026-01-20T05:12:21Z</time>
      </trkpt>
      <trkpt lon="76.983908" lat="10.44906">
        <ele>688.0</ele>
        <time>2026-01-20T05:12:23Z</time>
      </trkpt>
      <trkpt lon="76.983942" lat="10.449147">
        <ele>688.0</ele>
        <time>2026-01-20T05:12:24Z</time>
      </trkpt>
      <trkpt lon="76.983964" lat="10.449251">
        <ele>686.0</ele>
        <time>2026-01-20T05:12:25Z</time>
      </trkpt>
      <trkpt lon="76.983972" lat="10.44936">
        <ele>684.0</ele>
        <time>2026-01-20T05:12:26Z</time>
      </trkpt>
      <trkpt lon="76.98398" lat="10.449465">
        <ele>684.0</ele>
        <time>2026-01-20T05:12:27Z</time>
      </trkpt>
      <trkpt lon="76.984003" lat="10.449568">
        <ele>684.0</ele>
        <time>2026-01-20T05:12:28Z</time>
      </trkpt>
      <trkpt lon="76.984033" lat="10.449667">
        <ele>683.0</ele>
        <time>2026-01-20T05:12:29Z</time>
      </trkpt>
      <trkpt lon="76.984059" lat="10.449765">
        <ele>683.0</ele>
        <time>2026-01-20T05:12:30Z</time>
      </trkpt>
      <trkpt lon="76.984092" lat="10.449856">
        <ele>682.0</ele>
        <time>2026-01-20T05:12:31Z</time>
      </trkpt>
      <trkpt lon="76.984164" lat="10.450016">
        <ele>681.0</ele>
        <time>2026-01-20T05:12:33Z</time>
      </trkpt>
      <trkpt lon="76.984149" lat="10.450181">
        <ele>679.0</ele>
        <time>2026-01-20T05:12:35Z</time>
      </trkpt>
      <trkpt lon="76.984113" lat="10.450353">
        <ele>677.0</ele>
        <time>2026-01-20T05:12:37Z</time>
      </trkpt>
      <trkpt lon="76.984093" lat="10.4505">
        <ele>675.0</ele>
        <time>2026-01-20T05:12:39Z</time>
      </trkpt>
      <trkpt lon="76.984083" lat="10.450643">
        <ele>674.0</ele>
        <time>2026-01-20T05:12:41Z</time>
      </trkpt>
      <trkpt lon="76.984119" lat="10.450748">
        <ele>674.0</ele>
        <time>2026-01-20T05:12:43Z</time>
      </trkpt>
      <trkpt lon="76.984065" lat="10.450821">
        <ele>672.0</ele>
        <time>2026-01-20T05:12:46Z</time>
      </trkpt>
      <trkpt lon="76.984018" lat="10.450686">
        <ele>670.0</ele>
        <time>2026-01-20T05:12:49Z</time>
      </trkpt>
      <trkpt lon="76.98405" lat="10.45052">
        <ele>669.0</ele>
        <time>2026-01-20T05:12:51Z</time>
      </trkpt>
      <trkpt lon="76.984061" lat="10.450423">
        <ele>669.0</ele>
        <time>2026-01-20T05:12:52Z</time>
      </trkpt>
      <trkpt lon="76.984055" lat="10.450314">
        <ele>668.0</ele>
        <time>2026-01-20T05:12:53Z</time>
      </trkpt>
      <trkpt lon="76.984053" lat="10.450198">
        <ele>667.0</ele>
        <time>2026-01-20T05:12:54Z</time>
      </trkpt>
      <trkpt lon="76.984044" lat="10.450078">
        <ele>667.0</ele>
        <time>2026-01-20T05:12:55Z</time>
      </trkpt>
      <trkpt lon="76.984021" lat="10.449959">
        <ele>667.0</ele>
        <time>2026-01-20T05:12:56Z</time>
      </trkpt>
      <trkpt lon="76.983998" lat="10.449848">
        <ele>666.0</ele>
        <time>2026-01-20T05:12:57Z</time>
      </trkpt>
      <trkpt lon="76.98396" lat="10.449737">
        <ele>665.0</ele>
        <time>2026-01-20T05:12:58Z</time>
      </trkpt>
      <trkpt lon="76.983922" lat="10.449629">
        <ele>665.0</ele>
        <time>2026-01-20T05:12:59Z</time>
      </trkpt>
      <trkpt lon="76.983876" lat="10.449535">
        <ele>664.0</ele>
        <time>2026-01-20T05:13:00Z</time>
      </trkpt>
      <trkpt lon="76.983822" lat="10.449447">
        <ele>663.0</ele>
        <time>2026-01-20T05:13:01Z</time>
      </trkpt>
      <trkpt lon="76.983766" lat="10.449369">
        <ele>663.0</ele>
        <time>2026-01-20T05:13:02Z</time>
      </trkpt>
      <trkpt lon="76.9837" lat="10.449305">
        <ele>663.0</ele>
        <time>2026-01-20T05:13:03Z</time>
      </trkpt>
      <trkpt lon="76.983615" lat="10.44927">
        <ele>663.0</ele>
        <time>2026-01-20T05:13:04Z</time>
      </trkpt>
      <trkpt lon="76.9835" lat="10.449315">
        <ele>662.0</ele>
        <time>2026-01-20T05:13:05Z</time>
      </trkpt>
      <trkpt lon="76.983405" lat="10.449356">
        <ele>661.0</ele>
        <time>2026-01-20T05:13:06Z</time>
      </trkpt>
      <trkpt lon="76.98331" lat="10.449398">
        <ele>660.0</ele>
        <time>2026-01-20T05:13:07Z</time>
      </trkpt>
      <trkpt lon="76.983208" lat="10.449432">
        <ele>659.0</ele>
        <time>2026-01-20T05:13:08Z</time>
      </trkpt>
      <trkpt lon="76.983118" lat="10.449455">
        <ele>658.0</ele>
        <time>2026-01-20T05:13:09Z</time>
      </trkpt>
      <trkpt lon="76.983018" lat="10.449466">
        <ele>657.0</ele>
        <time>2026-01-20T05:13:10Z</time>
      </trkpt>
      <trkpt lon="76.982923" lat="10.449475">
        <ele>657.0</ele>
        <time>2026-01-20T05:13:11Z</time>
      </trkpt>
      <trkpt lon="76.982748" lat="10.449461">
        <ele>655.0</ele>
        <time>2026-01-20T05:13:13Z</time>
      </trkpt>
      <trkpt lon="76.982666" lat="10.44942">
        <ele>654.0</ele>
        <time>2026-01-20T05:13:14Z</time>
      </trkpt>
      <trkpt lon="76.982588" lat="10.44936">
        <ele>653.0</ele>
        <time>2026-01-20T05:13:15Z</time>
      </trkpt>
      <trkpt lon="76.982497" lat="10.449332">
        <ele>653.0</ele>
        <time>2026-01-20T05:13:16Z</time>
      </trkpt>
      <trkpt lon="76.982391" lat="10.449324">
        <ele>652.0</ele>
        <time>2026-01-20T05:13:17Z</time>
      </trkpt>
      <trkpt lon="76.982287" lat="10.449318">
        <ele>651.0</ele>
        <time>2026-01-20T05:13:18Z</time>
      </trkpt>
      <trkpt lon="76.982183" lat="10.449302">
        <ele>650.0</ele>
        <time>2026-01-20T05:13:19Z</time>
      </trkpt>
      <trkpt lon="76.982079" lat="10.449283">
        <ele>650.0</ele>
        <time>2026-01-20T05:13:20Z</time>
      </trkpt>
      <trkpt lon="76.981985" lat="10.449267">
        <ele>649.0</ele>
        <time>2026-01-20T05:13:21Z</time>
      </trkpt>
      <trkpt lon="76.981887" lat="10.449238">
        <ele>649.0</ele>
        <time>2026-01-20T05:13:22Z</time>
      </trkpt>
      <trkpt lon="76.981791" lat="10.449217">
        <ele>649.0</ele>
        <time>2026-01-20T05:13:23Z</time>
      </trkpt>
      <trkpt lon="76.981634" lat="10.449155">
        <ele>647.0</ele>
        <time>2026-01-20T05:13:25Z</time>
      </trkpt>
      <trkpt lon="76.981508" lat="10.449099">
        <ele>646.0</ele>
        <time>2026-01-20T05:13:27Z</time>
      </trkpt>
      <trkpt lon="76.981381" lat="10.449076">
        <ele>645.0</ele>
        <time>2026-01-20T05:13:29Z</time>
      </trkpt>
      <trkpt lon="76.981308" lat="10.449146">
        <ele>645.0</ele>
        <time>2026-01-20T05:13:31Z</time>
      </trkpt>
      <trkpt lon="76.981345" lat="10.449232">
        <ele>645.0</ele>
        <time>2026-01-20T05:13:33Z</time>
      </trkpt>
      <trkpt lon="76.981493" lat="10.449249">
        <ele>644.0</ele>
        <time>2026-01-20T05:13:36Z</time>
      </trkpt>
      <trkpt lon="76.981652" lat="10.449291">
        <ele>643.0</ele>
        <time>2026-01-20T05:13:38Z</time>
      </trkpt>
      <trkpt lon="76.981806" lat="10.449331">
        <ele>643.0</ele>
        <time>2026-01-20T05:13:40Z</time>
      </trkpt>
      <trkpt lon="76.981897" lat="10.449355">
        <ele>642.0</ele>
        <time>2026-01-20T05:13:41Z</time>
      </trkpt>
      <trkpt lon="76.981986" lat="10.449391">
        <ele>641.0</ele>
        <time>2026-01-20T05:13:42Z</time>
      </trkpt>
      <trkpt lon="76.982069" lat="10.449432">
        <ele>640.0</ele>
        <time>2026-01-20T05:13:43Z</time>
      </trkpt>
      <trkpt lon="76.982226" lat="10.449525">
        <ele>639.0</ele>
        <time>2026-01-20T05:13:45Z</time>
      </trkpt>
      <trkpt lon="76.982371" lat="10.449563">
        <ele>638.0</ele>
        <time>2026-01-20T05:13:47Z</time>
      </trkpt>
      <trkpt lon="76.982483" lat="10.4496">
        <ele>638.0</ele>
        <time>2026-01-20T05:13:49Z</time>
      </trkpt>
      <trkpt lon="76.982537" lat="10.449723">
        <ele>637.0</ele>
        <time>2026-01-20T05:13:51Z</time>
      </trkpt>
      <trkpt lon="76.982526" lat="10.449878">
        <ele>636.0</ele>
        <time>2026-01-20T05:13:53Z</time>
      </trkpt>
      <trkpt lon="76.982623" lat="10.44999">
        <ele>636.0</ele>
        <time>2026-01-20T05:13:55Z</time>
      </trkpt>
      <trkpt lon="76.98279" lat="10.450039">
        <ele>634.0</ele>
        <time>2026-01-20T05:13:57Z</time>
      </trkpt>
      <trkpt lon="76.982957" lat="10.450049">
        <ele>633.0</ele>
        <time>2026-01-20T05:13:59Z</time>
      </trkpt>
      <trkpt lon="76.983096" lat="10.450019">
        <ele>632.0</ele>
        <time>2026-01-20T05:14:01Z</time>
      </trkpt>
      <trkpt lon="76.983202" lat="10.449948">
        <ele>630.0</ele>
        <time>2026-01-20T05:14:03Z</time>
      </trkpt>
      <trkpt lon="76.983316" lat="10.449933">
        <ele>628.0</ele>
        <time>2026-01-20T05:14:06Z</time>
      </trkpt>
      <trkpt lon="76.983266" lat="10.450048">
        <ele>626.0</ele>
        <time>2026-01-20T05:14:09Z</time>
      </trkpt>
      <trkpt lon="76.983098" lat="10.450093">
        <ele>625.0</ele>
        <time>2026-01-20T05:14:11Z</time>
      </trkpt>
      <trkpt lon="76.983008" lat="10.450119">
        <ele>624.0</ele>
        <time>2026-01-20T05:14:12Z</time>
      </trkpt>
      <trkpt lon="76.982909" lat="10.450136">
        <ele>623.0</ele>
        <time>2026-01-20T05:14:13Z</time>
      </trkpt>
      <trkpt lon="76.982812" lat="10.450141">
        <ele>623.0</ele>
        <time>2026-01-20T05:14:14Z</time>
      </trkpt>
      <trkpt lon="76.98272" lat="10.450142">
        <ele>622.0</ele>
        <time>2026-01-20T05:14:15Z</time>
      </trkpt>
      <trkpt lon="76.98255" lat="10.450147">
        <ele>621.0</ele>
        <time>2026-01-20T05:14:17Z</time>
      </trkpt>
      <trkpt lon="76.982397" lat="10.450072">
        <ele>620.0</ele>
        <time>2026-01-20T05:14:19Z</time>
      </trkpt>
      <trkpt lon="76.982319" lat="10.449999">
        <ele>619.0</ele>
        <time>2026-01-20T05:14:20Z</time>
      </trkpt>
      <trkpt lon="76.982222" lat="10.449938">
        <ele>618.0</ele>
        <time>2026-01-20T05:14:21Z</time>
      </trkpt>
      <trkpt lon="76.982119" lat="10.449899">
        <ele>618.0</ele>
        <time>2026-01-20T05:14:22Z</time>
      </trkpt>
      <trkpt lon="76.982012" lat="10.449861">
        <ele>616.0</ele>
        <time>2026-01-20T05:14:23Z</time>
      </trkpt>
      <trkpt lon="76.981904" lat="10.449832">
        <ele>616.0</ele>
        <time>2026-01-20T05:14:24Z</time>
      </trkpt>
      <trkpt lon="76.981811" lat="10.449792">
        <ele>616.0</ele>
        <time>2026-01-20T05:14:25Z</time>
      </trkpt>
      <trkpt lon="76.981717" lat="10.449758">
        <ele>615.0</ele>
        <time>2026-01-20T05:14:26Z</time>
      </trkpt>
      <trkpt lon="76.981628" lat="10.449729">
        <ele>614.0</ele>
        <time>2026-01-20T05:14:27Z</time>
      </trkpt>
      <trkpt lon="76.981459" lat="10.449713">
        <ele>613.0</ele>
        <time>2026-01-20T05:14:29Z</time>
      </trkpt>
      <trkpt lon="76.981364" lat="10.449734">
        <ele>612.0</ele>
        <time>2026-01-20T05:14:30Z</time>
      </trkpt>
      <trkpt lon="76.981198" lat="10.449775">
        <ele>610.0</ele>
        <time>2026-01-20T05:14:32Z</time>
      </trkpt>
      <trkpt lon="76.981027" lat="10.44978">
        <ele>609.0</ele>
        <time>2026-01-20T05:14:34Z</time>
      </trkpt>
      <trkpt lon="76.980914" lat="10.449744">
        <ele>608.0</ele>
        <time>2026-01-20T05:14:35Z</time>
      </trkpt>
      <trkpt lon="76.980811" lat="10.449717">
        <ele>608.0</ele>
        <time>2026-01-20T05:14:36Z</time>
      </trkpt>
      <trkpt lon="76.980704" lat="10.449699">
        <ele>607.0</ele>
        <time>2026-01-20T05:14:37Z</time>
      </trkpt>
      <trkpt lon="76.980535" lat="10.449681">
        <ele>606.0</ele>
        <time>2026-01-20T05:14:39Z</time>
      </trkpt>
      <trkpt lon="76.980393" lat="10.449679">
        <ele>606.0</ele>
        <time>2026-01-20T05:14:41Z</time>
      </trkpt>
      <trkpt lon="76.980319" lat="10.449735">
        <ele>606.0</ele>
        <time>2026-01-20T05:14:43Z</time>
      </trkpt>
      <trkpt lon="76.980378" lat="10.449814">
        <ele>605.0</ele>
        <time>2026-01-20T05:14:45Z</time>
      </trkpt>
      <trkpt lon="76.980488" lat="10.44982">
        <ele>606.0</ele>
        <time>2026-01-20T05:14:47Z</time>
      </trkpt>
      <trkpt lon="76.98065" lat="10.449789">
        <ele>604.0</ele>
        <time>2026-01-20T05:14:49Z</time>
      </trkpt>
      <trkpt lon="76.98083" lat="10.449828">
        <ele>601.0</ele>
        <time>2026-01-20T05:14:51Z</time>
      </trkpt>
      <trkpt lon="76.980915" lat="10.44988">
        <ele>601.0</ele>
        <time>2026-01-20T05:14:52Z</time>
      </trkpt>
      <trkpt lon="76.980996" lat="10.449929">
        <ele>601.0</ele>
        <time>2026-01-20T05:14:53Z</time>
      </trkpt>
      <trkpt lon="76.981159" lat="10.45001">
        <ele>600.0</ele>
        <time>2026-01-20T05:14:55Z</time>
      </trkpt>
      <trkpt lon="76.981328" lat="10.450029">
        <ele>600.0</ele>
        <time>2026-01-20T05:14:57Z</time>
      </trkpt>
      <trkpt lon="76.98142" lat="10.450037">
        <ele>600.0</ele>
        <time>2026-01-20T05:14:58Z</time>
      </trkpt>
      <trkpt lon="76.981558" lat="10.450144">
        <ele>600.0</ele>
        <time>2026-01-20T05:15:00Z</time>
      </trkpt>
      <trkpt lon="76.981611" lat="10.45022">
        <ele>599.0</ele>
        <time>2026-01-20T05:15:01Z</time>
      </trkpt>
      <trkpt lon="76.98173" lat="10.450356">
        <ele>598.0</ele>
        <time>2026-01-20T05:15:03Z</time>
      </trkpt>
      <trkpt lon="76.981824" lat="10.450408">
        <ele>597.0</ele>
        <time>2026-01-20T05:15:04Z</time>
      </trkpt>
      <trkpt lon="76.981923" lat="10.45045">
        <ele>597.0</ele>
        <time>2026-01-20T05:15:05Z</time>
      </trkpt>
      <trkpt lon="76.98202" lat="10.450494">
        <ele>595.0</ele>
        <time>2026-01-20T05:15:06Z</time>
      </trkpt>
      <trkpt lon="76.982111" lat="10.450553">
        <ele>594.0</ele>
        <time>2026-01-20T05:15:07Z</time>
      </trkpt>
      <trkpt lon="76.982197" lat="10.450619">
        <ele>593.0</ele>
        <time>2026-01-20T05:15:08Z</time>
      </trkpt>
      <trkpt lon="76.982274" lat="10.450685">
        <ele>592.0</ele>
        <time>2026-01-20T05:15:09Z</time>
      </trkpt>
      <trkpt lon="76.982348" lat="10.450743">
        <ele>590.0</ele>
        <time>2026-01-20T05:15:10Z</time>
      </trkpt>
      <trkpt lon="76.982498" lat="10.450816">
        <ele>588.0</ele>
        <time>2026-01-20T05:15:12Z</time>
      </trkpt>
      <trkpt lon="76.98262" lat="10.450823">
        <ele>588.0</ele>
        <time>2026-01-20T05:15:14Z</time>
      </trkpt>
      <trkpt lon="76.982705" lat="10.450763">
        <ele>588.0</ele>
        <time>2026-01-20T05:15:16Z</time>
      </trkpt>
      <trkpt lon="76.98279" lat="10.450798">
        <ele>586.0</ele>
        <time>2026-01-20T05:15:19Z</time>
      </trkpt>
      <trkpt lon="76.982706" lat="10.450875">
        <ele>584.0</ele>
        <time>2026-01-20T05:15:21Z</time>
      </trkpt>
      <trkpt lon="76.982519" lat="10.450901">
        <ele>583.0</ele>
        <time>2026-01-20T05:15:23Z</time>
      </trkpt>
      <trkpt lon="76.982421" lat="10.45089">
        <ele>582.0</ele>
        <time>2026-01-20T05:15:24Z</time>
      </trkpt>
      <trkpt lon="76.98232" lat="10.45087">
        <ele>581.0</ele>
        <time>2026-01-20T05:15:25Z</time>
      </trkpt>
      <trkpt lon="76.982224" lat="10.450845">
        <ele>581.0</ele>
        <time>2026-01-20T05:15:26Z</time>
      </trkpt>
      <trkpt lon="76.982124" lat="10.450812">
        <ele>581.0</ele>
        <time>2026-01-20T05:15:27Z</time>
      </trkpt>
      <trkpt lon="76.982023" lat="10.450788">
        <ele>580.0</ele>
        <time>2026-01-20T05:15:28Z</time>
      </trkpt>
      <trkpt lon="76.98192" lat="10.450785">
        <ele>579.0</ele>
        <time>2026-01-20T05:15:29Z</time>
      </trkpt>
      <trkpt lon="76.981822" lat="10.450786">
        <ele>578.0</ele>
        <time>2026-01-20T05:15:30Z</time>
      </trkpt>
      <trkpt lon="76.981728" lat="10.450783">
        <ele>576.0</ele>
        <time>2026-01-20T05:15:31Z</time>
      </trkpt>
      <trkpt lon="76.981639" lat="10.450757">
        <ele>575.0</ele>
        <time>2026-01-20T05:15:32Z</time>
      </trkpt>
      <trkpt lon="76.981557" lat="10.450703">
        <ele>575.0</ele>
        <time>2026-01-20T05:15:33Z</time>
      </trkpt>
      <trkpt lon="76.981452" lat="10.450558">
        <ele>574.0</ele>
        <time>2026-01-20T05:15:35Z</time>
      </trkpt>
      <trkpt lon="76.981376" lat="10.450432">
        <ele>573.0</ele>
        <time>2026-01-20T05:15:37Z</time>
      </trkpt>
      <trkpt lon="76.981288" lat="10.450394">
        <ele>573.0</ele>
        <time>2026-01-20T05:15:39Z</time>
      </trkpt>
      <trkpt lon="76.981272" lat="10.450517">
        <ele>571.0</ele>
        <time>2026-01-20T05:15:42Z</time>
      </trkpt>
      <trkpt lon="76.981377" lat="10.450641">
        <ele>570.0</ele>
        <time>2026-01-20T05:15:44Z</time>
      </trkpt>
      <trkpt lon="76.981444" lat="10.45072">
        <ele>570.0</ele>
        <time>2026-01-20T05:15:45Z</time>
      </trkpt>
      <trkpt lon="76.981492" lat="10.450807">
        <ele>569.0</ele>
        <time>2026-01-20T05:15:46Z</time>
      </trkpt>
      <trkpt lon="76.981532" lat="10.450894">
        <ele>569.0</ele>
        <time>2026-01-20T05:15:47Z</time>
      </trkpt>
      <trkpt lon="76.981584" lat="10.450986">
        <ele>569.0</ele>
        <time>2026-01-20T05:15:48Z</time>
      </trkpt>
      <trkpt lon="76.981638" lat="10.451066">
        <ele>569.0</ele>
        <time>2026-01-20T05:15:49Z</time>
      </trkpt>
      <trkpt lon="76.981718" lat="10.451127">
        <ele>568.0</ele>
        <time>2026-01-20T05:15:50Z</time>
      </trkpt>
      <trkpt lon="76.981816" lat="10.45118">
        <ele>568.0</ele>
        <time>2026-01-20T05:15:51Z</time>
      </trkpt>
      <trkpt lon="76.981922" lat="10.451214">
        <ele>566.0</ele>
        <time>2026-01-20T05:15:52Z</time>
      </trkpt>
      <trkpt lon="76.982026" lat="10.451247">
        <ele>566.0</ele>
        <time>2026-01-20T05:15:53Z</time>
      </trkpt>
      <trkpt lon="76.982129" lat="10.451254">
        <ele>565.0</ele>
        <time>2026-01-20T05:15:54Z</time>
      </trkpt>
      <trkpt lon="76.982231" lat="10.451248">
        <ele>564.0</ele>
        <time>2026-01-20T05:15:55Z</time>
      </trkpt>
      <trkpt lon="76.982337" lat="10.451253">
        <ele>563.0</ele>
        <time>2026-01-20T05:15:56Z</time>
      </trkpt>
      <trkpt lon="76.982442" lat="10.451254">
        <ele>563.0</ele>
        <time>2026-01-20T05:15:57Z</time>
      </trkpt>
      <trkpt lon="76.982546" lat="10.451246">
        <ele>562.0</ele>
        <time>2026-01-20T05:15:58Z</time>
      </trkpt>
      <trkpt lon="76.982644" lat="10.451226">
        <ele>562.0</ele>
        <time>2026-01-20T05:15:59Z</time>
      </trkpt>
      <trkpt lon="76.98281" lat="10.451181">
        <ele>561.0</ele>
        <time>2026-01-20T05:16:01Z</time>
      </trkpt>
      <trkpt lon="76.982963" lat="10.45115">
        <ele>559.0</ele>
        <time>2026-01-20T05:16:03Z</time>
      </trkpt>
      <trkpt lon="76.983091" lat="10.451205">
        <ele>558.0</ele>
        <time>2026-01-20T05:16:05Z</time>
      </trkpt>
      <trkpt lon="76.983196" lat="10.451308">
        <ele>557.0</ele>
        <time>2026-01-20T05:16:07Z</time>
      </trkpt>
      <trkpt lon="76.983283" lat="10.451378">
        <ele>556.0</ele>
        <time>2026-01-20T05:16:09Z</time>
      </trkpt>
      <trkpt lon="76.983303" lat="10.451469">
        <ele>554.0</ele>
        <time>2026-01-20T05:16:11Z</time>
      </trkpt>
      <trkpt lon="76.983194" lat="10.451439">
        <ele>552.0</ele>
        <time>2026-01-20T05:16:14Z</time>
      </trkpt>
      <trkpt lon="76.983123" lat="10.451319">
        <ele>550.0</ele>
        <time>2026-01-20T05:16:16Z</time>
      </trkpt>
      <trkpt lon="76.982997" lat="10.451257">
        <ele>548.0</ele>
        <time>2026-01-20T05:16:18Z</time>
      </trkpt>
      <trkpt lon="76.982849" lat="10.451315">
        <ele>548.0</ele>
        <time>2026-01-20T05:16:20Z</time>
      </trkpt>
      <trkpt lon="76.982777" lat="10.451378">
        <ele>548.0</ele>
        <time>2026-01-20T05:16:21Z</time>
      </trkpt>
      <trkpt lon="76.982706" lat="10.451449">
        <ele>547.0</ele>
        <time>2026-01-20T05:16:22Z</time>
      </trkpt>
      <trkpt lon="76.98263" lat="10.451505">
        <ele>547.0</ele>
        <time>2026-01-20T05:16:23Z</time>
      </trkpt>
      <trkpt lon="76.982484" lat="10.451613">
        <ele>545.0</ele>
        <time>2026-01-20T05:16:25Z</time>
      </trkpt>
      <trkpt lon="76.982414" lat="10.45169">
        <ele>546.0</ele>
        <time>2026-01-20T05:16:26Z</time>
      </trkpt>
      <trkpt lon="76.982356" lat="10.451765">
        <ele>544.0</ele>
        <time>2026-01-20T05:16:27Z</time>
      </trkpt>
      <trkpt lon="76.982288" lat="10.451833">
        <ele>544.0</ele>
        <time>2026-01-20T05:16:28Z</time>
      </trkpt>
      <trkpt lon="76.982222" lat="10.451896">
        <ele>543.0</ele>
        <time>2026-01-20T05:16:29Z</time>
      </trkpt>
      <trkpt lon="76.982041" lat="10.451942">
        <ele>543.0</ele>
        <time>2026-01-20T05:16:31Z</time>
      </trkpt>
      <trkpt lon="76.981927" lat="10.451921">
        <ele>543.0</ele>
        <time>2026-01-20T05:16:32Z</time>
      </trkpt>
      <trkpt lon="76.981815" lat="10.451901">
        <ele>542.0</ele>
        <time>2026-01-20T05:16:33Z</time>
      </trkpt>
      <trkpt lon="76.981702" lat="10.451869">
        <ele>541.0</ele>
        <time>2026-01-20T05:16:34Z</time>
      </trkpt>
      <trkpt lon="76.981596" lat="10.451838">
        <ele>540.0</ele>
        <time>2026-01-20T05:16:35Z</time>
      </trkpt>
      <trkpt lon="76.981493" lat="10.451811">
        <ele>539.0</ele>
        <time>2026-01-20T05:16:36Z</time>
      </trkpt>
      <trkpt lon="76.981403" lat="10.451783">
        <ele>537.0</ele>
        <time>2026-01-20T05:16:37Z</time>
      </trkpt>
      <trkpt lon="76.981319" lat="10.451747">
        <ele>537.0</ele>
        <time>2026-01-20T05:16:38Z</time>
      </trkpt>
      <trkpt lon="76.98124" lat="10.451697">
        <ele>537.0</ele>
        <time>2026-01-20T05:16:39Z</time>
      </trkpt>
      <trkpt lon="76.981122" lat="10.451561">
        <ele>535.0</ele>
        <time>2026-01-20T05:16:41Z</time>
      </trkpt>
      <trkpt lon="76.981087" lat="10.451472">
        <ele>535.0</ele>
        <time>2026-01-20T05:16:42Z</time>
      </trkpt>
      <trkpt lon="76.981049" lat="10.451301">
        <ele>534.0</ele>
        <time>2026-01-20T05:16:44Z</time>
      </trkpt>
      <trkpt lon="76.981028" lat="10.451156">
        <ele>534.0</ele>
        <time>2026-01-20T05:16:46Z</time>
      </trkpt>
      <trkpt lon="76.980941" lat="10.451055">
        <ele>533.0</ele>
        <time>2026-01-20T05:16:48Z</time>
      </trkpt>
      <trkpt lon="76.980764" lat="10.451027">
        <ele>531.0</ele>
        <time>2026-01-20T05:16:50Z</time>
      </trkpt>
      <trkpt lon="76.980601" lat="10.451021">
        <ele>529.0</ele>
        <time>2026-01-20T05:16:52Z</time>
      </trkpt>
      <trkpt lon="76.98045" lat="10.450952">
        <ele>529.0</ele>
        <time>2026-01-20T05:16:54Z</time>
      </trkpt>
      <trkpt lon="76.980345" lat="10.450821">
        <ele>528.0</ele>
        <time>2026-01-20T05:16:56Z</time>
      </trkpt>
      <trkpt lon="76.980308" lat="10.45073">
        <ele>527.0</ele>
        <time>2026-01-20T05:16:57Z</time>
      </trkpt>
      <trkpt lon="76.980273" lat="10.450632">
        <ele>526.0</ele>
        <time>2026-01-20T05:16:58Z</time>
      </trkpt>
      <trkpt lon="76.980222" lat="10.450552">
        <ele>525.0</ele>
        <time>2026-01-20T05:16:59Z</time>
      </trkpt>
      <trkpt lon="76.980168" lat="10.450474">
        <ele>525.0</ele>
        <time>2026-01-20T05:17:00Z</time>
      </trkpt>
      <trkpt lon="76.979988" lat="10.450399">
        <ele>523.0</ele>
        <time>2026-01-20T05:17:02Z</time>
      </trkpt>
      <trkpt lon="76.979861" lat="10.450389">
        <ele>521.0</ele>
        <time>2026-01-20T05:17:03Z</time>
      </trkpt>
      <trkpt lon="76.979749" lat="10.450385">
        <ele>519.0</ele>
        <time>2026-01-20T05:17:04Z</time>
      </trkpt>
      <trkpt lon="76.979634" lat="10.450387">
        <ele>517.0</ele>
        <time>2026-01-20T05:17:05Z</time>
      </trkpt>
      <trkpt lon="76.979513" lat="10.450387">
        <ele>516.0</ele>
        <time>2026-01-20T05:17:06Z</time>
      </trkpt>
      <trkpt lon="76.979406" lat="10.450399">
        <ele>514.0</ele>
        <time>2026-01-20T05:17:07Z</time>
      </trkpt>
      <trkpt lon="76.979305" lat="10.450424">
        <ele>514.0</ele>
        <time>2026-01-20T05:17:08Z</time>
      </trkpt>
      <trkpt lon="76.979213" lat="10.450457">
        <ele>514.0</ele>
        <time>2026-01-20T05:17:09Z</time>
      </trkpt>
      <trkpt lon="76.979038" lat="10.45048">
        <ele>513.0</ele>
        <time>2026-01-20T05:17:11Z</time>
      </trkpt>
      <trkpt lon="76.978945" lat="10.450465">
        <ele>512.0</ele>
        <time>2026-01-20T05:17:12Z</time>
      </trkpt>
      <trkpt lon="76.978846" lat="10.450458">
        <ele>511.0</ele>
        <time>2026-01-20T05:17:13Z</time>
      </trkpt>
      <trkpt lon="76.97875" lat="10.450469">
        <ele>510.0</ele>
        <time>2026-01-20T05:17:14Z</time>
      </trkpt>
      <trkpt lon="76.978662" lat="10.450501">
        <ele>510.0</ele>
        <time>2026-01-20T05:17:15Z</time>
      </trkpt>
      <trkpt lon="76.978573" lat="10.45053">
        <ele>508.0</ele>
        <time>2026-01-20T05:17:16Z</time>
      </trkpt>
      <trkpt lon="76.978419" lat="10.450569">
        <ele>507.0</ele>
        <time>2026-01-20T05:17:18Z</time>
      </trkpt>
      <trkpt lon="76.97824" lat="10.450561">
        <ele>506.0</ele>
        <time>2026-01-20T05:17:20Z</time>
      </trkpt>
      <trkpt lon="76.978151" lat="10.450539">
        <ele>506.0</ele>
        <time>2026-01-20T05:17:21Z</time>
      </trkpt>
      <trkpt lon="76.978056" lat="10.450509">
        <ele>506.0</ele>
        <time>2026-01-20T05:17:22Z</time>
      </trkpt>
      <trkpt lon="76.977973" lat="10.450469">
        <ele>505.0</ele>
        <time>2026-01-20T05:17:23Z</time>
      </trkpt>
      <trkpt lon="76.977887" lat="10.450437">
        <ele>505.0</ele>
        <time>2026-01-20T05:17:24Z</time>
      </trkpt>
      <trkpt lon="76.977793" lat="10.450423">
        <ele>505.0</ele>
        <time>2026-01-20T05:17:25Z</time>
      </trkpt>
      <trkpt lon="76.977693" lat="10.450422">
        <ele>505.0</ele>
        <time>2026-01-20T05:17:26Z</time>
      </trkpt>
      <trkpt lon="76.977603" lat="10.450408">
        <ele>504.0</ele>
        <time>2026-01-20T05:17:27Z</time>
      </trkpt>
      <trkpt lon="76.977509" lat="10.450372">
        <ele>503.0</ele>
        <time>2026-01-20T05:17:28Z</time>
      </trkpt>
      <trkpt lon="76.977421" lat="10.450342">
        <ele>503.0</ele>
        <time>2026-01-20T05:17:29Z</time>
      </trkpt>
      <trkpt lon="76.977331" lat="10.450314">
        <ele>501.0</ele>
        <time>2026-01-20T05:17:30Z</time>
      </trkpt>
      <trkpt lon="76.977234" lat="10.450294">
        <ele>499.0</ele>
        <time>2026-01-20T05:17:31Z</time>
      </trkpt>
      <trkpt lon="76.977129" lat="10.450275">
        <ele>498.0</ele>
        <time>2026-01-20T05:17:32Z</time>
      </trkpt>
      <trkpt lon="76.977026" lat="10.450262">
        <ele>497.0</ele>
        <time>2026-01-20T05:17:33Z</time>
      </trkpt>
      <trkpt lon="76.976937" lat="10.450232">
        <ele>497.0</ele>
        <time>2026-01-20T05:17:34Z</time>
      </trkpt>
      <trkpt lon="76.976847" lat="10.450201">
        <ele>496.0</ele>
        <time>2026-01-20T05:17:35Z</time>
      </trkpt>
      <trkpt lon="76.976696" lat="10.450145">
        <ele>496.0</ele>
        <time>2026-01-20T05:17:37Z</time>
      </trkpt>
      <trkpt lon="76.976569" lat="10.450066">
        <ele>495.0</ele>
        <time>2026-01-20T05:17:39Z</time>
      </trkpt>
      <trkpt lon="76.976443" lat="10.449969">
        <ele>494.0</ele>
        <time>2026-01-20T05:17:41Z</time>
      </trkpt>
      <trkpt lon="76.976358" lat="10.449927">
        <ele>493.0</ele>
        <time>2026-01-20T05:17:42Z</time>
      </trkpt>
      <trkpt lon="76.976265" lat="10.449893">
        <ele>492.0</ele>
        <time>2026-01-20T05:17:43Z</time>
      </trkpt>
      <trkpt lon="76.976171" lat="10.449853">
        <ele>491.0</ele>
        <time>2026-01-20T05:17:44Z</time>
      </trkpt>
      <trkpt lon="76.976077" lat="10.449806">
        <ele>490.0</ele>
        <time>2026-01-20T05:17:45Z</time>
      </trkpt>
      <trkpt lon="76.975979" lat="10.449754">
        <ele>490.0</ele>
        <time>2026-01-20T05:17:46Z</time>
      </trkpt>
      <trkpt lon="76.975888" lat="10.449699">
        <ele>489.0</ele>
        <time>2026-01-20T05:17:47Z</time>
      </trkpt>
      <trkpt lon="76.975806" lat="10.44965">
        <ele>489.0</ele>
        <time>2026-01-20T05:17:48Z</time>
      </trkpt>
      <trkpt lon="76.97572" lat="10.449608">
        <ele>488.0</ele>
        <time>2026-01-20T05:17:49Z</time>
      </trkpt>
      <trkpt lon="76.975531" lat="10.449582">
        <ele>488.0</ele>
        <time>2026-01-20T05:17:51Z</time>
      </trkpt>
      <trkpt lon="76.975425" lat="10.449589">
        <ele>487.0</ele>
        <time>2026-01-20T05:17:52Z</time>
      </trkpt>
      <trkpt lon="76.975322" lat="10.449605">
        <ele>486.0</ele>
        <time>2026-01-20T05:17:53Z</time>
      </trkpt>
      <trkpt lon="76.97521" lat="10.449619">
        <ele>485.0</ele>
        <time>2026-01-20T05:17:54Z</time>
      </trkpt>
      <trkpt lon="76.9751" lat="10.449631">
        <ele>484.0</ele>
        <time>2026-01-20T05:17:55Z</time>
      </trkpt>
      <trkpt lon="76.974991" lat="10.449642">
        <ele>483.0</ele>
        <time>2026-01-20T05:17:56Z</time>
      </trkpt>
      <trkpt lon="76.974891" lat="10.449653">
        <ele>481.0</ele>
        <time>2026-01-20T05:17:57Z</time>
      </trkpt>
      <trkpt lon="76.974793" lat="10.449652">
        <ele>481.0</ele>
        <time>2026-01-20T05:17:58Z</time>
      </trkpt>
      <trkpt lon="76.9747" lat="10.449645">
        <ele>480.0</ele>
        <time>2026-01-20T05:17:59Z</time>
      </trkpt>
      <trkpt lon="76.9746" lat="10.449632">
        <ele>479.0</ele>
        <time>2026-01-20T05:18:00Z</time>
      </trkpt>
      <trkpt lon="76.9745" lat="10.449612">
        <ele>479.0</ele>
        <time>2026-01-20T05:18:01Z</time>
      </trkpt>
      <trkpt lon="76.974401" lat="10.449585">
        <ele>478.0</ele>
        <time>2026-01-20T05:18:02Z</time>
      </trkpt>
      <trkpt lon="76.974303" lat="10.449555">
        <ele>477.0</ele>
        <time>2026-01-20T05:18:03Z</time>
      </trkpt>
      <trkpt lon="76.974207" lat="10.44951">
        <ele>476.0</ele>
        <time>2026-01-20T05:18:04Z</time>
      </trkpt>
      <trkpt lon="76.974115" lat="10.449462">
        <ele>475.0</ele>
        <time>2026-01-20T05:18:05Z</time>
      </trkpt>
      <trkpt lon="76.974024" lat="10.449416">
        <ele>475.0</ele>
        <time>2026-01-20T05:18:06Z</time>
      </trkpt>
      <trkpt lon="76.973937" lat="10.44937">
        <ele>474.0</ele>
        <time>2026-01-20T05:18:07Z</time>
      </trkpt>
      <trkpt lon="76.973846" lat="10.449312">
        <ele>473.0</ele>
        <time>2026-01-20T05:18:08Z</time>
      </trkpt>
      <trkpt lon="76.973761" lat="10.449265">
        <ele>473.0</ele>
        <time>2026-01-20T05:18:09Z</time>
      </trkpt>
      <trkpt lon="76.973677" lat="10.449229">
        <ele>472.0</ele>
        <time>2026-01-20T05:18:10Z</time>
      </trkpt>
      <trkpt lon="76.973526" lat="10.449158">
        <ele>472.0</ele>
        <time>2026-01-20T05:18:12Z</time>
      </trkpt>
      <trkpt lon="76.973406" lat="10.449073">
        <ele>471.0</ele>
        <time>2026-01-20T05:18:14Z</time>
      </trkpt>
      <trkpt lon="76.973293" lat="10.449028">
        <ele>471.0</ele>
        <time>2026-01-20T05:18:16Z</time>
      </trkpt>
      <trkpt lon="76.97322" lat="10.449083">
        <ele>470.0</ele>
        <time>2026-01-20T05:18:18Z</time>
      </trkpt>
      <trkpt lon="76.973267" lat="10.449176">
        <ele>470.0</ele>
        <time>2026-01-20T05:18:20Z</time>
      </trkpt>
      <trkpt lon="76.973386" lat="10.449239">
        <ele>469.0</ele>
        <time>2026-01-20T05:18:22Z</time>
      </trkpt>
      <trkpt lon="76.973473" lat="10.449268">
        <ele>469.0</ele>
        <time>2026-01-20T05:18:23Z</time>
      </trkpt>
      <trkpt lon="76.97364" lat="10.449343">
        <ele>468.0</ele>
        <time>2026-01-20T05:18:25Z</time>
      </trkpt>
      <trkpt lon="76.973731" lat="10.449404">
        <ele>467.0</ele>
        <time>2026-01-20T05:18:26Z</time>
      </trkpt>
      <trkpt lon="76.973815" lat="10.449477">
        <ele>467.0</ele>
        <time>2026-01-20T05:18:27Z</time>
      </trkpt>
      <trkpt lon="76.973906" lat="10.44955">
        <ele>466.0</ele>
        <time>2026-01-20T05:18:28Z</time>
      </trkpt>
      <trkpt lon="76.973997" lat="10.449613">
        <ele>465.0</ele>
        <time>2026-01-20T05:18:29Z</time>
      </trkpt>
      <trkpt lon="76.974082" lat="10.449674">
        <ele>464.0</ele>
        <time>2026-01-20T05:18:30Z</time>
      </trkpt>
      <trkpt lon="76.974171" lat="10.449727">
        <ele>463.0</ele>
        <time>2026-01-20T05:18:31Z</time>
      </trkpt>
      <trkpt lon="76.974267" lat="10.449776">
        <ele>463.0</ele>
        <time>2026-01-20T05:18:32Z</time>
      </trkpt>
      <trkpt lon="76.974352" lat="10.44983">
        <ele>463.0</ele>
        <time>2026-01-20T05:18:33Z</time>
      </trkpt>
      <trkpt lon="76.974516" lat="10.44992">
        <ele>461.0</ele>
        <time>2026-01-20T05:18:35Z</time>
      </trkpt>
      <trkpt lon="76.974618" lat="10.449952">
        <ele>461.0</ele>
        <time>2026-01-20T05:18:36Z</time>
      </trkpt>
      <trkpt lon="76.974719" lat="10.449969">
        <ele>461.0</ele>
        <time>2026-01-20T05:18:37Z</time>
      </trkpt>
      <trkpt lon="76.974826" lat="10.449981">
        <ele>460.0</ele>
        <time>2026-01-20T05:18:38Z</time>
      </trkpt>
      <trkpt lon="76.97493" lat="10.449991">
        <ele>459.0</ele>
        <time>2026-01-20T05:18:39Z</time>
      </trkpt>
      <trkpt lon="76.975037" lat="10.449993">
        <ele>459.0</ele>
        <time>2026-01-20T05:18:40Z</time>
      </trkpt>
      <trkpt lon="76.975138" lat="10.449984">
        <ele>457.0</ele>
        <time>2026-01-20T05:18:41Z</time>
      </trkpt>
      <trkpt lon="76.975234" lat="10.449977">
        <ele>457.0</ele>
        <time>2026-01-20T05:18:42Z</time>
      </trkpt>
      <trkpt lon="76.975412" lat="10.449978">
        <ele>456.0</ele>
        <time>2026-01-20T05:18:44Z</time>
      </trkpt>
      <trkpt lon="76.975549" lat="10.450007">
        <ele>454.0</ele>
        <time>2026-01-20T05:18:46Z</time>
      </trkpt>
      <trkpt lon="76.975641" lat="10.450122">
        <ele>452.0</ele>
        <time>2026-01-20T05:18:48Z</time>
      </trkpt>
      <trkpt lon="76.97567" lat="10.450215">
        <ele>451.0</ele>
        <time>2026-01-20T05:18:49Z</time>
      </trkpt>
      <trkpt lon="76.975735" lat="10.450375">
        <ele>450.0</ele>
        <time>2026-01-20T05:18:51Z</time>
      </trkpt>
      <trkpt lon="76.975853" lat="10.450478">
        <ele>450.0</ele>
        <time>2026-01-20T05:18:53Z</time>
      </trkpt>
      <trkpt lon="76.975939" lat="10.450517">
        <ele>450.0</ele>
        <time>2026-01-20T05:18:54Z</time>
      </trkpt>
      <trkpt lon="76.97603" lat="10.450529">
        <ele>448.0</ele>
        <time>2026-01-20T05:18:55Z</time>
      </trkpt>
      <trkpt lon="76.976204" lat="10.450549">
        <ele>447.0</ele>
        <time>2026-01-20T05:18:57Z</time>
      </trkpt>
      <trkpt lon="76.976358" lat="10.450626">
        <ele>446.0</ele>
        <time>2026-01-20T05:18:59Z</time>
      </trkpt>
      <trkpt lon="76.97643" lat="10.450682">
        <ele>445.0</ele>
        <time>2026-01-20T05:19:00Z</time>
      </trkpt>
      <trkpt lon="76.976511" lat="10.45073">
        <ele>444.0</ele>
        <time>2026-01-20T05:19:01Z</time>
      </trkpt>
      <trkpt lon="76.976593" lat="10.450773">
        <ele>443.0</ele>
        <time>2026-01-20T05:19:02Z</time>
      </trkpt>
      <trkpt lon="76.976682" lat="10.450829">
        <ele>442.0</ele>
        <time>2026-01-20T05:19:03Z</time>
      </trkpt>
      <trkpt lon="76.976772" lat="10.450879">
        <ele>441.0</ele>
        <time>2026-01-20T05:19:04Z</time>
      </trkpt>
      <trkpt lon="76.97686" lat="10.450931">
        <ele>441.0</ele>
        <time>2026-01-20T05:19:05Z</time>
      </trkpt>
      <trkpt lon="76.976949" lat="10.450987">
        <ele>440.0</ele>
        <time>2026-01-20T05:19:06Z</time>
      </trkpt>
      <trkpt lon="76.977028" lat="10.451054">
        <ele>440.0</ele>
        <time>2026-01-20T05:19:07Z</time>
      </trkpt>
      <trkpt lon="76.977095" lat="10.451136">
        <ele>439.0</ele>
        <time>2026-01-20T05:19:08Z</time>
      </trkpt>
      <trkpt lon="76.977166" lat="10.45121">
        <ele>438.0</ele>
        <time>2026-01-20T05:19:09Z</time>
      </trkpt>
      <trkpt lon="76.977244" lat="10.451282">
        <ele>437.0</ele>
        <time>2026-01-20T05:19:10Z</time>
      </trkpt>
      <trkpt lon="76.977329" lat="10.451356">
        <ele>436.0</ele>
        <time>2026-01-20T05:19:11Z</time>
      </trkpt>
      <trkpt lon="76.977399" lat="10.45143">
        <ele>435.0</ele>
        <time>2026-01-20T05:19:12Z</time>
      </trkpt>
      <trkpt lon="76.977457" lat="10.451503">
        <ele>435.0</ele>
        <time>2026-01-20T05:19:13Z</time>
      </trkpt>
      <trkpt lon="76.977531" lat="10.451655">
        <ele>434.0</ele>
        <time>2026-01-20T05:19:15Z</time>
      </trkpt>
      <trkpt lon="76.977574" lat="10.451777">
        <ele>433.0</ele>
        <time>2026-01-20T05:19:17Z</time>
      </trkpt>
      <trkpt lon="76.977682" lat="10.451802">
        <ele>433.0</ele>
        <time>2026-01-20T05:19:19Z</time>
      </trkpt>
      <trkpt lon="76.977812" lat="10.451725">
        <ele>432.0</ele>
        <time>2026-01-20T05:19:21Z</time>
      </trkpt>
      <trkpt lon="76.977958" lat="10.451644">
        <ele>430.0</ele>
        <time>2026-01-20T05:19:23Z</time>
      </trkpt>
      <trkpt lon="76.97811" lat="10.45166">
        <ele>428.0</ele>
        <time>2026-01-20T05:19:25Z</time>
      </trkpt>
      <trkpt lon="76.978196" lat="10.451706">
        <ele>427.0</ele>
        <time>2026-01-20T05:19:26Z</time>
      </trkpt>
      <trkpt lon="76.978274" lat="10.451759">
        <ele>426.0</ele>
        <time>2026-01-20T05:19:27Z</time>
      </trkpt>
      <trkpt lon="76.978427" lat="10.451849">
        <ele>424.0</ele>
        <time>2026-01-20T05:19:29Z</time>
      </trkpt>
      <trkpt lon="76.978551" lat="10.451934">
        <ele>423.0</ele>
        <time>2026-01-20T05:19:31Z</time>
      </trkpt>
      <trkpt lon="76.978597" lat="10.452039">
        <ele>422.0</ele>
        <time>2026-01-20T05:19:33Z</time>
      </trkpt>
      <trkpt lon="76.978556" lat="10.452178">
        <ele>420.0</ele>
        <time>2026-01-20T05:19:35Z</time>
      </trkpt>
      <trkpt lon="76.978465" lat="10.452331">
        <ele>418.0</ele>
        <time>2026-01-20T05:19:37Z</time>
      </trkpt>
      <trkpt lon="76.978432" lat="10.452504">
        <ele>417.0</ele>
        <time>2026-01-20T05:19:39Z</time>
      </trkpt>
      <trkpt lon="76.978459" lat="10.452674">
        <ele>416.0</ele>
        <time>2026-01-20T05:19:41Z</time>
      </trkpt>
      <trkpt lon="76.978511" lat="10.452819">
        <ele>415.0</ele>
        <time>2026-01-20T05:19:43Z</time>
      </trkpt>
      <trkpt lon="76.978621" lat="10.452934">
        <ele>414.0</ele>
        <time>2026-01-20T05:19:45Z</time>
      </trkpt>
      <trkpt lon="76.978707" lat="10.452975">
        <ele>413.0</ele>
        <time>2026-01-20T05:19:46Z</time>
      </trkpt>
      <trkpt lon="76.978804" lat="10.453015">
        <ele>413.0</ele>
        <time>2026-01-20T05:19:47Z</time>
      </trkpt>
      <trkpt lon="76.978898" lat="10.453061">
        <ele>413.0</ele>
        <time>2026-01-20T05:19:48Z</time>
      </trkpt>
      <trkpt lon="76.978995" lat="10.453109">
        <ele>412.0</ele>
        <time>2026-01-20T05:19:49Z</time>
      </trkpt>
      <trkpt lon="76.979073" lat="10.453172">
        <ele>412.0</ele>
        <time>2026-01-20T05:19:50Z</time>
      </trkpt>
      <trkpt lon="76.979145" lat="10.453241">
        <ele>412.0</ele>
        <time>2026-01-20T05:19:51Z</time>
      </trkpt>
      <trkpt lon="76.979209" lat="10.453321">
        <ele>411.0</ele>
        <time>2026-01-20T05:19:52Z</time>
      </trkpt>
      <trkpt lon="76.979264" lat="10.453411">
        <ele>410.0</ele>
        <time>2026-01-20T05:19:53Z</time>
      </trkpt>
      <trkpt lon="76.979284" lat="10.4535">
        <ele>409.0</ele>
        <time>2026-01-20T05:19:54Z</time>
      </trkpt>
      <trkpt lon="76.979286" lat="10.453595">
        <ele>409.0</ele>
        <time>2026-01-20T05:19:55Z</time>
      </trkpt>
      <trkpt lon="76.979273" lat="10.453699">
        <ele>408.0</ele>
        <time>2026-01-20T05:19:56Z</time>
      </trkpt>
      <trkpt lon="76.979242" lat="10.453821">
        <ele>408.0</ele>
        <time>2026-01-20T05:19:57Z</time>
      </trkpt>
      <trkpt lon="76.979221" lat="10.45393">
        <ele>407.0</ele>
        <time>2026-01-20T05:19:58Z</time>
      </trkpt>
      <trkpt lon="76.979197" lat="10.454029">
        <ele>407.0</ele>
        <time>2026-01-20T05:19:59Z</time>
      </trkpt>
      <trkpt lon="76.979164" lat="10.454185">
        <ele>405.0</ele>
        <time>2026-01-20T05:20:01Z</time>
      </trkpt>
      <trkpt lon="76.979176" lat="10.454341">
        <ele>404.0</ele>
        <time>2026-01-20T05:20:03Z</time>
      </trkpt>
      <trkpt lon="76.979295" lat="10.454458">
        <ele>403.0</ele>
        <time>2026-01-20T05:20:05Z</time>
      </trkpt>
      <trkpt lon="76.979459" lat="10.454523">
        <ele>403.0</ele>
        <time>2026-01-20T05:20:07Z</time>
      </trkpt>
      <trkpt lon="76.979572" lat="10.454526">
        <ele>401.0</ele>
        <time>2026-01-20T05:20:08Z</time>
      </trkpt>
      <trkpt lon="76.979676" lat="10.454519">
        <ele>400.0</ele>
        <time>2026-01-20T05:20:09Z</time>
      </trkpt>
      <trkpt lon="76.979787" lat="10.454494">
        <ele>400.0</ele>
        <time>2026-01-20T05:20:10Z</time>
      </trkpt>
      <trkpt lon="76.979882" lat="10.454487">
        <ele>399.0</ele>
        <time>2026-01-20T05:20:11Z</time>
      </trkpt>
      <trkpt lon="76.980044" lat="10.45446">
        <ele>397.0</ele>
        <time>2026-01-20T05:20:13Z</time>
      </trkpt>
      <trkpt lon="76.980197" lat="10.454437">
        <ele>396.0</ele>
        <time>2026-01-20T05:20:15Z</time>
      </trkpt>
      <trkpt lon="76.980311" lat="10.454425">
        <ele>396.0</ele>
        <time>2026-01-20T05:20:17Z</time>
      </trkpt>
      <trkpt lon="76.980387" lat="10.454484">
        <ele>395.0</ele>
        <time>2026-01-20T05:20:20Z</time>
      </trkpt>
      <trkpt lon="76.98026" lat="10.454532">
        <ele>396.0</ele>
        <time>2026-01-20T05:20:23Z</time>
      </trkpt>
      <trkpt lon="76.980091" lat="10.454559">
        <ele>395.0</ele>
        <time>2026-01-20T05:20:25Z</time>
      </trkpt>
      <trkpt lon="76.979979" lat="10.454593">
        <ele>394.0</ele>
        <time>2026-01-20T05:20:26Z</time>
      </trkpt>
      <trkpt lon="76.979868" lat="10.454629">
        <ele>394.0</ele>
        <time>2026-01-20T05:20:27Z</time>
      </trkpt>
      <trkpt lon="76.979755" lat="10.454664">
        <ele>393.0</ele>
        <time>2026-01-20T05:20:28Z</time>
      </trkpt>
      <trkpt lon="76.979652" lat="10.454694">
        <ele>392.0</ele>
        <time>2026-01-20T05:20:29Z</time>
      </trkpt>
      <trkpt lon="76.979549" lat="10.454736">
        <ele>392.0</ele>
        <time>2026-01-20T05:20:30Z</time>
      </trkpt>
      <trkpt lon="76.97944" lat="10.454771">
        <ele>390.0</ele>
        <time>2026-01-20T05:20:31Z</time>
      </trkpt>
      <trkpt lon="76.979344" lat="10.454811">
        <ele>390.0</ele>
        <time>2026-01-20T05:20:32Z</time>
      </trkpt>
      <trkpt lon="76.97925" lat="10.454847">
        <ele>389.0</ele>
        <time>2026-01-20T05:20:33Z</time>
      </trkpt>
      <trkpt lon="76.979159" lat="10.454902">
        <ele>388.0</ele>
        <time>2026-01-20T05:20:34Z</time>
      </trkpt>
      <trkpt lon="76.979077" lat="10.454959">
        <ele>386.0</ele>
        <time>2026-01-20T05:20:35Z</time>
      </trkpt>
      <trkpt lon="76.978919" lat="10.455053">
        <ele>383.0</ele>
        <time>2026-01-20T05:20:37Z</time>
      </trkpt>
      <trkpt lon="76.978776" lat="10.455124">
        <ele>381.0</ele>
        <time>2026-01-20T05:20:39Z</time>
      </trkpt>
      <trkpt lon="76.97866" lat="10.455105">
        <ele>380.0</ele>
        <time>2026-01-20T05:20:41Z</time>
      </trkpt>
      <trkpt lon="76.978616" lat="10.455005">
        <ele>380.0</ele>
        <time>2026-01-20T05:20:43Z</time>
      </trkpt>
      <trkpt lon="76.978659" lat="10.454834">
        <ele>379.0</ele>
        <time>2026-01-20T05:20:45Z</time>
      </trkpt>
      <trkpt lon="76.978671" lat="10.454656">
        <ele>375.0</ele>
        <time>2026-01-20T05:20:47Z</time>
      </trkpt>
      <trkpt lon="76.978654" lat="10.454565">
        <ele>373.0</ele>
        <time>2026-01-20T05:20:48Z</time>
      </trkpt>
      <trkpt lon="76.978626" lat="10.454475">
        <ele>372.0</ele>
        <time>2026-01-20T05:20:49Z</time>
      </trkpt>
      <trkpt lon="76.978596" lat="10.454379">
        <ele>372.0</ele>
        <time>2026-01-20T05:20:50Z</time>
      </trkpt>
      <trkpt lon="76.97857" lat="10.454288">
        <ele>372.0</ele>
        <time>2026-01-20T05:20:51Z</time>
      </trkpt>
      <trkpt lon="76.978506" lat="10.454124">
        <ele>371.0</ele>
        <time>2026-01-20T05:20:53Z</time>
      </trkpt>
      <trkpt lon="76.978335" lat="10.454069">
        <ele>371.0</ele>
        <time>2026-01-20T05:20:55Z</time>
      </trkpt>
      <trkpt lon="76.978227" lat="10.454074">
        <ele>371.0</ele>
        <time>2026-01-20T05:20:56Z</time>
      </trkpt>
      <trkpt lon="76.978047" lat="10.454083">
        <ele>370.0</ele>
        <time>2026-01-20T05:20:58Z</time>
      </trkpt>
      <trkpt lon="76.977953" lat="10.454062">
        <ele>370.0</ele>
        <time>2026-01-20T05:20:59Z</time>
      </trkpt>
      <trkpt lon="76.977807" lat="10.454">
        <ele>366.0</ele>
        <time>2026-01-20T05:21:01Z</time>
      </trkpt>
      <trkpt lon="76.977717" lat="10.453843">
        <ele>365.0</ele>
        <time>2026-01-20T05:21:03Z</time>
      </trkpt>
      <trkpt lon="76.977668" lat="10.453758">
        <ele>364.0</ele>
        <time>2026-01-20T05:21:04Z</time>
      </trkpt>
      <trkpt lon="76.977602" lat="10.453688">
        <ele>364.0</ele>
        <time>2026-01-20T05:21:05Z</time>
      </trkpt>
      <trkpt lon="76.977466" lat="10.45361">
        <ele>363.0</ele>
        <time>2026-01-20T05:21:07Z</time>
      </trkpt>
      <trkpt lon="76.977341" lat="10.453553">
        <ele>361.0</ele>
        <time>2026-01-20T05:21:09Z</time>
      </trkpt>
      <trkpt lon="76.977262" lat="10.453435">
        <ele>361.0</ele>
        <time>2026-01-20T05:21:11Z</time>
      </trkpt>
      <trkpt lon="76.977252" lat="10.453335">
        <ele>361.0</ele>
        <time>2026-01-20T05:21:12Z</time>
      </trkpt>
      <trkpt lon="76.97722" lat="10.453241">
        <ele>360.0</ele>
        <time>2026-01-20T05:21:13Z</time>
      </trkpt>
      <trkpt lon="76.977087" lat="10.453123">
        <ele>359.0</ele>
        <time>2026-01-20T05:21:15Z</time>
      </trkpt>
      <trkpt lon="76.976943" lat="10.453042">
        <ele>356.0</ele>
        <time>2026-01-20T05:21:17Z</time>
      </trkpt>
      <trkpt lon="76.976811" lat="10.452989">
        <ele>354.0</ele>
        <time>2026-01-20T05:21:19Z</time>
      </trkpt>
      <trkpt lon="76.976673" lat="10.453047">
        <ele>353.0</ele>
        <time>2026-01-20T05:21:21Z</time>
      </trkpt>
      <trkpt lon="76.976532" lat="10.453087">
        <ele>351.0</ele>
        <time>2026-01-20T05:21:23Z</time>
      </trkpt>
      <trkpt lon="76.976413" lat="10.45307">
        <ele>350.0</ele>
        <time>2026-01-20T05:21:25Z</time>
      </trkpt>
      <trkpt lon="76.976377" lat="10.452939">
        <ele>349.0</ele>
        <time>2026-01-20T05:21:27Z</time>
      </trkpt>
      <trkpt lon="76.976377" lat="10.452843">
        <ele>348.0</ele>
        <time>2026-01-20T05:21:28Z</time>
      </trkpt>
      <trkpt lon="76.976386" lat="10.452713">
        <ele>348.0</ele>
        <time>2026-01-20T05:21:30Z</time>
      </trkpt>
      <trkpt lon="76.976332" lat="10.452629">
        <ele>347.0</ele>
        <time>2026-01-20T05:21:32Z</time>
      </trkpt>
      <trkpt lon="76.976228" lat="10.452661">
        <ele>346.0</ele>
        <time>2026-01-20T05:21:34Z</time>
      </trkpt>
      <trkpt lon="76.97611" lat="10.452742">
        <ele>343.0</ele>
        <time>2026-01-20T05:21:36Z</time>
      </trkpt>
      <trkpt lon="76.975974" lat="10.452784">
        <ele>341.0</ele>
        <time>2026-01-20T05:21:38Z</time>
      </trkpt>
      <trkpt lon="76.975802" lat="10.452758">
        <ele>338.0</ele>
        <time>2026-01-20T05:21:40Z</time>
      </trkpt>
      <trkpt lon="76.975705" lat="10.452726">
        <ele>337.0</ele>
        <time>2026-01-20T05:21:41Z</time>
      </trkpt>
      <trkpt lon="76.975609" lat="10.452703">
        <ele>336.0</ele>
        <time>2026-01-20T05:21:42Z</time>
      </trkpt>
      <trkpt lon="76.975511" lat="10.452686">
        <ele>336.0</ele>
        <time>2026-01-20T05:21:43Z</time>
      </trkpt>
      <trkpt lon="76.975401" lat="10.45266">
        <ele>335.0</ele>
        <time>2026-01-20T05:21:44Z</time>
      </trkpt>
      <trkpt lon="76.975295" lat="10.452633">
        <ele>333.0</ele>
        <time>2026-01-20T05:21:45Z</time>
      </trkpt>
      <trkpt lon="76.975187" lat="10.45261">
        <ele>332.0</ele>
        <time>2026-01-20T05:21:46Z</time>
      </trkpt>
      <trkpt lon="76.975078" lat="10.452582">
        <ele>331.0</ele>
        <time>2026-01-20T05:21:47Z</time>
      </trkpt>
      <trkpt lon="76.974968" lat="10.452559">
        <ele>329.0</ele>
        <time>2026-01-20T05:21:48Z</time>
      </trkpt>
      <trkpt lon="76.974856" lat="10.452522">
        <ele>328.0</ele>
        <time>2026-01-20T05:21:49Z</time>
      </trkpt>
      <trkpt lon="76.97475" lat="10.452482">
        <ele>328.0</ele>
        <time>2026-01-20T05:21:50Z</time>
      </trkpt>
      <trkpt lon="76.974657" lat="10.452446">
        <ele>327.0</ele>
        <time>2026-01-20T05:21:51Z</time>
      </trkpt>
      <trkpt lon="76.97456" lat="10.452419">
        <ele>326.0</ele>
        <time>2026-01-20T05:21:52Z</time>
      </trkpt>
      <trkpt lon="76.974456" lat="10.4524">
        <ele>327.0</ele>
        <time>2026-01-20T05:21:53Z</time>
      </trkpt>
      <trkpt lon="76.974348" lat="10.452395">
        <ele>326.0</ele>
        <time>2026-01-20T05:21:54Z</time>
      </trkpt>
      <trkpt lon="76.97424" lat="10.452395">
        <ele>326.0</ele>
        <time>2026-01-20T05:21:55Z</time>
      </trkpt>
      <trkpt lon="76.974131" lat="10.452415">
        <ele>325.0</ele>
        <time>2026-01-20T05:21:56Z</time>
      </trkpt>
      <trkpt lon="76.974019" lat="10.452444">
        <ele>323.0</ele>
        <time>2026-01-20T05:21:57Z</time>
      </trkpt>
      <trkpt lon="76.973907" lat="10.452485">
        <ele>322.0</ele>
        <time>2026-01-20T05:21:58Z</time>
      </trkpt>
      <trkpt lon="76.97379" lat="10.452522">
        <ele>322.0</ele>
        <time>2026-01-20T05:21:59Z</time>
      </trkpt>
      <trkpt lon="76.973667" lat="10.452558">
        <ele>322.0</ele>
        <time>2026-01-20T05:22:00Z</time>
      </trkpt>
      <trkpt lon="76.973557" lat="10.452595">
        <ele>322.0</ele>
        <time>2026-01-20T05:22:01Z</time>
      </trkpt>
      <trkpt lon="76.973446" lat="10.452629">
        <ele>321.0</ele>
        <time>2026-01-20T05:22:02Z</time>
      </trkpt>
      <trkpt lon="76.973343" lat="10.452664">
        <ele>320.0</ele>
        <time>2026-01-20T05:22:03Z</time>
      </trkpt>
      <trkpt lon="76.973241" lat="10.452712">
        <ele>320.0</ele>
        <time>2026-01-20T05:22:04Z</time>
      </trkpt>
      <trkpt lon="76.973146" lat="10.452768">
        <ele>319.0</ele>
        <time>2026-01-20T05:22:05Z</time>
      </trkpt>
      <trkpt lon="76.973054" lat="10.452832">
        <ele>318.0</ele>
        <time>2026-01-20T05:22:06Z</time>
      </trkpt>
      <trkpt lon="76.97294" lat="10.452877">
        <ele>317.0</ele>
        <time>2026-01-20T05:22:07Z</time>
      </trkpt>
      <trkpt lon="76.972836" lat="10.452905">
        <ele>317.0</ele>
        <time>2026-01-20T05:22:08Z</time>
      </trkpt>
      <trkpt lon="76.972733" lat="10.452939">
        <ele>316.0</ele>
        <time>2026-01-20T05:22:09Z</time>
      </trkpt>
      <trkpt lon="76.972631" lat="10.452988">
        <ele>316.0</ele>
        <time>2026-01-20T05:22:10Z</time>
      </trkpt>
      <trkpt lon="76.972537" lat="10.453056">
        <ele>315.0</ele>
        <time>2026-01-20T05:22:11Z</time>
      </trkpt>
      <trkpt lon="76.972452" lat="10.453133">
        <ele>314.0</ele>
        <time>2026-01-20T05:22:12Z</time>
      </trkpt>
      <trkpt lon="76.972376" lat="10.453215">
        <ele>314.0</ele>
        <time>2026-01-20T05:22:13Z</time>
      </trkpt>
      <trkpt lon="76.972306" lat="10.453306">
        <ele>313.0</ele>
        <time>2026-01-20T05:22:14Z</time>
      </trkpt>
      <trkpt lon="76.972254" lat="10.453394">
        <ele>312.0</ele>
        <time>2026-01-20T05:22:15Z</time>
      </trkpt>
      <trkpt lon="76.972211" lat="10.453484">
        <ele>311.0</ele>
        <time>2026-01-20T05:22:16Z</time>
      </trkpt>
      <trkpt lon="76.972181" lat="10.453571">
        <ele>311.0</ele>
        <time>2026-01-20T05:22:17Z</time>
      </trkpt>
      <trkpt lon="76.972113" lat="10.453724">
        <ele>309.0</ele>
        <time>2026-01-20T05:22:19Z</time>
      </trkpt>
      <trkpt lon="76.971975" lat="10.453819">
        <ele>308.0</ele>
        <time>2026-01-20T05:22:21Z</time>
      </trkpt>
      <trkpt lon="76.971876" lat="10.453844">
        <ele>307.0</ele>
        <time>2026-01-20T05:22:22Z</time>
      </trkpt>
      <trkpt lon="76.971795" lat="10.453893">
        <ele>307.0</ele>
        <time>2026-01-20T05:22:23Z</time>
      </trkpt>
      <trkpt lon="76.971718" lat="10.453943">
        <ele>307.0</ele>
        <time>2026-01-20T05:22:24Z</time>
      </trkpt>
      <trkpt lon="76.971593" lat="10.454055">
        <ele>306.0</ele>
        <time>2026-01-20T05:22:26Z</time>
      </trkpt>
      <trkpt lon="76.97153" lat="10.454177">
        <ele>306.0</ele>
        <time>2026-01-20T05:22:28Z</time>
      </trkpt>
      <trkpt lon="76.971566" lat="10.454307">
        <ele>305.0</ele>
        <time>2026-01-20T05:22:30Z</time>
      </trkpt>
      <trkpt lon="76.971608" lat="10.454436">
        <ele>305.0</ele>
        <time>2026-01-20T05:22:32Z</time>
      </trkpt>
      <trkpt lon="76.971619" lat="10.454558">
        <ele>305.0</ele>
        <time>2026-01-20T05:22:34Z</time>
      </trkpt>
      <trkpt lon="76.971579" lat="10.45468">
        <ele>306.0</ele>
        <time>2026-01-20T05:22:36Z</time>
      </trkpt>
      <trkpt lon="76.971486" lat="10.454741">
        <ele>305.0</ele>
        <time>2026-01-20T05:22:38Z</time>
      </trkpt>
      <trkpt lon="76.971341" lat="10.454716">
        <ele>304.0</ele>
        <time>2026-01-20T05:22:40Z</time>
      </trkpt>
      <trkpt lon="76.971261" lat="10.454672">
        <ele>303.0</ele>
        <time>2026-01-20T05:22:41Z</time>
      </trkpt>
      <trkpt lon="76.971139" lat="10.454566">
        <ele>302.0</ele>
        <time>2026-01-20T05:22:43Z</time>
      </trkpt>
      <trkpt lon="76.971041" lat="10.454429">
        <ele>302.0</ele>
        <time>2026-01-20T05:22:45Z</time>
      </trkpt>
      <trkpt lon="76.970953" lat="10.454336">
        <ele>302.0</ele>
        <time>2026-01-20T05:22:47Z</time>
      </trkpt>
      <trkpt lon="76.970839" lat="10.454248">
        <ele>302.0</ele>
        <time>2026-01-20T05:22:49Z</time>
      </trkpt>
      <trkpt lon="76.970723" lat="10.454206">
        <ele>302.0</ele>
        <time>2026-01-20T05:22:51Z</time>
      </trkpt>
      <trkpt lon="76.970612" lat="10.454234">
        <ele>302.0</ele>
        <time>2026-01-20T05:22:54Z</time>
      </trkpt>
      <trkpt lon="76.970467" lat="10.454241">
        <ele>301.0</ele>
        <time>2026-01-20T05:22:57Z</time>
      </trkpt>
      <trkpt lon="76.970339" lat="10.454223">
        <ele>301.0</ele>
        <time>2026-01-20T05:22:59Z</time>
      </trkpt>
      <trkpt lon="76.970242" lat="10.454218">
        <ele>302.0</ele>
        <time>2026-01-20T05:23:01Z</time>
      </trkpt>
      <trkpt lon="76.970145" lat="10.454213">
        <ele>302.0</ele>
        <time>2026-01-20T05:23:04Z</time>
      </trkpt>
      <trkpt lon="76.970005" lat="10.454208">
        <ele>301.0</ele>
        <time>2026-01-20T05:23:07Z</time>
      </trkpt>
      <trkpt lon="76.969876" lat="10.454143">
        <ele>300.0</ele>
        <time>2026-01-20T05:23:09Z</time>
      </trkpt>
      <trkpt lon="76.969709" lat="10.454123">
        <ele>298.0</ele>
        <time>2026-01-20T05:23:11Z</time>
      </trkpt>
      <trkpt lon="76.969532" lat="10.454152">
        <ele>297.0</ele>
        <time>2026-01-20T05:23:13Z</time>
      </trkpt>
      <trkpt lon="76.969442" lat="10.454179">
        <ele>297.0</ele>
        <time>2026-01-20T05:23:14Z</time>
      </trkpt>
      <trkpt lon="76.969291" lat="10.454208">
        <ele>296.0</ele>
        <time>2026-01-20T05:23:16Z</time>
      </trkpt>
      <trkpt lon="76.969194" lat="10.454287">
        <ele>296.0</ele>
        <time>2026-01-20T05:23:18Z</time>
      </trkpt>
      <trkpt lon="76.969168" lat="10.454422">
        <ele>296.0</ele>
        <time>2026-01-20T05:23:20Z</time>
      </trkpt>
      <trkpt lon="76.969219" lat="10.454597">
        <ele>294.0</ele>
        <time>2026-01-20T05:23:22Z</time>
      </trkpt>
      <trkpt lon="76.969251" lat="10.454691">
        <ele>292.0</ele>
        <time>2026-01-20T05:23:23Z</time>
      </trkpt>
      <trkpt lon="76.969288" lat="10.454788">
        <ele>292.0</ele>
        <time>2026-01-20T05:23:24Z</time>
      </trkpt>
      <trkpt lon="76.969326" lat="10.454887">
        <ele>291.0</ele>
        <time>2026-01-20T05:23:25Z</time>
      </trkpt>
      <trkpt lon="76.969373" lat="10.454984">
        <ele>289.0</ele>
        <time>2026-01-20T05:23:26Z</time>
      </trkpt>
      <trkpt lon="76.969429" lat="10.455081">
        <ele>287.0</ele>
        <time>2026-01-20T05:23:27Z</time>
      </trkpt>
      <trkpt lon="76.969481" lat="10.455183">
        <ele>287.0</ele>
        <time>2026-01-20T05:23:28Z</time>
      </trkpt>
      <trkpt lon="76.96953" lat="10.455286">
        <ele>286.0</ele>
        <time>2026-01-20T05:23:29Z</time>
      </trkpt>
      <trkpt lon="76.969583" lat="10.455382">
        <ele>286.0</ele>
        <time>2026-01-20T05:23:30Z</time>
      </trkpt>
      <trkpt lon="76.969635" lat="10.455487">
        <ele>285.0</ele>
        <time>2026-01-20T05:23:31Z</time>
      </trkpt>
      <trkpt lon="76.969679" lat="10.455583">
        <ele>285.0</ele>
        <time>2026-01-20T05:23:32Z</time>
      </trkpt>
      <trkpt lon="76.969725" lat="10.455674">
        <ele>285.0</ele>
        <time>2026-01-20T05:23:33Z</time>
      </trkpt>
      <trkpt lon="76.969774" lat="10.455752">
        <ele>285.0</ele>
        <time>2026-01-20T05:23:34Z</time>
      </trkpt>
      <trkpt lon="76.969878" lat="10.455871">
        <ele>284.0</ele>
        <time>2026-01-20T05:23:36Z</time>
      </trkpt>
      <trkpt lon="76.969945" lat="10.456">
        <ele>283.0</ele>
        <time>2026-01-20T05:23:38Z</time>
      </trkpt>
      <trkpt lon="76.969934" lat="10.456094">
        <ele>282.0</ele>
        <time>2026-01-20T05:23:39Z</time>
      </trkpt>
      <trkpt lon="76.969936" lat="10.456188">
        <ele>283.0</ele>
        <time>2026-01-20T05:23:40Z</time>
      </trkpt>
      <trkpt lon="76.969948" lat="10.456281">
        <ele>283.0</ele>
        <time>2026-01-20T05:23:41Z</time>
      </trkpt>
      <trkpt lon="76.969989" lat="10.456361">
        <ele>283.0</ele>
        <time>2026-01-20T05:23:42Z</time>
      </trkpt>
      <trkpt lon="76.970046" lat="10.456496">
        <ele>282.0</ele>
        <time>2026-01-20T05:23:44Z</time>
      </trkpt>
      <trkpt lon="76.970189" lat="10.456557">
        <ele>280.0</ele>
        <time>2026-01-20T05:23:46Z</time>
      </trkpt>
      <trkpt lon="76.970282" lat="10.456559">
        <ele>280.0</ele>
        <time>2026-01-20T05:23:47Z</time>
      </trkpt>
      <trkpt lon="76.97042" lat="10.456466">
        <ele>278.0</ele>
        <time>2026-01-20T05:23:49Z</time>
      </trkpt>
      <trkpt lon="76.970546" lat="10.456354">
        <ele>275.0</ele>
        <time>2026-01-20T05:23:51Z</time>
      </trkpt>
      <trkpt lon="76.970707" lat="10.456286">
        <ele>273.0</ele>
        <time>2026-01-20T05:23:53Z</time>
      </trkpt>
      <trkpt lon="76.970848" lat="10.45629">
        <ele>271.0</ele>
        <time>2026-01-20T05:23:55Z</time>
      </trkpt>
      <trkpt lon="76.97098" lat="10.456364">
        <ele>270.0</ele>
        <time>2026-01-20T05:23:57Z</time>
      </trkpt>
      <trkpt lon="76.97108" lat="10.456482">
        <ele>269.0</ele>
        <time>2026-01-20T05:23:59Z</time>
      </trkpt>
      <trkpt lon="76.971165" lat="10.456602">
        <ele>268.0</ele>
        <time>2026-01-20T05:24:01Z</time>
      </trkpt>
      <trkpt lon="76.971268" lat="10.456699">
        <ele>268.0</ele>
        <time>2026-01-20T05:24:03Z</time>
      </trkpt>
      <trkpt lon="76.971296" lat="10.456827">
        <ele>266.0</ele>
        <time>2026-01-20T05:24:05Z</time>
      </trkpt>
      <trkpt lon="76.971243" lat="10.456949">
        <ele>266.0</ele>
        <time>2026-01-20T05:24:07Z</time>
      </trkpt>
      <trkpt lon="76.971271" lat="10.45709">
        <ele>266.0</ele>
        <time>2026-01-20T05:24:09Z</time>
      </trkpt>
      <trkpt lon="76.97135" lat="10.4572">
        <ele>266.0</ele>
        <time>2026-01-20T05:24:11Z</time>
      </trkpt>
      <trkpt lon="76.97134" lat="10.457303">
        <ele>264.0</ele>
        <time>2026-01-20T05:24:13Z</time>
      </trkpt>
      <trkpt lon="76.971214" lat="10.457429">
        <ele>262.0</ele>
        <time>2026-01-20T05:24:15Z</time>
      </trkpt>
      <trkpt lon="76.971144" lat="10.457499">
        <ele>261.0</ele>
        <time>2026-01-20T05:24:16Z</time>
      </trkpt>
      <trkpt lon="76.971079" lat="10.457568">
        <ele>260.0</ele>
        <time>2026-01-20T05:24:17Z</time>
      </trkpt>
      <trkpt lon="76.970929" lat="10.457656">
        <ele>259.0</ele>
        <time>2026-01-20T05:24:19Z</time>
      </trkpt>
      <trkpt lon="76.970762" lat="10.457655">
        <ele>258.0</ele>
        <time>2026-01-20T05:24:21Z</time>
      </trkpt>
      <trkpt lon="76.970585" lat="10.457605">
        <ele>257.0</ele>
        <time>2026-01-20T05:24:23Z</time>
      </trkpt>
      <trkpt lon="76.970403" lat="10.457607">
        <ele>256.0</ele>
        <time>2026-01-20T05:24:25Z</time>
      </trkpt>
      <trkpt lon="76.970248" lat="10.457657">
        <ele>255.0</ele>
        <time>2026-01-20T05:24:27Z</time>
      </trkpt>
      <trkpt lon="76.970102" lat="10.457703">
        <ele>254.0</ele>
        <time>2026-01-20T05:24:29Z</time>
      </trkpt>
      <trkpt lon="76.969984" lat="10.457774">
        <ele>254.0</ele>
        <time>2026-01-20T05:24:31Z</time>
      </trkpt>
      <trkpt lon="76.969886" lat="10.457906">
        <ele>252.0</ele>
        <time>2026-01-20T05:24:33Z</time>
      </trkpt>
      <trkpt lon="76.969826" lat="10.45806">
        <ele>250.0</ele>
        <time>2026-01-20T05:24:35Z</time>
      </trkpt>
      <trkpt lon="76.969722" lat="10.458214">
        <ele>249.0</ele>
        <time>2026-01-20T05:24:37Z</time>
      </trkpt>
      <trkpt lon="76.969666" lat="10.458297">
        <ele>247.0</ele>
        <time>2026-01-20T05:24:38Z</time>
      </trkpt>
      <trkpt lon="76.969626" lat="10.458388">
        <ele>247.0</ele>
        <time>2026-01-20T05:24:39Z</time>
      </trkpt>
      <trkpt lon="76.969612" lat="10.458483">
        <ele>247.0</ele>
        <time>2026-01-20T05:24:40Z</time>
      </trkpt>
      <trkpt lon="76.969608" lat="10.458581">
        <ele>247.0</ele>
        <time>2026-01-20T05:24:41Z</time>
      </trkpt>
      <trkpt lon="76.969617" lat="10.45868">
        <ele>246.0</ele>
        <time>2026-01-20T05:24:42Z</time>
      </trkpt>
      <trkpt lon="76.969625" lat="10.458784">
        <ele>246.0</ele>
        <time>2026-01-20T05:24:43Z</time>
      </trkpt>
      <trkpt lon="76.969629" lat="10.458886">
        <ele>246.0</ele>
        <time>2026-01-20T05:24:44Z</time>
      </trkpt>
      <trkpt lon="76.969619" lat="10.458991">
        <ele>245.0</ele>
        <time>2026-01-20T05:24:45Z</time>
      </trkpt>
      <trkpt lon="76.969607" lat="10.4591">
        <ele>244.0</ele>
        <time>2026-01-20T05:24:46Z</time>
      </trkpt>
      <trkpt lon="76.969598" lat="10.459207">
        <ele>244.0</ele>
        <time>2026-01-20T05:24:47Z</time>
      </trkpt>
      <trkpt lon="76.969587" lat="10.45932">
        <ele>243.0</ele>
        <time>2026-01-20T05:24:48Z</time>
      </trkpt>
      <trkpt lon="76.969574" lat="10.459432">
        <ele>242.0</ele>
        <time>2026-01-20T05:24:49Z</time>
      </trkpt>
      <trkpt lon="76.969549" lat="10.459537">
        <ele>240.0</ele>
        <time>2026-01-20T05:24:50Z</time>
      </trkpt>
      <trkpt lon="76.969514" lat="10.459642">
        <ele>239.0</ele>
        <time>2026-01-20T05:24:51Z</time>
      </trkpt>
      <trkpt lon="76.969476" lat="10.459749">
        <ele>239.0</ele>
        <time>2026-01-20T05:24:52Z</time>
      </trkpt>
      <trkpt lon="76.969431" lat="10.459848">
        <ele>238.0</ele>
        <time>2026-01-20T05:24:53Z</time>
      </trkpt>
      <trkpt lon="76.969381" lat="10.459945">
        <ele>238.0</ele>
        <time>2026-01-20T05:24:54Z</time>
      </trkpt>
      <trkpt lon="76.969317" lat="10.460038">
        <ele>237.0</ele>
        <time>2026-01-20T05:24:55Z</time>
      </trkpt>
      <trkpt lon="76.969246" lat="10.460123">
        <ele>236.0</ele>
        <time>2026-01-20T05:24:56Z</time>
      </trkpt>
      <trkpt lon="76.969159" lat="10.460201">
        <ele>236.0</ele>
        <time>2026-01-20T05:24:57Z</time>
      </trkpt>
      <trkpt lon="76.969067" lat="10.460266">
        <ele>235.0</ele>
        <time>2026-01-20T05:24:58Z</time>
      </trkpt>
      <trkpt lon="76.968956" lat="10.460329">
        <ele>234.0</ele>
        <time>2026-01-20T05:24:59Z</time>
      </trkpt>
      <trkpt lon="76.968836" lat="10.460384">
        <ele>234.0</ele>
        <time>2026-01-20T05:25:00Z</time>
      </trkpt>
      <trkpt lon="76.968715" lat="10.460431">
        <ele>233.0</ele>
        <time>2026-01-20T05:25:01Z</time>
      </trkpt>
      <trkpt lon="76.968588" lat="10.460472">
        <ele>233.0</ele>
        <time>2026-01-20T05:25:02Z</time>
      </trkpt>
      <trkpt lon="76.968447" lat="10.460512">
        <ele>233.0</ele>
        <time>2026-01-20T05:25:03Z</time>
      </trkpt>
      <trkpt lon="76.968321" lat="10.460538">
        <ele>233.0</ele>
        <time>2026-01-20T05:25:04Z</time>
      </trkpt>
      <trkpt lon="76.968187" lat="10.460585">
        <ele>228.0</ele>
        <time>2026-01-20T05:25:05Z</time>
      </trkpt>
      <trkpt lon="76.968062" lat="10.460641">
        <ele>226.0</ele>
        <time>2026-01-20T05:25:06Z</time>
      </trkpt>
      <trkpt lon="76.967931" lat="10.460671">
        <ele>225.0</ele>
        <time>2026-01-20T05:25:07Z</time>
      </trkpt>
      <trkpt lon="76.967794" lat="10.460705">
        <ele>224.0</ele>
        <time>2026-01-20T05:25:08Z</time>
      </trkpt>
      <trkpt lon="76.967654" lat="10.460734">
        <ele>224.0</ele>
        <time>2026-01-20T05:25:09Z</time>
      </trkpt>
      <trkpt lon="76.967519" lat="10.460769">
        <ele>223.0</ele>
        <time>2026-01-20T05:25:10Z</time>
      </trkpt>
      <trkpt lon="76.967385" lat="10.460802">
        <ele>224.0</ele>
        <time>2026-01-20T05:25:11Z</time>
      </trkpt>
      <trkpt lon="76.967258" lat="10.460844">
        <ele>224.0</ele>
        <time>2026-01-20T05:25:12Z</time>
      </trkpt>
      <trkpt lon="76.967138" lat="10.460888">
        <ele>224.0</ele>
        <time>2026-01-20T05:25:13Z</time>
      </trkpt>
      <trkpt lon="76.96702" lat="10.460939">
        <ele>224.0</ele>
        <time>2026-01-20T05:25:14Z</time>
      </trkpt>
      <trkpt lon="76.966911" lat="10.461003">
        <ele>223.0</ele>
        <time>2026-01-20T05:25:15Z</time>
      </trkpt>
      <trkpt lon="76.966811" lat="10.461086">
        <ele>223.0</ele>
        <time>2026-01-20T05:25:16Z</time>
      </trkpt>
      <trkpt lon="76.966736" lat="10.46119">
        <ele>222.0</ele>
        <time>2026-01-20T05:25:17Z</time>
      </trkpt>
      <trkpt lon="76.966666" lat="10.461303">
        <ele>222.0</ele>
        <time>2026-01-20T05:25:18Z</time>
      </trkpt>
      <trkpt lon="76.966616" lat="10.461424">
        <ele>222.0</ele>
        <time>2026-01-20T05:25:19Z</time>
      </trkpt>
      <trkpt lon="76.966571" lat="10.461545">
        <ele>222.0</ele>
        <time>2026-01-20T05:25:20Z</time>
      </trkpt>
      <trkpt lon="76.96653" lat="10.461678">
        <ele>223.0</ele>
        <time>2026-01-20T05:25:21Z</time>
      </trkpt>
      <trkpt lon="76.966488" lat="10.461813">
        <ele>223.0</ele>
        <time>2026-01-20T05:25:22Z</time>
      </trkpt>
      <trkpt lon="76.966444" lat="10.461943">
        <ele>224.0</ele>
        <time>2026-01-20T05:25:23Z</time>
      </trkpt>
      <trkpt lon="76.9664" lat="10.462076">
        <ele>225.0</ele>
        <time>2026-01-20T05:25:24Z</time>
      </trkpt>
      <trkpt lon="76.966354" lat="10.462205">
        <ele>226.0</ele>
        <time>2026-01-20T05:25:25Z</time>
      </trkpt>
      <trkpt lon="76.966306" lat="10.462334">
        <ele>227.0</ele>
        <time>2026-01-20T05:25:26Z</time>
      </trkpt>
      <trkpt lon="76.966262" lat="10.462465">
        <ele>227.0</ele>
        <time>2026-01-20T05:25:27Z</time>
      </trkpt>
      <trkpt lon="76.966233" lat="10.462595">
        <ele>227.0</ele>
        <time>2026-01-20T05:25:28Z</time>
      </trkpt>
      <trkpt lon="76.966224" lat="10.462725">
        <ele>227.0</ele>
        <time>2026-01-20T05:25:29Z</time>
      </trkpt>
      <trkpt lon="76.966227" lat="10.462848">
        <ele>227.0</ele>
        <time>2026-01-20T05:25:30Z</time>
      </trkpt>
      <trkpt lon="76.96625" lat="10.462972">
        <ele>228.0</ele>
        <time>2026-01-20T05:25:31Z</time>
      </trkpt>
      <trkpt lon="76.966283" lat="10.463089">
        <ele>228.0</ele>
        <time>2026-01-20T05:25:32Z</time>
      </trkpt>
      <trkpt lon="76.96633" lat="10.463206">
        <ele>227.0</ele>
        <time>2026-01-20T05:25:33Z</time>
      </trkpt>
      <trkpt lon="76.966388" lat="10.463318">
        <ele>227.0</ele>
        <time>2026-01-20T05:25:34Z</time>
      </trkpt>
      <trkpt lon="76.966447" lat="10.46343">
        <ele>227.0</ele>
        <time>2026-01-20T05:25:35Z</time>
      </trkpt>
      <trkpt lon="76.966524" lat="10.463534">
        <ele>227.0</ele>
        <time>2026-01-20T05:25:36Z</time>
      </trkpt>
      <trkpt lon="76.966599" lat="10.463621">
        <ele>227.0</ele>
        <time>2026-01-20T05:25:37Z</time>
      </trkpt>
      <trkpt lon="76.966671" lat="10.463681">
        <ele>228.0</ele>
        <time>2026-01-20T05:25:38Z</time>
      </trkpt>
      <trkpt lon="76.96675" lat="10.46374">
        <ele>227.0</ele>
        <time>2026-01-20T05:25:39Z</time>
      </trkpt>
      <trkpt lon="76.966873" lat="10.463814">
        <ele>227.0</ele>
        <time>2026-01-20T05:25:41Z</time>
      </trkpt>
      <trkpt lon="76.966996" lat="10.463874">
        <ele>227.0</ele>
        <time>2026-01-20T05:25:43Z</time>
      </trkpt>
      <trkpt lon="76.967118" lat="10.463933">
        <ele>227.0</ele>
        <time>2026-01-20T05:25:45Z</time>
      </trkpt>
      <trkpt lon="76.967217" lat="10.464024">
        <ele>228.0</ele>
        <time>2026-01-20T05:25:47Z</time>
      </trkpt>
      <trkpt lon="76.967248" lat="10.464171">
        <ele>228.0</ele>
        <time>2026-01-20T05:25:49Z</time>
      </trkpt>
      <trkpt lon="76.967203" lat="10.464347">
        <ele>229.0</ele>
        <time>2026-01-20T05:25:51Z</time>
      </trkpt>
      <trkpt lon="76.967149" lat="10.464427">
        <ele>228.0</ele>
        <time>2026-01-20T05:25:52Z</time>
      </trkpt>
      <trkpt lon="76.967048" lat="10.464546">
        <ele>226.0</ele>
        <time>2026-01-20T05:25:54Z</time>
      </trkpt>
      <trkpt lon="76.966945" lat="10.464636">
        <ele>225.0</ele>
        <time>2026-01-20T05:25:56Z</time>
      </trkpt>
      <trkpt lon="76.96686" lat="10.464764">
        <ele>224.0</ele>
        <time>2026-01-20T05:25:58Z</time>
      </trkpt>
      <trkpt lon="76.966778" lat="10.464933">
        <ele>225.0</ele>
        <time>2026-01-20T05:26:00Z</time>
      </trkpt>
      <trkpt lon="76.966728" lat="10.465029">
        <ele>225.0</ele>
        <time>2026-01-20T05:26:01Z</time>
      </trkpt>
      <trkpt lon="76.966687" lat="10.465133">
        <ele>225.0</ele>
        <time>2026-01-20T05:26:02Z</time>
      </trkpt>
      <trkpt lon="76.966651" lat="10.465256">
        <ele>225.0</ele>
        <time>2026-01-20T05:26:03Z</time>
      </trkpt>
      <trkpt lon="76.966624" lat="10.465377">
        <ele>225.0</ele>
        <time>2026-01-20T05:26:04Z</time>
      </trkpt>
      <trkpt lon="76.966598" lat="10.465503">
        <ele>225.0</ele>
        <time>2026-01-20T05:26:05Z</time>
      </trkpt>
      <trkpt lon="76.966585" lat="10.465642">
        <ele>225.0</ele>
        <time>2026-01-20T05:26:06Z</time>
      </trkpt>
      <trkpt lon="76.966576" lat="10.465775">
        <ele>225.0</ele>
        <time>2026-01-20T05:26:07Z</time>
      </trkpt>
      <trkpt lon="76.966563" lat="10.46591">
        <ele>226.0</ele>
        <time>2026-01-20T05:26:08Z</time>
      </trkpt>
      <trkpt lon="76.966553" lat="10.466047">
        <ele>227.0</ele>
        <time>2026-01-20T05:26:09Z</time>
      </trkpt>
      <trkpt lon="76.966537" lat="10.466173">
        <ele>227.0</ele>
        <time>2026-01-20T05:26:10Z</time>
      </trkpt>
      <trkpt lon="76.966517" lat="10.466283">
        <ele>228.0</ele>
        <time>2026-01-20T05:26:11Z</time>
      </trkpt>
      <trkpt lon="76.966486" lat="10.466386">
        <ele>228.0</ele>
        <time>2026-01-20T05:26:12Z</time>
      </trkpt>
      <trkpt lon="76.966442" lat="10.466476">
        <ele>227.0</ele>
        <time>2026-01-20T05:26:13Z</time>
      </trkpt>
      <trkpt lon="76.966382" lat="10.466566">
        <ele>227.0</ele>
        <time>2026-01-20T05:26:14Z</time>
      </trkpt>
      <trkpt lon="76.966317" lat="10.466647">
        <ele>228.0</ele>
        <time>2026-01-20T05:26:15Z</time>
      </trkpt>
      <trkpt lon="76.966238" lat="10.466721">
        <ele>228.0</ele>
        <time>2026-01-20T05:26:16Z</time>
      </trkpt>
      <trkpt lon="76.966141" lat="10.466798">
        <ele>227.0</ele>
        <time>2026-01-20T05:26:17Z</time>
      </trkpt>
      <trkpt lon="76.966031" lat="10.466853">
        <ele>226.0</ele>
        <time>2026-01-20T05:26:18Z</time>
      </trkpt>
      <trkpt lon="76.965917" lat="10.466915">
        <ele>226.0</ele>
        <time>2026-01-20T05:26:19Z</time>
      </trkpt>
      <trkpt lon="76.965794" lat="10.466974">
        <ele>226.0</ele>
        <time>2026-01-20T05:26:20Z</time>
      </trkpt>
      <trkpt lon="76.965672" lat="10.467032">
        <ele>225.0</ele>
        <time>2026-01-20T05:26:21Z</time>
      </trkpt>
      <trkpt lon="76.965545" lat="10.467083">
        <ele>224.0</ele>
        <time>2026-01-20T05:26:22Z</time>
      </trkpt>
      <trkpt lon="76.965408" lat="10.467129">
        <ele>223.0</ele>
        <time>2026-01-20T05:26:23Z</time>
      </trkpt>
      <trkpt lon="76.965258" lat="10.467178">
        <ele>223.0</ele>
        <time>2026-01-20T05:26:24Z</time>
      </trkpt>
      <trkpt lon="76.965115" lat="10.467231">
        <ele>224.0</ele>
        <time>2026-01-20T05:26:25Z</time>
      </trkpt>
      <trkpt lon="76.964966" lat="10.467287">
        <ele>224.0</ele>
        <time>2026-01-20T05:26:26Z</time>
      </trkpt>
      <trkpt lon="76.964823" lat="10.467349">
        <ele>226.0</ele>
        <time>2026-01-20T05:26:27Z</time>
      </trkpt>
      <trkpt lon="76.964683" lat="10.467411">
        <ele>226.0</ele>
        <time>2026-01-20T05:26:28Z</time>
      </trkpt>
      <trkpt lon="76.964548" lat="10.467475">
        <ele>226.0</ele>
        <time>2026-01-20T05:26:29Z</time>
      </trkpt>
      <trkpt lon="76.96441" lat="10.46754">
        <ele>226.0</ele>
        <time>2026-01-20T05:26:30Z</time>
      </trkpt>
      <trkpt lon="76.964272" lat="10.467602">
        <ele>226.0</ele>
        <time>2026-01-20T05:26:31Z</time>
      </trkpt>
      <trkpt lon="76.964145" lat="10.467657">
        <ele>227.0</ele>
        <time>2026-01-20T05:26:32Z</time>
      </trkpt>
      <trkpt lon="76.964017" lat="10.467706">
        <ele>227.0</ele>
        <time>2026-01-20T05:26:33Z</time>
      </trkpt>
      <trkpt lon="76.96389" lat="10.46776">
        <ele>228.0</ele>
        <time>2026-01-20T05:26:34Z</time>
      </trkpt>
      <trkpt lon="76.963762" lat="10.467804">
        <ele>228.0</ele>
        <time>2026-01-20T05:26:35Z</time>
      </trkpt>
      <trkpt lon="76.963633" lat="10.467859">
        <ele>228.0</ele>
        <time>2026-01-20T05:26:36Z</time>
      </trkpt>
      <trkpt lon="76.963511" lat="10.467915">
        <ele>227.0</ele>
        <time>2026-01-20T05:26:37Z</time>
      </trkpt>
      <trkpt lon="76.963392" lat="10.467984">
        <ele>228.0</ele>
        <time>2026-01-20T05:26:38Z</time>
      </trkpt>
      <trkpt lon="76.963287" lat="10.46807">
        <ele>228.0</ele>
        <time>2026-01-20T05:26:39Z</time>
      </trkpt>
      <trkpt lon="76.963191" lat="10.468167">
        <ele>229.0</ele>
        <time>2026-01-20T05:26:40Z</time>
      </trkpt>
      <trkpt lon="76.96311" lat="10.468255">
        <ele>229.0</ele>
        <time>2026-01-20T05:26:41Z</time>
      </trkpt>
      <trkpt lon="76.963028" lat="10.468341">
        <ele>229.0</ele>
        <time>2026-01-20T05:26:42Z</time>
      </trkpt>
      <trkpt lon="76.962938" lat="10.468414">
        <ele>229.0</ele>
        <time>2026-01-20T05:26:43Z</time>
      </trkpt>
      <trkpt lon="76.962842" lat="10.46848">
        <ele>229.0</ele>
        <time>2026-01-20T05:26:44Z</time>
      </trkpt>
      <trkpt lon="76.962746" lat="10.468534">
        <ele>229.0</ele>
        <time>2026-01-20T05:26:45Z</time>
      </trkpt>
      <trkpt lon="76.962636" lat="10.468568">
        <ele>229.0</ele>
        <time>2026-01-20T05:26:46Z</time>
      </trkpt>
      <trkpt lon="76.962528" lat="10.468594">
        <ele>230.0</ele>
        <time>2026-01-20T05:26:47Z</time>
      </trkpt>
      <trkpt lon="76.962419" lat="10.468608">
        <ele>230.0</ele>
        <time>2026-01-20T05:26:48Z</time>
      </trkpt>
      <trkpt lon="76.96231" lat="10.468602">
        <ele>230.0</ele>
        <time>2026-01-20T05:26:49Z</time>
      </trkpt>
      <trkpt lon="76.962204" lat="10.468571">
        <ele>229.0</ele>
        <time>2026-01-20T05:26:50Z</time>
      </trkpt>
      <trkpt lon="76.962093" lat="10.468528">
        <ele>230.0</ele>
        <time>2026-01-20T05:26:51Z</time>
      </trkpt>
      <trkpt lon="76.961983" lat="10.468489">
        <ele>230.0</ele>
        <time>2026-01-20T05:26:52Z</time>
      </trkpt>
      <trkpt lon="76.961872" lat="10.468465">
        <ele>229.0</ele>
        <time>2026-01-20T05:26:53Z</time>
      </trkpt>
      <trkpt lon="76.961754" lat="10.468452">
        <ele>229.0</ele>
        <time>2026-01-20T05:26:54Z</time>
      </trkpt>
      <trkpt lon="76.961621" lat="10.468456">
        <ele>228.0</ele>
        <time>2026-01-20T05:26:55Z</time>
      </trkpt>
      <trkpt lon="76.961491" lat="10.468478">
        <ele>228.0</ele>
        <time>2026-01-20T05:26:56Z</time>
      </trkpt>
      <trkpt lon="76.96136" lat="10.46849">
        <ele>228.0</ele>
        <time>2026-01-20T05:26:57Z</time>
      </trkpt>
      <trkpt lon="76.961227" lat="10.468518">
        <ele>229.0</ele>
        <time>2026-01-20T05:26:58Z</time>
      </trkpt>
      <trkpt lon="76.961091" lat="10.468544">
        <ele>229.0</ele>
        <time>2026-01-20T05:26:59Z</time>
      </trkpt>
      <trkpt lon="76.960952" lat="10.468572">
        <ele>229.0</ele>
        <time>2026-01-20T05:27:00Z</time>
      </trkpt>
      <trkpt lon="76.960815" lat="10.468599">
        <ele>229.0</ele>
        <time>2026-01-20T05:27:01Z</time>
      </trkpt>
      <trkpt lon="76.960678" lat="10.468625">
        <ele>229.0</ele>
        <time>2026-01-20T05:27:02Z</time>
      </trkpt>
      <trkpt lon="76.960535" lat="10.468653">
        <ele>230.0</ele>
        <time>2026-01-20T05:27:03Z</time>
      </trkpt>
      <trkpt lon="76.960389" lat="10.468678">
        <ele>230.0</ele>
        <time>2026-01-20T05:27:04Z</time>
      </trkpt>
      <trkpt lon="76.960243" lat="10.468696">
        <ele>230.0</ele>
        <time>2026-01-20T05:27:05Z</time>
      </trkpt>
      <trkpt lon="76.960097" lat="10.468716">
        <ele>229.0</ele>
        <time>2026-01-20T05:27:06Z</time>
      </trkpt>
      <trkpt lon="76.959962" lat="10.468736">
        <ele>229.0</ele>
        <time>2026-01-20T05:27:07Z</time>
      </trkpt>
      <trkpt lon="76.959838" lat="10.468755">
        <ele>229.0</ele>
        <time>2026-01-20T05:27:08Z</time>
      </trkpt>
      <trkpt lon="76.959721" lat="10.468769">
        <ele>229.0</ele>
        <time>2026-01-20T05:27:09Z</time>
      </trkpt>
      <trkpt lon="76.959607" lat="10.468785">
        <ele>229.0</ele>
        <time>2026-01-20T05:27:10Z</time>
      </trkpt>
      <trkpt lon="76.959506" lat="10.468797">
        <ele>229.0</ele>
        <time>2026-01-20T05:27:11Z</time>
      </trkpt>
      <trkpt lon="76.959414" lat="10.468806">
        <ele>229.0</ele>
        <time>2026-01-20T05:27:12Z</time>
      </trkpt>
      <trkpt lon="76.959322" lat="10.468816">
        <ele>229.0</ele>
        <time>2026-01-20T05:27:13Z</time>
      </trkpt>
      <trkpt lon="76.95923" lat="10.468823">
        <ele>229.0</ele>
        <time>2026-01-20T05:27:14Z</time>
      </trkpt>
      <trkpt lon="76.959132" lat="10.468829">
        <ele>229.0</ele>
        <time>2026-01-20T05:27:15Z</time>
      </trkpt>
      <trkpt lon="76.959032" lat="10.468839">
        <ele>229.0</ele>
        <time>2026-01-20T05:27:16Z</time>
      </trkpt>
      <trkpt lon="76.958937" lat="10.46885">
        <ele>230.0</ele>
        <time>2026-01-20T05:27:17Z</time>
      </trkpt>
      <trkpt lon="76.958794" lat="10.468856">
        <ele>229.0</ele>
        <time>2026-01-20T05:27:19Z</time>
      </trkpt>
      <trkpt lon="76.958655" lat="10.468853">
        <ele>230.0</ele>
        <time>2026-01-20T05:27:21Z</time>
      </trkpt>
      <trkpt lon="76.958491" lat="10.468841">
        <ele>231.0</ele>
        <time>2026-01-20T05:27:23Z</time>
      </trkpt>
      <trkpt lon="76.958305" lat="10.468831">
        <ele>231.0</ele>
        <time>2026-01-20T05:27:25Z</time>
      </trkpt>
      <trkpt lon="76.958201" lat="10.468844">
        <ele>231.0</ele>
        <time>2026-01-20T05:27:26Z</time>
      </trkpt>
      <trkpt lon="76.958095" lat="10.468871">
        <ele>232.0</ele>
        <time>2026-01-20T05:27:27Z</time>
      </trkpt>
      <trkpt lon="76.957987" lat="10.468923">
        <ele>231.0</ele>
        <time>2026-01-20T05:27:28Z</time>
      </trkpt>
      <trkpt lon="76.957888" lat="10.468989">
        <ele>231.0</ele>
        <time>2026-01-20T05:27:29Z</time>
      </trkpt>
      <trkpt lon="76.957796" lat="10.469052">
        <ele>232.0</ele>
        <time>2026-01-20T05:27:30Z</time>
      </trkpt>
      <trkpt lon="76.957703" lat="10.469109">
        <ele>232.0</ele>
        <time>2026-01-20T05:27:31Z</time>
      </trkpt>
      <trkpt lon="76.95761" lat="10.469165">
        <ele>232.0</ele>
        <time>2026-01-20T05:27:32Z</time>
      </trkpt>
      <trkpt lon="76.957508" lat="10.469207">
        <ele>233.0</ele>
        <time>2026-01-20T05:27:33Z</time>
      </trkpt>
      <trkpt lon="76.957408" lat="10.469245">
        <ele>233.0</ele>
        <time>2026-01-20T05:27:34Z</time>
      </trkpt>
      <trkpt lon="76.957314" lat="10.469276">
        <ele>233.0</ele>
        <time>2026-01-20T05:27:35Z</time>
      </trkpt>
      <trkpt lon="76.957156" lat="10.469353">
        <ele>233.0</ele>
        <time>2026-01-20T05:27:37Z</time>
      </trkpt>
      <trkpt lon="76.957048" lat="10.469496">
        <ele>233.0</ele>
        <time>2026-01-20T05:27:39Z</time>
      </trkpt>
      <trkpt lon="76.95701" lat="10.469591">
        <ele>232.0</ele>
        <time>2026-01-20T05:27:40Z</time>
      </trkpt>
      <trkpt lon="76.956967" lat="10.46969">
        <ele>232.0</ele>
        <time>2026-01-20T05:27:41Z</time>
      </trkpt>
      <trkpt lon="76.956932" lat="10.469784">
        <ele>232.0</ele>
        <time>2026-01-20T05:27:42Z</time>
      </trkpt>
      <trkpt lon="76.956898" lat="10.469872">
        <ele>232.0</ele>
        <time>2026-01-20T05:27:43Z</time>
      </trkpt>
      <trkpt lon="76.956845" lat="10.470016">
        <ele>233.0</ele>
        <time>2026-01-20T05:27:45Z</time>
      </trkpt>
      <trkpt lon="76.956793" lat="10.470157">
        <ele>233.0</ele>
        <time>2026-01-20T05:27:47Z</time>
      </trkpt>
      <trkpt lon="76.956739" lat="10.470319">
        <ele>233.0</ele>
        <time>2026-01-20T05:27:49Z</time>
      </trkpt>
      <trkpt lon="76.956701" lat="10.470406">
        <ele>233.0</ele>
        <time>2026-01-20T05:27:50Z</time>
      </trkpt>
      <trkpt lon="76.956665" lat="10.4705">
        <ele>233.0</ele>
        <time>2026-01-20T05:27:51Z</time>
      </trkpt>
      <trkpt lon="76.956624" lat="10.470586">
        <ele>233.0</ele>
        <time>2026-01-20T05:27:52Z</time>
      </trkpt>
      <trkpt lon="76.956534" lat="10.470729">
        <ele>232.0</ele>
        <time>2026-01-20T05:27:54Z</time>
      </trkpt>
      <trkpt lon="76.956442" lat="10.470851">
        <ele>232.0</ele>
        <time>2026-01-20T05:27:56Z</time>
      </trkpt>
      <trkpt lon="76.956377" lat="10.470944">
        <ele>232.0</ele>
        <time>2026-01-20T05:27:58Z</time>
      </trkpt>
      <trkpt lon="76.956326" lat="10.471023">
        <ele>232.0</ele>
        <time>2026-01-20T05:28:00Z</time>
      </trkpt>
      <trkpt lon="76.956266" lat="10.471116">
        <ele>232.0</ele>
        <time>2026-01-20T05:28:03Z</time>
      </trkpt>
      <trkpt lon="76.956178" lat="10.47118">
        <ele>232.0</ele>
        <time>2026-01-20T05:29:38Z</time>
      </trkpt>
      <trkpt lon="76.956071" lat="10.471274">
        <ele>232.0</ele>
        <time>2026-01-20T05:29:40Z</time>
      </trkpt>
      <trkpt lon="76.95596" lat="10.471411">
        <ele>232.0</ele>
        <time>2026-01-20T05:29:42Z</time>
      </trkpt>
      <trkpt lon="76.955893" lat="10.471494">
        <ele>232.0</ele>
        <time>2026-01-20T05:29:43Z</time>
      </trkpt>
      <trkpt lon="76.955819" lat="10.471587">
        <ele>233.0</ele>
        <time>2026-01-20T05:29:44Z</time>
      </trkpt>
      <trkpt lon="76.955737" lat="10.47169">
        <ele>232.0</ele>
        <time>2026-01-20T05:29:45Z</time>
      </trkpt>
      <trkpt lon="76.955647" lat="10.471798">
        <ele>233.0</ele>
        <time>2026-01-20T05:29:46Z</time>
      </trkpt>
      <trkpt lon="76.955552" lat="10.471905">
        <ele>232.0</ele>
        <time>2026-01-20T05:29:47Z</time>
      </trkpt>
      <trkpt lon="76.955446" lat="10.472016">
        <ele>232.0</ele>
        <time>2026-01-20T05:29:48Z</time>
      </trkpt>
      <trkpt lon="76.955334" lat="10.472126">
        <ele>232.0</ele>
        <time>2026-01-20T05:29:49Z</time>
      </trkpt>
      <trkpt lon="76.955217" lat="10.472237">
        <ele>232.0</ele>
        <time>2026-01-20T05:29:50Z</time>
      </trkpt>
      <trkpt lon="76.9551" lat="10.47234">
        <ele>231.0</ele>
        <time>2026-01-20T05:29:51Z</time>
      </trkpt>
      <trkpt lon="76.954984" lat="10.472436">
        <ele>231.0</ele>
        <time>2026-01-20T05:29:52Z</time>
      </trkpt>
      <trkpt lon="76.954874" lat="10.47252">
        <ele>231.0</ele>
        <time>2026-01-20T05:29:53Z</time>
      </trkpt>
      <trkpt lon="76.954772" lat="10.472592">
        <ele>231.0</ele>
        <time>2026-01-20T05:29:54Z</time>
      </trkpt>
      <trkpt lon="76.954673" lat="10.472658">
        <ele>231.0</ele>
        <time>2026-01-20T05:29:55Z</time>
      </trkpt>
      <trkpt lon="76.954583" lat="10.472708">
        <ele>231.0</ele>
        <time>2026-01-20T05:29:56Z</time>
      </trkpt>
      <trkpt lon="76.954503" lat="10.472757">
        <ele>231.0</ele>
        <time>2026-01-20T05:29:57Z</time>
      </trkpt>
      <trkpt lon="76.954377" lat="10.472837">
        <ele>231.0</ele>
        <time>2026-01-20T05:29:59Z</time>
      </trkpt>
      <trkpt lon="76.954277" lat="10.4729">
        <ele>230.0</ele>
        <time>2026-01-20T05:30:01Z</time>
      </trkpt>
      <trkpt lon="76.954185" lat="10.472953">
        <ele>231.0</ele>
        <time>2026-01-20T05:30:03Z</time>
      </trkpt>
      <trkpt lon="76.954084" lat="10.473026">
        <ele>232.0</ele>
        <time>2026-01-20T05:30:05Z</time>
      </trkpt>
      <trkpt lon="76.953987" lat="10.473073">
        <ele>231.0</ele>
        <time>2026-01-20T05:30:07Z</time>
      </trkpt>
      <trkpt lon="76.95389" lat="10.473123">
        <ele>232.0</ele>
        <time>2026-01-20T05:30:09Z</time>
      </trkpt>
      <trkpt lon="76.95379" lat="10.473182">
        <ele>231.0</ele>
        <time>2026-01-20T05:30:11Z</time>
      </trkpt>
      <trkpt lon="76.953642" lat="10.473279">
        <ele>230.0</ele>
        <time>2026-01-20T05:30:13Z</time>
      </trkpt>
      <trkpt lon="76.953564" lat="10.473336">
        <ele>230.0</ele>
        <time>2026-01-20T05:30:14Z</time>
      </trkpt>
      <trkpt lon="76.953481" lat="10.473393">
        <ele>230.0</ele>
        <time>2026-01-20T05:30:15Z</time>
      </trkpt>
      <trkpt lon="76.953396" lat="10.473449">
        <ele>230.0</ele>
        <time>2026-01-20T05:30:16Z</time>
      </trkpt>
      <trkpt lon="76.953314" lat="10.473517">
        <ele>230.0</ele>
        <time>2026-01-20T05:30:17Z</time>
      </trkpt>
      <trkpt lon="76.953238" lat="10.473605">
        <ele>230.0</ele>
        <time>2026-01-20T05:30:18Z</time>
      </trkpt>
      <trkpt lon="76.953175" lat="10.473692">
        <ele>230.0</ele>
        <time>2026-01-20T05:30:19Z</time>
      </trkpt>
      <trkpt lon="76.953124" lat="10.473785">
        <ele>230.0</ele>
        <time>2026-01-20T05:30:20Z</time>
      </trkpt>
      <trkpt lon="76.953083" lat="10.47388">
        <ele>230.0</ele>
        <time>2026-01-20T05:30:21Z</time>
      </trkpt>
      <trkpt lon="76.953056" lat="10.473971">
        <ele>230.0</ele>
        <time>2026-01-20T05:30:22Z</time>
      </trkpt>
      <trkpt lon="76.953045" lat="10.474063">
        <ele>230.0</ele>
        <time>2026-01-20T05:30:23Z</time>
      </trkpt>
      <trkpt lon="76.953037" lat="10.474162">
        <ele>230.0</ele>
        <time>2026-01-20T05:30:24Z</time>
      </trkpt>
      <trkpt lon="76.953031" lat="10.474254">
        <ele>229.0</ele>
        <time>2026-01-20T05:30:25Z</time>
      </trkpt>
      <trkpt lon="76.953013" lat="10.474439">
        <ele>229.0</ele>
        <time>2026-01-20T05:30:27Z</time>
      </trkpt>
      <trkpt lon="76.952991" lat="10.47462">
        <ele>229.0</ele>
        <time>2026-01-20T05:30:29Z</time>
      </trkpt>
      <trkpt lon="76.952971" lat="10.474794">
        <ele>229.0</ele>
        <time>2026-01-20T05:30:31Z</time>
      </trkpt>
      <trkpt lon="76.952961" lat="10.474886">
        <ele>229.0</ele>
        <time>2026-01-20T05:30:32Z</time>
      </trkpt>
      <trkpt lon="76.952953" lat="10.475026">
        <ele>228.0</ele>
        <time>2026-01-20T05:30:34Z</time>
      </trkpt>
      <trkpt lon="76.952905" lat="10.475127">
        <ele>227.0</ele>
        <time>2026-01-20T05:30:37Z</time>
      </trkpt>
      <trkpt lon="76.952838" lat="10.475197">
        <ele>225.0</ele>
        <time>2026-01-20T05:30:41Z</time>
      </trkpt>
      <trkpt lon="76.952899" lat="10.475117">
        <ele>246.0</ele>
        <time>2026-01-20T05:31:13Z</time>
      </trkpt>
      <trkpt lon="76.952955" lat="10.475041">
        <ele>246.0</ele>
        <time>2026-01-20T05:31:22Z</time>
      </trkpt>
      <trkpt lon="76.952986" lat="10.474934">
        <ele>246.0</ele>
        <time>2026-01-20T05:31:25Z</time>
      </trkpt>
      <trkpt lon="76.952998" lat="10.474829">
        <ele>246.0</ele>
        <time>2026-01-20T05:31:27Z</time>
      </trkpt>
      <trkpt lon="76.953007" lat="10.474723">
        <ele>246.0</ele>
        <time>2026-01-20T05:31:29Z</time>
      </trkpt>
      <trkpt lon="76.953006" lat="10.474632">
        <ele>246.0</ele>
        <time>2026-01-20T05:31:31Z</time>
      </trkpt>
      <trkpt lon="76.953008" lat="10.474526">
        <ele>245.0</ele>
        <time>2026-01-20T05:31:35Z</time>
      </trkpt>
      <trkpt lon="76.95309" lat="10.474578">
        <ele>245.0</ele>
        <time>2026-01-20T05:31:42Z</time>
      </trkpt>
    </trkseg>
  </trk>
</gpx>
